Wetterdaten: Montag, 12.12.2016
Datum Zeit Temp. A. Temp. A. max Feuchte A. Luftdruck Regen Wind Richtung Richtung Sonnenschein ET UV Solar Taupunkt Windböen
12.12.2016 00:00 2,3 °C 2,3 °C 90 % 1024,3 hPa 0,0 mm 7,6 km/h (2 Bft) W-SW 240 ° 0 min 0,000 mm 0,0 UV-I 0 W/m² 0,8 °C 12,9 km/h (3 Bft)
12.12.2016 00:01 2,3 °C 2,3 °C 90 % 1024,3 hPa 0,0 mm 5,8 km/h (2 Bft) S 181 ° 0 min 0,000 mm 0,0 UV-I 0 W/m² 0,8 °C 8,0 km/h (2 Bft)
12.12.2016 00:02 2,3 °C 2,3 °C 90 % 1024,3 hPa 0,0 mm 3,5 km/h (1 Bft) SW 236 ° 0 min 0,000 mm 0,0 UV-I 0 W/m² 0,8 °C 8,0 km/h (2 Bft)
12.12.2016 00:03 2,3 °C 2,3 °C 90 % 1024,3 hPa 0,0 mm 7,2 km/h (2 Bft) SW 232 ° 0 min 0,000 mm 0,0 UV-I 0 W/m² 0,8 °C 11,3 km/h (2 Bft)
12.12.2016 00:04 2,3 °C 2,3 °C 90 % 1024,3 hPa 0,0 mm 7,0 km/h (2 Bft) S 184 ° 0 min 0,000 mm 0,0 UV-I 0 W/m² 0,8 °C 11,3 km/h (2 Bft)
12.12.2016 00:05 2,3 °C 2,3 °C 90 % 1024,3 hPa 0,0 mm 3,8 km/h (1 Bft) S 191 ° 0 min 0,000 mm 0,0 UV-I 0 W/m² 0,8 °C 6,4 km/h (2 Bft)
12.12.2016 00:06 2,2 °C 2,3 °C 90 % 1024,3 hPa 0,0 mm 4,7 km/h (1 Bft) W-SW 247 ° 0 min 0,000 mm 0,0 UV-I 0 W/m² 0,7 °C 6,4 km/h (2 Bft)
12.12.2016 00:07 2,2 °C 2,3 °C 90 % 1024,3 hPa 0,0 mm 3,8 km/h (1 Bft) W-NW 285 ° 0 min 0,000 mm 0,0 UV-I 0 W/m² 0,7 °C 11,3 km/h (2 Bft)
12.12.2016 00:08 2,3 °C 2,3 °C 90 % 1024,3 hPa 0,0 mm 4,9 km/h (1 Bft) S 179 ° 0 min 0,000 mm 0,0 UV-I 0 W/m² 0,8 °C 8,0 km/h (2 Bft)
12.12.2016 00:09 2,2 °C 2,3 °C 90 % 1024,4 hPa 0,0 mm 3,2 km/h (1 Bft) W-SW 254 ° 0 min 0,000 mm 0,0 UV-I 0 W/m² 0,7 °C 4,8 km/h (1 Bft)
12.12.2016 00:10 2,2 °C 2,2 °C 90 % 1024,4 hPa 0,0 mm 6,3 km/h (2 Bft) SW 229 ° 0 min 0,000 mm 0,0 UV-I 0 W/m² 0,7 °C 9,7 km/h (2 Bft)
12.12.2016 00:11 2,2 °C 2,2 °C 90 % 1024,4 hPa 0,0 mm 4,0 km/h (1 Bft) W-SW 240 ° 0 min 0,000 mm 0,0 UV-I 0 W/m² 0,7 °C 6,4 km/h (2 Bft)
12.12.2016 00:12 2,2 °C 2,2 °C 90 % 1024,4 hPa 0,0 mm 4,4 km/h (1 Bft) W-SW 246 ° 0 min 0,000 mm 0,0 UV-I 0 W/m² 0,7 °C 8,0 km/h (2 Bft)
12.12.2016 00:13 2,2 °C 2,2 °C 90 % 1024,4 hPa 0,0 mm 12,2 km/h (2 Bft) W 275 ° 0 min 0,000 mm 0,0 UV-I 0 W/m² 0,7 °C 19,3 km/h (3 Bft)
12.12.2016 00:14 2,2 °C 2,2 °C 90 % 1024,4 hPa 0,0 mm 6,9 km/h (2 Bft) W-SW 257 ° 0 min 0,000 mm 0,0 UV-I 0 W/m² 0,7 °C 9,7 km/h (2 Bft)
12.12.2016 00:15 2,2 °C 2,2 °C 90 % 1024,4 hPa 0,0 mm 7,4 km/h (2 Bft) W-SW 246 ° 0 min 0,000 mm 0,0 UV-I 0 W/m² 0,7 °C 12,9 km/h (3 Bft)
12.12.2016 00:16 2,2 °C 2,2 °C 90 % 1024,4 hPa 0,0 mm 5,1 km/h (1 Bft) S-SW 207 ° 0 min 0,000 mm 0,0 UV-I 0 W/m² 0,7 °C 8,0 km/h (2 Bft)
12.12.2016 00:17 2,2 °C 2,2 °C 90 % 1024,3 hPa 0,0 mm 3,8 km/h (1 Bft) SW 227 ° 0 min 0,000 mm 0,0 UV-I 0 W/m² 0,7 °C 4,8 km/h (1 Bft)
12.12.2016 00:18 2,2 °C 2,2 °C 90 % 1024,3 hPa 0,0 mm 8,4 km/h (2 Bft) S-SW 211 ° 0 min 0,000 mm 0,0 UV-I 0 W/m² 0,7 °C 14,5 km/h (3 Bft)
12.12.2016 00:19 2,2 °C 2,2 °C 90 % 1024,3 hPa 0,0 mm 6,4 km/h (2 Bft) W 263 ° 0 min 0,000 mm 0,0 UV-I 0 W/m² 0,7 °C 12,9 km/h (3 Bft)
12.12.2016 00:20 2,2 °C 2,2 °C 90 % 1024,2 hPa 0,0 mm 8,6 km/h (2 Bft) S-SO 159 ° 0 min 0,000 mm 0,0 UV-I 0 W/m² 0,7 °C 11,3 km/h (2 Bft)
12.12.2016 00:21 2,2 °C 2,2 °C 89 % 1024,2 hPa 0,0 mm 5,3 km/h (1 Bft) SW 225 ° 0 min 0,000 mm 0,0 UV-I 0 W/m² 0,6 °C 8,0 km/h (2 Bft)
12.12.2016 00:22 2,2 °C 2,2 °C 89 % 1024,2 hPa 0,0 mm 6,0 km/h (2 Bft) S-SW 210 ° 0 min 0,000 mm 0,0 UV-I 0 W/m² 0,6 °C 11,3 km/h (2 Bft)
12.12.2016 00:23 2,2 °C 2,2 °C 89 % 1024,2 hPa 0,0 mm 7,4 km/h (2 Bft) S-SW 211 ° 0 min 0,000 mm 0,0 UV-I 0 W/m² 0,6 °C 12,9 km/h (3 Bft)
12.12.2016 00:24 2,2 °C 2,2 °C 89 % 1024,2 hPa 0,0 mm 5,8 km/h (2 Bft) S-SW 200 ° 0 min 0,000 mm 0,0 UV-I 0 W/m² 0,6 °C 9,7 km/h (2 Bft)
12.12.2016 00:25 2,2 °C 2,2 °C 89 % 1024,2 hPa 0,0 mm 6,9 km/h (2 Bft) W-SW 240 ° 0 min 0,000 mm 0,0 UV-I 0 W/m² 0,6 °C 11,3 km/h (2 Bft)
12.12.2016 00:26 2,2 °C 2,2 °C 89 % 1024,2 hPa 0,0 mm 7,0 km/h (2 Bft) SW 231 ° 0 min 0,000 mm 0,0 UV-I 0 W/m² 0,6 °C 11,3 km/h (2 Bft)
12.12.2016 00:27 2,2 °C 2,2 °C 89 % 1024,2 hPa 0,0 mm 6,7 km/h (2 Bft) SW 229 ° 0 min 0,000 mm 0,0 UV-I 0 W/m² 0,6 °C 14,5 km/h (3 Bft)
12.12.2016 00:28 2,2 °C 2,2 °C 89 % 1024,2 hPa 0,0 mm 6,2 km/h (2 Bft) W-SW 246 ° 0 min 0,000 mm 0,0 UV-I 0 W/m² 0,6 °C 8,0 km/h (2 Bft)
12.12.2016 00:29 2,2 °C 2,2 °C 89 % 1024,1 hPa 0,0 mm 6,2 km/h (2 Bft) W-SW 254 ° 0 min 0,000 mm 0,0 UV-I 0 W/m² 0,6 °C 9,7 km/h (2 Bft)
12.12.2016 00:30 2,2 °C 2,2 °C 89 % 1024,2 hPa 0,0 mm 5,9 km/h (2 Bft) W-SW 246 ° 0 min 0,000 mm 0,0 UV-I 0 W/m² 0,6 °C 16,1 km/h (3 Bft)
12.12.2016 00:31 2,2 °C 2,2 °C 89 % 1024,2 hPa 0,0 mm 5,7 km/h (1 Bft) SW 229 ° 0 min 0,000 mm 0,0 UV-I 0 W/m² 0,6 °C 12,9 km/h (3 Bft)
12.12.2016 00:32 2,2 °C 2,2 °C 89 % 1024,1 hPa 0,0 mm 6,0 km/h (2 Bft) W-SW 249 ° 0 min 0,000 mm 0,0 UV-I 0 W/m² 0,6 °C 8,0 km/h (2 Bft)
12.12.2016 00:33 2,2 °C 2,2 °C 89 % 1024,1 hPa 0,0 mm 7,4 km/h (2 Bft) SW 229 ° 0 min 0,000 mm 0,0 UV-I 0 W/m² 0,6 °C 11,3 km/h (2 Bft)
12.12.2016 00:34 2,2 °C 2,2 °C 89 % 1024,1 hPa 0,0 mm 8,1 km/h (2 Bft) S 184 ° 0 min 0,000 mm 0,0 UV-I 0 W/m² 0,6 °C 14,5 km/h (3 Bft)
12.12.2016 00:35 2,2 °C 2,2 °C 89 % 1024,0 hPa 0,0 mm 3,4 km/h (1 Bft) S-SO 157 ° 0 min 0,000 mm 0,0 UV-I 0 W/m² 0,6 °C 6,4 km/h (2 Bft)
12.12.2016 00:36 2,2 °C 2,2 °C 89 % 1024,1 hPa 0,0 mm 4,5 km/h (1 Bft) S-SW 207 ° 0 min 0,000 mm 0,0 UV-I 0 W/m² 0,6 °C 8,0 km/h (2 Bft)
12.12.2016 00:37 2,2 °C 2,2 °C 89 % 1024,1 hPa 0,0 mm 6,8 km/h (2 Bft) W 259 ° 0 min 0,000 mm 0,0 UV-I 0 W/m² 0,6 °C 12,9 km/h (3 Bft)
12.12.2016 00:38 2,2 °C 2,2 °C 89 % 1024,0 hPa 0,0 mm 6,6 km/h (2 Bft) W-SW 254 ° 0 min 0,000 mm 0,0 UV-I 0 W/m² 0,6 °C 11,3 km/h (2 Bft)
12.12.2016 00:39 2,2 °C 2,2 °C 89 % 1024,0 hPa 0,0 mm 4,8 km/h (1 Bft) W-SW 246 ° 0 min 0,000 mm 0,0 UV-I 0 W/m² 0,6 °C 8,0 km/h (2 Bft)
12.12.2016 00:40 2,2 °C 2,2 °C 89 % 1024,0 hPa 0,0 mm 7,2 km/h (2 Bft) W-SW 256 ° 0 min 0,000 mm 0,0 UV-I 0 W/m² 0,6 °C 11,3 km/h (2 Bft)
12.12.2016 00:41 2,2 °C 2,2 °C 89 % 1024,0 hPa 0,0 mm 4,4 km/h (1 Bft) W-SW 247 ° 0 min 0,000 mm 0,0 UV-I 0 W/m² 0,6 °C 6,4 km/h (2 Bft)
12.12.2016 00:42 2,2 °C 2,2 °C 89 % 1024,0 hPa 0,0 mm 4,8 km/h (1 Bft) W-SW 243 ° 0 min 0,000 mm 0,0 UV-I 0 W/m² 0,6 °C 8,0 km/h (2 Bft)
12.12.2016 00:43 2,2 °C 2,2 °C 89 % 1024,0 hPa 0,0 mm 3,3 km/h (1 Bft) W 272 ° 0 min 0,000 mm 0,0 UV-I 0 W/m² 0,6 °C 9,7 km/h (2 Bft)
12.12.2016 00:44 2,2 °C 2,2 °C 89 % 1024,0 hPa 0,0 mm 7,9 km/h (2 Bft) W 265 ° 0 min 0,000 mm 0,0 UV-I 0 W/m² 0,6 °C 11,3 km/h (2 Bft)
12.12.2016 00:45 2,2 °C 2,2 °C 89 % 1024,0 hPa 0,0 mm 7,8 km/h (2 Bft) SW 236 ° 0 min 0,000 mm 0,0 UV-I 0 W/m² 0,6 °C 12,9 km/h (3 Bft)
12.12.2016 00:46 2,2 °C 2,2 °C 89 % 1024,0 hPa 0,0 mm 6,6 km/h (2 Bft) S-SW 203 ° 0 min 0,000 mm 0,0 UV-I 0 W/m² 0,6 °C 11,3 km/h (2 Bft)
12.12.2016 00:47 2,2 °C 2,2 °C 89 % 1024,0 hPa 0,0 mm 4,6 km/h (1 Bft) W-NW 296 ° 0 min 0,000 mm 0,0 UV-I 0 W/m² 0,6 °C 6,4 km/h (2 Bft)
12.12.2016 00:48 2,2 °C 2,2 °C 89 % 1024,0 hPa 0,0 mm 8,9 km/h (2 Bft) W 266 ° 0 min 0,000 mm 0,0 UV-I 0 W/m² 0,6 °C 12,9 km/h (3 Bft)
12.12.2016 00:49 2,2 °C 2,2 °C 89 % 1024,0 hPa 0,0 mm 6,9 km/h (2 Bft) SW 231 ° 0 min 0,000 mm 0,0 UV-I 0 W/m² 0,6 °C 11,3 km/h (2 Bft)
12.12.2016 00:50 2,2 °C 2,2 °C 89 % 1023,9 hPa 0,0 mm 6,8 km/h (2 Bft) W 266 ° 0 min 0,000 mm 0,0 UV-I 0 W/m² 0,6 °C 11,3 km/h (2 Bft)
12.12.2016 00:51 2,2 °C 2,2 °C 89 % 1024,0 hPa 0,0 mm 7,2 km/h (2 Bft) W-SW 254 ° 0 min 0,000 mm 0,0 UV-I 0 W/m² 0,6 °C 11,3 km/h (2 Bft)
12.12.2016 00:52 2,2 °C 2,2 °C 89 % 1024,0 hPa 0,0 mm 4,7 km/h (1 Bft) W 275 ° 0 min 0,000 mm 0,0 UV-I 0 W/m² 0,6 °C 6,4 km/h (2 Bft)
12.12.2016 00:53 2,2 °C 2,2 °C 89 % 1024,1 hPa 0,0 mm 7,4 km/h (2 Bft) SW 236 ° 0 min 0,000 mm 0,0 UV-I 0 W/m² 0,6 °C 11,3 km/h (2 Bft)
12.12.2016 00:54 2,2 °C 2,2 °C 89 % 1024,0 hPa 0,0 mm 8,4 km/h (2 Bft) W-SW 253 ° 0 min 0,000 mm 0,0 UV-I 0 W/m² 0,6 °C 12,9 km/h (3 Bft)
12.12.2016 00:55 2,2 °C 2,2 °C 89 % 1024,0 hPa 0,0 mm 5,7 km/h (1 Bft) W-SW 246 ° 0 min 0,000 mm 0,0 UV-I 0 W/m² 0,6 °C 6,4 km/h (2 Bft)
12.12.2016 00:56 2,2 °C 2,2 °C 89 % 1024,0 hPa 0,0 mm 10,8 km/h (2 Bft) W 261 ° 0 min 0,000 mm 0,0 UV-I 0 W/m² 0,6 °C 16,1 km/h (3 Bft)
12.12.2016 00:57 2,2 °C 2,2 °C 89 % 1024,0 hPa 0,0 mm 9,0 km/h (2 Bft) W 265 ° 0 min 0,000 mm 0,0 UV-I 0 W/m² 0,6 °C 14,5 km/h (3 Bft)
12.12.2016 00:58 2,2 °C 2,2 °C 89 % 1024,0 hPa 0,0 mm 5,9 km/h (2 Bft) W-SW 250 ° 0 min 0,000 mm 0,0 UV-I 0 W/m² 0,6 °C 8,0 km/h (2 Bft)
12.12.2016 00:59 2,2 °C 2,2 °C 89 % 1024,0 hPa 0,0 mm 5,2 km/h (1 Bft) W-SW 253 ° 0 min 0,000 mm 0,0 UV-I 0 W/m² 0,6 °C 8,0 km/h (2 Bft)
12.12.2016 01:00 2,2 °C 2,2 °C 89 % 1024,0 hPa 0,0 mm 6,0 km/h (2 Bft) W-SW 255 ° 0 min 0,000 mm 0,0 UV-I 0 W/m² 0,6 °C 12,9 km/h (3 Bft)
12.12.2016 01:01 2,2 °C 2,2 °C 89 % 1024,0 hPa 0,0 mm 11,9 km/h (2 Bft) W-SW 257 ° 0 min 0,000 mm 0,0 UV-I 0 W/m² 0,6 °C 14,5 km/h (3 Bft)
12.12.2016 01:02 2,2 °C 2,2 °C 89 % 1024,0 hPa 0,0 mm 8,7 km/h (2 Bft) W-SW 250 ° 0 min 0,000 mm 0,0 UV-I 0 W/m² 0,6 °C 11,3 km/h (2 Bft)
12.12.2016 01:03 2,2 °C 2,2 °C 89 % 1024,0 hPa 0,0 mm 5,5 km/h (1 Bft) W 267 ° 0 min 0,000 mm 0,0 UV-I 0 W/m² 0,6 °C 9,7 km/h (2 Bft)
12.12.2016 01:04 2,2 °C 2,2 °C 89 % 1024,0 hPa 0,0 mm 4,9 km/h (1 Bft) W-SW 255 ° 0 min 0,000 mm 0,0 UV-I 0 W/m² 0,6 °C 9,7 km/h (2 Bft)
12.12.2016 01:05 2,2 °C 2,2 °C 89 % 1024,0 hPa 0,0 mm 5,4 km/h (1 Bft) W 273 ° 0 min 0,000 mm 0,0 UV-I 0 W/m² 0,6 °C 9,7 km/h (2 Bft)
12.12.2016 01:06 2,2 °C 2,2 °C 89 % 1024,0 hPa 0,0 mm 6,8 km/h (2 Bft) SW 229 ° 0 min 0,000 mm 0,0 UV-I 0 W/m² 0,6 °C 11,3 km/h (2 Bft)
12.12.2016 01:07 2,2 °C 2,2 °C 89 % 1024,0 hPa 0,0 mm 5,3 km/h (1 Bft) W-SW 252 ° 0 min 0,000 mm 0,0 UV-I 0 W/m² 0,6 °C 8,0 km/h (2 Bft)
12.12.2016 01:08 2,2 °C 2,2 °C 89 % 1024,0 hPa 0,0 mm 5,6 km/h (1 Bft) W-NW 292 ° 0 min 0,000 mm 0,0 UV-I 0 W/m² 0,6 °C 6,4 km/h (2 Bft)
12.12.2016 01:09 2,2 °C 2,2 °C 89 % 1024,0 hPa 0,0 mm 4,7 km/h (1 Bft) SW 236 ° 0 min 0,000 mm 0,0 UV-I 0 W/m² 0,6 °C 8,0 km/h (2 Bft)
12.12.2016 01:10 2,2 °C 2,2 °C 89 % 1024,0 hPa 0,0 mm 5,5 km/h (1 Bft) W-SW 254 ° 0 min 0,000 mm 0,0 UV-I 0 W/m² 0,6 °C 8,0 km/h (2 Bft)
12.12.2016 01:11 2,1 °C 2,2 °C 89 % 1023,9 hPa 0,0 mm 11,0 km/h (2 Bft) SW 235 ° 0 min 0,000 mm 0,0 UV-I 0 W/m² 0,5 °C 19,3 km/h (3 Bft)
12.12.2016 01:12 2,1 °C 2,2 °C 89 % 1023,9 hPa 0,0 mm 9,6 km/h (2 Bft) W-SW 238 ° 0 min 0,000 mm 0,0 UV-I 0 W/m² 0,5 °C 17,7 km/h (3 Bft)
12.12.2016 01:13 2,1 °C 2,2 °C 89 % 1023,9 hPa 0,0 mm 6,0 km/h (2 Bft) W 265 ° 0 min 0,000 mm 0,0 UV-I 0 W/m² 0,5 °C 9,7 km/h (2 Bft)
12.12.2016 01:14 2,1 °C 2,1 °C 90 % 1023,9 hPa 0,2 mm 10,6 km/h (2 Bft) W-SW 237 ° 0 min 0,000 mm 0,0 UV-I 0 W/m² 0,6 °C 14,5 km/h (3 Bft)
12.12.2016 01:15 2,1 °C 2,1 °C 90 % 1023,8 hPa 0,0 mm 9,1 km/h (2 Bft) W 267 ° 0 min 0,000 mm 0,0 UV-I 0 W/m² 0,6 °C 14,5 km/h (3 Bft)
12.12.2016 01:16 2,1 °C 2,1 °C 90 % 1023,8 hPa 0,0 mm 8,4 km/h (2 Bft) S-SW 209 ° 0 min 0,000 mm 0,0 UV-I 0 W/m² 0,6 °C 11,3 km/h (2 Bft)
12.12.2016 01:17 2,1 °C 2,1 °C 90 % 1023,8 hPa 0,0 mm 8,0 km/h (2 Bft) W 267 ° 0 min 0,000 mm 0,0 UV-I 0 W/m² 0,6 °C 12,9 km/h (3 Bft)
12.12.2016 01:18 2,1 °C 2,1 °C 90 % 1023,9 hPa 0,0 mm 11,5 km/h (2 Bft) W 269 ° 0 min 0,000 mm 0,0 UV-I 0 W/m² 0,6 °C 16,1 km/h (3 Bft)
12.12.2016 01:19 2,1 °C 2,1 °C 90 % 1023,9 hPa 0,0 mm 6,2 km/h (2 Bft) W-SW 253 ° 0 min 0,000 mm 0,0 UV-I 0 W/m² 0,6 °C 11,3 km/h (2 Bft)
12.12.2016 01:20 2,1 °C 2,1 °C 90 % 1023,8 hPa 0,0 mm 10,1 km/h (2 Bft) W-SW 248 ° 0 min 0,000 mm 0,0 UV-I 0 W/m² 0,6 °C 12,9 km/h (3 Bft)
12.12.2016 01:21 2,0 °C 2,1 °C 90 % 1023,8 hPa 0,0 mm 7,6 km/h (2 Bft) W-SW 241 ° 0 min 0,000 mm 0,0 UV-I 0 W/m² 0,5 °C 12,9 km/h (3 Bft)
12.12.2016 01:22 2,0 °C 2,1 °C 90 % 1023,9 hPa 0,0 mm 12,3 km/h (3 Bft) W-SW 243 ° 0 min 0,000 mm 0,0 UV-I 0 W/m² 0,5 °C 14,5 km/h (3 Bft)
12.12.2016 01:23 2,0 °C 2,0 °C 90 % 1023,9 hPa 0,0 mm 4,5 km/h (1 Bft) W-SW 246 ° 0 min 0,000 mm 0,0 UV-I 0 W/m² 0,5 °C 8,0 km/h (2 Bft)
12.12.2016 01:24 2,0 °C 2,0 °C 90 % 1023,9 hPa 0,0 mm 7,5 km/h (2 Bft) W 264 ° 0 min 0,000 mm 0,0 UV-I 0 W/m² 0,5 °C 12,9 km/h (3 Bft)
12.12.2016 01:25 2,0 °C 2,0 °C 90 % 1023,9 hPa 0,0 mm 11,7 km/h (2 Bft) W 265 ° 0 min 0,000 mm 0,0 UV-I 0 W/m² 0,5 °C 16,1 km/h (3 Bft)
12.12.2016 01:26 1,9 °C 2,0 °C 90 % 1023,9 hPa 0,0 mm 12,2 km/h (2 Bft) W 274 ° 0 min 0,000 mm 0,0 UV-I 0 W/m² 0,4 °C 19,3 km/h (3 Bft)
12.12.2016 01:27 1,9 °C 2,0 °C 90 % 1023,9 hPa 0,0 mm 6,3 km/h (2 Bft) W-SW 256 ° 0 min 0,000 mm 0,0 UV-I 0 W/m² 0,4 °C 8,0 km/h (2 Bft)
12.12.2016 01:28 1,9 °C 1,9 °C 90 % 1024,0 hPa 0,0 mm 5,9 km/h (2 Bft) W 275 ° 0 min 0,000 mm 0,0 UV-I 0 W/m² 0,4 °C 14,5 km/h (3 Bft)
12.12.2016 01:29 1,9 °C 1,9 °C 90 % 1024,0 hPa 0,0 mm 14,3 km/h (3 Bft) W-SW 257 ° 0 min 0,000 mm 0,0 UV-I 0 W/m² 0,4 °C 20,9 km/h (4 Bft)
12.12.2016 01:30 1,9 °C 1,9 °C 90 % 1024,0 hPa 0,0 mm 12,4 km/h (3 Bft) W-NW 292 ° 0 min 0,000 mm 0,0 UV-I 0 W/m² 0,4 °C 16,1 km/h (3 Bft)
12.12.2016 01:31 1,9 °C 1,9 °C 90 % 1024,0 hPa 0,2 mm 11,3 km/h (2 Bft) W 261 ° 0 min 0,000 mm 0,0 UV-I 0 W/m² 0,4 °C 22,5 km/h (4 Bft)
12.12.2016 01:32 1,9 °C 1,9 °C 90 % 1024,0 hPa 0,0 mm 15,6 km/h (3 Bft) W 277 ° 0 min 0,000 mm 0,0 UV-I 0 W/m² 0,4 °C 20,9 km/h (4 Bft)
12.12.2016 01:33 1,9 °C 1,9 °C 90 % 1024,0 hPa 0,0 mm 12,7 km/h (3 Bft) W-SW 239 ° 0 min 0,000 mm 0,0 UV-I 0 W/m² 0,4 °C 16,1 km/h (3 Bft)
12.12.2016 01:34 1,9 °C 1,9 °C 90 % 1024,0 hPa 0,0 mm 10,5 km/h (2 Bft) W-SW 255 ° 0 min 0,000 mm 0,0 UV-I 0 W/m² 0,4 °C 16,1 km/h (3 Bft)
12.12.2016 01:35 1,9 °C 1,9 °C 90 % 1024,0 hPa 0,0 mm 10,9 km/h (2 Bft) W-SW 253 ° 0 min 0,000 mm 0,0 UV-I 0 W/m² 0,4 °C 14,5 km/h (3 Bft)
12.12.2016 01:36 1,9 °C 1,9 °C 90 % 1024,1 hPa 0,0 mm 12,3 km/h (3 Bft) W-SW 257 ° 0 min 0,000 mm 0,0 UV-I 0 W/m² 0,4 °C 16,1 km/h (3 Bft)
12.12.2016 01:37 1,9 °C 1,9 °C 90 % 1024,0 hPa 0,0 mm 10,0 km/h (2 Bft) W 263 ° 0 min 0,000 mm 0,0 UV-I 0 W/m² 0,4 °C 14,5 km/h (3 Bft)
12.12.2016 01:38 1,8 °C 1,9 °C 90 % 1024,1 hPa 0,0 mm 7,1 km/h (2 Bft) W-SW 254 ° 0 min 0,000 mm 0,0 UV-I 0 W/m² 0,3 °C 9,7 km/h (2 Bft)
12.12.2016 01:39 1,9 °C 1,9 °C 90 % 1024,1 hPa 0,0 mm 12,3 km/h (3 Bft) W-SW 243 ° 0 min 0,000 mm 0,0 UV-I 0 W/m² 0,4 °C 16,1 km/h (3 Bft)
12.12.2016 01:40 1,8 °C 1,9 °C 91 % 1024,0 hPa 0,0 mm 11,9 km/h (2 Bft) W-SW 244 ° 0 min 0,000 mm 0,0 UV-I 0 W/m² 0,5 °C 14,5 km/h (3 Bft)
12.12.2016 01:41 1,8 °C 1,9 °C 91 % 1023,8 hPa 0,0 mm 5,1 km/h (1 Bft) W 265 ° 0 min 0,000 mm 0,0 UV-I 0 W/m² 0,5 °C 9,7 km/h (2 Bft)
12.12.2016 01:42 1,8 °C 1,8 °C 91 % 1023,8 hPa 0,0 mm 11,6 km/h (2 Bft) SW 232 ° 0 min 0,000 mm 0,0 UV-I 0 W/m² 0,5 °C 14,5 km/h (3 Bft)
12.12.2016 01:43 1,8 °C 1,8 °C 91 % 1023,8 hPa 0,0 mm 11,7 km/h (2 Bft) W-SW 257 ° 0 min 0,000 mm 0,0 UV-I 0 W/m² 0,5 °C 24,1 km/h (4 Bft)
12.12.2016 01:44 1,8 °C 1,8 °C 91 % 1023,7 hPa 0,0 mm 7,3 km/h (2 Bft) SW 229 ° 0 min 0,000 mm 0,0 UV-I 0 W/m² 0,5 °C 11,3 km/h (2 Bft)
12.12.2016 01:45 1,8 °C 1,8 °C 91 % 1023,7 hPa 0,0 mm 3,8 km/h (1 Bft) W-SW 247 ° 0 min 0,000 mm 0,0 UV-I 0 W/m² 0,5 °C 6,4 km/h (2 Bft)
12.12.2016 01:46 1,8 °C 1,8 °C 91 % 1023,7 hPa 0,0 mm 10,3 km/h (2 Bft) W-SW 247 ° 0 min 0,000 mm 0,0 UV-I 0 W/m² 0,5 °C 14,5 km/h (3 Bft)
12.12.2016 01:47 1,8 °C 1,8 °C 91 % 1023,7 hPa 0,0 mm 12,4 km/h (3 Bft) S-SW 192 ° 0 min 0,000 mm 0,0 UV-I 0 W/m² 0,5 °C 17,7 km/h (3 Bft)
12.12.2016 01:48 1,8 °C 1,8 °C 91 % 1023,7 hPa 0,0 mm 12,2 km/h (2 Bft) W 275 ° 0 min 0,000 mm 0,0 UV-I 0 W/m² 0,5 °C 16,1 km/h (3 Bft)
12.12.2016 01:49 1,8 °C 1,8 °C 91 % 1023,6 hPa 0,0 mm 11,5 km/h (2 Bft) W-SW 238 ° 0 min 0,000 mm 0,0 UV-I 0 W/m² 0,5 °C 17,7 km/h (3 Bft)
12.12.2016 01:50 1,8 °C 1,8 °C 91 % 1023,5 hPa 0,0 mm 9,6 km/h (2 Bft) SW 220 ° 0 min 0,000 mm 0,0 UV-I 0 W/m² 0,5 °C 17,7 km/h (3 Bft)
12.12.2016 01:51 1,8 °C 1,8 °C 91 % 1023,5 hPa 0,0 mm 6,8 km/h (2 Bft) S-SW 207 ° 0 min 0,000 mm 0,0 UV-I 0 W/m² 0,5 °C 9,7 km/h (2 Bft)
12.12.2016 01:52 1,8 °C 1,8 °C 91 % 1023,5 hPa 0,0 mm 4,8 km/h (1 Bft) S 184 ° 0 min 0,000 mm 0,0 UV-I 0 W/m² 0,5 °C 6,4 km/h (2 Bft)
12.12.2016 01:53 1,8 °C 1,8 °C 91 % 1023,5 hPa 0,2 mm 4,6 km/h (1 Bft) SW 216 ° 0 min 0,000 mm 0,0 UV-I 0 W/m² 0,5 °C 12,9 km/h (3 Bft)
12.12.2016 01:54 1,8 °C 1,8 °C 91 % 1023,5 hPa 0,0 mm 10,1 km/h (2 Bft) W 276 ° 0 min 0,000 mm 0,0 UV-I 0 W/m² 0,5 °C 19,3 km/h (3 Bft)
12.12.2016 01:55 1,8 °C 1,8 °C 91 % 1023,6 hPa 0,0 mm 8,2 km/h (2 Bft) W 272 ° 0 min 0,000 mm 0,0 UV-I 0 W/m² 0,5 °C 17,7 km/h (3 Bft)
12.12.2016 01:56 1,7 °C 1,8 °C 91 % 1023,7 hPa 0,0 mm 8,6 km/h (2 Bft) W-SW 248 ° 0 min 0,000 mm 0,0 UV-I 0 W/m² 0,4 °C 12,9 km/h (3 Bft)
12.12.2016 01:57 1,8 °C 1,8 °C 91 % 1023,7 hPa 0,0 mm 10,0 km/h (2 Bft) W-SW 244 ° 0 min 0,000 mm 0,0 UV-I 0 W/m² 0,5 °C 16,1 km/h (3 Bft)
12.12.2016 01:58 1,7 °C 1,8 °C 91 % 1023,7 hPa 0,0 mm 8,0 km/h (2 Bft) W 259 ° 0 min 0,000 mm 0,0 UV-I 0 W/m² 0,4 °C 12,9 km/h (3 Bft)
12.12.2016 01:59 1,7 °C 1,8 °C 91 % 1023,8 hPa 0,0 mm 10,9 km/h (2 Bft) W-SW 258 ° 0 min 0,000 mm 0,0 UV-I 0 W/m² 0,4 °C 14,5 km/h (3 Bft)
12.12.2016 02:00 1,7 °C 1,7 °C 91 % 1023,8 hPa 0,0 mm 8,5 km/h (2 Bft) W 277 ° 0 min 0,000 mm 0,0 UV-I 0 W/m² 0,4 °C 16,1 km/h (3 Bft)
12.12.2016 02:01 1,8 °C 1,8 °C 91 % 1023,9 hPa 0,0 mm 5,1 km/h (1 Bft) W-NW 283 ° 0 min 0,000 mm 0,0 UV-I 0 W/m² 0,5 °C 6,4 km/h (2 Bft)
12.12.2016 02:02 1,7 °C 1,8 °C 91 % 1023,9 hPa 0,0 mm 5,6 km/h (1 Bft) W-NW 295 ° 0 min 0,000 mm 0,0 UV-I 0 W/m² 0,4 °C 9,7 km/h (2 Bft)
12.12.2016 02:03 1,7 °C 1,7 °C 91 % 1023,9 hPa 0,0 mm 7,6 km/h (2 Bft) W-SW 255 ° 0 min 0,000 mm 0,0 UV-I 0 W/m² 0,4 °C 12,9 km/h (3 Bft)
12.12.2016 02:04 1,7 °C 1,7 °C 91 % 1023,9 hPa 0,0 mm 8,6 km/h (2 Bft) W 259 ° 0 min 0,000 mm 0,0 UV-I 0 W/m² 0,4 °C 12,9 km/h (3 Bft)
12.12.2016 02:05 1,7 °C 1,7 °C 91 % 1024,0 hPa 0,0 mm 7,4 km/h (2 Bft) W 274 ° 0 min 0,000 mm 0,0 UV-I 0 W/m² 0,4 °C 12,9 km/h (3 Bft)
12.12.2016 02:06 1,7 °C 1,7 °C 91 % 1024,0 hPa 0,0 mm 6,6 km/h (2 Bft) W 264 ° 0 min 0,000 mm 0,0 UV-I 0 W/m² 0,4 °C 11,3 km/h (2 Bft)
12.12.2016 02:07 1,7 °C 1,7 °C 91 % 1024,0 hPa 0,0 mm 6,3 km/h (2 Bft) W 277 ° 0 min 0,000 mm 0,0 UV-I 0 W/m² 0,4 °C 11,3 km/h (2 Bft)
12.12.2016 02:08 1,7 °C 1,7 °C 91 % 1024,0 hPa 0,0 mm 5,6 km/h (1 Bft) W-NW 286 ° 0 min 0,000 mm 0,0 UV-I 0 W/m² 0,4 °C 9,7 km/h (2 Bft)
12.12.2016 02:09 1,7 °C 1,7 °C 91 % 1024,0 hPa 0,0 mm 9,6 km/h (2 Bft) W 274 ° 0 min 0,000 mm 0,0 UV-I 0 W/m² 0,4 °C 14,5 km/h (3 Bft)
12.12.2016 02:10 1,7 °C 1,7 °C 91 % 1024,0 hPa 0,0 mm 7,2 km/h (2 Bft) W 271 ° 0 min 0,000 mm 0,0 UV-I 0 W/m² 0,4 °C 11,3 km/h (2 Bft)
12.12.2016 02:11 1,7 °C 1,7 °C 91 % 1024,0 hPa 0,0 mm 6,2 km/h (2 Bft) W-SW 242 ° 0 min 0,000 mm 0,0 UV-I 0 W/m² 0,4 °C 11,3 km/h (2 Bft)
12.12.2016 02:12 1,7 °C 1,7 °C 91 % 1024,0 hPa 0,0 mm 7,0 km/h (2 Bft) W-SW 247 ° 0 min 0,000 mm 0,0 UV-I 0 W/m² 0,4 °C 11,3 km/h (2 Bft)
12.12.2016 02:13 1,7 °C 1,7 °C 91 % 1024,0 hPa 0,0 mm 10,7 km/h (2 Bft) W-SW 248 ° 0 min 0,000 mm 0,0 UV-I 0 W/m² 0,4 °C 16,1 km/h (3 Bft)
12.12.2016 02:14 1,7 °C 1,7 °C 92 % 1024,0 hPa 0,0 mm 8,3 km/h (2 Bft) W 261 ° 0 min 0,000 mm 0,0 UV-I 0 W/m² 0,5 °C 12,9 km/h (3 Bft)
12.12.2016 02:15 1,7 °C 1,7 °C 92 % 1024,0 hPa 0,0 mm 7,1 km/h (2 Bft) W-SW 252 ° 0 min 0,000 mm 0,0 UV-I 0 W/m² 0,5 °C 11,3 km/h (2 Bft)
12.12.2016 02:16 1,6 °C 1,7 °C 92 % 1024,0 hPa 0,0 mm 5,8 km/h (2 Bft) W 265 ° 0 min 0,000 mm 0,0 UV-I 0 W/m² 0,4 °C 9,7 km/h (2 Bft)
12.12.2016 02:17 1,6 °C 1,7 °C 92 % 1024,0 hPa 0,0 mm 8,0 km/h (2 Bft) W-SW 258 ° 0 min 0,000 mm 0,0 UV-I 0 W/m² 0,4 °C 11,3 km/h (2 Bft)
12.12.2016 02:18 1,7 °C 1,7 °C 92 % 1023,9 hPa 0,2 mm 7,3 km/h (2 Bft) W-SW 254 ° 0 min 0,000 mm 0,0 UV-I 0 W/m² 0,5 °C 12,9 km/h (3 Bft)
12.12.2016 02:19 1,6 °C 1,7 °C 92 % 1023,9 hPa 0,0 mm 8,9 km/h (2 Bft) W-SW 254 ° 0 min 0,000 mm 0,0 UV-I 0 W/m² 0,4 °C 12,9 km/h (3 Bft)
12.12.2016 02:20 1,7 °C 1,7 °C 92 % 1023,9 hPa 0,0 mm 6,8 km/h (2 Bft) W-SW 258 ° 0 min 0,000 mm 0,0 UV-I 0 W/m² 0,5 °C 11,3 km/h (2 Bft)
12.12.2016 02:21 1,7 °C 1,7 °C 92 % 1023,8 hPa 0,0 mm 4,6 km/h (1 Bft) W-SW 253 ° 0 min 0,000 mm 0,0 UV-I 0 W/m² 0,5 °C 8,0 km/h (2 Bft)
12.12.2016 02:22 1,6 °C 1,7 °C 92 % 1023,8 hPa 0,0 mm 4,7 km/h (1 Bft) SW 229 ° 0 min 0,000 mm 0,0 UV-I 0 W/m² 0,4 °C 9,7 km/h (2 Bft)
12.12.2016 02:23 1,6 °C 1,6 °C 92 % 1023,8 hPa 0,0 mm 9,5 km/h (2 Bft) W 281 ° 0 min 0,000 mm 0,0 UV-I 0 W/m² 0,4 °C 14,5 km/h (3 Bft)
12.12.2016 02:24 1,6 °C 1,6 °C 92 % 1023,8 hPa 0,0 mm 9,9 km/h (2 Bft) W-SW 249 ° 0 min 0,000 mm 0,0 UV-I 0 W/m² 0,4 °C 17,7 km/h (3 Bft)
12.12.2016 02:25 1,6 °C 1,6 °C 92 % 1023,8 hPa 0,0 mm 4,5 km/h (1 Bft) W-SW 257 ° 0 min 0,000 mm 0,0 UV-I 0 W/m² 0,4 °C 6,4 km/h (2 Bft)
12.12.2016 02:26 1,6 °C 1,6 °C 92 % 1023,8 hPa 0,0 mm 6,2 km/h (2 Bft) W-SW 257 ° 0 min 0,000 mm 0,0 UV-I 0 W/m² 0,4 °C 8,0 km/h (2 Bft)
12.12.2016 02:27 1,6 °C 1,6 °C 92 % 1023,8 hPa 0,0 mm 4,0 km/h (1 Bft) W-SW 244 ° 0 min 0,000 mm 0,0 UV-I 0 W/m² 0,4 °C 6,4 km/h (2 Bft)
12.12.2016 02:28 1,6 °C 1,6 °C 92 % 1023,8 hPa 0,0 mm 6,0 km/h (2 Bft) W 268 ° 0 min 0,000 mm 0,0 UV-I 0 W/m² 0,4 °C 11,3 km/h (2 Bft)
12.12.2016 02:29 1,6 °C 1,6 °C 92 % 1023,8 hPa 0,0 mm 9,5 km/h (2 Bft) W-SW 238 ° 0 min 0,000 mm 0,0 UV-I 0 W/m² 0,4 °C 14,5 km/h (3 Bft)
12.12.2016 02:30 1,6 °C 1,6 °C 92 % 1023,8 hPa 0,0 mm 5,0 km/h (1 Bft) W-SW 244 ° 0 min 0,000 mm 0,0 UV-I 0 W/m² 0,4 °C 6,4 km/h (2 Bft)
12.12.2016 02:31 1,6 °C 1,6 °C 92 % 1023,9 hPa 0,0 mm 9,3 km/h (2 Bft) W 273 ° 0 min 0,000 mm 0,0 UV-I 0 W/m² 0,4 °C 12,9 km/h (3 Bft)
12.12.2016 02:32 1,6 °C 1,6 °C 92 % 1023,8 hPa 0,0 mm 4,6 km/h (1 Bft) W 263 ° 0 min 0,000 mm 0,0 UV-I 0 W/m² 0,4 °C 4,8 km/h (1 Bft)
12.12.2016 02:33 1,6 °C 1,6 °C 92 % 1023,9 hPa 0,0 mm 6,6 km/h (2 Bft) W 263 ° 0 min 0,000 mm 0,0 UV-I 0 W/m² 0,4 °C 11,3 km/h (2 Bft)
12.12.2016 02:34 1,6 °C 1,6 °C 92 % 1023,8 hPa 0,0 mm 12,2 km/h (2 Bft) W-SW 254 ° 0 min 0,000 mm 0,0 UV-I 0 W/m² 0,4 °C 16,1 km/h (3 Bft)
12.12.2016 02:35 1,6 °C 1,6 °C 92 % 1023,8 hPa 0,0 mm 12,6 km/h (3 Bft) W 270 ° 0 min 0,000 mm 0,0 UV-I 0 W/m² 0,4 °C 16,1 km/h (3 Bft)
12.12.2016 02:36 1,6 °C 1,6 °C 92 % 1023,8 hPa 0,0 mm 6,3 km/h (2 Bft) W 273 ° 0 min 0,000 mm 0,0 UV-I 0 W/m² 0,4 °C 11,3 km/h (2 Bft)
12.12.2016 02:37 1,6 °C 1,6 °C 92 % 1023,8 hPa 0,0 mm 3,9 km/h (1 Bft) W 270 ° 0 min 0,000 mm 0,0 UV-I 0 W/m² 0,4 °C 6,4 km/h (2 Bft)
12.12.2016 02:38 1,6 °C 1,6 °C 92 % 1023,8 hPa 0,0 mm 6,1 km/h (2 Bft) W-SW 255 ° 0 min 0,000 mm 0,0 UV-I 0 W/m² 0,4 °C 11,3 km/h (2 Bft)
12.12.2016 02:39 1,6 °C 1,7 °C 92 % 1023,8 hPa 0,0 mm 10,0 km/h (2 Bft) W-SW 246 ° 0 min 0,000 mm 0,0 UV-I 0 W/m² 0,4 °C 14,5 km/h (3 Bft)
12.12.2016 02:40 1,6 °C 1,6 °C 92 % 1023,8 hPa 0,0 mm 5,7 km/h (1 Bft) W-SW 237 ° 0 min 0,000 mm 0,0 UV-I 0 W/m² 0,4 °C 9,7 km/h (2 Bft)
12.12.2016 02:41 1,6 °C 1,7 °C 92 % 1023,8 hPa 0,0 mm 6,3 km/h (2 Bft) W-SW 240 ° 0 min 0,000 mm 0,0 UV-I 0 W/m² 0,4 °C 11,3 km/h (2 Bft)
12.12.2016 02:42 1,7 °C 1,7 °C 92 % 1023,8 hPa 0,0 mm 9,9 km/h (2 Bft) W 262 ° 0 min 0,000 mm 0,0 UV-I 0 W/m² 0,5 °C 14,5 km/h (3 Bft)
12.12.2016 02:43 1,6 °C 1,7 °C 92 % 1023,8 hPa 0,0 mm 4,6 km/h (1 Bft) W-SW 253 ° 0 min 0,000 mm 0,0 UV-I 0 W/m² 0,4 °C 8,0 km/h (2 Bft)
12.12.2016 02:44 1,7 °C 1,7 °C 92 % 1023,8 hPa 0,0 mm 6,7 km/h (2 Bft) W 261 ° 0 min 0,000 mm 0,0 UV-I 0 W/m² 0,5 °C 9,7 km/h (2 Bft)
12.12.2016 02:45 1,7 °C 1,7 °C 92 % 1023,8 hPa 0,0 mm 5,1 km/h (1 Bft) W-SW 254 ° 0 min 0,000 mm 0,0 UV-I 0 W/m² 0,5 °C 6,4 km/h (2 Bft)
12.12.2016 02:46 1,7 °C 1,7 °C 92 % 1023,8 hPa 0,0 mm 9,9 km/h (2 Bft) W-NW 284 ° 0 min 0,000 mm 0,0 UV-I 0 W/m² 0,5 °C 16,1 km/h (3 Bft)
12.12.2016 02:47 1,7 °C 1,7 °C 92 % 1023,8 hPa 0,0 mm 6,8 km/h (2 Bft) W 259 ° 0 min 0,000 mm 0,0 UV-I 0 W/m² 0,5 °C 9,7 km/h (2 Bft)
12.12.2016 02:48 1,7 °C 1,7 °C 92 % 1023,8 hPa 0,0 mm 5,6 km/h (1 Bft) W 269 ° 0 min 0,000 mm 0,0 UV-I 0 W/m² 0,5 °C 9,7 km/h (2 Bft)
12.12.2016 02:49 1,7 °C 1,7 °C 92 % 1023,9 hPa 0,0 mm 6,6 km/h (2 Bft) W-SW 254 ° 0 min 0,000 mm 0,0 UV-I 0 W/m² 0,5 °C 12,9 km/h (3 Bft)
12.12.2016 02:50 1,7 °C 1,7 °C 92 % 1023,8 hPa 0,0 mm 6,1 km/h (2 Bft) W 261 ° 0 min 0,000 mm 0,0 UV-I 0 W/m² 0,5 °C 9,7 km/h (2 Bft)
12.12.2016 02:51 1,7 °C 1,7 °C 92 % 1023,8 hPa 0,0 mm 8,0 km/h (2 Bft) W 281 ° 0 min 0,000 mm 0,0 UV-I 0 W/m² 0,5 °C 11,3 km/h (2 Bft)
12.12.2016 02:52 1,7 °C 1,7 °C 92 % 1023,8 hPa 0,0 mm 5,2 km/h (1 Bft) W 267 ° 0 min 0,000 mm 0,0 UV-I 0 W/m² 0,5 °C 9,7 km/h (2 Bft)
12.12.2016 02:53 1,7 °C 1,7 °C 92 % 1023,8 hPa 0,0 mm 5,5 km/h (1 Bft) W-SW 238 ° 0 min 0,000 mm 0,0 UV-I 0 W/m² 0,5 °C 8,0 km/h (2 Bft)
12.12.2016 02:54 1,7 °C 1,7 °C 92 % 1023,8 hPa 0,0 mm 6,7 km/h (2 Bft) W 263 ° 0 min 0,000 mm 0,0 UV-I 0 W/m² 0,5 °C 11,3 km/h (2 Bft)
12.12.2016 02:55 1,7 °C 1,7 °C 92 % 1023,8 hPa 0,0 mm 7,5 km/h (2 Bft) W 281 ° 0 min 0,000 mm 0,0 UV-I 0 W/m² 0,5 °C 12,9 km/h (3 Bft)
12.12.2016 02:56 1,7 °C 1,7 °C 92 % 1023,9 hPa 0,0 mm 7,1 km/h (2 Bft) W 264 ° 0 min 0,000 mm 0,0 UV-I 0 W/m² 0,5 °C 11,3 km/h (2 Bft)
12.12.2016 02:57 1,7 °C 1,7 °C 92 % 1023,9 hPa 0,0 mm 10,2 km/h (2 Bft) W 271 ° 0 min 0,000 mm 0,0 UV-I 0 W/m² 0,5 °C 12,9 km/h (3 Bft)
12.12.2016 02:58 1,7 °C 1,7 °C 92 % 1023,9 hPa 0,0 mm 7,6 km/h (2 Bft) W-NW 284 ° 0 min 0,000 mm 0,0 UV-I 0 W/m² 0,5 °C 12,9 km/h (3 Bft)
12.12.2016 02:59 1,7 °C 1,7 °C 92 % 1023,9 hPa 0,0 mm 7,8 km/h (2 Bft) W-SW 252 ° 0 min 0,000 mm 0,0 UV-I 0 W/m² 0,5 °C 11,3 km/h (2 Bft)
12.12.2016 03:00 1,7 °C 1,7 °C 92 % 1023,9 hPa 0,0 mm 7,6 km/h (2 Bft) W 259 ° 0 min 0,000 mm 0,0 UV-I 0 W/m² 0,5 °C 11,3 km/h (2 Bft)
12.12.2016 03:01 1,7 °C 1,7 °C 92 % 1023,9 hPa 0,0 mm 6,8 km/h (2 Bft) SW 235 ° 0 min 0,000 mm 0,0 UV-I 0 W/m² 0,5 °C 9,7 km/h (2 Bft)
12.12.2016 03:02 1,7 °C 1,7 °C 92 % 1023,9 hPa 0,0 mm 7,8 km/h (2 Bft) W-SW 248 ° 0 min 0,000 mm 0,0 UV-I 0 W/m² 0,5 °C 11,3 km/h (2 Bft)
12.12.2016 03:03 1,7 °C 1,7 °C 92 % 1023,9 hPa 0,0 mm 9,2 km/h (2 Bft) W-SW 248 ° 0 min 0,000 mm 0,0 UV-I 0 W/m² 0,5 °C 12,9 km/h (3 Bft)
12.12.2016 03:04 1,7 °C 1,8 °C 92 % 1023,8 hPa 0,0 mm 4,3 km/h (1 Bft) W-SW 252 ° 0 min 0,000 mm 0,0 UV-I 0 W/m² 0,5 °C 11,3 km/h (2 Bft)
12.12.2016 03:05 1,7 °C 1,7 °C 92 % 1023,9 hPa 0,0 mm 10,6 km/h (2 Bft) SW 236 ° 0 min 0,000 mm 0,0 UV-I 0 W/m² 0,5 °C 14,5 km/h (3 Bft)
12.12.2016 03:06 1,7 °C 1,7 °C 92 % 1023,8 hPa 0,0 mm 7,0 km/h (2 Bft) S-SW 204 ° 0 min 0,000 mm 0,0 UV-I 0 W/m² 0,5 °C 11,3 km/h (2 Bft)
12.12.2016 03:07 1,7 °C 1,7 °C 92 % 1023,7 hPa 0,0 mm 3,8 km/h (1 Bft) SW 228 ° 0 min 0,000 mm 0,0 UV-I 0 W/m² 0,5 °C 6,4 km/h (2 Bft)
12.12.2016 03:08 1,7 °C 1,7 °C 92 % 1023,7 hPa 0,0 mm 9,2 km/h (2 Bft) W-SW 243 ° 0 min 0,000 mm 0,0 UV-I 0 W/m² 0,5 °C 14,5 km/h (3 Bft)
12.12.2016 03:09 1,7 °C 1,7 °C 92 % 1023,7 hPa 0,0 mm 5,3 km/h (1 Bft) SW 229 ° 0 min 0,000 mm 0,0 UV-I 0 W/m² 0,5 °C 9,7 km/h (2 Bft)
12.12.2016 03:10 1,7 °C 1,8 °C 92 % 1023,7 hPa 0,0 mm 9,3 km/h (2 Bft) SW 221 ° 0 min 0,000 mm 0,0 UV-I 0 W/m² 0,5 °C 12,9 km/h (3 Bft)
12.12.2016 03:11 1,7 °C 1,8 °C 92 % 1023,7 hPa 0,0 mm 8,7 km/h (2 Bft) S-SW 210 ° 0 min 0,000 mm 0,0 UV-I 0 W/m² 0,5 °C 12,9 km/h (3 Bft)
12.12.2016 03:12 1,7 °C 1,7 °C 92 % 1023,8 hPa 0,0 mm 6,6 km/h (2 Bft) W-SW 243 ° 0 min 0,000 mm 0,0 UV-I 0 W/m² 0,5 °C 14,5 km/h (3 Bft)
12.12.2016 03:13 1,7 °C 1,8 °C 92 % 1023,7 hPa 0,0 mm 4,2 km/h (1 Bft) W-SW 250 ° 0 min 0,000 mm 0,0 UV-I 0 W/m² 0,5 °C 6,4 km/h (2 Bft)
12.12.2016 03:14 1,8 °C 1,8 °C 92 % 1023,7 hPa 0,0 mm 6,4 km/h (2 Bft) W-SW 252 ° 0 min 0,000 mm 0,0 UV-I 0 W/m² 0,6 °C 9,7 km/h (2 Bft)
12.12.2016 03:15 1,7 °C 1,8 °C 92 % 1023,8 hPa 0,0 mm 5,8 km/h (2 Bft) SW 221 ° 0 min 0,000 mm 0,0 UV-I 0 W/m² 0,5 °C 11,3 km/h (2 Bft)
12.12.2016 03:16 1,8 °C 1,8 °C 92 % 1023,8 hPa 0,0 mm 6,8 km/h (2 Bft) S-SW 213 ° 0 min 0,000 mm 0,0 UV-I 0 W/m² 0,6 °C 11,3 km/h (2 Bft)
12.12.2016 03:17 1,8 °C 1,8 °C 92 % 1023,9 hPa 0,0 mm 7,9 km/h (2 Bft) W-SW 240 ° 0 min 0,000 mm 0,0 UV-I 0 W/m² 0,6 °C 11,3 km/h (2 Bft)
12.12.2016 03:18 1,7 °C 1,8 °C 92 % 1023,9 hPa 0,0 mm 4,2 km/h (1 Bft) SW 227 ° 0 min 0,000 mm 0,0 UV-I 0 W/m² 0,5 °C 6,4 km/h (2 Bft)
12.12.2016 03:19 1,7 °C 1,8 °C 92 % 1023,8 hPa 0,0 mm 5,4 km/h (1 Bft) SW 233 ° 0 min 0,000 mm 0,0 UV-I 0 W/m² 0,5 °C 6,4 km/h (2 Bft)
12.12.2016 03:20 1,7 °C 1,8 °C 92 % 1023,8 hPa 0,0 mm 5,6 km/h (1 Bft) SW 225 ° 0 min 0,000 mm 0,0 UV-I 0 W/m² 0,5 °C 9,7 km/h (2 Bft)
12.12.2016 03:21 1,8 °C 1,8 °C 92 % 1023,8 hPa 0,0 mm 5,1 km/h (1 Bft) SW 235 ° 0 min 0,000 mm 0,0 UV-I 0 W/m² 0,6 °C 6,4 km/h (2 Bft)
12.12.2016 03:22 1,8 °C 1,8 °C 92 % 1023,8 hPa 0,0 mm 2,8 km/h (1 Bft) SW 235 ° 0 min 0,000 mm 0,0 UV-I 0 W/m² 0,6 °C 4,8 km/h (1 Bft)
12.12.2016 03:23 1,8 °C 1,8 °C 92 % 1023,8 hPa 0,0 mm 4,4 km/h (1 Bft) S-SW 204 ° 0 min 0,000 mm 0,0 UV-I 0 W/m² 0,6 °C 6,4 km/h (2 Bft)
12.12.2016 03:24 1,8 °C 1,8 °C 92 % 1023,8 hPa 0,0 mm 8,4 km/h (2 Bft) SW 231 ° 0 min 0,000 mm 0,0 UV-I 0 W/m² 0,6 °C 12,9 km/h (3 Bft)
12.12.2016 03:25 1,8 °C 1,8 °C 92 % 1023,9 hPa 0,0 mm 5,9 km/h (2 Bft) SW 224 ° 0 min 0,000 mm 0,0 UV-I 0 W/m² 0,6 °C 8,0 km/h (2 Bft)
12.12.2016 03:26 1,8 °C 1,8 °C 92 % 1023,8 hPa 0,0 mm 4,4 km/h (1 Bft) S-SW 200 ° 0 min 0,000 mm 0,0 UV-I 0 W/m² 0,6 °C 8,0 km/h (2 Bft)
12.12.2016 03:27 1,8 °C 1,8 °C 92 % 1023,9 hPa 0,0 mm 3,4 km/h (1 Bft) W-SW 246 ° 0 min 0,000 mm 0,0 UV-I 0 W/m² 0,6 °C 6,4 km/h (2 Bft)
12.12.2016 03:28 1,8 °C 1,8 °C 92 % 1024,0 hPa 0,0 mm 5,8 km/h (2 Bft) SW 223 ° 0 min 0,000 mm 0,0 UV-I 0 W/m² 0,6 °C 8,0 km/h (2 Bft)
12.12.2016 03:29 1,8 °C 1,8 °C 92 % 1024,0 hPa 0,0 mm 4,4 km/h (1 Bft) W 270 ° 0 min 0,000 mm 0,0 UV-I 0 W/m² 0,6 °C 6,4 km/h (2 Bft)
12.12.2016 03:30 1,8 °C 1,8 °C 92 % 1024,0 hPa 0,0 mm 5,1 km/h (1 Bft) SW 223 ° 0 min 0,000 mm 0,0 UV-I 0 W/m² 0,6 °C 8,0 km/h (2 Bft)
12.12.2016 03:31 1,8 °C 1,8 °C 92 % 1024,0 hPa 0,0 mm 5,9 km/h (2 Bft) S-SW 205 ° 0 min 0,000 mm 0,0 UV-I 0 W/m² 0,6 °C 9,7 km/h (2 Bft)
12.12.2016 03:32 1,7 °C 1,8 °C 92 % 1024,0 hPa 0,0 mm 3,4 km/h (1 Bft) S 184 ° 0 min 0,000 mm 0,0 UV-I 0 W/m² 0,5 °C 4,8 km/h (1 Bft)
12.12.2016 03:33 1,8 °C 1,8 °C 92 % 1024,0 hPa 0,0 mm 5,9 km/h (2 Bft) W-SW 248 ° 0 min 0,000 mm 0,0 UV-I 0 W/m² 0,6 °C 11,3 km/h (2 Bft)
12.12.2016 03:34 1,8 °C 1,8 °C 92 % 1023,9 hPa 0,0 mm 4,2 km/h (1 Bft) SW 232 ° 0 min 0,000 mm 0,0 UV-I 0 W/m² 0,6 °C 6,4 km/h (2 Bft)
12.12.2016 03:35 1,8 °C 1,8 °C 92 % 1023,9 hPa 0,0 mm 3,3 km/h (1 Bft) SW 217 ° 0 min 0,000 mm 0,0 UV-I 0 W/m² 0,6 °C 6,4 km/h (2 Bft)
12.12.2016 03:36 1,8 °C 1,8 °C 92 % 1023,9 hPa 0,0 mm 4,1 km/h (1 Bft) S-SW 213 ° 0 min 0,000 mm 0,0 UV-I 0 W/m² 0,6 °C 6,4 km/h (2 Bft)
12.12.2016 03:37 1,7 °C 1,8 °C 92 % 1023,9 hPa 0,0 mm 4,2 km/h (1 Bft) SW 215 ° 0 min 0,000 mm 0,0 UV-I 0 W/m² 0,5 °C 4,8 km/h (1 Bft)
12.12.2016 03:38 1,8 °C 1,8 °C 92 % 1023,8 hPa 0,0 mm 7,1 km/h (2 Bft) W-SW 250 ° 0 min 0,000 mm 0,0 UV-I 0 W/m² 0,6 °C 12,9 km/h (3 Bft)
12.12.2016 03:39 1,8 °C 1,8 °C 92 % 1023,8 hPa 0,0 mm 7,0 km/h (2 Bft) W-SW 256 ° 0 min 0,000 mm 0,0 UV-I 0 W/m² 0,6 °C 11,3 km/h (2 Bft)
12.12.2016 03:40 1,8 °C 1,8 °C 92 % 1023,9 hPa 0,0 mm 8,3 km/h (2 Bft) W-SW 245 ° 0 min 0,000 mm 0,0 UV-I 0 W/m² 0,6 °C 14,5 km/h (3 Bft)
12.12.2016 03:41 1,8 °C 1,8 °C 92 % 1023,9 hPa 0,0 mm 3,8 km/h (1 Bft) S-SW 211 ° 0 min 0,000 mm 0,0 UV-I 0 W/m² 0,6 °C 4,8 km/h (1 Bft)
12.12.2016 03:42 1,8 °C 1,8 °C 92 % 1023,9 hPa 0,0 mm 6,6 km/h (2 Bft) S-SW 203 ° 0 min 0,000 mm 0,0 UV-I 0 W/m² 0,6 °C 12,9 km/h (3 Bft)
12.12.2016 03:43 1,8 °C 1,8 °C 92 % 1023,9 hPa 0,0 mm 5,4 km/h (1 Bft) SW 214 ° 0 min 0,000 mm 0,0 UV-I 0 W/m² 0,6 °C 8,0 km/h (2 Bft)
12.12.2016 03:44 1,8 °C 1,8 °C 92 % 1023,9 hPa 0,0 mm 8,0 km/h (2 Bft) S-SW 202 ° 0 min 0,000 mm 0,0 UV-I 0 W/m² 0,6 °C 14,5 km/h (3 Bft)
12.12.2016 03:45 1,8 °C 1,8 °C 92 % 1023,8 hPa 0,0 mm 5,1 km/h (1 Bft) SW 223 ° 0 min 0,000 mm 0,0 UV-I 0 W/m² 0,6 °C 8,0 km/h (2 Bft)
12.12.2016 03:46 1,8 °C 1,8 °C 92 % 1023,9 hPa 0,0 mm 6,0 km/h (2 Bft) SW 219 ° 0 min 0,000 mm 0,0 UV-I 0 W/m² 0,6 °C 8,0 km/h (2 Bft)
12.12.2016 03:47 1,8 °C 1,8 °C 92 % 1023,8 hPa 0,0 mm 4,5 km/h (1 Bft) SW 227 ° 0 min 0,000 mm 0,0 UV-I 0 W/m² 0,6 °C 6,4 km/h (2 Bft)
12.12.2016 03:48 1,8 °C 1,8 °C 92 % 1023,8 hPa 0,0 mm 3,2 km/h (1 Bft) SW 225 ° 0 min 0,000 mm 0,0 UV-I 0 W/m² 0,6 °C 4,8 km/h (1 Bft)
12.12.2016 03:49 1,8 °C 1,8 °C 92 % 1023,8 hPa 0,0 mm 4,0 km/h (1 Bft) SW 224 ° 0 min 0,000 mm 0,0 UV-I 0 W/m² 0,6 °C 6,4 km/h (2 Bft)
12.12.2016 03:50 1,8 °C 1,8 °C 92 % 1023,9 hPa 0,0 mm 2,7 km/h (1 Bft) S 190 ° 0 min 0,000 mm 0,0 UV-I 0 W/m² 0,6 °C 6,4 km/h (2 Bft)
12.12.2016 03:51 1,7 °C 1,8 °C 92 % 1023,9 hPa 0,0 mm 5,6 km/h (1 Bft) W 262 ° 0 min 0,000 mm 0,0 UV-I 0 W/m² 0,5 °C 9,7 km/h (2 Bft)
12.12.2016 03:52 1,8 °C 1,8 °C 92 % 1023,9 hPa 0,0 mm 4,7 km/h (1 Bft) W-SW 242 ° 0 min 0,000 mm 0,0 UV-I 0 W/m² 0,6 °C 6,4 km/h (2 Bft)
12.12.2016 03:53 1,8 °C 1,8 °C 92 % 1023,9 hPa 0,0 mm 3,5 km/h (1 Bft) SW 230 ° 0 min 0,000 mm 0,0 UV-I 0 W/m² 0,6 °C 4,8 km/h (1 Bft)
12.12.2016 03:54 1,8 °C 1,8 °C 92 % 1023,9 hPa 0,0 mm 6,2 km/h (2 Bft) W-SW 239 ° 0 min 0,000 mm 0,0 UV-I 0 W/m² 0,6 °C 9,7 km/h (2 Bft)
12.12.2016 03:55 1,8 °C 1,8 °C 92 % 1023,9 hPa 0,0 mm 4,1 km/h (1 Bft) SW 215 ° 0 min 0,000 mm 0,0 UV-I 0 W/m² 0,6 °C 6,4 km/h (2 Bft)
12.12.2016 03:56 1,8 °C 1,8 °C 92 % 1023,9 hPa 0,0 mm 3,8 km/h (1 Bft) SW 229 ° 0 min 0,000 mm 0,0 UV-I 0 W/m² 0,6 °C 4,8 km/h (1 Bft)
12.12.2016 03:57 1,8 °C 1,8 °C 92 % 1023,9 hPa 0,0 mm 4,1 km/h (1 Bft) SW 230 ° 0 min 0,000 mm 0,0 UV-I 0 W/m² 0,6 °C 6,4 km/h (2 Bft)
12.12.2016 03:58 1,8 °C 1,8 °C 92 % 1023,8 hPa 0,0 mm 6,0 km/h (2 Bft) S 176 ° 0 min 0,000 mm 0,0 UV-I 0 W/m² 0,6 °C 9,7 km/h (2 Bft)
12.12.2016 03:59 1,8 °C 1,8 °C 92 % 1023,9 hPa 0,0 mm 7,0 km/h (2 Bft) SW 223 ° 0 min 0,000 mm 0,0 UV-I 0 W/m² 0,6 °C 9,7 km/h (2 Bft)
12.12.2016 04:00 1,8 °C 1,8 °C 92 % 1023,9 hPa 0,0 mm 4,6 km/h (1 Bft) SW 217 ° 0 min 0,000 mm 0,0 UV-I 0 W/m² 0,6 °C 6,4 km/h (2 Bft)
12.12.2016 04:01 1,8 °C 1,8 °C 92 % 1023,9 hPa 0,0 mm 7,0 km/h (2 Bft) SW 224 ° 0 min 0,000 mm 0,0 UV-I 0 W/m² 0,6 °C 12,9 km/h (3 Bft)
12.12.2016 04:02 1,8 °C 1,8 °C 92 % 1023,9 hPa 0,0 mm 6,6 km/h (2 Bft) SW 223 ° 0 min 0,000 mm 0,0 UV-I 0 W/m² 0,6 °C 9,7 km/h (2 Bft)
12.12.2016 04:03 1,8 °C 1,8 °C 92 % 1023,9 hPa 0,0 mm 5,0 km/h (1 Bft) W-SW 241 ° 0 min 0,000 mm 0,0 UV-I 0 W/m² 0,6 °C 8,0 km/h (2 Bft)
12.12.2016 04:04 1,8 °C 1,8 °C 92 % 1023,9 hPa 0,0 mm 7,6 km/h (2 Bft) W-SW 241 ° 0 min 0,000 mm 0,0 UV-I 0 W/m² 0,6 °C 11,3 km/h (2 Bft)
12.12.2016 04:05 1,8 °C 1,8 °C 92 % 1023,9 hPa 0,0 mm 5,8 km/h (2 Bft) S-SW 197 ° 0 min 0,000 mm 0,0 UV-I 0 W/m² 0,6 °C 9,7 km/h (2 Bft)
12.12.2016 04:06 1,8 °C 1,8 °C 92 % 1023,9 hPa 0,0 mm 4,1 km/h (1 Bft) SW 225 ° 0 min 0,000 mm 0,0 UV-I 0 W/m² 0,6 °C 9,7 km/h (2 Bft)
12.12.2016 04:07 1,8 °C 1,8 °C 92 % 1023,9 hPa 0,0 mm 7,8 km/h (2 Bft) SW 228 ° 0 min 0,000 mm 0,0 UV-I 0 W/m² 0,6 °C 14,5 km/h (3 Bft)
12.12.2016 04:08 1,8 °C 1,8 °C 92 % 1023,9 hPa 0,0 mm 5,4 km/h (1 Bft) SW 216 ° 0 min 0,000 mm 0,0 UV-I 0 W/m² 0,6 °C 8,0 km/h (2 Bft)
12.12.2016 04:09 1,8 °C 1,8 °C 92 % 1023,9 hPa 0,0 mm 4,4 km/h (1 Bft) SW 235 ° 0 min 0,000 mm 0,0 UV-I 0 W/m² 0,6 °C 6,4 km/h (2 Bft)
12.12.2016 04:10 1,8 °C 1,8 °C 92 % 1024,0 hPa 0,0 mm 3,5 km/h (1 Bft) SW 219 ° 0 min 0,000 mm 0,0 UV-I 0 W/m² 0,6 °C 6,4 km/h (2 Bft)
12.12.2016 04:11 1,8 °C 1,8 °C 92 % 1024,0 hPa 0,0 mm 2,5 km/h (1 Bft) SW 235 ° 0 min 0,000 mm 0,0 UV-I 0 W/m² 0,6 °C 4,8 km/h (1 Bft)
12.12.2016 04:12 1,8 °C 1,8 °C 92 % 1024,0 hPa 0,0 mm 5,0 km/h (1 Bft) SW 224 ° 0 min 0,000 mm 0,0 UV-I 0 W/m² 0,6 °C 8,0 km/h (2 Bft)
12.12.2016 04:13 1,8 °C 1,8 °C 92 % 1024,1 hPa 0,0 mm 2,8 km/h (1 Bft) S-SW 207 ° 0 min 0,000 mm 0,0 UV-I 0 W/m² 0,6 °C 4,8 km/h (1 Bft)
12.12.2016 04:14 1,8 °C 1,8 °C 92 % 1024,0 hPa 0,0 mm 5,3 km/h (1 Bft) W-SW 252 ° 0 min 0,000 mm 0,0 UV-I 0 W/m² 0,6 °C 9,7 km/h (2 Bft)
12.12.2016 04:15 1,8 °C 1,8 °C 92 % 1024,0 hPa 0,0 mm 8,0 km/h (2 Bft) W-SW 252 ° 0 min 0,000 mm 0,0 UV-I 0 W/m² 0,6 °C 11,3 km/h (2 Bft)
12.12.2016 04:16 1,8 °C 1,8 °C 92 % 1024,0 hPa 0,0 mm 4,4 km/h (1 Bft) S-SW 209 ° 0 min 0,000 mm 0,0 UV-I 0 W/m² 0,6 °C 8,0 km/h (2 Bft)
12.12.2016 04:17 1,8 °C 1,8 °C 92 % 1024,0 hPa 0,0 mm 6,1 km/h (2 Bft) S-SW 198 ° 0 min 0,000 mm 0,0 UV-I 0 W/m² 0,6 °C 11,3 km/h (2 Bft)
12.12.2016 04:18 1,8 °C 1,8 °C 92 % 1024,0 hPa 0,2 mm 5,0 km/h (1 Bft) S-SW 200 ° 0 min 0,000 mm 0,0 UV-I 0 W/m² 0,6 °C 8,0 km/h (2 Bft)
12.12.2016 04:19 1,8 °C 1,8 °C 92 % 1024,0 hPa 0,0 mm 4,0 km/h (1 Bft) S-SW 212 ° 0 min 0,000 mm 0,0 UV-I 0 W/m² 0,6 °C 8,0 km/h (2 Bft)
12.12.2016 04:20 1,8 °C 1,8 °C 92 % 1024,0 hPa 0,0 mm 5,0 km/h (1 Bft) SW 218 ° 0 min 0,000 mm 0,0 UV-I 0 W/m² 0,6 °C 9,7 km/h (2 Bft)
12.12.2016 04:21 1,8 °C 1,8 °C 92 % 1024,0 hPa 0,0 mm 4,8 km/h (1 Bft) SW 234 ° 0 min 0,000 mm 0,0 UV-I 0 W/m² 0,6 °C 8,0 km/h (2 Bft)
12.12.2016 04:22 1,8 °C 1,8 °C 92 % 1024,0 hPa 0,0 mm 4,9 km/h (1 Bft) S-SW 202 ° 0 min 0,000 mm 0,0 UV-I 0 W/m² 0,6 °C 6,4 km/h (2 Bft)
12.12.2016 04:23 1,8 °C 1,8 °C 92 % 1024,0 hPa 0,0 mm 3,3 km/h (1 Bft) W-SW 246 ° 0 min 0,000 mm 0,0 UV-I 0 W/m² 0,6 °C 6,4 km/h (2 Bft)
12.12.2016 04:24 1,8 °C 1,8 °C 92 % 1023,9 hPa 0,0 mm 6,3 km/h (2 Bft) W-SW 257 ° 0 min 0,000 mm 0,0 UV-I 0 W/m² 0,6 °C 11,3 km/h (2 Bft)
12.12.2016 04:25 1,8 °C 1,8 °C 92 % 1023,9 hPa 0,0 mm 8,1 km/h (2 Bft) SW 225 ° 0 min 0,000 mm 0,0 UV-I 0 W/m² 0,6 °C 14,5 km/h (3 Bft)
12.12.2016 04:26 1,8 °C 1,8 °C 92 % 1023,9 hPa 0,0 mm 6,2 km/h (2 Bft) W-SW 244 ° 0 min 0,000 mm 0,0 UV-I 0 W/m² 0,6 °C 11,3 km/h (2 Bft)
12.12.2016 04:27 1,8 °C 1,8 °C 92 % 1024,0 hPa 0,0 mm 4,2 km/h (1 Bft) W-SW 253 ° 0 min 0,000 mm 0,0 UV-I 0 W/m² 0,6 °C 6,4 km/h (2 Bft)
12.12.2016 04:28 1,8 °C 1,8 °C 92 % 1023,9 hPa 0,0 mm 8,0 km/h (2 Bft) W-SW 238 ° 0 min 0,000 mm 0,0 UV-I 0 W/m² 0,6 °C 11,3 km/h (2 Bft)
12.12.2016 04:29 1,8 °C 1,8 °C 92 % 1024,0 hPa 0,0 mm 9,0 km/h (2 Bft) W 260 ° 0 min 0,000 mm 0,0 UV-I 0 W/m² 0,6 °C 14,5 km/h (3 Bft)
12.12.2016 04:30 1,8 °C 1,8 °C 92 % 1024,0 hPa 0,0 mm 6,3 km/h (2 Bft) SW 223 ° 0 min 0,000 mm 0,0 UV-I 0 W/m² 0,6 °C 11,3 km/h (2 Bft)
12.12.2016 04:31 1,8 °C 1,8 °C 92 % 1024,0 hPa 0,0 mm 6,5 km/h (2 Bft) SW 236 ° 0 min 0,000 mm 0,0 UV-I 0 W/m² 0,6 °C 11,3 km/h (2 Bft)
12.12.2016 04:32 1,8 °C 1,8 °C 92 % 1024,0 hPa 0,0 mm 6,9 km/h (2 Bft) W-SW 257 ° 0 min 0,000 mm 0,0 UV-I 0 W/m² 0,6 °C 12,9 km/h (3 Bft)
12.12.2016 04:33 1,8 °C 1,8 °C 92 % 1024,0 hPa 0,0 mm 11,3 km/h (2 Bft) W 273 ° 0 min 0,000 mm 0,0 UV-I 0 W/m² 0,6 °C 16,1 km/h (3 Bft)
12.12.2016 04:34 1,8 °C 1,8 °C 92 % 1024,0 hPa 0,0 mm 8,4 km/h (2 Bft) W-SW 246 ° 0 min 0,000 mm 0,0 UV-I 0 W/m² 0,6 °C 12,9 km/h (3 Bft)
12.12.2016 04:35 1,8 °C 1,8 °C 92 % 1024,0 hPa 0,0 mm 7,6 km/h (2 Bft) W-SW 248 ° 0 min 0,000 mm 0,0 UV-I 0 W/m² 0,6 °C 12,9 km/h (3 Bft)
12.12.2016 04:36 1,8 °C 1,8 °C 92 % 1024,0 hPa 0,0 mm 7,4 km/h (2 Bft) W 266 ° 0 min 0,000 mm 0,0 UV-I 0 W/m² 0,6 °C 11,3 km/h (2 Bft)
12.12.2016 04:37 1,8 °C 1,8 °C 92 % 1024,0 hPa 0,0 mm 5,6 km/h (1 Bft) W-SW 252 ° 0 min 0,000 mm 0,0 UV-I 0 W/m² 0,6 °C 8,0 km/h (2 Bft)
12.12.2016 04:38 1,8 °C 1,8 °C 92 % 1024,0 hPa 0,0 mm 8,4 km/h (2 Bft) W 264 ° 0 min 0,000 mm 0,0 UV-I 0 W/m² 0,6 °C 12,9 km/h (3 Bft)
12.12.2016 04:39 1,8 °C 1,8 °C 92 % 1024,0 hPa 0,0 mm 8,6 km/h (2 Bft) W-SW 252 ° 0 min 0,000 mm 0,0 UV-I 0 W/m² 0,6 °C 16,1 km/h (3 Bft)
12.12.2016 04:40 1,8 °C 1,8 °C 92 % 1024,0 hPa 0,0 mm 8,7 km/h (2 Bft) W 261 ° 0 min 0,000 mm 0,0 UV-I 0 W/m² 0,6 °C 12,9 km/h (3 Bft)
12.12.2016 04:41 1,8 °C 1,8 °C 92 % 1024,0 hPa 0,0 mm 6,4 km/h (2 Bft) SW 236 ° 0 min 0,000 mm 0,0 UV-I 0 W/m² 0,6 °C 12,9 km/h (3 Bft)
12.12.2016 04:42 1,8 °C 1,8 °C 92 % 1024,0 hPa 0,0 mm 9,3 km/h (2 Bft) SW 223 ° 0 min 0,000 mm 0,0 UV-I 0 W/m² 0,6 °C 12,9 km/h (3 Bft)
12.12.2016 04:43 1,8 °C 1,8 °C 92 % 1024,0 hPa 0,0 mm 5,9 km/h (2 Bft) W-SW 254 ° 0 min 0,000 mm 0,0 UV-I 0 W/m² 0,6 °C 9,7 km/h (2 Bft)
12.12.2016 04:44 1,8 °C 1,8 °C 92 % 1024,0 hPa 0,0 mm 6,1 km/h (2 Bft) SW 217 ° 0 min 0,000 mm 0,0 UV-I 0 W/m² 0,6 °C 11,3 km/h (2 Bft)
12.12.2016 04:45 1,8 °C 1,8 °C 92 % 1024,0 hPa 0,0 mm 6,0 km/h (2 Bft) W-SW 250 ° 0 min 0,000 mm 0,0 UV-I 0 W/m² 0,6 °C 8,0 km/h (2 Bft)
12.12.2016 04:46 1,8 °C 1,8 °C 92 % 1024,0 hPa 0,0 mm 7,3 km/h (2 Bft) SW 215 ° 0 min 0,000 mm 0,0 UV-I 0 W/m² 0,6 °C 12,9 km/h (3 Bft)
12.12.2016 04:47 1,8 °C 1,8 °C 92 % 1024,0 hPa 0,0 mm 6,3 km/h (2 Bft) W-SW 250 ° 0 min 0,000 mm 0,0 UV-I 0 W/m² 0,6 °C 9,7 km/h (2 Bft)
12.12.2016 04:48 1,8 °C 1,8 °C 92 % 1024,1 hPa 0,0 mm 8,0 km/h (2 Bft) W-SW 237 ° 0 min 0,000 mm 0,0 UV-I 0 W/m² 0,6 °C 14,5 km/h (3 Bft)
12.12.2016 04:49 1,8 °C 1,8 °C 92 % 1024,0 hPa 0,0 mm 7,6 km/h (2 Bft) W 266 ° 0 min 0,000 mm 0,0 UV-I 0 W/m² 0,6 °C 12,9 km/h (3 Bft)
12.12.2016 04:50 1,8 °C 1,8 °C 92 % 1024,0 hPa 0,0 mm 5,8 km/h (2 Bft) W-SW 248 ° 0 min 0,000 mm 0,0 UV-I 0 W/m² 0,6 °C 9,7 km/h (2 Bft)
12.12.2016 04:51 1,8 °C 1,8 °C 92 % 1024,0 hPa 0,0 mm 4,6 km/h (1 Bft) W-SW 257 ° 0 min 0,000 mm 0,0 UV-I 0 W/m² 0,6 °C 8,0 km/h (2 Bft)
12.12.2016 04:52 1,8 °C 1,8 °C 92 % 1024,0 hPa 0,0 mm 9,3 km/h (2 Bft) W-SW 257 ° 0 min 0,000 mm 0,0 UV-I 0 W/m² 0,6 °C 12,9 km/h (3 Bft)
12.12.2016 04:53 1,8 °C 1,8 °C 92 % 1024,0 hPa 0,0 mm 6,4 km/h (2 Bft) W-SW 250 ° 0 min 0,000 mm 0,0 UV-I 0 W/m² 0,6 °C 11,3 km/h (2 Bft)
12.12.2016 04:54 1,8 °C 1,8 °C 92 % 1024,0 hPa 0,0 mm 5,6 km/h (1 Bft) SW 223 ° 0 min 0,000 mm 0,0 UV-I 0 W/m² 0,6 °C 9,7 km/h (2 Bft)
12.12.2016 04:55 1,8 °C 1,8 °C 92 % 1023,9 hPa 0,0 mm 7,5 km/h (2 Bft) W 259 ° 0 min 0,000 mm 0,0 UV-I 0 W/m² 0,6 °C 9,7 km/h (2 Bft)
12.12.2016 04:56 1,8 °C 1,8 °C 92 % 1024,0 hPa 0,0 mm 8,2 km/h (2 Bft) W-SW 246 ° 0 min 0,000 mm 0,0 UV-I 0 W/m² 0,6 °C 12,9 km/h (3 Bft)
12.12.2016 04:57 1,8 °C 1,8 °C 92 % 1024,0 hPa 0,0 mm 7,0 km/h (2 Bft) W 262 ° 0 min 0,000 mm 0,0 UV-I 0 W/m² 0,6 °C 12,9 km/h (3 Bft)
12.12.2016 04:58 1,8 °C 1,8 °C 92 % 1024,0 hPa 0,0 mm 7,0 km/h (2 Bft) SW 224 ° 0 min 0,000 mm 0,0 UV-I 0 W/m² 0,6 °C 11,3 km/h (2 Bft)
12.12.2016 04:59 1,8 °C 1,8 °C 92 % 1024,0 hPa 0,0 mm 6,8 km/h (2 Bft) W-SW 245 ° 0 min 0,000 mm 0,0 UV-I 0 W/m² 0,6 °C 12,9 km/h (3 Bft)
12.12.2016 05:00 1,8 °C 1,8 °C 92 % 1024,0 hPa 0,0 mm 10,6 km/h (2 Bft) SW 225 ° 0 min 0,000 mm 0,0 UV-I 0 W/m² 0,6 °C 16,1 km/h (3 Bft)
12.12.2016 05:01 1,8 °C 1,8 °C 92 % 1024,0 hPa 0,0 mm 5,9 km/h (2 Bft) SW 229 ° 0 min 0,000 mm 0,0 UV-I 0 W/m² 0,6 °C 9,7 km/h (2 Bft)
12.12.2016 05:02 1,8 °C 1,8 °C 92 % 1024,0 hPa 0,0 mm 9,0 km/h (2 Bft) W 259 ° 0 min 0,000 mm 0,0 UV-I 0 W/m² 0,6 °C 12,9 km/h (3 Bft)
12.12.2016 05:03 1,8 °C 1,8 °C 92 % 1023,9 hPa 0,0 mm 8,1 km/h (2 Bft) W 259 ° 0 min 0,000 mm 0,0 UV-I 0 W/m² 0,6 °C 11,3 km/h (2 Bft)
12.12.2016 05:04 1,8 °C 1,8 °C 92 % 1024,0 hPa 0,0 mm 6,5 km/h (2 Bft) SW 225 ° 0 min 0,000 mm 0,0 UV-I 0 W/m² 0,6 °C 8,0 km/h (2 Bft)
12.12.2016 05:05 1,8 °C 1,8 °C 92 % 1024,0 hPa 0,0 mm 7,6 km/h (2 Bft) W-SW 247 ° 0 min 0,000 mm 0,0 UV-I 0 W/m² 0,6 °C 14,5 km/h (3 Bft)
12.12.2016 05:06 1,8 °C 1,8 °C 92 % 1024,0 hPa 0,0 mm 8,9 km/h (2 Bft) W-SW 252 ° 0 min 0,000 mm 0,0 UV-I 0 W/m² 0,6 °C 14,5 km/h (3 Bft)
12.12.2016 05:07 1,8 °C 1,8 °C 92 % 1024,0 hPa 0,0 mm 10,5 km/h (2 Bft) W-SW 238 ° 0 min 0,000 mm 0,0 UV-I 0 W/m² 0,6 °C 14,5 km/h (3 Bft)
12.12.2016 05:08 1,8 °C 1,8 °C 92 % 1024,0 hPa 0,0 mm 9,5 km/h (2 Bft) S-SW 205 ° 0 min 0,000 mm 0,0 UV-I 0 W/m² 0,6 °C 17,7 km/h (3 Bft)
12.12.2016 05:09 1,8 °C 1,8 °C 92 % 1024,0 hPa 0,0 mm 5,7 km/h (1 Bft) W-SW 250 ° 0 min 0,000 mm 0,0 UV-I 0 W/m² 0,6 °C 8,0 km/h (2 Bft)
12.12.2016 05:10 1,8 °C 1,8 °C 92 % 1024,0 hPa 0,0 mm 6,5 km/h (2 Bft) W-SW 238 ° 0 min 0,000 mm 0,0 UV-I 0 W/m² 0,6 °C 8,0 km/h (2 Bft)
12.12.2016 05:11 1,8 °C 1,8 °C 92 % 1023,9 hPa 0,0 mm 6,4 km/h (2 Bft) S-SW 209 ° 0 min 0,000 mm 0,0 UV-I 0 W/m² 0,6 °C 11,3 km/h (2 Bft)
12.12.2016 05:12 1,8 °C 1,8 °C 92 % 1023,9 hPa 0,0 mm 6,9 km/h (2 Bft) W 261 ° 0 min 0,000 mm 0,0 UV-I 0 W/m² 0,6 °C 12,9 km/h (3 Bft)
12.12.2016 05:13 1,8 °C 1,8 °C 92 % 1023,9 hPa 0,0 mm 11,1 km/h (2 Bft) W-SW 255 ° 0 min 0,000 mm 0,0 UV-I 0 W/m² 0,6 °C 14,5 km/h (3 Bft)
12.12.2016 05:14 1,8 °C 1,8 °C 92 % 1023,9 hPa 0,0 mm 10,1 km/h (2 Bft) W-SW 251 ° 0 min 0,000 mm 0,0 UV-I 0 W/m² 0,6 °C 14,5 km/h (3 Bft)
12.12.2016 05:15 1,8 °C 1,8 °C 92 % 1024,0 hPa 0,0 mm 7,2 km/h (2 Bft) W-SW 249 ° 0 min 0,000 mm 0,0 UV-I 0 W/m² 0,6 °C 14,5 km/h (3 Bft)
12.12.2016 05:16 1,8 °C 1,8 °C 92 % 1024,0 hPa 0,0 mm 11,1 km/h (2 Bft) W-SW 254 ° 0 min 0,000 mm 0,0 UV-I 0 W/m² 0,6 °C 14,5 km/h (3 Bft)
12.12.2016 05:17 1,8 °C 1,8 °C 92 % 1024,0 hPa 0,0 mm 12,0 km/h (2 Bft) W-SW 250 ° 0 min 0,000 mm 0,0 UV-I 0 W/m² 0,6 °C 16,1 km/h (3 Bft)
12.12.2016 05:18 1,8 °C 1,8 °C 92 % 1024,0 hPa 0,0 mm 9,1 km/h (2 Bft) SW 219 ° 0 min 0,000 mm 0,0 UV-I 0 W/m² 0,6 °C 14,5 km/h (3 Bft)
12.12.2016 05:19 1,8 °C 1,8 °C 92 % 1024,1 hPa 0,0 mm 8,4 km/h (2 Bft) W 276 ° 0 min 0,000 mm 0,0 UV-I 0 W/m² 0,6 °C 12,9 km/h (3 Bft)
12.12.2016 05:20 1,8 °C 1,8 °C 92 % 1024,1 hPa 0,0 mm 7,7 km/h (2 Bft) W-SW 251 ° 0 min 0,000 mm 0,0 UV-I 0 W/m² 0,6 °C 11,3 km/h (2 Bft)
12.12.2016 05:21 1,8 °C 1,8 °C 92 % 1024,1 hPa 0,0 mm 6,0 km/h (2 Bft) W-SW 247 ° 0 min 0,000 mm 0,0 UV-I 0 W/m² 0,6 °C 11,3 km/h (2 Bft)
12.12.2016 05:22 1,8 °C 1,8 °C 92 % 1024,1 hPa 0,0 mm 9,4 km/h (2 Bft) NW 309 ° 0 min 0,000 mm 0,0 UV-I 0 W/m² 0,6 °C 12,9 km/h (3 Bft)
12.12.2016 05:23 1,8 °C 1,8 °C 92 % 1024,1 hPa 0,0 mm 8,2 km/h (2 Bft) W-SW 246 ° 0 min 0,000 mm 0,0 UV-I 0 W/m² 0,6 °C 16,1 km/h (3 Bft)
12.12.2016 05:24 1,8 °C 1,8 °C 92 % 1024,1 hPa 0,0 mm 10,4 km/h (2 Bft) W 265 ° 0 min 0,000 mm 0,0 UV-I 0 W/m² 0,6 °C 16,1 km/h (3 Bft)
12.12.2016 05:25 1,8 °C 1,8 °C 92 % 1024,1 hPa 0,0 mm 11,3 km/h (2 Bft) S-SW 196 ° 0 min 0,000 mm 0,0 UV-I 0 W/m² 0,6 °C 16,1 km/h (3 Bft)
12.12.2016 05:26 1,8 °C 1,8 °C 91 % 1024,1 hPa 0,0 mm 8,6 km/h (2 Bft) W-SW 246 ° 0 min 0,000 mm 0,0 UV-I 0 W/m² 0,5 °C 14,5 km/h (3 Bft)
12.12.2016 05:27 1,8 °C 1,8 °C 91 % 1024,1 hPa 0,0 mm 9,7 km/h (2 Bft) SW 232 ° 0 min 0,000 mm 0,0 UV-I 0 W/m² 0,5 °C 14,5 km/h (3 Bft)
12.12.2016 05:28 1,8 °C 1,8 °C 91 % 1024,1 hPa 0,0 mm 10,1 km/h (2 Bft) W-SW 246 ° 0 min 0,000 mm 0,0 UV-I 0 W/m² 0,5 °C 14,5 km/h (3 Bft)
12.12.2016 05:29 1,8 °C 1,9 °C 91 % 1024,1 hPa 0,0 mm 7,3 km/h (2 Bft) W-SW 238 ° 0 min 0,000 mm 0,0 UV-I 0 W/m² 0,5 °C 11,3 km/h (2 Bft)
12.12.2016 05:30 1,9 °C 1,9 °C 91 % 1024,1 hPa 0,0 mm 7,3 km/h (2 Bft) W 265 ° 0 min 0,000 mm 0,0 UV-I 0 W/m² 0,6 °C 11,3 km/h (2 Bft)
12.12.2016 05:31 1,8 °C 1,9 °C 91 % 1024,1 hPa 0,0 mm 11,9 km/h (2 Bft) W-SW 257 ° 0 min 0,000 mm 0,0 UV-I 0 W/m² 0,5 °C 14,5 km/h (3 Bft)
12.12.2016 05:32 1,8 °C 1,9 °C 91 % 1024,2 hPa 0,0 mm 12,9 km/h (3 Bft) SW 228 ° 0 min 0,000 mm 0,0 UV-I 0 W/m² 0,5 °C 19,3 km/h (3 Bft)
12.12.2016 05:33 1,9 °C 1,9 °C 91 % 1024,2 hPa 0,0 mm 9,5 km/h (2 Bft) SW 223 ° 0 min 0,000 mm 0,0 UV-I 0 W/m² 0,6 °C 14,5 km/h (3 Bft)
12.12.2016 05:34 1,9 °C 1,9 °C 91 % 1024,2 hPa 0,0 mm 9,1 km/h (2 Bft) W-SW 246 ° 0 min 0,000 mm 0,0 UV-I 0 W/m² 0,6 °C 14,5 km/h (3 Bft)
12.12.2016 05:35 1,9 °C 1,9 °C 91 % 1024,3 hPa 0,0 mm 5,7 km/h (1 Bft) W-SW 240 ° 0 min 0,000 mm 0,0 UV-I 0 W/m² 0,6 °C 9,7 km/h (2 Bft)
12.12.2016 05:36 1,9 °C 1,9 °C 91 % 1024,3 hPa 0,0 mm 9,3 km/h (2 Bft) W-SW 248 ° 0 min 0,000 mm 0,0 UV-I 0 W/m² 0,6 °C 14,5 km/h (3 Bft)
12.12.2016 05:37 1,9 °C 1,9 °C 91 % 1024,3 hPa 0,0 mm 13,3 km/h (3 Bft) W 265 ° 0 min 0,000 mm 0,0 UV-I 0 W/m² 0,6 °C 17,7 km/h (3 Bft)
12.12.2016 05:38 1,9 °C 1,9 °C 91 % 1024,3 hPa 0,0 mm 14,3 km/h (3 Bft) W 265 ° 0 min 0,000 mm 0,0 UV-I 0 W/m² 0,6 °C 17,7 km/h (3 Bft)
12.12.2016 05:39 1,9 °C 1,9 °C 91 % 1024,3 hPa 0,0 mm 9,8 km/h (2 Bft) W 267 ° 0 min 0,000 mm 0,0 UV-I 0 W/m² 0,6 °C 16,1 km/h (3 Bft)
12.12.2016 05:40 1,9 °C 1,9 °C 91 % 1024,3 hPa 0,0 mm 9,1 km/h (2 Bft) W-SW 238 ° 0 min 0,000 mm 0,0 UV-I 0 W/m² 0,6 °C 14,5 km/h (3 Bft)
12.12.2016 05:41 1,9 °C 1,9 °C 91 % 1024,4 hPa 0,0 mm 8,6 km/h (2 Bft) SW 232 ° 0 min 0,000 mm 0,0 UV-I 0 W/m² 0,6 °C 14,5 km/h (3 Bft)
12.12.2016 05:42 1,9 °C 1,9 °C 91 % 1024,4 hPa 0,0 mm 11,3 km/h (2 Bft) W 261 ° 0 min 0,000 mm 0,0 UV-I 0 W/m² 0,6 °C 17,7 km/h (3 Bft)
12.12.2016 05:43 1,9 °C 1,9 °C 91 % 1024,4 hPa 0,0 mm 8,6 km/h (2 Bft) SW 223 ° 0 min 0,000 mm 0,0 UV-I 0 W/m² 0,6 °C 12,9 km/h (3 Bft)
12.12.2016 05:44 1,9 °C 1,9 °C 91 % 1024,4 hPa 0,0 mm 9,4 km/h (2 Bft) SW 234 ° 0 min 0,000 mm 0,0 UV-I 0 W/m² 0,6 °C 12,9 km/h (3 Bft)
12.12.2016 05:45 1,9 °C 1,9 °C 91 % 1024,5 hPa 0,0 mm 12,7 km/h (3 Bft) W-SW 252 ° 0 min 0,000 mm 0,0 UV-I 0 W/m² 0,6 °C 20,9 km/h (4 Bft)
12.12.2016 05:46 1,9 °C 1,9 °C 91 % 1024,3 hPa 0,0 mm 10,9 km/h (2 Bft) W-SW 250 ° 0 min 0,000 mm 0,0 UV-I 0 W/m² 0,6 °C 14,5 km/h (3 Bft)
12.12.2016 05:47 1,9 °C 1,9 °C 91 % 1024,3 hPa 0,0 mm 7,8 km/h (2 Bft) SW 217 ° 0 min 0,000 mm 0,0 UV-I 0 W/m² 0,6 °C 11,3 km/h (2 Bft)
12.12.2016 05:48 1,9 °C 1,9 °C 91 % 1024,4 hPa 0,0 mm 10,8 km/h (2 Bft) W-SW 240 ° 0 min 0,000 mm 0,0 UV-I 0 W/m² 0,6 °C 17,7 km/h (3 Bft)
12.12.2016 05:49 1,9 °C 1,9 °C 91 % 1024,4 hPa 0,0 mm 11,4 km/h (2 Bft) W-SW 238 ° 0 min 0,000 mm 0,0 UV-I 0 W/m² 0,6 °C 14,5 km/h (3 Bft)
12.12.2016 05:50 1,9 °C 1,9 °C 91 % 1024,4 hPa 0,0 mm 10,0 km/h (2 Bft) W-SW 241 ° 0 min 0,000 mm 0,0 UV-I 0 W/m² 0,6 °C 14,5 km/h (3 Bft)
12.12.2016 05:51 1,9 °C 1,9 °C 91 % 1024,4 hPa 0,0 mm 10,1 km/h (2 Bft) W-SW 256 ° 0 min 0,000 mm 0,0 UV-I 0 W/m² 0,6 °C 17,7 km/h (3 Bft)
12.12.2016 05:52 1,9 °C 1,9 °C 91 % 1024,3 hPa 0,0 mm 14,8 km/h (3 Bft) SW 234 ° 0 min 0,000 mm 0,0 UV-I 0 W/m² 0,6 °C 20,9 km/h (4 Bft)
12.12.2016 05:53 1,9 °C 1,9 °C 91 % 1024,3 hPa 0,0 mm 10,3 km/h (2 Bft) W-SW 244 ° 0 min 0,000 mm 0,0 UV-I 0 W/m² 0,6 °C 19,3 km/h (3 Bft)
12.12.2016 05:54 1,9 °C 1,9 °C 91 % 1024,3 hPa 0,0 mm 12,8 km/h (3 Bft) SW 236 ° 0 min 0,000 mm 0,0 UV-I 0 W/m² 0,6 °C 16,1 km/h (3 Bft)
12.12.2016 05:55 1,9 °C 1,9 °C 91 % 1024,3 hPa 0,0 mm 9,3 km/h (2 Bft) S-SW 210 ° 0 min 0,000 mm 0,0 UV-I 0 W/m² 0,6 °C 14,5 km/h (3 Bft)
12.12.2016 05:56 1,9 °C 1,9 °C 91 % 1024,3 hPa 0,0 mm 7,3 km/h (2 Bft) W 266 ° 0 min 0,000 mm 0,0 UV-I 0 W/m² 0,6 °C 14,5 km/h (3 Bft)
12.12.2016 05:57 1,9 °C 1,9 °C 91 % 1024,3 hPa 0,0 mm 11,5 km/h (2 Bft) S-SW 213 ° 0 min 0,000 mm 0,0 UV-I 0 W/m² 0,6 °C 16,1 km/h (3 Bft)
12.12.2016 05:58 1,9 °C 1,9 °C 91 % 1024,2 hPa 0,0 mm 10,4 km/h (2 Bft) S-SW 192 ° 0 min 0,000 mm 0,0 UV-I 0 W/m² 0,6 °C 16,1 km/h (3 Bft)
12.12.2016 05:59 1,9 °C 1,9 °C 91 % 1024,3 hPa 0,0 mm 11,9 km/h (2 Bft) SW 228 ° 0 min 0,000 mm 0,0 UV-I 0 W/m² 0,6 °C 17,7 km/h (3 Bft)
12.12.2016 06:00 1,9 °C 1,9 °C 91 % 1024,3 hPa 0,0 mm 8,6 km/h (2 Bft) W-SW 246 ° 0 min 0,000 mm 0,0 UV-I 0 W/m² 0,6 °C 12,9 km/h (3 Bft)
12.12.2016 06:01 1,9 °C 1,9 °C 91 % 1024,3 hPa 0,0 mm 10,0 km/h (2 Bft) SW 234 ° 0 min 0,000 mm 0,0 UV-I 0 W/m² 0,6 °C 17,7 km/h (3 Bft)
12.12.2016 06:02 1,9 °C 1,9 °C 91 % 1024,3 hPa 0,0 mm 8,3 km/h (2 Bft) SW 235 ° 0 min 0,000 mm 0,0 UV-I 0 W/m² 0,6 °C 12,9 km/h (3 Bft)
12.12.2016 06:03 1,9 °C 1,9 °C 91 % 1024,3 hPa 0,0 mm 5,9 km/h (2 Bft) SW 218 ° 0 min 0,000 mm 0,0 UV-I 0 W/m² 0,6 °C 6,4 km/h (2 Bft)
12.12.2016 06:04 1,9 °C 1,9 °C 91 % 1024,2 hPa 0,0 mm 8,1 km/h (2 Bft) SW 219 ° 0 min 0,000 mm 0,0 UV-I 0 W/m² 0,6 °C 17,7 km/h (3 Bft)
12.12.2016 06:05 1,9 °C 1,9 °C 91 % 1024,3 hPa 0,0 mm 7,4 km/h (2 Bft) S-SW 212 ° 0 min 0,000 mm 0,0 UV-I 0 W/m² 0,6 °C 12,9 km/h (3 Bft)
12.12.2016 06:06 1,9 °C 1,9 °C 91 % 1024,3 hPa 0,0 mm 10,8 km/h (2 Bft) SW 225 ° 0 min 0,000 mm 0,0 UV-I 0 W/m² 0,6 °C 19,3 km/h (3 Bft)
12.12.2016 06:07 1,9 °C 1,9 °C 91 % 1024,2 hPa 0,0 mm 13,1 km/h (3 Bft) SW 232 ° 0 min 0,000 mm 0,0 UV-I 0 W/m² 0,6 °C 17,7 km/h (3 Bft)
12.12.2016 06:08 1,9 °C 1,9 °C 91 % 1024,2 hPa 0,0 mm 4,8 km/h (1 Bft) SW 235 ° 0 min 0,000 mm 0,0 UV-I 0 W/m² 0,6 °C 9,7 km/h (2 Bft)
12.12.2016 06:09 1,9 °C 1,9 °C 91 % 1024,2 hPa 0,0 mm 9,4 km/h (2 Bft) W-SW 246 ° 0 min 0,000 mm 0,0 UV-I 0 W/m² 0,6 °C 17,7 km/h (3 Bft)
12.12.2016 06:10 1,9 °C 1,9 °C 91 % 1024,1 hPa 0,0 mm 11,7 km/h (2 Bft) SW 225 ° 0 min 0,000 mm 0,0 UV-I 0 W/m² 0,6 °C 20,9 km/h (4 Bft)
12.12.2016 06:11 1,9 °C 1,9 °C 91 % 1024,1 hPa 0,0 mm 9,6 km/h (2 Bft) S-SW 202 ° 0 min 0,000 mm 0,0 UV-I 0 W/m² 0,6 °C 16,1 km/h (3 Bft)
12.12.2016 06:12 1,9 °C 1,9 °C 91 % 1024,2 hPa 0,0 mm 8,3 km/h (2 Bft) W-SW 253 ° 0 min 0,000 mm 0,0 UV-I 0 W/m² 0,6 °C 14,5 km/h (3 Bft)
12.12.2016 06:13 1,9 °C 1,9 °C 91 % 1024,2 hPa 0,0 mm 7,6 km/h (2 Bft) W 269 ° 0 min 0,000 mm 0,0 UV-I 0 W/m² 0,6 °C 14,5 km/h (3 Bft)
12.12.2016 06:14 1,9 °C 1,9 °C 91 % 1024,2 hPa 0,0 mm 9,3 km/h (2 Bft) W-SW 238 ° 0 min 0,000 mm 0,0 UV-I 0 W/m² 0,6 °C 14,5 km/h (3 Bft)
12.12.2016 06:15 1,9 °C 1,9 °C 91 % 1024,2 hPa 0,0 mm 7,2 km/h (2 Bft) W 277 ° 0 min 0,000 mm 0,0 UV-I 0 W/m² 0,6 °C 14,5 km/h (3 Bft)
12.12.2016 06:16 1,9 °C 1,9 °C 91 % 1024,3 hPa 0,0 mm 13,7 km/h (3 Bft) W 266 ° 0 min 0,000 mm 0,0 UV-I 0 W/m² 0,6 °C 17,7 km/h (3 Bft)
12.12.2016 06:17 1,9 °C 1,9 °C 91 % 1024,3 hPa 0,0 mm 11,4 km/h (2 Bft) W 263 ° 0 min 0,000 mm 0,0 UV-I 0 W/m² 0,6 °C 16,1 km/h (3 Bft)
12.12.2016 06:18 1,9 °C 1,9 °C 91 % 1024,3 hPa 0,0 mm 6,9 km/h (2 Bft) W 273 ° 0 min 0,000 mm 0,0 UV-I 0 W/m² 0,6 °C 11,3 km/h (2 Bft)
12.12.2016 06:19 1,9 °C 1,9 °C 91 % 1024,4 hPa 0,0 mm 13,1 km/h (3 Bft) W-SW 248 ° 0 min 0,000 mm 0,0 UV-I 0 W/m² 0,6 °C 22,5 km/h (4 Bft)
12.12.2016 06:20 1,9 °C 1,9 °C 91 % 1024,3 hPa 0,0 mm 10,8 km/h (2 Bft) W 275 ° 0 min 0,000 mm 0,0 UV-I 0 W/m² 0,6 °C 14,5 km/h (3 Bft)
12.12.2016 06:21 1,9 °C 1,9 °C 91 % 1024,4 hPa 0,0 mm 8,9 km/h (2 Bft) W-NW 286 ° 0 min 0,000 mm 0,0 UV-I 0 W/m² 0,6 °C 14,5 km/h (3 Bft)
12.12.2016 06:22 1,9 °C 1,9 °C 90 % 1024,4 hPa 0,0 mm 9,4 km/h (2 Bft) W 261 ° 0 min 0,000 mm 0,0 UV-I 0 W/m² 0,4 °C 14,5 km/h (3 Bft)
12.12.2016 06:23 1,9 °C 1,9 °C 90 % 1024,4 hPa 0,0 mm 11,7 km/h (2 Bft) W 275 ° 0 min 0,000 mm 0,0 UV-I 0 W/m² 0,4 °C 16,1 km/h (3 Bft)
12.12.2016 06:24 1,9 °C 1,9 °C 90 % 1024,4 hPa 0,0 mm 6,6 km/h (2 Bft) W 266 ° 0 min 0,000 mm 0,0 UV-I 0 W/m² 0,4 °C 11,3 km/h (2 Bft)
12.12.2016 06:25 1,9 °C 1,9 °C 90 % 1024,4 hPa 0,0 mm 10,4 km/h (2 Bft) W 269 ° 0 min 0,000 mm 0,0 UV-I 0 W/m² 0,4 °C 16,1 km/h (3 Bft)
12.12.2016 06:26 1,9 °C 1,9 °C 90 % 1024,5 hPa 0,0 mm 9,9 km/h (2 Bft) W-SW 253 ° 0 min 0,000 mm 0,0 UV-I 0 W/m² 0,4 °C 14,5 km/h (3 Bft)
12.12.2016 06:27 1,9 °C 1,9 °C 90 % 1024,4 hPa 0,0 mm 12,8 km/h (3 Bft) W-SW 258 ° 0 min 0,000 mm 0,0 UV-I 0 W/m² 0,4 °C 20,9 km/h (4 Bft)
12.12.2016 06:28 1,9 °C 1,9 °C 90 % 1024,4 hPa 0,0 mm 13,3 km/h (3 Bft) W 259 ° 0 min 0,000 mm 0,0 UV-I 0 W/m² 0,4 °C 17,7 km/h (3 Bft)
12.12.2016 06:29 1,9 °C 1,9 °C 90 % 1024,4 hPa 0,0 mm 10,2 km/h (2 Bft) W 269 ° 0 min 0,000 mm 0,0 UV-I 0 W/m² 0,4 °C 14,5 km/h (3 Bft)
12.12.2016 06:30 1,9 °C 1,9 °C 90 % 1024,4 hPa 0,0 mm 7,8 km/h (2 Bft) W-SW 256 ° 0 min 0,000 mm 0,0 UV-I 0 W/m² 0,4 °C 12,9 km/h (3 Bft)
12.12.2016 06:31 1,9 °C 1,9 °C 90 % 1024,4 hPa 0,0 mm 17,7 km/h (3 Bft) W-SW 250 ° 0 min 0,000 mm 0,0 UV-I 0 W/m² 0,4 °C 22,5 km/h (4 Bft)
12.12.2016 06:32 1,9 °C 1,9 °C 90 % 1024,4 hPa 0,0 mm 13,9 km/h (3 Bft) W 278 ° 0 min 0,000 mm 0,0 UV-I 0 W/m² 0,4 °C 22,5 km/h (4 Bft)
12.12.2016 06:33 1,9 °C 1,9 °C 90 % 1024,4 hPa 0,0 mm 10,0 km/h (2 Bft) W 268 ° 0 min 0,000 mm 0,0 UV-I 0 W/m² 0,4 °C 16,1 km/h (3 Bft)
12.12.2016 06:34 1,9 °C 1,9 °C 90 % 1024,4 hPa 0,0 mm 9,5 km/h (2 Bft) W 261 ° 0 min 0,000 mm 0,0 UV-I 0 W/m² 0,4 °C 14,5 km/h (3 Bft)
12.12.2016 06:35 1,9 °C 1,9 °C 90 % 1024,4 hPa 0,0 mm 12,1 km/h (2 Bft) W-SW 244 ° 0 min 0,000 mm 0,0 UV-I 0 W/m² 0,4 °C 19,3 km/h (3 Bft)
12.12.2016 06:36 1,9 °C 1,9 °C 90 % 1024,4 hPa 0,0 mm 11,2 km/h (2 Bft) W 265 ° 0 min 0,000 mm 0,0 UV-I 0 W/m² 0,4 °C 12,9 km/h (3 Bft)
12.12.2016 06:37 1,9 °C 1,9 °C 90 % 1024,4 hPa 0,0 mm 13,3 km/h (3 Bft) W 260 ° 0 min 0,000 mm 0,0 UV-I 0 W/m² 0,4 °C 17,7 km/h (3 Bft)
12.12.2016 06:38 1,9 °C 1,9 °C 90 % 1024,4 hPa 0,0 mm 9,4 km/h (2 Bft) W 269 ° 0 min 0,000 mm 0,0 UV-I 0 W/m² 0,4 °C 16,1 km/h (3 Bft)
12.12.2016 06:39 1,9 °C 1,9 °C 90 % 1024,4 hPa 0,0 mm 11,4 km/h (2 Bft) W-SW 245 ° 0 min 0,000 mm 0,0 UV-I 0 W/m² 0,4 °C 17,7 km/h (3 Bft)
12.12.2016 06:40 1,9 °C 1,9 °C 90 % 1024,4 hPa 0,0 mm 8,3 km/h (2 Bft) W-SW 250 ° 0 min 0,000 mm 0,0 UV-I 0 W/m² 0,4 °C 11,3 km/h (2 Bft)
12.12.2016 06:41 1,9 °C 1,9 °C 90 % 1024,5 hPa 0,0 mm 13,4 km/h (3 Bft) W-NW 285 ° 0 min 0,000 mm 0,0 UV-I 0 W/m² 0,4 °C 19,3 km/h (3 Bft)
12.12.2016 06:42 1,9 °C 1,9 °C 90 % 1024,5 hPa 0,0 mm 9,7 km/h (2 Bft) W-SW 246 ° 0 min 0,000 mm 0,0 UV-I 0 W/m² 0,4 °C 12,9 km/h (3 Bft)
12.12.2016 06:43 1,9 °C 1,9 °C 90 % 1024,4 hPa 0,0 mm 10,7 km/h (2 Bft) W 272 ° 0 min 0,000 mm 0,0 UV-I 0 W/m² 0,4 °C 16,1 km/h (3 Bft)
12.12.2016 06:44 1,9 °C 1,9 °C 90 % 1024,4 hPa 0,0 mm 12,7 km/h (3 Bft) W-SW 249 ° 0 min 0,000 mm 0,0 UV-I 0 W/m² 0,4 °C 19,3 km/h (3 Bft)
12.12.2016 06:45 1,9 °C 1,9 °C 90 % 1024,5 hPa 0,0 mm 12,9 km/h (3 Bft) W-SW 243 ° 0 min 0,000 mm 0,0 UV-I 0 W/m² 0,4 °C 17,7 km/h (3 Bft)
12.12.2016 06:46 1,9 °C 1,9 °C 90 % 1024,4 hPa 0,0 mm 6,0 km/h (2 Bft) W-SW 245 ° 0 min 0,000 mm 0,0 UV-I 0 W/m² 0,4 °C 9,7 km/h (2 Bft)
12.12.2016 06:47 1,9 °C 1,9 °C 90 % 1024,4 hPa 0,0 mm 9,3 km/h (2 Bft) S-SW 212 ° 0 min 0,000 mm 0,0 UV-I 0 W/m² 0,4 °C 14,5 km/h (3 Bft)
12.12.2016 06:48 1,9 °C 1,9 °C 90 % 1024,4 hPa 0,0 mm 12,1 km/h (2 Bft) W-SW 255 ° 0 min 0,000 mm 0,0 UV-I 0 W/m² 0,4 °C 19,3 km/h (3 Bft)
12.12.2016 06:49 1,9 °C 1,9 °C 90 % 1024,3 hPa 0,0 mm 8,4 km/h (2 Bft) W-SW 242 ° 0 min 0,000 mm 0,0 UV-I 0 W/m² 0,4 °C 12,9 km/h (3 Bft)
12.12.2016 06:50 1,9 °C 1,9 °C 90 % 1024,4 hPa 0,0 mm 8,5 km/h (2 Bft) SW 224 ° 0 min 0,000 mm 0,0 UV-I 0 W/m² 0,4 °C 14,5 km/h (3 Bft)
12.12.2016 06:51 1,9 °C 1,9 °C 90 % 1024,4 hPa 0,0 mm 11,1 km/h (2 Bft) SW 228 ° 0 min 0,000 mm 0,0 UV-I 0 W/m² 0,4 °C 19,3 km/h (3 Bft)
12.12.2016 06:52 1,9 °C 1,9 °C 90 % 1024,4 hPa 0,0 mm 8,5 km/h (2 Bft) W-SW 244 ° 0 min 0,000 mm 0,0 UV-I 0 W/m² 0,4 °C 14,5 km/h (3 Bft)
12.12.2016 06:53 1,9 °C 1,9 °C 90 % 1024,4 hPa 0,0 mm 10,9 km/h (2 Bft) W-SW 240 ° 0 min 0,000 mm 0,0 UV-I 0 W/m² 0,4 °C 17,7 km/h (3 Bft)
12.12.2016 06:54 1,9 °C 1,9 °C 90 % 1024,4 hPa 0,0 mm 7,7 km/h (2 Bft) SW 236 ° 0 min 0,000 mm 0,0 UV-I 0 W/m² 0,4 °C 17,7 km/h (3 Bft)
12.12.2016 06:55 1,9 °C 1,9 °C 90 % 1024,4 hPa 0,0 mm 8,0 km/h (2 Bft) W-SW 244 ° 0 min 0,000 mm 0,0 UV-I 0 W/m² 0,4 °C 19,3 km/h (3 Bft)
12.12.2016 06:56 1,9 °C 1,9 °C 90 % 1024,4 hPa 0,0 mm 12,3 km/h (3 Bft) W-SW 250 ° 0 min 0,000 mm 0,0 UV-I 0 W/m² 0,4 °C 17,7 km/h (3 Bft)
12.12.2016 06:57 1,9 °C 1,9 °C 90 % 1024,3 hPa 0,0 mm 9,3 km/h (2 Bft) W-SW 257 ° 0 min 0,000 mm 0,0 UV-I 0 W/m² 0,4 °C 16,1 km/h (3 Bft)
12.12.2016 06:58 1,9 °C 1,9 °C 90 % 1024,3 hPa 0,0 mm 10,6 km/h (2 Bft) W-SW 257 ° 0 min 0,000 mm 0,0 UV-I 0 W/m² 0,4 °C 17,7 km/h (3 Bft)
12.12.2016 06:59 1,9 °C 1,9 °C 90 % 1024,2 hPa 0,0 mm 8,4 km/h (2 Bft) S 190 ° 0 min 0,000 mm 0,0 UV-I 0 W/m² 0,4 °C 17,7 km/h (3 Bft)
12.12.2016 07:00 1,9 °C 1,9 °C 90 % 1024,3 hPa 0,0 mm 11,7 km/h (2 Bft) S-SW 205 ° 0 min 0,000 mm 0,0 UV-I 0 W/m² 0,4 °C 16,1 km/h (3 Bft)
12.12.2016 07:01 1,9 °C 1,9 °C 90 % 1024,3 hPa 0,0 mm 11,7 km/h (2 Bft) W 271 ° 0 min 0,000 mm 0,0 UV-I 0 W/m² 0,4 °C 16,1 km/h (3 Bft)
12.12.2016 07:02 1,9 °C 1,9 °C 90 % 1024,3 hPa 0,0 mm 13,4 km/h (3 Bft) W 274 ° 0 min 0,000 mm 0,0 UV-I 0 W/m² 0,4 °C 17,7 km/h (3 Bft)
12.12.2016 07:03 1,9 °C 1,9 °C 90 % 1024,4 hPa 0,0 mm 14,8 km/h (3 Bft) W-SW 246 ° 0 min 0,000 mm 0,0 UV-I 0 W/m² 0,4 °C 19,3 km/h (3 Bft)
12.12.2016 07:04 1,9 °C 1,9 °C 90 % 1024,4 hPa 0,0 mm 9,1 km/h (2 Bft) SW 220 ° 0 min 0,000 mm 0,0 UV-I 0 W/m² 0,4 °C 16,1 km/h (3 Bft)
12.12.2016 07:05 1,9 °C 1,9 °C 90 % 1024,4 hPa 0,0 mm 15,7 km/h (3 Bft) W-SW 252 ° 0 min 0,000 mm 0,0 UV-I 0 W/m² 0,4 °C 20,9 km/h (4 Bft)
12.12.2016 07:06 1,9 °C 1,9 °C 90 % 1024,4 hPa 0,0 mm 9,7 km/h (2 Bft) W 265 ° 0 min 0,000 mm 0,0 UV-I 0 W/m² 0,4 °C 14,5 km/h (3 Bft)
12.12.2016 07:07 1,9 °C 1,9 °C 90 % 1024,5 hPa 0,0 mm 13,7 km/h (3 Bft) W 267 ° 0 min 0,000 mm 0,0 UV-I 0 W/m² 0,4 °C 19,3 km/h (3 Bft)
12.12.2016 07:08 1,9 °C 1,9 °C 90 % 1024,5 hPa 0,0 mm 16,6 km/h (3 Bft) W-SW 240 ° 0 min 0,000 mm 0,0 UV-I 0 W/m² 0,4 °C 22,5 km/h (4 Bft)
12.12.2016 07:09 1,9 °C 1,9 °C 90 % 1024,5 hPa 0,0 mm 12,2 km/h (2 Bft) W 275 ° 0 min 0,000 mm 0,0 UV-I 0 W/m² 0,4 °C 16,1 km/h (3 Bft)
12.12.2016 07:10 1,9 °C 1,9 °C 90 % 1024,5 hPa 0,0 mm 5,5 km/h (1 Bft) W 262 ° 0 min 0,000 mm 0,0 UV-I 0 W/m² 0,4 °C 8,0 km/h (2 Bft)
12.12.2016 07:11 1,9 °C 1,9 °C 90 % 1024,6 hPa 0,0 mm 8,2 km/h (2 Bft) W-SW 244 ° 0 min 0,000 mm 0,0 UV-I 0 W/m² 0,4 °C 12,9 km/h (3 Bft)
12.12.2016 07:12 1,9 °C 1,9 °C 90 % 1024,6 hPa 0,0 mm 7,2 km/h (2 Bft) W 273 ° 0 min 0,000 mm 0,0 UV-I 0 W/m² 0,4 °C 11,3 km/h (2 Bft)
12.12.2016 07:13 1,9 °C 1,9 °C 90 % 1024,6 hPa 0,0 mm 9,1 km/h (2 Bft) W-NW 284 ° 0 min 0,000 mm 0,0 UV-I 0 W/m² 0,4 °C 14,5 km/h (3 Bft)
12.12.2016 07:14 1,9 °C 1,9 °C 90 % 1024,6 hPa 0,0 mm 6,7 km/h (2 Bft) W-SW 248 ° 0 min 0,000 mm 0,0 UV-I 0 W/m² 0,4 °C 9,7 km/h (2 Bft)
12.12.2016 07:15 1,9 °C 1,9 °C 90 % 1024,7 hPa 0,0 mm 7,6 km/h (2 Bft) W 271 ° 0 min 0,000 mm 0,0 UV-I 0 W/m² 0,4 °C 11,3 km/h (2 Bft)
12.12.2016 07:16 1,9 °C 1,9 °C 90 % 1024,7 hPa 0,0 mm 3,2 km/h (1 Bft) W 271 ° 0 min 0,000 mm 0,0 UV-I 0 W/m² 0,4 °C 4,8 km/h (1 Bft)
12.12.2016 07:17 1,9 °C 1,9 °C 90 % 1024,7 hPa 0,0 mm 5,8 km/h (2 Bft) W-SW 256 ° 0 min 0,000 mm 0,0 UV-I 0 W/m² 0,4 °C 9,7 km/h (2 Bft)
12.12.2016 07:18 1,9 °C 1,9 °C 90 % 1024,6 hPa 0,0 mm 7,6 km/h (2 Bft) W-SW 250 ° 0 min 0,000 mm 0,0 UV-I 0 W/m² 0,4 °C 11,3 km/h (2 Bft)
12.12.2016 07:19 1,9 °C 1,9 °C 90 % 1024,7 hPa 0,0 mm 6,6 km/h (2 Bft) W-SW 246 ° 0 min 0,000 mm 0,0 UV-I 0 W/m² 0,4 °C 12,9 km/h (3 Bft)
12.12.2016 07:20 1,9 °C 1,9 °C 90 % 1024,6 hPa 0,0 mm 5,9 km/h (2 Bft) W-SW 250 ° 0 min 0,000 mm 0,0 UV-I 0 W/m² 0,4 °C 9,7 km/h (2 Bft)
12.12.2016 07:21 1,9 °C 1,9 °C 90 % 1024,6 hPa 0,0 mm 7,2 km/h (2 Bft) W-SW 244 ° 0 min 0,000 mm 0,0 UV-I 0 W/m² 0,4 °C 14,5 km/h (3 Bft)
12.12.2016 07:22 1,9 °C 1,9 °C 90 % 1024,6 hPa 0,0 mm 8,2 km/h (2 Bft) W-SW 249 ° 0 min 0,000 mm 0,0 UV-I 0 W/m² 0,4 °C 12,9 km/h (3 Bft)
12.12.2016 07:23 1,9 °C 1,9 °C 90 % 1024,6 hPa 0,0 mm 9,5 km/h (2 Bft) W-SW 246 ° 0 min 0,000 mm 0,0 UV-I 0 W/m² 0,4 °C 20,9 km/h (4 Bft)
12.12.2016 07:24 1,9 °C 1,9 °C 90 % 1024,6 hPa 0,0 mm 10,1 km/h (2 Bft) SW 232 ° 0 min 0,000 mm 0,0 UV-I 0 W/m² 0,4 °C 16,1 km/h (3 Bft)
12.12.2016 07:25 1,9 °C 1,9 °C 90 % 1024,6 hPa 0,0 mm 7,8 km/h (2 Bft) W-SW 242 ° 0 min 0,000 mm 0,0 UV-I 0 W/m² 0,4 °C 12,9 km/h (3 Bft)
12.12.2016 07:26 1,9 °C 1,9 °C 90 % 1024,6 hPa 0,0 mm 11,1 km/h (2 Bft) W 265 ° 0 min 0,000 mm 0,0 UV-I 0 W/m² 0,4 °C 17,7 km/h (3 Bft)
12.12.2016 07:27 1,9 °C 1,9 °C 90 % 1024,7 hPa 0,0 mm 10,3 km/h (2 Bft) S-SW 192 ° 0 min 0,000 mm 0,0 UV-I 0 W/m² 0,4 °C 16,1 km/h (3 Bft)
12.12.2016 07:28 1,9 °C 1,9 °C 90 % 1024,6 hPa 0,0 mm 10,3 km/h (2 Bft) W-SW 240 ° 0 min 0,000 mm 0,0 UV-I 0 W/m² 0,4 °C 12,9 km/h (3 Bft)
12.12.2016 07:29 1,9 °C 1,9 °C 90 % 1024,6 hPa 0,0 mm 15,2 km/h (3 Bft) W 259 ° 0 min 0,000 mm 0,0 UV-I 0 W/m² 0,4 °C 22,5 km/h (4 Bft)
12.12.2016 07:30 1,9 °C 1,9 °C 90 % 1024,6 hPa 0,0 mm 12,4 km/h (3 Bft) W-SW 258 ° 0 min 0,000 mm 0,0 UV-I 0 W/m² 0,4 °C 19,3 km/h (3 Bft)
12.12.2016 07:31 1,9 °C 1,9 °C 90 % 1024,6 hPa 0,0 mm 14,5 km/h (3 Bft) W 260 ° 0 min 0,000 mm 0,0 UV-I 0 W/m² 0,4 °C 22,5 km/h (4 Bft)
12.12.2016 07:32 1,9 °C 1,9 °C 90 % 1024,7 hPa 0,0 mm 11,0 km/h (2 Bft) W 272 ° 0 min 0,000 mm 0,0 UV-I 0 W/m² 0,4 °C 17,7 km/h (3 Bft)
12.12.2016 07:33 1,9 °C 1,9 °C 90 % 1024,7 hPa 0,0 mm 10,8 km/h (2 Bft) W-SW 244 ° 0 min 0,000 mm 0,0 UV-I 0 W/m² 0,4 °C 14,5 km/h (3 Bft)
12.12.2016 07:34 1,9 °C 1,9 °C 90 % 1024,7 hPa 0,0 mm 13,4 km/h (3 Bft) W-SW 247 ° 0 min 0,000 mm 0,0 UV-I 0 W/m² 0,4 °C 19,3 km/h (3 Bft)
12.12.2016 07:35 1,9 °C 1,9 °C 90 % 1024,7 hPa 0,0 mm 12,8 km/h (3 Bft) W-SW 249 ° 0 min 0,000 mm 0,0 UV-I 0 W/m² 0,4 °C 19,3 km/h (3 Bft)
12.12.2016 07:36 1,9 °C 1,9 °C 90 % 1024,8 hPa 0,0 mm 13,3 km/h (3 Bft) W-NW 296 ° 0 min 0,000 mm 0,0 UV-I 0 W/m² 0,4 °C 16,1 km/h (3 Bft)
12.12.2016 07:37 1,9 °C 1,9 °C 90 % 1024,8 hPa 0,0 mm 14,4 km/h (3 Bft) W-SW 242 ° 0 min 0,000 mm 0,0 UV-I 0 W/m² 0,4 °C 19,3 km/h (3 Bft)
12.12.2016 07:38 1,9 °C 1,9 °C 90 % 1024,8 hPa 0,0 mm 12,3 km/h (3 Bft) W-SW 258 ° 0 min 0,000 mm 0,0 UV-I 0 W/m² 0,4 °C 27,4 km/h (4 Bft)
12.12.2016 07:39 1,9 °C 1,9 °C 90 % 1024,7 hPa 0,0 mm 15,4 km/h (3 Bft) W 261 ° 0 min 0,000 mm 0,0 UV-I 0 W/m² 0,4 °C 24,1 km/h (4 Bft)
12.12.2016 07:40 1,9 °C 2,0 °C 90 % 1024,8 hPa 0,0 mm 14,5 km/h (3 Bft) W-SW 248 ° 0 min 0,000 mm 0,0 UV-I 0 W/m² 0,4 °C 19,3 km/h (3 Bft)
12.12.2016 07:41 2,0 °C 2,0 °C 89 % 1024,8 hPa 0,0 mm 16,7 km/h (3 Bft) W-SW 254 ° 0 min 0,000 mm 0,0 UV-I 0 W/m² 0,4 °C 25,7 km/h (4 Bft)
12.12.2016 07:42 2,0 °C 2,0 °C 90 % 1024,8 hPa 0,0 mm 14,5 km/h (3 Bft) W 275 ° 0 min 0,000 mm 0,0 UV-I 0 W/m² 0,5 °C 19,3 km/h (3 Bft)
12.12.2016 07:43 2,0 °C 2,0 °C 89 % 1024,8 hPa 0,0 mm 16,9 km/h (3 Bft) W-NW 284 ° 0 min 0,000 mm 0,0 UV-I 0 W/m² 0,4 °C 24,1 km/h (4 Bft)
12.12.2016 07:44 2,0 °C 2,0 °C 89 % 1024,8 hPa 0,0 mm 10,2 km/h (2 Bft) W-SW 250 ° 0 min 0,000 mm 0,0 UV-I 0 W/m² 0,4 °C 12,9 km/h (3 Bft)
12.12.2016 07:45 2,0 °C 2,0 °C 89 % 1024,8 hPa 0,0 mm 11,2 km/h (2 Bft) W 264 ° 0 min 0,000 mm 0,0 UV-I 0 W/m² 0,4 °C 16,1 km/h (3 Bft)
12.12.2016 07:46 2,0 °C 2,0 °C 89 % 1024,9 hPa 0,0 mm 11,8 km/h (2 Bft) NW 309 ° 0 min 0,000 mm 0,0 UV-I 0 W/m² 0,4 °C 17,7 km/h (3 Bft)
12.12.2016 07:47 2,0 °C 2,0 °C 89 % 1024,9 hPa 0,0 mm 10,9 km/h (2 Bft) W-SW 254 ° 0 min 0,000 mm 0,0 UV-I 0 W/m² 0,4 °C 17,7 km/h (3 Bft)
12.12.2016 07:48 2,0 °C 2,1 °C 90 % 1024,9 hPa 0,0 mm 10,7 km/h (2 Bft) W-SW 249 ° 0 min 0,000 mm 0,0 UV-I 0 W/m² 0,5 °C 14,5 km/h (3 Bft)
12.12.2016 07:49 2,0 °C 2,0 °C 90 % 1024,9 hPa 0,0 mm 8,6 km/h (2 Bft) W-SW 253 ° 0 min 0,000 mm 0,0 UV-I 0 W/m² 0,5 °C 11,3 km/h (2 Bft)
12.12.2016 07:50 2,0 °C 2,0 °C 89 % 1024,9 hPa 0,0 mm 8,4 km/h (2 Bft) W 265 ° 0 min 0,000 mm 0,0 UV-I 0 W/m² 0,4 °C 12,9 km/h (3 Bft)
12.12.2016 07:51 2,0 °C 2,1 °C 89 % 1025,0 hPa 0,0 mm 11,6 km/h (2 Bft) W 273 ° 0 min 0,000 mm 0,0 UV-I 0 W/m² 0,4 °C 17,7 km/h (3 Bft)
12.12.2016 07:52 2,0 °C 2,0 °C 89 % 1025,0 hPa 0,0 mm 7,9 km/h (2 Bft) W-SW 249 ° 0 min 0,000 mm 0,0 UV-I 0 W/m² 0,4 °C 12,9 km/h (3 Bft)
12.12.2016 07:53 2,0 °C 2,0 °C 89 % 1025,0 hPa 0,0 mm 11,0 km/h (2 Bft) W 271 ° 0 min 0,000 mm 0,0 UV-I 0 W/m² 0,4 °C 17,7 km/h (3 Bft)
12.12.2016 07:54 2,0 °C 2,0 °C 90 % 1025,0 hPa 0,0 mm 7,1 km/h (2 Bft) W 267 ° 0 min 0,000 mm 0,0 UV-I 0 W/m² 0,5 °C 11,3 km/h (2 Bft)
12.12.2016 07:55 2,0 °C 2,0 °C 89 % 1025,1 hPa 0,0 mm 9,9 km/h (2 Bft) W-SW 252 ° 0 min 0,000 mm 0,0 UV-I 0 W/m² 0,4 °C 14,5 km/h (3 Bft)
12.12.2016 07:56 2,0 °C 2,0 °C 89 % 1025,1 hPa 0,0 mm 13,6 km/h (3 Bft) W 261 ° 0 min 0,000 mm 0,0 UV-I 0 W/m² 0,4 °C 17,7 km/h (3 Bft)
12.12.2016 07:57 2,0 °C 2,0 °C 90 % 1025,1 hPa 0,0 mm 11,8 km/h (2 Bft) SW 234 ° 0 min 0,000 mm 0,0 UV-I 0 W/m² 0,5 °C 17,7 km/h (3 Bft)
12.12.2016 07:58 2,0 °C 2,0 °C 89 % 1025,1 hPa 0,0 mm 7,7 km/h (2 Bft) W 277 ° 0 min 0,000 mm 0,0 UV-I 0 W/m² 0,4 °C 11,3 km/h (2 Bft)
12.12.2016 07:59 2,0 °C 2,0 °C 89 % 1025,1 hPa 0,0 mm 7,1 km/h (2 Bft) W-NW 285 ° 0 min 0,000 mm 0,0 UV-I 0 W/m² 0,4 °C 11,3 km/h (2 Bft)
12.12.2016 08:00 2,0 °C 2,0 °C 89 % 1025,1 hPa 0,0 mm 7,3 km/h (2 Bft) W-SW 240 ° 0 min 0,000 mm 0,0 UV-I 0 W/m² 0,4 °C 9,7 km/h (2 Bft)
12.12.2016 08:01 2,0 °C 2,0 °C 90 % 1025,2 hPa 0,0 mm 15,7 km/h (3 Bft) W 271 ° 0 min 0,000 mm 0,0 UV-I 0 W/m² 0,5 °C 22,5 km/h (4 Bft)
12.12.2016 08:02 2,0 °C 2,0 °C 89 % 1025,2 hPa 0,0 mm 12,3 km/h (3 Bft) W-SW 247 ° 0 min 0,000 mm 0,0 UV-I 0 W/m² 0,4 °C 17,7 km/h (3 Bft)
12.12.2016 08:03 2,0 °C 2,0 °C 89 % 1025,1 hPa 0,0 mm 13,2 km/h (3 Bft) W-SW 258 ° 0 min 0,000 mm 0,0 UV-I 0 W/m² 0,4 °C 16,1 km/h (3 Bft)
12.12.2016 08:04 2,0 °C 2,0 °C 89 % 1025,2 hPa 0,0 mm 13,2 km/h (3 Bft) W-SW 258 ° 0 min 0,000 mm 0,0 UV-I 0 W/m² 0,4 °C 19,3 km/h (3 Bft)
12.12.2016 08:05 2,0 °C 2,1 °C 89 % 1025,1 hPa 0,0 mm 14,6 km/h (3 Bft) W-SW 254 ° 0 min 0,000 mm 0,0 UV-I 0 W/m² 0,4 °C 17,7 km/h (3 Bft)
12.12.2016 08:06 2,0 °C 2,1 °C 90 % 1025,1 hPa 0,0 mm 14,5 km/h (3 Bft) W-SW 248 ° 0 min 0,000 mm 0,0 UV-I 0 W/m² 0,5 °C 20,9 km/h (4 Bft)
12.12.2016 08:07 2,0 °C 2,1 °C 89 % 1025,2 hPa 0,0 mm 6,4 km/h (2 Bft) W 259 ° 0 min 0,000 mm 0,0 UV-I 0 W/m² 0,4 °C 12,9 km/h (3 Bft)
12.12.2016 08:08 2,0 °C 2,0 °C 90 % 1025,1 hPa 0,0 mm 9,1 km/h (2 Bft) W-SW 252 ° 0 min 0,000 mm 0,0 UV-I 0 W/m² 0,5 °C 11,3 km/h (2 Bft)
12.12.2016 08:09 2,0 °C 2,1 °C 89 % 1025,1 hPa 0,0 mm 8,3 km/h (2 Bft) W 265 ° 0 min 0,000 mm 0,0 UV-I 0 W/m² 0,4 °C 16,1 km/h (3 Bft)
12.12.2016 08:10 2,0 °C 2,1 °C 89 % 1025,1 hPa 0,0 mm 9,8 km/h (2 Bft) W-SW 246 ° 0 min 0,000 mm 0,0 UV-I 0 W/m² 0,4 °C 12,9 km/h (3 Bft)
12.12.2016 08:11 2,0 °C 2,1 °C 90 % 1025,2 hPa 0,0 mm 11,6 km/h (2 Bft) W-SW 254 ° 0 min 0,000 mm 0,0 UV-I 0 W/m² 0,5 °C 16,1 km/h (3 Bft)
12.12.2016 08:12 2,1 °C 2,1 °C 89 % 1025,2 hPa 0,0 mm 7,8 km/h (2 Bft) W 264 ° 0 min 0,000 mm 0,0 UV-I 0 W/m² 0,5 °C 11,3 km/h (2 Bft)
12.12.2016 08:13 2,1 °C 2,1 °C 90 % 1025,2 hPa 0,0 mm 7,6 km/h (2 Bft) W-SW 243 ° 0 min 0,000 mm 0,0 UV-I 0 W/m² 0,6 °C 12,9 km/h (3 Bft)
12.12.2016 08:14 2,1 °C 2,1 °C 90 % 1025,2 hPa 0,0 mm 8,8 km/h (2 Bft) W 259 ° 0 min 0,000 mm 0,0 UV-I 0 W/m² 0,6 °C 16,1 km/h (3 Bft)
12.12.2016 08:15 2,1 °C 2,1 °C 90 % 1025,2 hPa 0,0 mm 11,1 km/h (2 Bft) W-SW 246 ° 0 min 0,000 mm 0,0 UV-I 0 W/m² 0,6 °C 12,9 km/h (3 Bft)
12.12.2016 08:16 2,1 °C 2,1 °C 90 % 1025,2 hPa 0,0 mm 8,2 km/h (2 Bft) W-SW 255 ° 0 min 0,000 mm 0,0 UV-I 0 W/m² 0,6 °C 12,9 km/h (3 Bft)
12.12.2016 08:17 2,1 °C 2,1 °C 90 % 1025,3 hPa 0,0 mm 6,2 km/h (2 Bft) S-SW 212 ° 0 min 0,000 mm 0,0 UV-I 0 W/m² 0,6 °C 11,3 km/h (2 Bft)
12.12.2016 08:18 2,1 °C 2,1 °C 90 % 1025,3 hPa 0,0 mm 14,0 km/h (3 Bft) W-SW 257 ° 0 min 0,000 mm 0,0 UV-I 0 W/m² 0,6 °C 17,7 km/h (3 Bft)
12.12.2016 08:19 2,1 °C 2,1 °C 89 % 1025,2 hPa 0,0 mm 6,7 km/h (2 Bft) W-SW 250 ° 0 min 0,000 mm 0,0 UV-I 0 W/m² 0,5 °C 9,7 km/h (2 Bft)
12.12.2016 08:20 2,1 °C 2,1 °C 90 % 1025,2 hPa 0,0 mm 5,5 km/h (1 Bft) W 263 ° 0 min 0,000 mm 0,0 UV-I 0 W/m² 0,6 °C 9,7 km/h (2 Bft)
12.12.2016 08:21 2,1 °C 2,1 °C 89 % 1025,2 hPa 0,0 mm 7,4 km/h (2 Bft) W 260 ° 0 min 0,000 mm 0,0 UV-I 5 W/m² 0,5 °C 12,9 km/h (3 Bft)
12.12.2016 08:22 2,1 °C 2,1 °C 90 % 1025,3 hPa 0,0 mm 7,0 km/h (2 Bft) W-SW 240 ° 0 min 0,000 mm 0,0 UV-I 5 W/m² 0,6 °C 11,3 km/h (2 Bft)
12.12.2016 08:23 2,1 °C 2,1 °C 90 % 1025,3 hPa 0,0 mm 8,1 km/h (2 Bft) W 264 ° 0 min 0,000 mm 0,0 UV-I 5 W/m² 0,6 °C 12,9 km/h (3 Bft)
12.12.2016 08:24 2,0 °C 2,1 °C 89 % 1025,4 hPa 0,0 mm 8,1 km/h (2 Bft) W-SW 238 ° 0 min 0,000 mm 0,0 UV-I 5 W/m² 0,4 °C 11,3 km/h (2 Bft)
12.12.2016 08:25 2,1 °C 2,1 °C 89 % 1025,3 hPa 0,0 mm 8,9 km/h (2 Bft) W 262 ° 0 min 0,000 mm 0,0 UV-I 5 W/m² 0,5 °C 11,3 km/h (2 Bft)
12.12.2016 08:26 2,0 °C 2,1 °C 89 % 1025,3 hPa 0,0 mm 8,3 km/h (2 Bft) W-SW 244 ° 0 min 0,000 mm 0,0 UV-I 5 W/m² 0,4 °C 12,9 km/h (3 Bft)
12.12.2016 08:27 2,1 °C 2,1 °C 89 % 1025,3 hPa 0,0 mm 5,0 km/h (1 Bft) W 265 ° 0 min 0,000 mm 0,0 UV-I 5 W/m² 0,5 °C 8,0 km/h (2 Bft)
12.12.2016 08:28 2,0 °C 2,1 °C 89 % 1025,4 hPa 0,0 mm 8,0 km/h (2 Bft) W-SW 248 ° 0 min 0,000 mm 0,0 UV-I 5 W/m² 0,4 °C 12,9 km/h (3 Bft)
12.12.2016 08:29 2,1 °C 2,1 °C 89 % 1025,4 hPa 0,0 mm 10,2 km/h (2 Bft) W 269 ° 0 min 0,000 mm 0,0 UV-I 0 W/m² 0,5 °C 14,5 km/h (3 Bft)
12.12.2016 08:30 2,1 °C 2,1 °C 89 % 1025,4 hPa 0,0 mm 7,6 km/h (2 Bft) W 263 ° 0 min 0,000 mm 0,0 UV-I 0 W/m² 0,5 °C 11,3 km/h (2 Bft)
12.12.2016 08:31 2,1 °C 2,1 °C 89 % 1025,4 hPa 0,0 mm 9,0 km/h (2 Bft) W 269 ° 0 min 0,000 mm 0,0 UV-I 0 W/m² 0,5 °C 16,1 km/h (3 Bft)
12.12.2016 08:32 2,1 °C 2,1 °C 89 % 1025,4 hPa 0,0 mm 9,6 km/h (2 Bft) W 271 ° 0 min 0,000 mm 0,0 UV-I 0 W/m² 0,5 °C 12,9 km/h (3 Bft)
12.12.2016 08:33 2,1 °C 2,1 °C 89 % 1025,5 hPa 0,0 mm 5,7 km/h (1 Bft) W-SW 252 ° 0 min 0,000 mm 0,0 UV-I 5 W/m² 0,5 °C 6,4 km/h (2 Bft)
12.12.2016 08:34 2,1 °C 2,1 °C 89 % 1025,5 hPa 0,0 mm 6,7 km/h (2 Bft) SW 236 ° 0 min 0,000 mm 0,0 UV-I 5 W/m² 0,5 °C 11,3 km/h (2 Bft)
12.12.2016 08:35 2,1 °C 2,1 °C 89 % 1025,5 hPa 0,0 mm 4,8 km/h (1 Bft) W-SW 244 ° 0 min 0,000 mm 0,0 UV-I 5 W/m² 0,5 °C 6,4 km/h (2 Bft)
12.12.2016 08:36 2,1 °C 2,1 °C 89 % 1025,5 hPa 0,0 mm 6,4 km/h (2 Bft) W-SW 250 ° 0 min 0,000 mm 0,0 UV-I 5 W/m² 0,5 °C 11,3 km/h (2 Bft)
12.12.2016 08:37 2,1 °C 2,1 °C 89 % 1025,5 hPa 0,0 mm 5,6 km/h (1 Bft) W-SW 252 ° 0 min 0,000 mm 0,0 UV-I 5 W/m² 0,5 °C 9,7 km/h (2 Bft)
12.12.2016 08:38 2,1 °C 2,1 °C 89 % 1025,5 hPa 0,0 mm 5,5 km/h (1 Bft) SW 224 ° 0 min 0,000 mm 0,0 UV-I 7 W/m² 0,5 °C 8,0 km/h (2 Bft)
12.12.2016 08:39 2,1 °C 2,1 °C 89 % 1025,5 hPa 0,0 mm 5,0 km/h (1 Bft) W 259 ° 0 min 0,000 mm 0,0 UV-I 7 W/m² 0,5 °C 6,4 km/h (2 Bft)
12.12.2016 08:40 2,1 °C 2,1 °C 89 % 1025,5 hPa 0,0 mm 6,9 km/h (2 Bft) W-NW 285 ° 0 min 0,000 mm 0,0 UV-I 7 W/m² 0,5 °C 12,9 km/h (3 Bft)
12.12.2016 08:41 2,1 °C 2,1 °C 89 % 1025,6 hPa 0,0 mm 7,4 km/h (2 Bft) W-SW 241 ° 0 min 0,000 mm 0,0 UV-I 7 W/m² 0,5 °C 12,9 km/h (3 Bft)
12.12.2016 08:42 2,1 °C 2,1 °C 89 % 1025,5 hPa 0,0 mm 7,2 km/h (2 Bft) W-NW 291 ° 0 min 0,000 mm 0,0 UV-I 9 W/m² 0,5 °C 12,9 km/h (3 Bft)
12.12.2016 08:43 2,1 °C 2,1 °C 89 % 1025,6 hPa 0,0 mm 7,6 km/h (2 Bft) SW 216 ° 0 min 0,000 mm 0,0 UV-I 9 W/m² 0,5 °C 11,3 km/h (2 Bft)
12.12.2016 08:44 2,1 °C 2,1 °C 89 % 1025,6 hPa 0,0 mm 4,5 km/h (1 Bft) W-SW 246 ° 0 min 0,000 mm 0,0 UV-I 9 W/m² 0,5 °C 6,4 km/h (2 Bft)
12.12.2016 08:45 2,1 °C 2,1 °C 89 % 1025,6 hPa 0,0 mm 5,9 km/h (2 Bft) W-SW 250 ° 0 min 0,000 mm 0,0 UV-I 11 W/m² 0,5 °C 12,9 km/h (3 Bft)
12.12.2016 08:46 2,1 °C 2,1 °C 89 % 1025,7 hPa 0,0 mm 8,9 km/h (2 Bft) W 261 ° 0 min 0,000 mm 0,0 UV-I 11 W/m² 0,5 °C 12,9 km/h (3 Bft)
12.12.2016 08:47 2,1 °C 2,1 °C 89 % 1025,6 hPa 0,0 mm 5,9 km/h (2 Bft) W-SW 254 ° 0 min 0,000 mm 0,0 UV-I 11 W/m² 0,5 °C 11,3 km/h (2 Bft)
12.12.2016 08:48 2,1 °C 2,1 °C 89 % 1025,6 hPa 0,0 mm 4,4 km/h (1 Bft) SW 234 ° 0 min 0,000 mm 0,0 UV-I 11 W/m² 0,5 °C 4,8 km/h (1 Bft)
12.12.2016 08:49 2,1 °C 2,1 °C 89 % 1025,6 hPa 0,0 mm 3,5 km/h (1 Bft) SW 225 ° 0 min 0,000 mm 0,0 UV-I 12 W/m² 0,5 °C 8,0 km/h (2 Bft)
12.12.2016 08:50 2,1 °C 2,1 °C 89 % 1025,6 hPa 0,0 mm 4,6 km/h (1 Bft) W-SW 254 ° 0 min 0,000 mm 0,0 UV-I 12 W/m² 0,5 °C 12,9 km/h (3 Bft)
12.12.2016 08:51 2,1 °C 2,1 °C 89 % 1025,6 hPa 0,0 mm 7,0 km/h (2 Bft) S-SW 199 ° 0 min 0,000 mm 0,0 UV-I 12 W/m² 0,5 °C 12,9 km/h (3 Bft)
12.12.2016 08:52 2,1 °C 2,1 °C 89 % 1025,6 hPa 0,0 mm 8,3 km/h (2 Bft) W 267 ° 0 min 0,000 mm 0,0 UV-I 12 W/m² 0,5 °C 12,9 km/h (3 Bft)
12.12.2016 08:53 2,1 °C 2,1 °C 89 % 1025,6 hPa 0,0 mm 7,1 km/h (2 Bft) W-SW 257 ° 0 min 0,000 mm 0,0 UV-I 12 W/m² 0,5 °C 11,3 km/h (2 Bft)
12.12.2016 08:54 2,1 °C 2,1 °C 89 % 1025,6 hPa 0,0 mm 10,6 km/h (2 Bft) W 268 ° 0 min 0,000 mm 0,0 UV-I 12 W/m² 0,5 °C 20,9 km/h (4 Bft)
12.12.2016 08:55 2,1 °C 2,1 °C 89 % 1025,6 hPa 0,0 mm 9,9 km/h (2 Bft) SW 217 ° 0 min 0,000 mm 0,0 UV-I 12 W/m² 0,5 °C 20,9 km/h (4 Bft)
12.12.2016 08:56 2,1 °C 2,1 °C 89 % 1025,7 hPa 0,0 mm 6,0 km/h (2 Bft) W 262 ° 0 min 0,000 mm 0,0 UV-I 11 W/m² 0,5 °C 11,3 km/h (2 Bft)
12.12.2016 08:57 2,1 °C 2,1 °C 89 % 1025,6 hPa 0,0 mm 6,8 km/h (2 Bft) W-SW 244 ° 0 min 0,000 mm 0,0 UV-I 11 W/m² 0,5 °C 9,7 km/h (2 Bft)
12.12.2016 08:58 2,1 °C 2,1 °C 89 % 1025,6 hPa 0,0 mm 6,9 km/h (2 Bft) W-SW 252 ° 0 min 0,000 mm 0,0 UV-I 11 W/m² 0,5 °C 9,7 km/h (2 Bft)
12.12.2016 08:59 2,1 °C 2,1 °C 89 % 1025,6 hPa 0,0 mm 3,8 km/h (1 Bft) W-SW 238 ° 0 min 0,000 mm 0,0 UV-I 11 W/m² 0,5 °C 4,8 km/h (1 Bft)
12.12.2016 09:00 2,1 °C 2,1 °C 89 % 1025,7 hPa 0,0 mm 4,8 km/h (1 Bft) W-SW 253 ° 0 min 0,000 mm 0,0 UV-I 11 W/m² 0,5 °C 6,4 km/h (2 Bft)
12.12.2016 09:01 2,1 °C 2,1 °C 89 % 1025,7 hPa 0,0 mm 6,6 km/h (2 Bft) S-SW 198 ° 0 min 0,000 mm 0,0 UV-I 11 W/m² 0,5 °C 9,7 km/h (2 Bft)
12.12.2016 09:02 2,1 °C 2,1 °C 89 % 1025,7 hPa 0,0 mm 5,4 km/h (1 Bft) W-SW 252 ° 0 min 0,000 mm 0,0 UV-I 11 W/m² 0,5 °C 8,0 km/h (2 Bft)
12.12.2016 09:03 2,2 °C 2,2 °C 89 % 1025,7 hPa 0,0 mm 3,5 km/h (1 Bft) W-SW 246 ° 0 min 0,000 mm 0,0 UV-I 12 W/m² 0,6 °C 6,4 km/h (2 Bft)
12.12.2016 09:04 2,1 °C 2,2 °C 89 % 1025,7 hPa 0,0 mm 5,7 km/h (1 Bft) SW 233 ° 0 min 0,000 mm 0,0 UV-I 12 W/m² 0,5 °C 9,7 km/h (2 Bft)
12.12.2016 09:05 2,1 °C 2,1 °C 89 % 1025,7 hPa 0,0 mm 6,0 km/h (2 Bft) W-SW 244 ° 0 min 0,000 mm 0,0 UV-I 12 W/m² 0,5 °C 8,0 km/h (2 Bft)
12.12.2016 09:06 2,2 °C 2,2 °C 89 % 1025,7 hPa 0,0 mm 8,6 km/h (2 Bft) W-SW 254 ° 0 min 0,000 mm 0,0 UV-I 12 W/m² 0,6 °C 11,3 km/h (2 Bft)
12.12.2016 09:07 2,1 °C 2,2 °C 89 % 1025,8 hPa 0,0 mm 6,0 km/h (2 Bft) W 265 ° 0 min 0,000 mm 0,0 UV-I 12 W/m² 0,5 °C 12,9 km/h (3 Bft)
12.12.2016 09:08 2,2 °C 2,2 °C 89 % 1025,8 hPa 0,0 mm 7,0 km/h (2 Bft) W-SW 244 ° 0 min 0,000 mm 0,0 UV-I 12 W/m² 0,6 °C 12,9 km/h (3 Bft)
12.12.2016 09:09 2,2 °C 2,2 °C 89 % 1025,8 hPa 0,0 mm 6,0 km/h (2 Bft) W-SW 254 ° 0 min 0,000 mm 0,0 UV-I 11 W/m² 0,6 °C 11,3 km/h (2 Bft)
12.12.2016 09:10 2,2 °C 2,2 °C 89 % 1025,8 hPa 0,0 mm 5,9 km/h (2 Bft) W-SW 248 ° 0 min 0,000 mm 0,0 UV-I 11 W/m² 0,6 °C 9,7 km/h (2 Bft)
12.12.2016 09:11 2,2 °C 2,2 °C 89 % 1025,9 hPa 0,0 mm 9,4 km/h (2 Bft) W 260 ° 0 min 0,000 mm 0,0 UV-I 11 W/m² 0,6 °C 14,5 km/h (3 Bft)
12.12.2016 09:12 2,2 °C 2,2 °C 89 % 1025,8 hPa 0,0 mm 7,5 km/h (2 Bft) W 270 ° 0 min 0,000 mm 0,0 UV-I 11 W/m² 0,6 °C 11,3 km/h (2 Bft)
12.12.2016 09:13 2,2 °C 2,2 °C 89 % 1025,9 hPa 0,0 mm 4,2 km/h (1 Bft) W-SW 248 ° 0 min 0,000 mm 0,0 UV-I 11 W/m² 0,6 °C 9,7 km/h (2 Bft)
12.12.2016 09:14 2,2 °C 2,2 °C 89 % 1025,9 hPa 0,0 mm 5,4 km/h (1 Bft) W 265 ° 0 min 0,000 mm 0,0 UV-I 12 W/m² 0,6 °C 9,7 km/h (2 Bft)
12.12.2016 09:15 2,2 °C 2,2 °C 89 % 1025,9 hPa 0,0 mm 7,0 km/h (2 Bft) W 262 ° 0 min 0,000 mm 0,0 UV-I 12 W/m² 0,6 °C 14,5 km/h (3 Bft)
12.12.2016 09:16 2,2 °C 2,2 °C 89 % 1025,9 hPa 0,0 mm 8,3 km/h (2 Bft) W 278 ° 0 min 0,000 mm 0,0 UV-I 12 W/m² 0,6 °C 12,9 km/h (3 Bft)
12.12.2016 09:17 2,2 °C 2,2 °C 89 % 1025,9 hPa 0,0 mm 6,4 km/h (2 Bft) SW 223 ° 0 min 0,000 mm 0,0 UV-I 11 W/m² 0,6 °C 11,3 km/h (2 Bft)
12.12.2016 09:18 2,2 °C 2,2 °C 89 % 1025,9 hPa 0,0 mm 6,2 km/h (2 Bft) W-SW 244 ° 0 min 0,000 mm 0,0 UV-I 11 W/m² 0,6 °C 8,0 km/h (2 Bft)
12.12.2016 09:19 2,2 °C 2,2 °C 89 % 1026,0 hPa 0,0 mm 7,6 km/h (2 Bft) W-NW 284 ° 0 min 0,000 mm 0,0 UV-I 12 W/m² 0,6 °C 12,9 km/h (3 Bft)
12.12.2016 09:20 2,2 °C 2,2 °C 89 % 1026,0 hPa 0,0 mm 5,5 km/h (1 Bft) W-SW 248 ° 0 min 0,000 mm 0,0 UV-I 14 W/m² 0,6 °C 12,9 km/h (3 Bft)
12.12.2016 09:21 2,2 °C 2,2 °C 89 % 1026,0 hPa 0,0 mm 5,7 km/h (1 Bft) W 263 ° 0 min 0,000 mm 0,0 UV-I 14 W/m² 0,6 °C 9,7 km/h (2 Bft)
12.12.2016 09:22 2,2 °C 2,2 °C 89 % 1026,0 hPa 0,0 mm 5,8 km/h (2 Bft) W 259 ° 0 min 0,000 mm 0,0 UV-I 14 W/m² 0,6 °C 9,7 km/h (2 Bft)
12.12.2016 09:23 2,2 °C 2,2 °C 89 % 1026,0 hPa 0,0 mm 4,5 km/h (1 Bft) W-SW 256 ° 0 min 0,000 mm 0,0 UV-I 12 W/m² 0,6 °C 6,4 km/h (2 Bft)
12.12.2016 09:24 2,2 °C 2,2 °C 89 % 1026,1 hPa 0,0 mm 6,6 km/h (2 Bft) W-SW 254 ° 0 min 0,000 mm 0,0 UV-I 12 W/m² 0,6 °C 11,3 km/h (2 Bft)
12.12.2016 09:25 2,2 °C 2,2 °C 89 % 1026,1 hPa 0,0 mm 8,1 km/h (2 Bft) W-SW 246 ° 0 min 0,000 mm 0,0 UV-I 12 W/m² 0,6 °C 12,9 km/h (3 Bft)
12.12.2016 09:26 2,2 °C 2,2 °C 89 % 1026,1 hPa 0,0 mm 6,6 km/h (2 Bft) W 265 ° 0 min 0,000 mm 0,0 UV-I 12 W/m² 0,6 °C 11,3 km/h (2 Bft)
12.12.2016 09:27 2,2 °C 2,2 °C 89 % 1026,1 hPa 0,0 mm 6,5 km/h (2 Bft) W 259 ° 0 min 0,000 mm 0,0 UV-I 12 W/m² 0,6 °C 11,3 km/h (2 Bft)
12.12.2016 09:28 2,2 °C 2,2 °C 89 % 1026,1 hPa 0,0 mm 5,8 km/h (2 Bft) W-SW 254 ° 0 min 0,000 mm 0,0 UV-I 12 W/m² 0,6 °C 8,0 km/h (2 Bft)
12.12.2016 09:29 2,2 °C 2,2 °C 89 % 1026,1 hPa 0,0 mm 3,0 km/h (1 Bft) W-SW 254 ° 0 min 0,000 mm 0,0 UV-I 12 W/m² 0,6 °C 4,8 km/h (1 Bft)
12.12.2016 09:30 2,2 °C 2,2 °C 89 % 1026,0 hPa 0,0 mm 3,2 km/h (1 Bft) W-SW 245 ° 0 min 0,000 mm 0,0 UV-I 12 W/m² 0,6 °C 4,8 km/h (1 Bft)
12.12.2016 09:31 2,2 °C 2,2 °C 89 % 1026,1 hPa 0,0 mm 7,1 km/h (2 Bft) W-SW 254 ° 0 min 0,000 mm 0,0 UV-I 12 W/m² 0,6 °C 11,3 km/h (2 Bft)
12.12.2016 09:32 2,2 °C 2,2 °C 89 % 1026,0 hPa 0,0 mm 3,7 km/h (1 Bft) W-SW 250 ° 0 min 0,000 mm 0,0 UV-I 12 W/m² 0,6 °C 8,0 km/h (2 Bft)
12.12.2016 09:33 2,2 °C 2,2 °C 89 % 1026,1 hPa 0,0 mm 4,3 km/h (1 Bft) SW 234 ° 0 min 0,000 mm 0,0 UV-I 12 W/m² 0,6 °C 6,4 km/h (2 Bft)
12.12.2016 09:34 2,2 °C 2,2 °C 89 % 1026,1 hPa 0,0 mm 3,3 km/h (1 Bft) W-SW 250 ° 0 min 0,000 mm 0,0 UV-I 14 W/m² 0,6 °C 4,8 km/h (1 Bft)
12.12.2016 09:35 2,2 °C 2,2 °C 89 % 1026,1 hPa 0,0 mm 3,8 km/h (1 Bft) W-SW 243 ° 0 min 0,000 mm 0,0 UV-I 14 W/m² 0,6 °C 6,4 km/h (2 Bft)
12.12.2016 09:36 2,2 °C 2,2 °C 89 % 1026,1 hPa 0,0 mm 3,8 km/h (1 Bft) W-SW 243 ° 0 min 0,000 mm 0,0 UV-I 14 W/m² 0,6 °C 6,4 km/h (2 Bft)
12.12.2016 09:37 2,2 °C 2,2 °C 89 % 1026,1 hPa 0,0 mm 5,0 km/h (1 Bft) W-SW 257 ° 0 min 0,000 mm 0,0 UV-I 16 W/m² 0,6 °C 6,4 km/h (2 Bft)
12.12.2016 09:38 2,2 °C 2,2 °C 89 % 1026,1 hPa 0,0 mm 5,0 km/h (1 Bft) W 259 ° 0 min 0,000 mm 0,0 UV-I 18 W/m² 0,6 °C 6,4 km/h (2 Bft)
12.12.2016 09:39 2,2 °C 2,2 °C 89 % 1026,1 hPa 0,0 mm 3,8 km/h (1 Bft) W-SW 250 ° 0 min 0,000 mm 0,0 UV-I 18 W/m² 0,6 °C 4,8 km/h (1 Bft)
12.12.2016 09:40 2,2 °C 2,2 °C 89 % 1026,1 hPa 0,0 mm 4,5 km/h (1 Bft) W-SW 256 ° 0 min 0,000 mm 0,0 UV-I 19 W/m² 0,6 °C 6,4 km/h (2 Bft)
12.12.2016 09:41 2,2 °C 2,2 °C 89 % 1026,1 hPa 0,0 mm 6,6 km/h (2 Bft) W-SW 254 ° 0 min 0,000 mm 0,0 UV-I 19 W/m² 0,6 °C 12,9 km/h (3 Bft)
12.12.2016 09:42 2,2 °C 2,2 °C 89 % 1026,2 hPa 0,0 mm 8,0 km/h (2 Bft) W-SW 241 ° 0 min 0,000 mm 0,0 UV-I 21 W/m² 0,6 °C 14,5 km/h (3 Bft)
12.12.2016 09:43 2,2 °C 2,2 °C 89 % 1026,2 hPa 0,0 mm 3,7 km/h (1 Bft) W-SW 245 ° 0 min 0,000 mm 0,0 UV-I 21 W/m² 0,6 °C 6,4 km/h (2 Bft)
12.12.2016 09:44 2,2 °C 2,2 °C 89 % 1026,2 hPa 0,0 mm 2,3 km/h (1 Bft) W-SW 244 ° 0 min 0,000 mm 0,0 UV-I 21 W/m² 0,6 °C 4,8 km/h (1 Bft)
12.12.2016 09:45 2,2 °C 2,2 °C 89 % 1026,2 hPa 0,0 mm 3,6 km/h (1 Bft) W-SW 248 ° 0 min 0,000 mm 0,0 UV-I 23 W/m² 0,6 °C 6,4 km/h (2 Bft)
12.12.2016 09:46 2,2 °C 2,2 °C 89 % 1026,2 hPa 0,0 mm 4,5 km/h (1 Bft) SW 236 ° 0 min 0,000 mm 0,0 UV-I 25 W/m² 0,6 °C 6,4 km/h (2 Bft)
12.12.2016 09:47 2,2 °C 2,2 °C 90 % 1026,2 hPa 0,0 mm 3,7 km/h (1 Bft) W-SW 252 ° 0 min 0,000 mm 0,0 UV-I 25 W/m² 0,7 °C 4,8 km/h (1 Bft)
12.12.2016 09:48 2,2 °C 2,2 °C 90 % 1026,2 hPa 0,0 mm 4,3 km/h (1 Bft) W-SW 238 ° 0 min 0,000 mm 0,0 UV-I 26 W/m² 0,7 °C 6,4 km/h (2 Bft)
12.12.2016 09:49 2,2 °C 2,2 °C 90 % 1026,2 hPa 0,0 mm 4,2 km/h (1 Bft) SW 219 ° 0 min 0,000 mm 0,0 UV-I 28 W/m² 0,7 °C 6,4 km/h (2 Bft)
12.12.2016 09:50 2,2 °C 2,2 °C 90 % 1026,2 hPa 0,0 mm 3,7 km/h (1 Bft) SW 221 ° 0 min 0,000 mm 0,0 UV-I 30 W/m² 0,7 °C 6,4 km/h (2 Bft)
12.12.2016 09:51 2,2 °C 2,2 °C 90 % 1026,2 hPa 0,0 mm 5,2 km/h (1 Bft) W-SW 246 ° 0 min 0,000 mm 0,0 UV-I 28 W/m² 0,7 °C 9,7 km/h (2 Bft)
12.12.2016 09:52 2,2 °C 2,2 °C 90 % 1026,2 hPa 0,0 mm 5,6 km/h (1 Bft) S-SW 192 ° 0 min 0,000 mm 0,0 UV-I 28 W/m² 0,7 °C 8,0 km/h (2 Bft)
12.12.2016 09:53 2,2 °C 2,2 °C 90 % 1026,2 hPa 0,0 mm 7,0 km/h (2 Bft) SW 234 ° 0 min 0,000 mm 0,0 UV-I 26 W/m² 0,7 °C 11,3 km/h (2 Bft)
12.12.2016 09:54 2,2 °C 2,2 °C 90 % 1026,2 hPa 0,0 mm 4,2 km/h (1 Bft) SW 215 ° 0 min 0,000 mm 0,0 UV-I 26 W/m² 0,7 °C 6,4 km/h (2 Bft)
12.12.2016 09:55 2,2 °C 2,2 °C 90 % 1026,2 hPa 0,0 mm 2,7 km/h (1 Bft) SW 220 ° 0 min 0,000 mm 0,0 UV-I 26 W/m² 0,7 °C 4,8 km/h (1 Bft)
12.12.2016 09:56 2,2 °C 2,2 °C 90 % 1026,2 hPa 0,0 mm 6,2 km/h (2 Bft) SW 225 ° 0 min 0,000 mm 0,0 UV-I 28 W/m² 0,7 °C 11,3 km/h (2 Bft)
12.12.2016 09:57 2,2 °C 2,2 °C 90 % 1026,2 hPa 0,0 mm 5,0 km/h (1 Bft) W-SW 246 ° 0 min 0,000 mm 0,0 UV-I 30 W/m² 0,7 °C 9,7 km/h (2 Bft)
12.12.2016 09:58 2,3 °C 2,3 °C 90 % 1026,2 hPa 0,0 mm 3,3 km/h (1 Bft) W-SW 248 ° 0 min 0,000 mm 0,0 UV-I 30 W/m² 0,8 °C 4,8 km/h (1 Bft)
12.12.2016 09:59 2,2 °C 2,3 °C 90 % 1026,2 hPa 0,0 mm 3,2 km/h (1 Bft) W-SW 248 ° 0 min 0,000 mm 0,0 UV-I 32 W/m² 0,7 °C 4,8 km/h (1 Bft)
12.12.2016 10:00 2,2 °C 2,3 °C 90 % 1026,2 hPa 0,0 mm 5,3 km/h (1 Bft) S-SW 210 ° 0 min 0,000 mm 0,0 UV-I 32 W/m² 0,7 °C 6,4 km/h (2 Bft)
12.12.2016 10:01 2,3 °C 2,3 °C 90 % 1026,2 hPa 0,0 mm 3,2 km/h (1 Bft) S-SW 210 ° 0 min 0,000 mm 0,0 UV-I 33 W/m² 0,8 °C 4,8 km/h (1 Bft)
12.12.2016 10:02 2,3 °C 2,3 °C 90 % 1026,3 hPa 0,0 mm 3,8 km/h (1 Bft) W-SW 254 ° 0 min 0,000 mm 0,0 UV-I 35 W/m² 0,8 °C 4,8 km/h (1 Bft)
12.12.2016 10:03 2,3 °C 2,3 °C 90 % 1026,3 hPa 0,0 mm 3,8 km/h (1 Bft) SW 234 ° 0 min 0,000 mm 0,0 UV-I 37 W/m² 0,8 °C 6,4 km/h (2 Bft)
12.12.2016 10:04 2,2 °C 2,3 °C 90 % 1026,2 hPa 0,2 mm 3,8 km/h (1 Bft) SW 220 ° 0 min 0,000 mm 0,0 UV-I 37 W/m² 0,7 °C 6,4 km/h (2 Bft)
12.12.2016 10:05 2,3 °C 2,3 °C 90 % 1026,3 hPa 0,0 mm 5,1 km/h (1 Bft) S-SW 196 ° 0 min 0,000 mm 0,0 UV-I 37 W/m² 0,8 °C 8,0 km/h (2 Bft)
12.12.2016 10:06 2,3 °C 2,3 °C 90 % 1026,2 hPa 0,0 mm 3,4 km/h (1 Bft) SW 235 ° 0 min 0,000 mm 0,0 UV-I 35 W/m² 0,8 °C 6,4 km/h (2 Bft)
12.12.2016 10:07 2,3 °C 2,3 °C 90 % 1026,3 hPa 0,0 mm 3,7 km/h (1 Bft) S-SW 196 ° 0 min 0,000 mm 0,0 UV-I 37 W/m² 0,8 °C 6,4 km/h (2 Bft)
12.12.2016 10:08 2,3 °C 2,3 °C 90 % 1026,3 hPa 0,0 mm 3,1 km/h (1 Bft) S-SW 209 ° 0 min 0,000 mm 0,0 UV-I 39 W/m² 0,8 °C 4,8 km/h (1 Bft)
12.12.2016 10:09 2,3 °C 2,3 °C 89 % 1026,3 hPa 0,0 mm 4,8 km/h (1 Bft) W-SW 246 ° 0 min 0,000 mm 0,0 UV-I 39 W/m² 0,7 °C 8,0 km/h (2 Bft)
12.12.2016 10:10 2,3 °C 2,3 °C 89 % 1026,2 hPa 0,0 mm 4,6 km/h (1 Bft) S-SW 193 ° 0 min 0,000 mm 0,0 UV-I 40 W/m² 0,7 °C 9,7 km/h (2 Bft)
12.12.2016 10:11 2,3 °C 2,3 °C 89 % 1026,2 hPa 0,0 mm 5,0 km/h (1 Bft) SW 230 ° 0 min 0,000 mm 0,0 UV-I 40 W/m² 0,7 °C 8,0 km/h (2 Bft)
12.12.2016 10:12 2,3 °C 2,3 °C 89 % 1026,3 hPa 0,0 mm 4,5 km/h (1 Bft) W-SW 244 ° 0 min 0,000 mm 0,0 UV-I 44 W/m² 0,7 °C 11,3 km/h (2 Bft)
12.12.2016 10:13 2,3 °C 2,3 °C 89 % 1026,3 hPa 0,0 mm 5,3 km/h (1 Bft) W-SW 254 ° 0 min 0,000 mm 0,0 UV-I 44 W/m² 0,7 °C 8,0 km/h (2 Bft)
12.12.2016 10:14 2,3 °C 2,4 °C 89 % 1026,2 hPa 0,0 mm 4,7 km/h (1 Bft) W-SW 251 ° 0 min 0,000 mm 0,0 UV-I 47 W/m² 0,7 °C 6,4 km/h (2 Bft)
12.12.2016 10:15 2,3 °C 2,4 °C 89 % 1026,3 hPa 0,0 mm 6,2 km/h (2 Bft) SW 221 ° 0 min 0,000 mm 0,0 UV-I 49 W/m² 0,7 °C 11,3 km/h (2 Bft)
12.12.2016 10:16 2,4 °C 2,4 °C 89 % 1026,2 hPa 0,0 mm 4,4 km/h (1 Bft) W-SW 244 ° 0 min 0,000 mm 0,0 UV-I 53 W/m² 0,8 °C 8,0 km/h (2 Bft)
12.12.2016 10:17 2,4 °C 2,4 °C 89 % 1026,2 hPa 0,0 mm 6,3 km/h (2 Bft) W-SW 253 ° 0 min 0,000 mm 0,0 UV-I 58 W/m² 0,8 °C 8,0 km/h (2 Bft)
12.12.2016 10:18 2,4 °C 2,4 °C 90 % 1026,2 hPa 0,0 mm 5,4 km/h (1 Bft) W-SW 252 ° 0 min 0,000 mm 0,0 UV-I 69 W/m² 0,9 °C 6,4 km/h (2 Bft)
12.12.2016 10:19 2,4 °C 2,4 °C 89 % 1026,2 hPa 0,0 mm 3,4 km/h (1 Bft) W-SW 253 ° 0 min 0,000 mm 0,0 UV-I 72 W/m² 0,8 °C 6,4 km/h (2 Bft)
12.12.2016 10:20 2,4 °C 2,4 °C 90 % 1026,2 hPa 0,0 mm 6,6 km/h (2 Bft) SW 224 ° 0 min 0,000 mm 0,0 UV-I 74 W/m² 0,9 °C 11,3 km/h (2 Bft)
12.12.2016 10:21 2,4 °C 2,4 °C 90 % 1026,2 hPa 0,0 mm 4,4 km/h (1 Bft) W-NW 288 ° 0 min 0,000 mm 0,0 UV-I 72 W/m² 0,9 °C 6,4 km/h (2 Bft)
12.12.2016 10:22 2,4 °C 2,4 °C 90 % 1026,2 hPa 0,0 mm 4,6 km/h (1 Bft) W-SW 258 ° 0 min 0,000 mm 0,0 UV-I 69 W/m² 0,9 °C 6,4 km/h (2 Bft)
12.12.2016 10:23 2,4 °C 2,4 °C 90 % 1026,3 hPa 0,0 mm 5,2 km/h (1 Bft) W 261 ° 0 min 0,000 mm 0,0 UV-I 65 W/m² 0,9 °C 6,4 km/h (2 Bft)
12.12.2016 10:24 2,5 °C 2,5 °C 90 % 1026,3 hPa 0,0 mm 3,6 km/h (1 Bft) W-SW 247 ° 0 min 0,000 mm 0,0 UV-I 56 W/m² 1,0 °C 6,4 km/h (2 Bft)
12.12.2016 10:25 2,5 °C 2,5 °C 90 % 1026,3 hPa 0,0 mm 4,8 km/h (1 Bft) W 272 ° 0 min 0,000 mm 0,0 UV-I 53 W/m² 1,0 °C 6,4 km/h (2 Bft)
12.12.2016 10:26 2,5 °C 2,5 °C 90 % 1026,3 hPa 0,0 mm 4,3 km/h (1 Bft) W 260 ° 0 min 0,000 mm 0,0 UV-I 51 W/m² 1,0 °C 6,4 km/h (2 Bft)
12.12.2016 10:27 2,5 °C 2,6 °C 90 % 1026,3 hPa 0,0 mm 7,6 km/h (2 Bft) W 265 ° 0 min 0,000 mm 0,0 UV-I 51 W/m² 1,0 °C 11,3 km/h (2 Bft)
12.12.2016 10:28 2,6 °C 2,6 °C 90 % 1026,3 hPa 0,0 mm 6,6 km/h (2 Bft) W-SW 250 ° 0 min 0,000 mm 0,0 UV-I 51 W/m² 1,1 °C 11,3 km/h (2 Bft)
12.12.2016 10:29 2,6 °C 2,6 °C 89 % 1026,3 hPa 0,0 mm 2,4 km/h (1 Bft) W-SW 250 ° 0 min 0,000 mm 0,0 UV-I 53 W/m² 1,0 °C 4,8 km/h (1 Bft)
12.12.2016 10:30 2,6 °C 2,6 °C 89 % 1026,3 hPa 0,0 mm 5,1 km/h (1 Bft) W 259 ° 0 min 0,000 mm 0,0 UV-I 51 W/m² 1,0 °C 6,4 km/h (2 Bft)
12.12.2016 10:31 2,6 °C 2,6 °C 89 % 1026,3 hPa 0,0 mm 5,9 km/h (2 Bft) W-SW 241 ° 0 min 0,000 mm 0,0 UV-I 51 W/m² 1,0 °C 9,7 km/h (2 Bft)
12.12.2016 10:32 2,6 °C 2,6 °C 89 % 1026,3 hPa 0,0 mm 5,2 km/h (1 Bft) W-SW 241 ° 0 min 0,000 mm 0,0 UV-I 49 W/m² 1,0 °C 9,7 km/h (2 Bft)
12.12.2016 10:33 2,6 °C 2,6 °C 89 % 1026,4 hPa 0,0 mm 10,2 km/h (2 Bft) W 261 ° 0 min 0,000 mm 0,0 UV-I 46 W/m² 1,0 °C 16,1 km/h (3 Bft)
12.12.2016 10:34 2,6 °C 2,6 °C 89 % 1026,4 hPa 0,0 mm 7,8 km/h (2 Bft) W-SW 244 ° 0 min 0,000 mm 0,0 UV-I 42 W/m² 1,0 °C 14,5 km/h (3 Bft)
12.12.2016 10:35 2,6 °C 2,6 °C 89 % 1026,4 hPa 0,0 mm 6,9 km/h (2 Bft) S-SW 213 ° 0 min 0,000 mm 0,0 UV-I 42 W/m² 1,0 °C 11,3 km/h (2 Bft)
12.12.2016 10:36 2,6 °C 2,7 °C 89 % 1026,3 hPa 0,0 mm 6,0 km/h (2 Bft) W-SW 240 ° 0 min 0,000 mm 0,0 UV-I 40 W/m² 1,0 °C 11,3 km/h (2 Bft)
12.12.2016 10:37 2,6 °C 2,7 °C 89 % 1026,3 hPa 0,0 mm 5,2 km/h (1 Bft) SW 215 ° 0 min 0,000 mm 0,0 UV-I 40 W/m² 1,0 °C 8,0 km/h (2 Bft)
12.12.2016 10:38 2,6 °C 2,6 °C 89 % 1026,4 hPa 0,0 mm 5,3 km/h (1 Bft) W 262 ° 0 min 0,000 mm 0,0 UV-I 42 W/m² 1,0 °C 14,5 km/h (3 Bft)
12.12.2016 10:39 2,7 °C 2,7 °C 88 % 1026,3 hPa 0,0 mm 5,8 km/h (2 Bft) W-SW 250 ° 0 min 0,000 mm 0,0 UV-I 42 W/m² 0,9 °C 11,3 km/h (2 Bft)
12.12.2016 10:40 2,7 °C 2,7 °C 88 % 1026,4 hPa 0,0 mm 6,3 km/h (2 Bft) W 267 ° 0 min 0,000 mm 0,0 UV-I 44 W/m² 0,9 °C 11,3 km/h (2 Bft)
12.12.2016 10:41 2,7 °C 2,7 °C 88 % 1026,3 hPa 0,0 mm 7,2 km/h (2 Bft) W-SW 238 ° 0 min 0,000 mm 0,0 UV-I 46 W/m² 0,9 °C 11,3 km/h (2 Bft)
12.12.2016 10:42 2,7 °C 2,7 °C 88 % 1026,4 hPa 0,0 mm 8,3 km/h (2 Bft) SW 218 ° 0 min 0,000 mm 0,0 UV-I 47 W/m² 0,9 °C 16,1 km/h (3 Bft)
12.12.2016 10:43 2,7 °C 2,7 °C 88 % 1026,4 hPa 0,0 mm 6,1 km/h (2 Bft) W 276 ° 0 min 0,000 mm 0,0 UV-I 47 W/m² 0,9 °C 9,7 km/h (2 Bft)
12.12.2016 10:44 2,7 °C 2,7 °C 88 % 1026,4 hPa 0,0 mm 8,7 km/h (2 Bft) W 281 ° 0 min 0,000 mm 0,0 UV-I 47 W/m² 0,9 °C 12,9 km/h (3 Bft)
12.12.2016 10:45 2,7 °C 2,7 °C 87 % 1026,4 hPa 0,0 mm 9,1 km/h (2 Bft) W 275 ° 0 min 0,000 mm 0,0 UV-I 49 W/m² 0,8 °C 12,9 km/h (3 Bft)
12.12.2016 10:46 2,7 °C 2,7 °C 88 % 1026,4 hPa 0,0 mm 8,6 km/h (2 Bft) SW 225 ° 0 min 0,000 mm 0,0 UV-I 49 W/m² 0,9 °C 11,3 km/h (2 Bft)
12.12.2016 10:47 2,7 °C 2,7 °C 88 % 1026,4 hPa 0,0 mm 3,4 km/h (1 Bft) W-SW 243 ° 0 min 0,000 mm 0,0 UV-I 49 W/m² 0,9 °C 6,4 km/h (2 Bft)
12.12.2016 10:48 2,7 °C 2,7 °C 88 % 1026,3 hPa 0,0 mm 6,8 km/h (2 Bft) W-SW 254 ° 0 min 0,000 mm 0,0 UV-I 49 W/m² 0,9 °C 11,3 km/h (2 Bft)
12.12.2016 10:49 2,8 °C 2,8 °C 88 % 1026,4 hPa 0,0 mm 4,8 km/h (1 Bft) W 259 ° 0 min 0,000 mm 0,0 UV-I 47 W/m² 1,0 °C 6,4 km/h (2 Bft)
12.12.2016 10:50 2,7 °C 2,8 °C 88 % 1026,4 hPa 0,0 mm 6,0 km/h (2 Bft) W-SW 254 ° 0 min 0,000 mm 0,0 UV-I 46 W/m² 0,9 °C 8,0 km/h (2 Bft)
12.12.2016 10:51 2,7 °C 2,8 °C 88 % 1026,3 hPa 0,0 mm 6,0 km/h (2 Bft) W-SW 248 ° 0 min 0,000 mm 0,0 UV-I 46 W/m² 0,9 °C 9,7 km/h (2 Bft)
12.12.2016 10:52 2,8 °C 2,8 °C 88 % 1026,4 hPa 0,0 mm 9,7 km/h (2 Bft) W 269 ° 0 min 0,000 mm 0,0 UV-I 44 W/m² 1,0 °C 12,9 km/h (3 Bft)
12.12.2016 10:53 2,7 °C 2,8 °C 88 % 1026,3 hPa 0,0 mm 6,8 km/h (2 Bft) W 259 ° 0 min 0,000 mm 0,0 UV-I 46 W/m² 0,9 °C 11,3 km/h (2 Bft)
12.12.2016 10:54 2,8 °C 2,8 °C 88 % 1026,4 hPa 0,0 mm 4,8 km/h (1 Bft) W-SW 253 ° 0 min 0,000 mm 0,0 UV-I 47 W/m² 1,0 °C 8,0 km/h (2 Bft)
12.12.2016 10:55 2,8 °C 2,8 °C 88 % 1026,4 hPa 0,0 mm 5,9 km/h (2 Bft) W 263 ° 0 min 0,000 mm 0,0 UV-I 47 W/m² 1,0 °C 8,0 km/h (2 Bft)
12.12.2016 10:56 2,8 °C 2,8 °C 88 % 1026,4 hPa 0,0 mm 6,2 km/h (2 Bft) W-SW 255 ° 0 min 0,000 mm 0,0 UV-I 49 W/m² 1,0 °C 9,7 km/h (2 Bft)
12.12.2016 10:57 2,8 °C 2,8 °C 88 % 1026,4 hPa 0,0 mm 3,8 km/h (1 Bft) W-SW 254 ° 0 min 0,000 mm 0,0 UV-I 49 W/m² 1,0 °C 4,8 km/h (1 Bft)
12.12.2016 10:58 2,8 °C 2,8 °C 88 % 1026,4 hPa 0,0 mm 5,5 km/h (1 Bft) W-SW 250 ° 0 min 0,000 mm 0,0 UV-I 49 W/m² 1,0 °C 9,7 km/h (2 Bft)
12.12.2016 10:59 2,8 °C 2,8 °C 88 % 1026,4 hPa 0,0 mm 8,0 km/h (2 Bft) W-SW 251 ° 0 min 0,000 mm 0,0 UV-I 47 W/m² 1,0 °C 11,3 km/h (2 Bft)
12.12.2016 11:00 2,8 °C 2,8 °C 88 % 1026,4 hPa 0,0 mm 6,2 km/h (2 Bft) W 269 ° 0 min 0,000 mm 0,0 UV-I 46 W/m² 1,0 °C 9,7 km/h (2 Bft)
12.12.2016 11:01 2,8 °C 2,8 °C 88 % 1026,4 hPa 0,0 mm 9,9 km/h (2 Bft) SW 227 ° 0 min 0,025 mm 0,0 UV-I 42 W/m² 1,0 °C 12,9 km/h (3 Bft)
12.12.2016 11:02 2,8 °C 2,8 °C 88 % 1026,4 hPa 0,0 mm 6,9 km/h (2 Bft) W-SW 253 ° 0 min 0,000 mm 0,0 UV-I 40 W/m² 1,0 °C 12,9 km/h (3 Bft)
12.12.2016 11:03 2,8 °C 2,8 °C 88 % 1026,4 hPa 0,0 mm 9,6 km/h (2 Bft) W 271 ° 0 min 0,000 mm 0,0 UV-I 39 W/m² 1,0 °C 12,9 km/h (3 Bft)
12.12.2016 11:04 2,8 °C 2,8 °C 88 % 1026,4 hPa 0,0 mm 5,8 km/h (2 Bft) W 281 ° 0 min 0,000 mm 0,0 UV-I 39 W/m² 1,0 °C 11,3 km/h (2 Bft)
12.12.2016 11:05 2,8 °C 2,8 °C 88 % 1026,4 hPa 0,0 mm 7,0 km/h (2 Bft) W 259 ° 0 min 0,000 mm 0,0 UV-I 39 W/m² 1,0 °C 12,9 km/h (3 Bft)
12.12.2016 11:06 2,8 °C 2,8 °C 88 % 1026,4 hPa 0,0 mm 4,2 km/h (1 Bft) W-SW 254 ° 0 min 0,000 mm 0,0 UV-I 39 W/m² 1,0 °C 6,4 km/h (2 Bft)
12.12.2016 11:07 2,8 °C 2,8 °C 88 % 1026,4 hPa 0,0 mm 4,4 km/h (1 Bft) W-SW 257 ° 0 min 0,000 mm 0,0 UV-I 40 W/m² 1,0 °C 8,0 km/h (2 Bft)
12.12.2016 11:08 2,8 °C 2,8 °C 88 % 1026,4 hPa 0,0 mm 6,9 km/h (2 Bft) SW 225 ° 0 min 0,000 mm 0,0 UV-I 40 W/m² 1,0 °C 12,9 km/h (3 Bft)
12.12.2016 11:09 2,8 °C 2,8 °C 88 % 1026,5 hPa 0,0 mm 9,0 km/h (2 Bft) W-SW 244 ° 0 min 0,000 mm 0,0 UV-I 42 W/m² 1,0 °C 14,5 km/h (3 Bft)
12.12.2016 11:10 2,8 °C 2,8 °C 88 % 1026,5 hPa 0,0 mm 8,6 km/h (2 Bft) W-SW 249 ° 0 min 0,000 mm 0,0 UV-I 42 W/m² 1,0 °C 12,9 km/h (3 Bft)
12.12.2016 11:11 2,8 °C 2,8 °C 88 % 1026,4 hPa 0,0 mm 7,6 km/h (2 Bft) W 269 ° 0 min 0,000 mm 0,0 UV-I 44 W/m² 1,0 °C 11,3 km/h (2 Bft)
12.12.2016 11:12 2,8 °C 2,8 °C 88 % 1026,4 hPa 0,0 mm 5,8 km/h (2 Bft) W-SW 243 ° 0 min 0,000 mm 0,0 UV-I 46 W/m² 1,0 °C 9,7 km/h (2 Bft)
12.12.2016 11:13 2,8 °C 2,8 °C 88 % 1026,5 hPa 0,0 mm 9,5 km/h (2 Bft) W-SW 251 ° 0 min 0,000 mm 0,0 UV-I 47 W/m² 1,0 °C 14,5 km/h (3 Bft)
12.12.2016 11:14 2,8 °C 2,8 °C 88 % 1026,4 hPa 0,0 mm 7,4 km/h (2 Bft) W 267 ° 0 min 0,000 mm 0,0 UV-I 47 W/m² 1,0 °C 11,3 km/h (2 Bft)
12.12.2016 11:15 2,8 °C 2,8 °C 88 % 1026,4 hPa 0,0 mm 4,4 km/h (1 Bft) W-SW 254 ° 0 min 0,000 mm 0,0 UV-I 51 W/m² 1,0 °C 6,4 km/h (2 Bft)
12.12.2016 11:16 2,8 °C 2,8 °C 88 % 1026,4 hPa 0,0 mm 8,2 km/h (2 Bft) W 265 ° 0 min 0,000 mm 0,0 UV-I 49 W/m² 1,0 °C 11,3 km/h (2 Bft)
12.12.2016 11:17 2,8 °C 2,8 °C 88 % 1026,4 hPa 0,0 mm 4,7 km/h (1 Bft) W-SW 246 ° 0 min 0,000 mm 0,0 UV-I 47 W/m² 1,0 °C 6,4 km/h (2 Bft)
12.12.2016 11:18 2,8 °C 2,8 °C 88 % 1026,4 hPa 0,0 mm 6,5 km/h (2 Bft) W-SW 239 ° 0 min 0,000 mm 0,0 UV-I 47 W/m² 1,0 °C 9,7 km/h (2 Bft)
12.12.2016 11:19 2,8 °C 2,9 °C 88 % 1026,4 hPa 0,0 mm 6,3 km/h (2 Bft) S 190 ° 0 min 0,000 mm 0,0 UV-I 49 W/m² 1,0 °C 8,0 km/h (2 Bft)
12.12.2016 11:20 2,8 °C 2,8 °C 88 % 1026,5 hPa 0,0 mm 4,4 km/h (1 Bft) W-SW 254 ° 0 min 0,000 mm 0,0 UV-I 49 W/m² 1,0 °C 11,3 km/h (2 Bft)
12.12.2016 11:21 2,8 °C 2,8 °C 88 % 1026,5 hPa 0,0 mm 6,0 km/h (2 Bft) S-SW 208 ° 0 min 0,000 mm 0,0 UV-I 51 W/m² 1,0 °C 12,9 km/h (3 Bft)
12.12.2016 11:22 2,8 °C 2,9 °C 88 % 1026,5 hPa 0,0 mm 6,4 km/h (2 Bft) SW 229 ° 0 min 0,000 mm 0,0 UV-I 54 W/m² 1,0 °C 9,7 km/h (2 Bft)
12.12.2016 11:23 2,9 °C 2,9 °C 88 % 1026,5 hPa 0,0 mm 1,5 km/h (1 Bft) SW 229 ° 0 min 0,000 mm 0,0 UV-I 56 W/m² 1,1 °C 3,2 km/h (1 Bft)
12.12.2016 11:24 2,8 °C 2,9 °C 87 % 1026,5 hPa 0,0 mm 2,1 km/h (1 Bft) SW 229 ° 0 min 0,000 mm 0,0 UV-I 56 W/m² 0,9 °C 3,2 km/h (1 Bft)
12.12.2016 11:25 2,9 °C 2,9 °C 88 % 1026,5 hPa 0,0 mm 3,5 km/h (1 Bft) W-SW 249 ° 0 min 0,000 mm 0,0 UV-I 58 W/m² 1,1 °C 8,0 km/h (2 Bft)
12.12.2016 11:26 2,9 °C 2,9 °C 88 % 1026,5 hPa 0,0 mm 3,3 km/h (1 Bft) S-SW 200 ° 0 min 0,000 mm 0,0 UV-I 60 W/m² 1,1 °C 4,8 km/h (1 Bft)
12.12.2016 11:27 2,9 °C 2,9 °C 87 % 1026,5 hPa 0,0 mm 3,1 km/h (1 Bft) W-SW 240 ° 0 min 0,000 mm 0,0 UV-I 60 W/m² 1,0 °C 4,8 km/h (1 Bft)
12.12.2016 11:28 2,9 °C 2,9 °C 88 % 1026,5 hPa 0,0 mm 4,4 km/h (1 Bft) W-SW 252 ° 0 min 0,000 mm 0,0 UV-I 60 W/m² 1,1 °C 8,0 km/h (2 Bft)
12.12.2016 11:29 2,9 °C 2,9 °C 88 % 1026,5 hPa 0,0 mm 5,8 km/h (2 Bft) W-SW 246 ° 0 min 0,000 mm 0,0 UV-I 60 W/m² 1,1 °C 8,0 km/h (2 Bft)
12.12.2016 11:30 2,9 °C 2,9 °C 88 % 1026,5 hPa 0,0 mm 5,6 km/h (1 Bft) S-SW 212 ° 0 min 0,000 mm 0,0 UV-I 60 W/m² 1,1 °C 8,0 km/h (2 Bft)
12.12.2016 11:31 2,9 °C 2,9 °C 88 % 1026,5 hPa 0,0 mm 4,6 km/h (1 Bft) W-SW 252 ° 0 min 0,000 mm 0,0 UV-I 60 W/m² 1,1 °C 6,4 km/h (2 Bft)
12.12.2016 11:32 2,9 °C 2,9 °C 88 % 1026,6 hPa 0,0 mm 4,4 km/h (1 Bft) W-SW 253 ° 0 min 0,000 mm 0,0 UV-I 62 W/m² 1,1 °C 8,0 km/h (2 Bft)
12.12.2016 11:33 2,9 °C 2,9 °C 88 % 1026,6 hPa 0,0 mm 4,4 km/h (1 Bft) W-SW 245 ° 0 min 0,000 mm 0,0 UV-I 63 W/m² 1,1 °C 8,0 km/h (2 Bft)
12.12.2016 11:34 2,9 °C 2,9 °C 88 % 1026,6 hPa 0,0 mm 5,5 km/h (1 Bft) W-SW 247 ° 0 min 0,000 mm 0,0 UV-I 67 W/m² 1,1 °C 6,4 km/h (2 Bft)
12.12.2016 11:35 2,9 °C 3,0 °C 88 % 1026,6 hPa 0,0 mm 4,9 km/h (1 Bft) W-SW 254 ° 0 min 0,000 mm 0,0 UV-I 69 W/m² 1,1 °C 6,4 km/h (2 Bft)
12.12.2016 11:36 2,9 °C 2,9 °C 88 % 1026,6 hPa 0,0 mm 5,0 km/h (1 Bft) W-SW 258 ° 0 min 0,000 mm 0,5 UV-I 69 W/m² 1,1 °C 9,7 km/h (2 Bft)
12.12.2016 11:37 2,9 °C 2,9 °C 88 % 1026,7 hPa 0,0 mm 5,2 km/h (1 Bft) W-SW 245 ° 0 min 0,000 mm 0,0 UV-I 69 W/m² 1,1 °C 8,0 km/h (2 Bft)
12.12.2016 11:38 3,0 °C 3,0 °C 88 % 1026,6 hPa 0,0 mm 5,3 km/h (1 Bft) W 261 ° 0 min 0,000 mm 0,0 UV-I 67 W/m² 1,2 °C 8,0 km/h (2 Bft)
12.12.2016 11:39 3,0 °C 3,0 °C 88 % 1026,7 hPa 0,0 mm 6,6 km/h (2 Bft) W-SW 253 ° 0 min 0,000 mm 0,0 UV-I 63 W/m² 1,2 °C 9,7 km/h (2 Bft)
12.12.2016 11:40 2,9 °C 3,0 °C 88 % 1026,7 hPa 0,0 mm 8,2 km/h (2 Bft) W-NW 283 ° 0 min 0,000 mm 0,0 UV-I 62 W/m² 1,1 °C 11,3 km/h (2 Bft)
12.12.2016 11:41 3,0 °C 3,0 °C 88 % 1026,7 hPa 0,0 mm 6,7 km/h (2 Bft) W-SW 248 ° 0 min 0,000 mm 0,0 UV-I 60 W/m² 1,2 °C 9,7 km/h (2 Bft)
12.12.2016 11:42 3,0 °C 3,0 °C 88 % 1026,7 hPa 0,0 mm 4,4 km/h (1 Bft) W-SW 252 ° 0 min 0,000 mm 0,0 UV-I 60 W/m² 1,2 °C 6,4 km/h (2 Bft)
12.12.2016 11:43 3,0 °C 3,0 °C 88 % 1026,7 hPa 0,0 mm 4,7 km/h (1 Bft) W-SW 242 ° 0 min 0,000 mm 0,0 UV-I 60 W/m² 1,2 °C 6,4 km/h (2 Bft)
12.12.2016 11:44 3,0 °C 3,0 °C 88 % 1026,7 hPa 0,0 mm 6,2 km/h (2 Bft) W-SW 247 ° 0 min 0,000 mm 0,0 UV-I 62 W/m² 1,2 °C 8,0 km/h (2 Bft)
12.12.2016 11:45 3,0 °C 3,1 °C 88 % 1026,7 hPa 0,0 mm 7,1 km/h (2 Bft) W 277 ° 0 min 0,000 mm 0,0 UV-I 62 W/m² 1,2 °C 9,7 km/h (2 Bft)
12.12.2016 11:46 3,1 °C 3,1 °C 88 % 1026,7 hPa 0,0 mm 5,7 km/h (1 Bft) W-SW 250 ° 0 min 0,000 mm 0,0 UV-I 60 W/m² 1,3 °C 9,7 km/h (2 Bft)
12.12.2016 11:47 3,0 °C 3,1 °C 88 % 1026,7 hPa 0,0 mm 5,4 km/h (1 Bft) W-SW 246 ° 0 min 0,000 mm 0,0 UV-I 60 W/m² 1,2 °C 9,7 km/h (2 Bft)
12.12.2016 11:48 3,1 °C 3,1 °C 88 % 1026,7 hPa 0,0 mm 2,1 km/h (1 Bft) W-SW 246 ° 0 min 0,000 mm 0,0 UV-I 62 W/m² 1,3 °C 4,8 km/h (1 Bft)
12.12.2016 11:49 3,1 °C 3,1 °C 88 % 1026,7 hPa 0,0 mm 5,6 km/h (1 Bft) W-SW 249 ° 0 min 0,000 mm 0,0 UV-I 63 W/m² 1,3 °C 8,0 km/h (2 Bft)
12.12.2016 11:50 3,1 °C 3,1 °C 88 % 1026,8 hPa 0,0 mm 5,4 km/h (1 Bft) W-SW 243 ° 0 min 0,000 mm 0,0 UV-I 65 W/m² 1,3 °C 8,0 km/h (2 Bft)
12.12.2016 11:51 3,1 °C 3,1 °C 87 % 1026,8 hPa 0,0 mm 6,3 km/h (2 Bft) W-SW 257 ° 0 min 0,000 mm 0,0 UV-I 65 W/m² 1,2 °C 11,3 km/h (2 Bft)
12.12.2016 11:52 3,1 °C 3,1 °C 87 % 1026,7 hPa 0,0 mm 6,4 km/h (2 Bft) SW 234 ° 0 min 0,000 mm 0,0 UV-I 63 W/m² 1,2 °C 11,3 km/h (2 Bft)
12.12.2016 11:53 3,1 °C 3,1 °C 87 % 1026,8 hPa 0,0 mm 5,6 km/h (1 Bft) W 263 ° 0 min 0,000 mm 0,0 UV-I 60 W/m² 1,2 °C 8,0 km/h (2 Bft)
12.12.2016 11:54 3,1 °C 3,1 °C 87 % 1026,8 hPa 0,0 mm 5,1 km/h (1 Bft) W-SW 253 ° 0 min 0,000 mm 0,0 UV-I 58 W/m² 1,2 °C 8,0 km/h (2 Bft)
12.12.2016 11:55 3,1 °C 3,1 °C 87 % 1026,9 hPa 0,0 mm 3,8 km/h (1 Bft) W 273 ° 0 min 0,000 mm 0,0 UV-I 56 W/m² 1,2 °C 4,8 km/h (1 Bft)
12.12.2016 11:56 3,1 °C 3,1 °C 87 % 1026,9 hPa 0,0 mm 1,8 km/h (1 Bft) W 273 ° 0 min 0,000 mm 0,0 UV-I 53 W/m² 1,2 °C 3,2 km/h (1 Bft)
12.12.2016 11:57 3,1 °C 3,1 °C 87 % 1026,8 hPa 0,0 mm 3,9 km/h (1 Bft) W-SW 248 ° 0 min 0,000 mm 0,0 UV-I 49 W/m² 1,2 °C 6,4 km/h (2 Bft)
12.12.2016 11:58 3,1 °C 3,1 °C 87 % 1026,9 hPa 0,0 mm 5,0 km/h (1 Bft) W 266 ° 0 min 0,000 mm 0,0 UV-I 44 W/m² 1,2 °C 9,7 km/h (2 Bft)
12.12.2016 11:59 3,1 °C 3,1 °C 87 % 1026,9 hPa 0,0 mm 6,3 km/h (2 Bft) W-SW 256 ° 0 min 0,000 mm 0,0 UV-I 44 W/m² 1,2 °C 11,3 km/h (2 Bft)
12.12.2016 12:00 3,1 °C 3,1 °C 87 % 1026,9 hPa 0,0 mm 4,6 km/h (1 Bft) W-SW 246 ° 0 min 0,000 mm 0,0 UV-I 42 W/m² 1,2 °C 8,0 km/h (2 Bft)
12.12.2016 12:01 3,1 °C 3,1 °C 87 % 1026,9 hPa 0,0 mm 8,0 km/h (2 Bft) W-SW 257 ° 0 min 0,026 mm 0,0 UV-I 40 W/m² 1,2 °C 11,3 km/h (2 Bft)
12.12.2016 12:02 3,1 °C 3,1 °C 87 % 1026,9 hPa 0,0 mm 6,2 km/h (2 Bft) W-SW 252 ° 0 min 0,000 mm 0,0 UV-I 39 W/m² 1,2 °C 8,0 km/h (2 Bft)
12.12.2016 12:03 3,1 °C 3,1 °C 87 % 1026,9 hPa 0,0 mm 8,8 km/h (2 Bft) SW 236 ° 0 min 0,000 mm 0,0 UV-I 39 W/m² 1,2 °C 12,9 km/h (3 Bft)
12.12.2016 12:04 3,1 °C 3,1 °C 87 % 1026,9 hPa 0,0 mm 7,3 km/h (2 Bft) SW 236 ° 0 min 0,000 mm 0,0 UV-I 35 W/m² 1,2 °C 14,5 km/h (3 Bft)
12.12.2016 12:05 3,1 °C 3,1 °C 87 % 1026,9 hPa 0,0 mm 11,3 km/h (2 Bft) W 273 ° 0 min 0,000 mm 0,0 UV-I 33 W/m² 1,2 °C 16,1 km/h (3 Bft)
12.12.2016 12:06 3,1 °C 3,1 °C 87 % 1026,9 hPa 0,0 mm 6,1 km/h (2 Bft) W-SW 240 ° 0 min 0,000 mm 0,0 UV-I 33 W/m² 1,2 °C 9,7 km/h (2 Bft)
12.12.2016 12:07 3,1 °C 3,1 °C 87 % 1026,9 hPa 0,0 mm 7,0 km/h (2 Bft) SW 234 ° 0 min 0,000 mm 0,0 UV-I 32 W/m² 1,2 °C 11,3 km/h (2 Bft)
12.12.2016 12:08 3,1 °C 3,1 °C 87 % 1026,9 hPa 0,0 mm 7,8 km/h (2 Bft) W-SW 250 ° 0 min 0,000 mm 0,0 UV-I 32 W/m² 1,2 °C 12,9 km/h (3 Bft)
12.12.2016 12:09 3,1 °C 3,1 °C 87 % 1026,9 hPa 0,0 mm 7,3 km/h (2 Bft) W 260 ° 0 min 0,000 mm 0,0 UV-I 32 W/m² 1,2 °C 9,7 km/h (2 Bft)
12.12.2016 12:10 3,1 °C 3,1 °C 87 % 1027,0 hPa 0,0 mm 6,1 km/h (2 Bft) SW 232 ° 0 min 0,000 mm 0,0 UV-I 33 W/m² 1,2 °C 11,3 km/h (2 Bft)
12.12.2016 12:11 3,1 °C 3,1 °C 87 % 1027,0 hPa 0,0 mm 6,1 km/h (2 Bft) W-SW 248 ° 0 min 0,000 mm 0,0 UV-I 35 W/m² 1,2 °C 9,7 km/h (2 Bft)
12.12.2016 12:12 3,1 °C 3,1 °C 87 % 1027,0 hPa 0,0 mm 4,4 km/h (1 Bft) W 261 ° 0 min 0,000 mm 0,0 UV-I 37 W/m² 1,2 °C 6,4 km/h (2 Bft)
12.12.2016 12:13 3,1 °C 3,1 °C 87 % 1026,9 hPa 0,0 mm 3,5 km/h (1 Bft) W-SW 240 ° 0 min 0,000 mm 0,0 UV-I 39 W/m² 1,2 °C 4,8 km/h (1 Bft)
12.12.2016 12:14 3,1 °C 3,1 °C 87 % 1026,9 hPa 0,0 mm 4,1 km/h (1 Bft) W-SW 247 ° 0 min 0,000 mm 0,0 UV-I 39 W/m² 1,2 °C 6,4 km/h (2 Bft)
12.12.2016 12:15 3,1 °C 3,1 °C 87 % 1026,9 hPa 0,0 mm 4,5 km/h (1 Bft) W-SW 256 ° 0 min 0,000 mm 0,0 UV-I 42 W/m² 1,2 °C 6,4 km/h (2 Bft)
12.12.2016 12:16 3,1 °C 3,1 °C 87 % 1026,9 hPa 0,0 mm 4,4 km/h (1 Bft) SW 230 ° 0 min 0,000 mm 0,0 UV-I 46 W/m² 1,2 °C 6,4 km/h (2 Bft)
12.12.2016 12:17 3,1 °C 3,1 °C 87 % 1027,0 hPa 0,0 mm 5,7 km/h (1 Bft) SW 222 ° 0 min 0,000 mm 0,0 UV-I 47 W/m² 1,2 °C 8,0 km/h (2 Bft)
12.12.2016 12:18 3,1 °C 3,1 °C 87 % 1026,9 hPa 0,0 mm 4,8 km/h (1 Bft) SW 227 ° 0 min 0,000 mm 0,0 UV-I 49 W/m² 1,2 °C 6,4 km/h (2 Bft)
12.12.2016 12:19 3,1 °C 3,1 °C 87 % 1027,0 hPa 0,0 mm 5,7 km/h (1 Bft) SW 221 ° 0 min 0,000 mm 0,0 UV-I 51 W/m² 1,2 °C 8,0 km/h (2 Bft)
12.12.2016 12:20 3,1 °C 3,1 °C 86 % 1027,0 hPa 0,0 mm 7,5 km/h (2 Bft) W-SW 257 ° 0 min 0,000 mm 0,0 UV-I 51 W/m² 1,0 °C 11,3 km/h (2 Bft)
12.12.2016 12:21 3,1 °C 3,1 °C 86 % 1027,0 hPa 0,0 mm 7,5 km/h (2 Bft) W-SW 248 ° 0 min 0,000 mm 0,0 UV-I 49 W/m² 1,0 °C 11,3 km/h (2 Bft)
12.12.2016 12:22 3,1 °C 3,1 °C 86 % 1026,9 hPa 0,0 mm 3,6 km/h (1 Bft) W-SW 245 ° 0 min 0,000 mm 0,0 UV-I 51 W/m² 1,0 °C 6,4 km/h (2 Bft)
12.12.2016 12:23 3,1 °C 3,1 °C 87 % 1026,9 hPa 0,0 mm 2,8 km/h (1 Bft) W 261 ° 0 min 0,000 mm 0,0 UV-I 51 W/m² 1,2 °C 6,4 km/h (2 Bft)
12.12.2016 12:24 3,1 °C 3,1 °C 87 % 1026,9 hPa 0,0 mm 5,2 km/h (1 Bft) SW 225 ° 0 min 0,000 mm 0,0 UV-I 53 W/m² 1,2 °C 6,4 km/h (2 Bft)
12.12.2016 12:25 3,1 °C 3,1 °C 86 % 1026,9 hPa 0,0 mm 7,8 km/h (2 Bft) W 261 ° 0 min 0,000 mm 0,0 UV-I 53 W/m² 1,0 °C 14,5 km/h (3 Bft)
12.12.2016 12:26 3,1 °C 3,1 °C 86 % 1026,9 hPa 0,0 mm 6,9 km/h (2 Bft) W-SW 247 ° 0 min 0,000 mm 0,0 UV-I 53 W/m² 1,0 °C 12,9 km/h (3 Bft)
12.12.2016 12:27 3,1 °C 3,1 °C 86 % 1026,9 hPa 0,0 mm 7,5 km/h (2 Bft) W-SW 254 ° 0 min 0,000 mm 0,0 UV-I 53 W/m² 1,0 °C 11,3 km/h (2 Bft)
12.12.2016 12:28 3,1 °C 3,2 °C 86 % 1027,0 hPa 0,0 mm 5,1 km/h (1 Bft) W-SW 255 ° 0 min 0,000 mm 0,0 UV-I 56 W/m² 1,0 °C 8,0 km/h (2 Bft)
12.12.2016 12:29 3,1 °C 3,1 °C 87 % 1026,9 hPa 0,0 mm 9,6 km/h (2 Bft) SW 228 ° 0 min 0,000 mm 0,0 UV-I 60 W/m² 1,2 °C 14,5 km/h (3 Bft)
12.12.2016 12:30 3,1 °C 3,1 °C 87 % 1026,9 hPa 0,0 mm 7,4 km/h (2 Bft) W-SW 254 ° 0 min 0,000 mm 0,0 UV-I 65 W/m² 1,2 °C 11,3 km/h (2 Bft)
12.12.2016 12:31 3,1 °C 3,2 °C 87 % 1026,9 hPa 0,0 mm 7,1 km/h (2 Bft) W 261 ° 0 min 0,000 mm 0,0 UV-I 67 W/m² 1,2 °C 11,3 km/h (2 Bft)
12.12.2016 12:32 3,1 °C 3,1 °C 87 % 1026,9 hPa 0,0 mm 4,8 km/h (1 Bft) W 262 ° 0 min 0,000 mm 0,0 UV-I 67 W/m² 1,2 °C 8,0 km/h (2 Bft)
12.12.2016 12:33 3,2 °C 3,2 °C 86 % 1027,0 hPa 0,0 mm 4,0 km/h (1 Bft) W 264 ° 0 min 0,000 mm 0,0 UV-I 63 W/m² 1,1 °C 6,4 km/h (2 Bft)
12.12.2016 12:34 3,2 °C 3,2 °C 86 % 1027,0 hPa 0,0 mm 5,4 km/h (1 Bft) W 280 ° 0 min 0,000 mm 0,0 UV-I 65 W/m² 1,1 °C 8,0 km/h (2 Bft)
12.12.2016 12:35 3,2 °C 3,2 °C 86 % 1027,0 hPa 0,0 mm 6,2 km/h (2 Bft) W-SW 257 ° 0 min 0,000 mm 0,0 UV-I 69 W/m² 1,1 °C 11,3 km/h (2 Bft)
12.12.2016 12:36 3,1 °C 3,2 °C 86 % 1026,9 hPa 0,0 mm 4,8 km/h (1 Bft) W 280 ° 0 min 0,000 mm 0,5 UV-I 72 W/m² 1,0 °C 4,8 km/h (1 Bft)
12.12.2016 12:37 3,2 °C 3,2 °C 86 % 1026,9 hPa 0,0 mm 3,4 km/h (1 Bft) W-SW 244 ° 0 min 0,000 mm 0,5 UV-I 74 W/m² 1,1 °C 6,4 km/h (2 Bft)
12.12.2016 12:38 3,2 °C 3,2 °C 86 % 1026,9 hPa 0,0 mm 3,0 km/h (1 Bft) W-SW 244 ° 0 min 0,000 mm 0,5 UV-I 76 W/m² 1,1 °C 4,8 km/h (1 Bft)
12.12.2016 12:39 3,2 °C 3,2 °C 86 % 1026,9 hPa 0,0 mm 1,5 km/h (1 Bft) W-SW 244 ° 0 min 0,000 mm 0,5 UV-I 77 W/m² 1,1 °C 3,2 km/h (1 Bft)
12.12.2016 12:40 3,2 °C 3,2 °C 86 % 1026,9 hPa 0,0 mm 1,9 km/h (1 Bft) W 267 ° 0 min 0,000 mm 0,5 UV-I 77 W/m² 1,1 °C 3,2 km/h (1 Bft)
12.12.2016 12:41 3,2 °C 3,2 °C 86 % 1026,9 hPa 0,0 mm 5,3 km/h (1 Bft) W-SW 257 ° 0 min 0,000 mm 0,5 UV-I 77 W/m² 1,1 °C 6,4 km/h (2 Bft)
12.12.2016 12:42 3,2 °C 3,2 °C 86 % 1027,0 hPa 0,0 mm 4,5 km/h (1 Bft) W-SW 258 ° 0 min 0,000 mm 0,5 UV-I 77 W/m² 1,1 °C 6,4 km/h (2 Bft)
12.12.2016 12:43 3,2 °C 3,2 °C 87 % 1026,9 hPa 0,0 mm 2,9 km/h (1 Bft) W-SW 258 ° 0 min 0,000 mm 0,5 UV-I 76 W/m² 1,2 °C 3,2 km/h (1 Bft)
12.12.2016 12:44 3,2 °C 3,2 °C 86 % 1026,9 hPa 0,0 mm 5,3 km/h (1 Bft) W-SW 250 ° 0 min 0,000 mm 0,5 UV-I 76 W/m² 1,1 °C 8,0 km/h (2 Bft)
12.12.2016 12:45 3,2 °C 3,2 °C 87 % 1026,9 hPa 0,0 mm 6,0 km/h (2 Bft) W 275 ° 0 min 0,000 mm 0,5 UV-I 76 W/m² 1,2 °C 9,7 km/h (2 Bft)
12.12.2016 12:46 3,2 °C 3,2 °C 87 % 1026,9 hPa 0,0 mm 5,1 km/h (1 Bft) W-SW 238 ° 0 min 0,000 mm 0,5 UV-I 76 W/m² 1,2 °C 6,4 km/h (2 Bft)
12.12.2016 12:47 3,2 °C 3,3 °C 87 % 1026,9 hPa 0,0 mm 4,8 km/h (1 Bft) W-SW 252 ° 0 min 0,000 mm 0,5 UV-I 77 W/m² 1,2 °C 6,4 km/h (2 Bft)
12.12.2016 12:48 3,2 °C 3,3 °C 86 % 1026,9 hPa 0,0 mm 2,8 km/h (1 Bft) W-SW 256 ° 0 min 0,000 mm 0,5 UV-I 77 W/m² 1,1 °C 4,8 km/h (1 Bft)
12.12.2016 12:49 3,3 °C 3,3 °C 86 % 1026,9 hPa 0,0 mm 9,0 km/h (2 Bft) W-SW 239 ° 0 min 0,000 mm 0,5 UV-I 77 W/m² 1,2 °C 14,5 km/h (3 Bft)
12.12.2016 12:50 3,3 °C 3,3 °C 86 % 1026,9 hPa 0,0 mm 4,9 km/h (1 Bft) W 275 ° 0 min 0,000 mm 0,5 UV-I 76 W/m² 1,2 °C 8,0 km/h (2 Bft)
12.12.2016 12:51 3,3 °C 3,3 °C 86 % 1026,9 hPa 0,0 mm 4,8 km/h (1 Bft) W-NW 295 ° 0 min 0,000 mm 0,5 UV-I 72 W/m² 1,2 °C 9,7 km/h (2 Bft)
12.12.2016 12:52 3,3 °C 3,3 °C 86 % 1027,0 hPa 0,0 mm 8,3 km/h (2 Bft) W-NW 287 ° 0 min 0,000 mm 0,5 UV-I 72 W/m² 1,2 °C 12,9 km/h (3 Bft)
12.12.2016 12:53 3,3 °C 3,3 °C 86 % 1026,9 hPa 0,0 mm 7,2 km/h (2 Bft) W 269 ° 0 min 0,000 mm 0,5 UV-I 70 W/m² 1,2 °C 9,7 km/h (2 Bft)
12.12.2016 12:54 3,3 °C 3,3 °C 85 % 1026,9 hPa 0,0 mm 7,2 km/h (2 Bft) W-SW 253 ° 0 min 0,000 mm 0,5 UV-I 70 W/m² 1,0 °C 9,7 km/h (2 Bft)
12.12.2016 12:55 3,3 °C 3,3 °C 85 % 1026,9 hPa 0,0 mm 4,8 km/h (1 Bft) W 269 ° 0 min 0,000 mm 0,5 UV-I 69 W/m² 1,0 °C 8,0 km/h (2 Bft)
12.12.2016 12:56 3,3 °C 3,3 °C 85 % 1026,9 hPa 0,0 mm 5,2 km/h (1 Bft) W-SW 254 ° 0 min 0,000 mm 0,0 UV-I 67 W/m² 1,0 °C 6,4 km/h (2 Bft)
12.12.2016 12:57 3,3 °C 3,3 °C 85 % 1026,9 hPa 0,0 mm 7,4 km/h (2 Bft) W 277 ° 0 min 0,000 mm 0,0 UV-I 67 W/m² 1,0 °C 11,3 km/h (2 Bft)
12.12.2016 12:58 3,3 °C 3,3 °C 85 % 1026,9 hPa 0,0 mm 8,6 km/h (2 Bft) W 267 ° 0 min 0,000 mm 0,5 UV-I 69 W/m² 1,0 °C 11,3 km/h (2 Bft)
12.12.2016 12:59 3,3 °C 3,3 °C 85 % 1026,9 hPa 0,0 mm 5,9 km/h (2 Bft) W 259 ° 0 min 0,000 mm 0,5 UV-I 70 W/m² 1,0 °C 8,0 km/h (2 Bft)
12.12.2016 13:00 3,3 °C 3,3 °C 85 % 1026,9 hPa 0,0 mm 6,1 km/h (2 Bft) W 273 ° 0 min 0,000 mm 0,5 UV-I 72 W/m² 1,0 °C 11,3 km/h (2 Bft)
12.12.2016 13:01 3,3 °C 3,3 °C 85 % 1026,9 hPa 0,0 mm 7,7 km/h (2 Bft) W-NW 297 ° 0 min 0,025 mm 0,5 UV-I 74 W/m² 1,0 °C 11,3 km/h (2 Bft)
12.12.2016 13:02 3,3 °C 3,3 °C 85 % 1026,9 hPa 0,0 mm 3,7 km/h (1 Bft) W 277 ° 0 min 0,000 mm 0,5 UV-I 76 W/m² 1,0 °C 6,4 km/h (2 Bft)
12.12.2016 13:03 3,3 °C 3,3 °C 85 % 1026,9 hPa 0,0 mm 3,3 km/h (1 Bft) W 277 ° 0 min 0,000 mm 0,5 UV-I 76 W/m² 1,0 °C 4,8 km/h (1 Bft)
12.12.2016 13:04 3,3 °C 3,4 °C 85 % 1026,9 hPa 0,0 mm 4,7 km/h (1 Bft) W 279 ° 0 min 0,000 mm 0,5 UV-I 74 W/m² 1,0 °C 9,7 km/h (2 Bft)
12.12.2016 13:05 3,3 °C 3,4 °C 85 % 1026,9 hPa 0,0 mm 5,0 km/h (1 Bft) W 281 ° 0 min 0,000 mm 0,5 UV-I 72 W/m² 1,0 °C 9,7 km/h (2 Bft)
12.12.2016 13:06 3,4 °C 3,4 °C 85 % 1026,9 hPa 0,0 mm 5,1 km/h (1 Bft) W 267 ° 0 min 0,000 mm 0,5 UV-I 74 W/m² 1,1 °C 6,4 km/h (2 Bft)
12.12.2016 13:07 3,3 °C 3,4 °C 85 % 1026,9 hPa 0,0 mm 5,9 km/h (2 Bft) W 261 ° 0 min 0,000 mm 0,5 UV-I 74 W/m² 1,0 °C 9,7 km/h (2 Bft)
12.12.2016 13:08 3,4 °C 3,4 °C 85 % 1026,9 hPa 0,0 mm 6,0 km/h (2 Bft) W 275 ° 0 min 0,000 mm 0,5 UV-I 76 W/m² 1,1 °C 9,7 km/h (2 Bft)
12.12.2016 13:09 3,4 °C 3,4 °C 85 % 1026,9 hPa 0,0 mm 4,6 km/h (1 Bft) W 275 ° 0 min 0,000 mm 0,5 UV-I 76 W/m² 1,1 °C 6,4 km/h (2 Bft)
12.12.2016 13:10 3,4 °C 3,4 °C 84 % 1026,9 hPa 0,0 mm 4,4 km/h (1 Bft) W 267 ° 0 min 0,000 mm 0,5 UV-I 77 W/m² 1,0 °C 6,4 km/h (2 Bft)
12.12.2016 13:11 3,4 °C 3,4 °C 85 % 1026,9 hPa 0,0 mm 5,4 km/h (1 Bft) W-NW 283 ° 0 min 0,000 mm 0,5 UV-I 79 W/m² 1,1 °C 9,7 km/h (2 Bft)
12.12.2016 13:12 3,4 °C 3,4 °C 85 % 1026,8 hPa 0,0 mm 6,3 km/h (2 Bft) W-SW 247 ° 0 min 0,000 mm 0,5 UV-I 81 W/m² 1,1 °C 11,3 km/h (2 Bft)
12.12.2016 13:13 3,4 °C 3,4 °C 84 % 1026,8 hPa 0,0 mm 6,7 km/h (2 Bft) W 280 ° 0 min 0,000 mm 0,5 UV-I 84 W/m² 1,0 °C 9,7 km/h (2 Bft)
12.12.2016 13:14 3,4 °C 3,4 °C 85 % 1026,8 hPa 0,0 mm 5,6 km/h (1 Bft) W 273 ° 0 min 0,000 mm 0,5 UV-I 88 W/m² 1,1 °C 9,7 km/h (2 Bft)
12.12.2016 13:15 3,4 °C 3,4 °C 85 % 1026,8 hPa 0,0 mm 3,0 km/h (1 Bft) W-SW 258 ° 0 min 0,000 mm 0,6 UV-I 88 W/m² 1,1 °C 6,4 km/h (2 Bft)
12.12.2016 13:16 3,4 °C 3,4 °C 85 % 1026,8 hPa 0,0 mm 3,4 km/h (1 Bft) W-SW 258 ° 0 min 0,000 mm 0,5 UV-I 86 W/m² 1,1 °C 4,8 km/h (1 Bft)
12.12.2016 13:17 3,4 °C 3,4 °C 86 % 1026,8 hPa 0,0 mm 4,5 km/h (1 Bft) W-SW 254 ° 0 min 0,000 mm 0,5 UV-I 86 W/m² 1,3 °C 6,4 km/h (2 Bft)
12.12.2016 13:18 3,4 °C 3,5 °C 85 % 1026,8 hPa 0,0 mm 6,4 km/h (2 Bft) W-SW 258 ° 0 min 0,000 mm 0,5 UV-I 84 W/m² 1,1 °C 12,9 km/h (3 Bft)
12.12.2016 13:19 3,4 °C 3,5 °C 85 % 1026,8 hPa 0,0 mm 6,1 km/h (2 Bft) S-SW 207 ° 0 min 0,000 mm 0,5 UV-I 84 W/m² 1,1 °C 8,0 km/h (2 Bft)
12.12.2016 13:20 3,5 °C 3,5 °C 85 % 1026,8 hPa 0,0 mm 6,5 km/h (2 Bft) W-SW 258 ° 0 min 0,000 mm 0,5 UV-I 84 W/m² 1,2 °C 11,3 km/h (2 Bft)
12.12.2016 13:21 3,5 °C 3,5 °C 85 % 1026,8 hPa 0,0 mm 6,1 km/h (2 Bft) W-SW 250 ° 0 min 0,000 mm 0,5 UV-I 84 W/m² 1,2 °C 9,7 km/h (2 Bft)
12.12.2016 13:22 3,5 °C 3,5 °C 85 % 1026,8 hPa 0,0 mm 5,0 km/h (1 Bft) W 262 ° 0 min 0,000 mm 0,5 UV-I 86 W/m² 1,2 °C 6,4 km/h (2 Bft)
12.12.2016 13:23 3,5 °C 3,5 °C 85 % 1026,9 hPa 0,0 mm 5,3 km/h (1 Bft) W-SW 257 ° 0 min 0,000 mm 0,5 UV-I 86 W/m² 1,2 °C 6,4 km/h (2 Bft)
12.12.2016 13:24 3,5 °C 3,5 °C 85 % 1026,8 hPa 0,0 mm 3,4 km/h (1 Bft) W-SW 241 ° 0 min 0,000 mm 0,5 UV-I 86 W/m² 1,2 °C 6,4 km/h (2 Bft)
12.12.2016 13:25 3,5 °C 3,6 °C 84 % 1026,8 hPa 0,0 mm 3,7 km/h (1 Bft) W-SW 258 ° 0 min 0,000 mm 0,5 UV-I 86 W/m² 1,1 °C 6,4 km/h (2 Bft)
12.12.2016 13:26 3,5 °C 3,6 °C 84 % 1026,9 hPa 0,0 mm 4,1 km/h (1 Bft) W 261 ° 0 min 0,000 mm 0,5 UV-I 86 W/m² 1,1 °C 6,4 km/h (2 Bft)
12.12.2016 13:27 3,6 °C 3,6 °C 84 % 1026,9 hPa 0,0 mm 3,0 km/h (1 Bft) W 277 ° 0 min 0,000 mm 0,5 UV-I 86 W/m² 1,2 °C 4,8 km/h (1 Bft)
12.12.2016 13:28 3,6 °C 3,6 °C 84 % 1026,8 hPa 0,0 mm 5,3 km/h (1 Bft) W 273 ° 0 min 0,000 mm 0,5 UV-I 86 W/m² 1,2 °C 9,7 km/h (2 Bft)
12.12.2016 13:29 3,6 °C 3,6 °C 84 % 1026,8 hPa 0,0 mm 4,4 km/h (1 Bft) W-SW 250 ° 0 min 0,000 mm 0,5 UV-I 86 W/m² 1,2 °C 6,4 km/h (2 Bft)
12.12.2016 13:30 3,6 °C 3,6 °C 84 % 1026,8 hPa 0,0 mm 3,7 km/h (1 Bft) W-SW 253 ° 0 min 0,000 mm 0,5 UV-I 84 W/m² 1,2 °C 4,8 km/h (1 Bft)
12.12.2016 13:31 3,6 °C 3,6 °C 84 % 1026,8 hPa 0,0 mm 7,4 km/h (2 Bft) SW 234 ° 0 min 0,000 mm 0,5 UV-I 84 W/m² 1,2 °C 11,3 km/h (2 Bft)
12.12.2016 13:32 3,6 °C 3,6 °C 84 % 1026,8 hPa 0,0 mm 6,0 km/h (2 Bft) W 260 ° 0 min 0,000 mm 0,5 UV-I 83 W/m² 1,2 °C 6,4 km/h (2 Bft)
12.12.2016 13:33 3,6 °C 3,6 °C 84 % 1026,8 hPa 0,0 mm 5,9 km/h (2 Bft) W 263 ° 0 min 0,000 mm 0,5 UV-I 83 W/m² 1,2 °C 9,7 km/h (2 Bft)
12.12.2016 13:34 3,6 °C 3,6 °C 84 % 1026,8 hPa 0,0 mm 4,4 km/h (1 Bft) W-SW 254 ° 0 min 0,000 mm 0,5 UV-I 83 W/m² 1,2 °C 6,4 km/h (2 Bft)
12.12.2016 13:35 3,6 °C 3,6 °C 84 % 1026,8 hPa 0,0 mm 5,0 km/h (1 Bft) W 263 ° 0 min 0,000 mm 0,5 UV-I 83 W/m² 1,2 °C 6,4 km/h (2 Bft)
12.12.2016 13:36 3,6 °C 3,6 °C 84 % 1026,9 hPa 0,0 mm 5,6 km/h (1 Bft) W 267 ° 0 min 0,000 mm 0,5 UV-I 84 W/m² 1,2 °C 9,7 km/h (2 Bft)
12.12.2016 13:37 3,6 °C 3,6 °C 83 % 1026,8 hPa 0,0 mm 4,3 km/h (1 Bft) W 281 ° 0 min 0,000 mm 0,5 UV-I 84 W/m² 1,0 °C 6,4 km/h (2 Bft)
12.12.2016 13:38 3,6 °C 3,6 °C 83 % 1026,8 hPa 0,0 mm 6,3 km/h (2 Bft) W 268 ° 0 min 0,000 mm 0,5 UV-I 86 W/m² 1,0 °C 11,3 km/h (2 Bft)
12.12.2016 13:39 3,6 °C 3,6 °C 83 % 1026,7 hPa 0,0 mm 6,8 km/h (2 Bft) W 259 ° 0 min 0,000 mm 0,5 UV-I 86 W/m² 1,0 °C 9,7 km/h (2 Bft)
12.12.2016 13:40 3,6 °C 3,6 °C 83 % 1026,7 hPa 0,0 mm 4,2 km/h (1 Bft) W-SW 254 ° 0 min 0,000 mm 0,5 UV-I 88 W/m² 1,0 °C 6,4 km/h (2 Bft)
12.12.2016 13:41 3,6 °C 3,6 °C 84 % 1026,8 hPa 0,0 mm 2,0 km/h (1 Bft) W-SW 254 ° 0 min 0,000 mm 0,6 UV-I 90 W/m² 1,2 °C 4,8 km/h (1 Bft)
12.12.2016 13:42 3,6 °C 3,6 °C 84 % 1026,8 hPa 0,0 mm 4,4 km/h (1 Bft) W 259 ° 0 min 0,000 mm 0,6 UV-I 90 W/m² 1,2 °C 6,4 km/h (2 Bft)
12.12.2016 13:43 3,6 °C 3,6 °C 84 % 1026,8 hPa 0,0 mm 8,4 km/h (2 Bft) W-SW 244 ° 0 min 0,000 mm 0,6 UV-I 90 W/m² 1,2 °C 11,3 km/h (2 Bft)
12.12.2016 13:44 3,7 °C 3,7 °C 84 % 1026,7 hPa 0,0 mm 6,0 km/h (2 Bft) W 259 ° 0 min 0,000 mm 0,6 UV-I 90 W/m² 1,3 °C 9,7 km/h (2 Bft)
12.12.2016 13:45 3,7 °C 3,7 °C 84 % 1026,7 hPa 0,0 mm 7,4 km/h (2 Bft) W-SW 257 ° 0 min 0,000 mm 0,5 UV-I 88 W/m² 1,3 °C 9,7 km/h (2 Bft)
12.12.2016 13:46 3,7 °C 3,7 °C 84 % 1026,7 hPa 0,0 mm 4,4 km/h (1 Bft) W-SW 249 ° 0 min 0,000 mm 0,5 UV-I 86 W/m² 1,3 °C 6,4 km/h (2 Bft)
12.12.2016 13:47 3,7 °C 3,7 °C 84 % 1026,8 hPa 0,0 mm 4,4 km/h (1 Bft) SW 222 ° 0 min 0,000 mm 0,5 UV-I 86 W/m² 1,3 °C 6,4 km/h (2 Bft)
12.12.2016 13:48 3,7 °C 3,7 °C 84 % 1026,8 hPa 0,0 mm 4,0 km/h (1 Bft) SW 227 ° 0 min 0,000 mm 0,5 UV-I 84 W/m² 1,3 °C 6,4 km/h (2 Bft)
12.12.2016 13:49 3,7 °C 3,7 °C 84 % 1026,8 hPa 0,0 mm 4,2 km/h (1 Bft) W-SW 239 ° 0 min 0,000 mm 0,5 UV-I 83 W/m² 1,3 °C 6,4 km/h (2 Bft)
12.12.2016 13:50 3,7 °C 3,7 °C 84 % 1026,8 hPa 0,0 mm 1,9 km/h (1 Bft) W-SW 239 ° 0 min 0,000 mm 0,5 UV-I 83 W/m² 1,3 °C 3,2 km/h (1 Bft)
12.12.2016 13:51 3,7 °C 3,7 °C 84 % 1026,8 hPa 0,0 mm 4,2 km/h (1 Bft) S-SW 200 ° 0 min 0,000 mm 0,5 UV-I 83 W/m² 1,3 °C 8,0 km/h (2 Bft)
12.12.2016 13:52 3,7 °C 3,7 °C 83 % 1026,8 hPa 0,0 mm 3,3 km/h (1 Bft) S-SW 200 ° 0 min 0,000 mm 0,5 UV-I 83 W/m² 1,1 °C 6,4 km/h (2 Bft)
12.12.2016 13:53 3,7 °C 3,7 °C 84 % 1026,8 hPa 0,0 mm 4,7 km/h (1 Bft) W-SW 247 ° 0 min 0,000 mm 0,5 UV-I 83 W/m² 1,3 °C 8,0 km/h (2 Bft)
12.12.2016 13:54 3,7 °C 3,7 °C 84 % 1026,8 hPa 0,0 mm 5,2 km/h (1 Bft) W-SW 250 ° 0 min 0,000 mm 0,5 UV-I 83 W/m² 1,3 °C 6,4 km/h (2 Bft)
12.12.2016 13:55 3,7 °C 3,7 °C 84 % 1026,8 hPa 0,0 mm 2,8 km/h (1 Bft) W-SW 250 ° 0 min 0,000 mm 0,5 UV-I 84 W/m² 1,3 °C 4,8 km/h (1 Bft)
12.12.2016 13:56 3,7 °C 3,7 °C 84 % 1026,8 hPa 0,0 mm 1,5 km/h (1 Bft) W-SW 250 ° 0 min 0,000 mm 0,5 UV-I 86 W/m² 1,3 °C 3,2 km/h (1 Bft)
12.12.2016 13:57 3,7 °C 3,7 °C 84 % 1026,7 hPa 0,0 mm 4,7 km/h (1 Bft) W-SW 250 ° 0 min 0,000 mm 0,5 UV-I 86 W/m² 1,3 °C 6,4 km/h (2 Bft)
12.12.2016 13:58 3,7 °C 3,8 °C 84 % 1026,8 hPa 0,0 mm 3,8 km/h (1 Bft) W 265 ° 0 min 0,000 mm 0,5 UV-I 88 W/m² 1,3 °C 4,8 km/h (1 Bft)
12.12.2016 13:59 3,7 °C 3,7 °C 84 % 1026,7 hPa 0,0 mm 3,2 km/h (1 Bft) W 265 ° 0 min 0,000 mm 0,5 UV-I 88 W/m² 1,3 °C 4,8 km/h (1 Bft)
12.12.2016 14:00 3,8 °C 3,8 °C 84 % 1026,7 hPa 0,0 mm 3,8 km/h (1 Bft) W 265 ° 0 min 0,000 mm 0,5 UV-I 90 W/m² 1,4 °C 4,8 km/h (1 Bft)
12.12.2016 14:01 3,7 °C 3,8 °C 84 % 1026,7 hPa 0,0 mm 1,3 km/h (1 Bft) W 265 ° 0 min 0,051 mm 0,5 UV-I 91 W/m² 1,3 °C 1,6 km/h (1 Bft)
12.12.2016 14:02 3,7 °C 3,8 °C 83 % 1026,7 hPa 0,0 mm 3,6 km/h (1 Bft) W-SW 240 ° 0 min 0,000 mm 0,5 UV-I 91 W/m² 1,1 °C 4,8 km/h (1 Bft)
12.12.2016 14:03 3,7 °C 3,8 °C 83 % 1026,7 hPa 0,0 mm 4,4 km/h (1 Bft) W-SW 251 ° 0 min 0,000 mm 0,5 UV-I 91 W/m² 1,1 °C 4,8 km/h (1 Bft)
12.12.2016 14:04 3,8 °C 3,8 °C 83 % 1026,7 hPa 0,0 mm 3,8 km/h (1 Bft) W 265 ° 0 min 0,000 mm 0,5 UV-I 90 W/m² 1,2 °C 4,8 km/h (1 Bft)
12.12.2016 14:05 3,8 °C 3,8 °C 83 % 1026,7 hPa 0,0 mm 1,4 km/h (1 Bft) S-SW 203 ° 0 min 0,000 mm 0,5 UV-I 90 W/m² 1,2 °C 3,2 km/h (1 Bft)
12.12.2016 14:06 3,7 °C 3,8 °C 83 % 1026,6 hPa 0,0 mm 2,5 km/h (1 Bft) W-SW 247 ° 0 min 0,000 mm 0,5 UV-I 90 W/m² 1,1 °C 4,8 km/h (1 Bft)
12.12.2016 14:07 3,8 °C 3,8 °C 83 % 1026,6 hPa 0,0 mm 4,4 km/h (1 Bft) W-SW 248 ° 0 min 0,000 mm 0,5 UV-I 90 W/m² 1,2 °C 6,4 km/h (2 Bft)
12.12.2016 14:08 3,8 °C 3,8 °C 83 % 1026,6 hPa 0,0 mm 1,4 km/h (1 Bft) W-SW 248 ° 0 min 0,000 mm 0,5 UV-I 90 W/m² 1,2 °C 3,2 km/h (1 Bft)
12.12.2016 14:09 3,8 °C 3,8 °C 83 % 1026,6 hPa 0,0 mm 2,3 km/h (1 Bft) W-SW 252 ° 0 min 0,000 mm 0,5 UV-I 90 W/m² 1,2 °C 4,8 km/h (1 Bft)
12.12.2016 14:10 3,8 °C 3,8 °C 83 % 1026,6 hPa 0,0 mm 2,3 km/h (1 Bft) W-SW 252 ° 0 min 0,000 mm 0,5 UV-I 88 W/m² 1,2 °C 3,2 km/h (1 Bft)
12.12.2016 14:11 3,8 °C 3,8 °C 83 % 1026,6 hPa 0,0 mm 2,5 km/h (1 Bft) W-SW 252 ° 0 min 0,000 mm 0,5 UV-I 88 W/m² 1,2 °C 3,2 km/h (1 Bft)
12.12.2016 14:12 3,8 °C 3,8 °C 83 % 1026,6 hPa 0,0 mm 1,5 km/h (1 Bft) W-SW 252 ° 0 min 0,000 mm 0,5 UV-I 88 W/m² 1,2 °C 3,2 km/h (1 Bft)
12.12.2016 14:13 3,8 °C 3,8 °C 83 % 1026,7 hPa 0,0 mm 3,2 km/h (1 Bft) W-SW 252 ° 0 min 0,000 mm 0,5 UV-I 88 W/m² 1,2 °C 6,4 km/h (2 Bft)
12.12.2016 14:14 3,8 °C 3,8 °C 82 % 1026,6 hPa 0,0 mm 3,5 km/h (1 Bft) W 266 ° 0 min 0,000 mm 0,5 UV-I 88 W/m² 1,0 °C 6,4 km/h (2 Bft)
12.12.2016 14:15 3,8 °C 3,8 °C 82 % 1026,6 hPa 0,0 mm 2,9 km/h (1 Bft) W 266 ° 0 min 0,000 mm 0,5 UV-I 88 W/m² 1,0 °C 4,8 km/h (1 Bft)
12.12.2016 14:16 3,8 °C 3,8 °C 82 % 1026,6 hPa 0,0 mm 2,5 km/h (1 Bft) W 266 ° 0 min 0,000 mm 0,5 UV-I 86 W/m² 1,0 °C 4,8 km/h (1 Bft)
12.12.2016 14:17 3,8 °C 3,8 °C 82 % 1026,6 hPa 0,0 mm 1,0 km/h (0 Bft) W 266 ° 0 min 0,000 mm 0,5 UV-I 86 W/m² 1,0 °C 3,2 km/h (1 Bft)
12.12.2016 14:18 3,9 °C 3,9 °C 82 % 1026,6 hPa 0,0 mm 1,3 km/h (1 Bft) W 266 ° 0 min 0,000 mm 0,5 UV-I 84 W/m² 1,1 °C 3,2 km/h (1 Bft)
12.12.2016 14:19 3,8 °C 3,9 °C 82 % 1026,6 hPa 0,0 mm 1,0 km/h (0 Bft) W 266 ° 0 min 0,000 mm 0,5 UV-I 83 W/m² 1,0 °C 3,2 km/h (1 Bft)
12.12.2016 14:20 3,8 °C 3,9 °C 82 % 1026,5 hPa 0,0 mm 1,2 km/h (1 Bft) W 266 ° 0 min 0,000 mm 0,5 UV-I 81 W/m² 1,0 °C 1,6 km/h (1 Bft)
12.12.2016 14:21 3,9 °C 3,9 °C 83 % 1026,5 hPa 0,0 mm 0,1 km/h (0 Bft) W 266 ° 0 min 0,000 mm 0,5 UV-I 79 W/m² 1,3 °C 1,6 km/h (1 Bft)
12.12.2016 14:22 3,9 °C 3,9 °C 82 % 1026,5 hPa 0,0 mm 0,9 km/h (0 Bft) W 266 ° 0 min 0,000 mm 0,5 UV-I 77 W/m² 1,1 °C 1,6 km/h (1 Bft)
12.12.2016 14:23 3,9 °C 3,9 °C 82 % 1026,5 hPa 0,0 mm 1,3 km/h (1 Bft) W 266 ° 0 min 0,000 mm 0,5 UV-I 76 W/m² 1,1 °C 1,6 km/h (1 Bft)
12.12.2016 14:24 3,9 °C 3,9 °C 83 % 1026,4 hPa 0,0 mm 1,0 km/h (0 Bft) W 266 ° 0 min 0,000 mm 0,5 UV-I 72 W/m² 1,3 °C 1,6 km/h (1 Bft)
12.12.2016 14:25 3,9 °C 3,9 °C 82 % 1026,4 hPa 0,0 mm 3,7 km/h (1 Bft) SW 215 ° 0 min 0,000 mm 0,5 UV-I 70 W/m² 1,1 °C 6,4 km/h (2 Bft)
12.12.2016 14:26 3,9 °C 3,9 °C 82 % 1026,4 hPa 0,0 mm 2,5 km/h (1 Bft) SW 215 ° 0 min 0,000 mm 0,5 UV-I 72 W/m² 1,1 °C 4,8 km/h (1 Bft)
12.12.2016 14:27 3,9 °C 3,9 °C 82 % 1026,4 hPa 0,0 mm 2,4 km/h (1 Bft) SW 215 ° 0 min 0,000 mm 0,5 UV-I 72 W/m² 1,1 °C 3,2 km/h (1 Bft)
12.12.2016 14:28 3,9 °C 3,9 °C 82 % 1026,4 hPa 0,0 mm 2,0 km/h (1 Bft) SW 221 ° 0 min 0,000 mm 0,5 UV-I 72 W/m² 1,1 °C 4,8 km/h (1 Bft)
12.12.2016 14:29 3,9 °C 3,9 °C 82 % 1026,4 hPa 0,0 mm 1,5 km/h (1 Bft) SW 221 ° 0 min 0,000 mm 0,5 UV-I 72 W/m² 1,1 °C 3,2 km/h (1 Bft)
12.12.2016 14:30 3,9 °C 3,9 °C 82 % 1026,3 hPa 0,0 mm 2,7 km/h (1 Bft) S-SW 194 ° 0 min 0,000 mm 0,5 UV-I 74 W/m² 1,1 °C 4,8 km/h (1 Bft)
12.12.2016 14:31 3,9 °C 3,9 °C 82 % 1026,3 hPa 0,0 mm 2,8 km/h (1 Bft) SW 225 ° 0 min 0,000 mm 0,5 UV-I 74 W/m² 1,1 °C 4,8 km/h (1 Bft)
12.12.2016 14:32 3,9 °C 3,9 °C 82 % 1026,3 hPa 0,0 mm 4,4 km/h (1 Bft) W-SW 250 ° 0 min 0,000 mm 0,5 UV-I 74 W/m² 1,1 °C 6,4 km/h (2 Bft)
12.12.2016 14:33 3,9 °C 3,9 °C 82 % 1026,3 hPa 0,0 mm 5,8 km/h (2 Bft) W-SW 250 ° 0 min 0,000 mm 0,5 UV-I 74 W/m² 1,1 °C 9,7 km/h (2 Bft)
12.12.2016 14:34 3,9 °C 3,9 °C 82 % 1026,3 hPa 0,0 mm 4,3 km/h (1 Bft) W-SW 249 ° 0 min 0,000 mm 0,5 UV-I 72 W/m² 1,1 °C 6,4 km/h (2 Bft)
12.12.2016 14:35 3,9 °C 3,9 °C 81 % 1026,3 hPa 0,0 mm 3,2 km/h (1 Bft) SW 226 ° 0 min 0,000 mm 0,5 UV-I 70 W/m² 0,9 °C 4,8 km/h (1 Bft)
12.12.2016 14:36 3,9 °C 3,9 °C 81 % 1026,3 hPa 0,0 mm 3,9 km/h (1 Bft) W-SW 243 ° 0 min 0,000 mm 0,5 UV-I 63 W/m² 0,9 °C 6,4 km/h (2 Bft)
12.12.2016 14:37 3,9 °C 3,9 °C 81 % 1026,3 hPa 0,0 mm 4,3 km/h (1 Bft) W-SW 251 ° 0 min 0,000 mm 0,5 UV-I 58 W/m² 0,9 °C 4,8 km/h (1 Bft)
12.12.2016 14:38 3,9 °C 3,9 °C 81 % 1026,3 hPa 0,0 mm 3,0 km/h (1 Bft) W-SW 251 ° 0 min 0,000 mm 0,5 UV-I 54 W/m² 0,9 °C 3,2 km/h (1 Bft)
12.12.2016 14:39 3,8 °C 3,9 °C 81 % 1026,3 hPa 0,0 mm 2,4 km/h (1 Bft) W-SW 251 ° 0 min 0,000 mm 0,0 UV-I 51 W/m² 0,8 °C 3,2 km/h (1 Bft)
12.12.2016 14:40 3,8 °C 3,9 °C 82 % 1026,3 hPa 0,0 mm 0,7 km/h (0 Bft) W-SW 251 ° 0 min 0,000 mm 0,0 UV-I 49 W/m² 1,0 °C 1,6 km/h (1 Bft)
12.12.2016 14:41 3,8 °C 3,9 °C 82 % 1026,3 hPa 0,0 mm 0,7 km/h (0 Bft) W-SW 251 ° 0 min 0,000 mm 0,0 UV-I 49 W/m² 1,0 °C 1,6 km/h (1 Bft)
12.12.2016 14:42 3,8 °C 3,9 °C 82 % 1026,3 hPa 0,0 mm 0,7 km/h (0 Bft) W-SW 251 ° 0 min 0,000 mm 0,0 UV-I 47 W/m² 1,0 °C 1,6 km/h (1 Bft)
12.12.2016 14:43 3,8 °C 3,8 °C 81 % 1026,3 hPa 0,0 mm 1,7 km/h (1 Bft) W-SW 251 ° 0 min 0,000 mm 0,0 UV-I 46 W/m² 0,8 °C 3,2 km/h (1 Bft)
12.12.2016 14:44 3,8 °C 3,8 °C 81 % 1026,3 hPa 0,0 mm 1,0 km/h (0 Bft) W-SW 251 ° 0 min 0,000 mm 0,0 UV-I 44 W/m² 0,8 °C 3,2 km/h (1 Bft)
12.12.2016 14:45 3,8 °C 3,8 °C 81 % 1026,3 hPa 0,0 mm 1,6 km/h (1 Bft) W-SW 251 ° 0 min 0,000 mm 0,0 UV-I 42 W/m² 0,8 °C 3,2 km/h (1 Bft)
12.12.2016 14:46 3,8 °C 3,8 °C 81 % 1026,3 hPa 0,0 mm 2,7 km/h (1 Bft) W-SW 251 ° 0 min 0,000 mm 0,0 UV-I 39 W/m² 0,8 °C 4,8 km/h (1 Bft)
12.12.2016 14:47 3,8 °C 3,8 °C 81 % 1026,3 hPa 0,0 mm 1,0 km/h (0 Bft) W-SW 251 ° 0 min 0,000 mm 0,0 UV-I 35 W/m² 0,8 °C 3,2 km/h (1 Bft)
12.12.2016 14:48 3,8 °C 3,8 °C 81 % 1026,3 hPa 0,0 mm 1,4 km/h (1 Bft) W-SW 251 ° 0 min 0,000 mm 0,0 UV-I 32 W/m² 0,8 °C 4,8 km/h (1 Bft)
12.12.2016 14:49 3,7 °C 3,8 °C 81 % 1026,3 hPa 0,0 mm 3,2 km/h (1 Bft) W-SW 251 ° 0 min 0,000 mm 0,0 UV-I 30 W/m² 0,7 °C 4,8 km/h (1 Bft)
12.12.2016 14:50 3,7 °C 3,7 °C 81 % 1026,3 hPa 0,0 mm 1,7 km/h (1 Bft) W-SW 251 ° 0 min 0,000 mm 0,0 UV-I 28 W/m² 0,7 °C 3,2 km/h (1 Bft)
12.12.2016 14:51 3,7 °C 3,7 °C 80 % 1026,3 hPa 0,0 mm 1,0 km/h (0 Bft) W-SW 251 ° 0 min 0,000 mm 0,0 UV-I 28 W/m² 0,6 °C 1,6 km/h (1 Bft)
12.12.2016 14:52 3,7 °C 3,7 °C 80 % 1026,3 hPa 0,0 mm 0,9 km/h (0 Bft) W-SW 251 ° 0 min 0,000 mm 0,0 UV-I 30 W/m² 0,6 °C 1,6 km/h (1 Bft)
12.12.2016 14:53 3,7 °C 3,7 °C 81 % 1026,3 hPa 0,0 mm 0,9 km/h (0 Bft) W-SW 251 ° 0 min 0,000 mm 0,0 UV-I 32 W/m² 0,7 °C 1,6 km/h (1 Bft)
12.12.2016 14:54 3,7 °C 3,7 °C 81 % 1026,3 hPa 0,0 mm 0,8 km/h (0 Bft) W-SW 251 ° 0 min 0,000 mm 0,0 UV-I 32 W/m² 0,7 °C 3,2 km/h (1 Bft)
12.12.2016 14:55 3,7 °C 3,7 °C 81 % 1026,3 hPa 0,0 mm 2,7 km/h (1 Bft) W-SW 251 ° 0 min 0,000 mm 0,0 UV-I 32 W/m² 0,7 °C 3,2 km/h (1 Bft)
12.12.2016 14:56 3,6 °C 3,7 °C 81 % 1026,3 hPa 0,0 mm 1,3 km/h (1 Bft) W-SW 251 ° 0 min 0,000 mm 0,0 UV-I 33 W/m² 0,7 °C 1,6 km/h (1 Bft)
12.12.2016 14:57 3,6 °C 3,6 °C 81 % 1026,4 hPa 0,0 mm 0,3 km/h (0 Bft) W-SW 251 ° 0 min 0,000 mm 0,0 UV-I 35 W/m² 0,7 °C 1,6 km/h (1 Bft)
12.12.2016 14:58 3,6 °C 3,7 °C 81 % 1026,4 hPa 0,0 mm 0,0 km/h (0 Bft) W-SW 251 ° 0 min 0,000 mm 0,0 UV-I 37 W/m² 0,7 °C 0,0 km/h (0 Bft)
12.12.2016 14:59 3,6 °C 3,6 °C 81 % 1026,4 hPa 0,0 mm 0,2 km/h (0 Bft) W-SW 251 ° 0 min 0,000 mm 0,0 UV-I 42 W/m² 0,7 °C 1,6 km/h (1 Bft)
12.12.2016 15:00 3,6 °C 3,6 °C 81 % 1026,4 hPa 0,0 mm 1,3 km/h (1 Bft) W-SW 251 ° 0 min 0,000 mm 0,0 UV-I 44 W/m² 0,7 °C 3,2 km/h (1 Bft)
12.12.2016 15:01 3,6 °C 3,6 °C 81 % 1026,5 hPa 0,0 mm 0,8 km/h (0 Bft) W-SW 251 ° 0 min 0,025 mm 0,0 UV-I 46 W/m² 0,7 °C 3,2 km/h (1 Bft)
12.12.2016 15:02 3,6 °C 3,6 °C 81 % 1026,5 hPa 0,0 mm 2,5 km/h (1 Bft) W-SW 251 ° 0 min 0,000 mm 0,0 UV-I 47 W/m² 0,7 °C 3,2 km/h (1 Bft)
12.12.2016 15:03 3,5 °C 3,6 °C 81 % 1026,6 hPa 0,0 mm 1,7 km/h (1 Bft) W-SW 251 ° 0 min 0,000 mm 0,0 UV-I 49 W/m² 0,6 °C 3,2 km/h (1 Bft)
12.12.2016 15:04 3,5 °C 3,5 °C 81 % 1026,6 hPa 0,0 mm 2,1 km/h (1 Bft) W-SW 251 ° 0 min 0,000 mm 0,0 UV-I 49 W/m² 0,6 °C 3,2 km/h (1 Bft)
12.12.2016 15:05 3,5 °C 3,5 °C 81 % 1026,6 hPa 0,0 mm 0,4 km/h (0 Bft) W-SW 251 ° 0 min 0,000 mm 0,0 UV-I 49 W/m² 0,6 °C 1,6 km/h (1 Bft)
12.12.2016 15:06 3,4 °C 3,5 °C 81 % 1026,6 hPa 0,0 mm 0,0 km/h (0 Bft) W-SW 251 ° 0 min 0,000 mm 0,0 UV-I 47 W/m² 0,5 °C 0,0 km/h (0 Bft)
12.12.2016 15:07 3,4 °C 3,5 °C 82 % 1026,6 hPa 0,0 mm 0,0 km/h (0 Bft) W-SW 251 ° 0 min 0,000 mm 0,0 UV-I 46 W/m² 0,6 °C 0,0 km/h (0 Bft)
12.12.2016 15:08 3,4 °C 3,5 °C 82 % 1026,6 hPa 0,0 mm 0,1 km/h (0 Bft) W-SW 251 ° 0 min 0,000 mm 0,0 UV-I 44 W/m² 0,6 °C 1,6 km/h (1 Bft)
12.12.2016 15:09 3,4 °C 3,4 °C 82 % 1026,6 hPa 0,0 mm 0,5 km/h (0 Bft) W-SW 251 ° 0 min 0,000 mm 0,0 UV-I 42 W/m² 0,6 °C 1,6 km/h (1 Bft)
12.12.2016 15:10 3,4 °C 3,4 °C 82 % 1026,6 hPa 0,0 mm 0,0 km/h (0 Bft) W-SW 251 ° 0 min 0,000 mm 0,0 UV-I 40 W/m² 0,6 °C 0,0 km/h (0 Bft)
12.12.2016 15:11 3,4 °C 3,4 °C 82 % 1026,5 hPa 0,0 mm 0,0 km/h (0 Bft) W-SW 251 ° 0 min 0,000 mm 0,0 UV-I 35 W/m² 0,6 °C 0,0 km/h (0 Bft)
12.12.2016 15:12 3,4 °C 3,4 °C 82 % 1026,6 hPa 0,0 mm 0,1 km/h (0 Bft) W-SW 251 ° 0 min 0,000 mm 0,0 UV-I 32 W/m² 0,6 °C 1,6 km/h (1 Bft)
12.12.2016 15:13 3,4 °C 3,4 °C 82 % 1026,5 hPa 0,0 mm 0,1 km/h (0 Bft) W-SW 251 ° 0 min 0,000 mm 0,0 UV-I 30 W/m² 0,6 °C 1,6 km/h (1 Bft)
12.12.2016 15:14 3,4 °C 3,4 °C 82 % 1026,6 hPa 0,0 mm 0,0 km/h (0 Bft) W-SW 251 ° 0 min 0,000 mm 0,0 UV-I 28 W/m² 0,6 °C 0,0 km/h (0 Bft)
12.12.2016 15:15 3,4 °C 3,4 °C 82 % 1026,6 hPa 0,0 mm 0,0 km/h (0 Bft) W-SW 251 ° 0 min 0,000 mm 0,0 UV-I 26 W/m² 0,6 °C 0,0 km/h (0 Bft)
12.12.2016 15:16 3,4 °C 3,4 °C 82 % 1026,6 hPa 0,0 mm 0,0 km/h (0 Bft) W-SW 251 ° 0 min 0,000 mm 0,0 UV-I 26 W/m² 0,6 °C 0,0 km/h (0 Bft)
12.12.2016 15:17 3,4 °C 3,4 °C 82 % 1026,6 hPa 0,0 mm 0,1 km/h (0 Bft) W-SW 251 ° 0 min 0,000 mm 0,0 UV-I 26 W/m² 0,6 °C 1,6 km/h (1 Bft)
12.12.2016 15:18 3,4 °C 3,4 °C 82 % 1026,6 hPa 0,0 mm 0,0 km/h (0 Bft) W-SW 251 ° 0 min 0,000 mm 0,0 UV-I 26 W/m² 0,6 °C 0,0 km/h (0 Bft)
12.12.2016 15:19 3,4 °C 3,4 °C 82 % 1026,6 hPa 0,0 mm 0,1 km/h (0 Bft) W-SW 251 ° 0 min 0,000 mm 0,0 UV-I 28 W/m² 0,6 °C 1,6 km/h (1 Bft)
12.12.2016 15:20 3,3 °C 3,4 °C 82 % 1026,6 hPa 0,0 mm 0,0 km/h (0 Bft) W-SW 251 ° 0 min 0,000 mm 0,0 UV-I 30 W/m² 0,5 °C 0,0 km/h (0 Bft)
12.12.2016 15:21 3,3 °C 3,3 °C 82 % 1026,7 hPa 0,0 mm 0,0 km/h (0 Bft) W-SW 251 ° 0 min 0,000 mm 0,0 UV-I 32 W/m² 0,5 °C 0,0 km/h (0 Bft)
12.12.2016 15:22 3,3 °C 3,3 °C 82 % 1026,7 hPa 0,0 mm 0,0 km/h (0 Bft) W-SW 251 ° 0 min 0,000 mm 0,0 UV-I 35 W/m² 0,5 °C 0,0 km/h (0 Bft)
12.12.2016 15:23 3,3 °C 3,3 °C 82 % 1026,6 hPa 0,0 mm 0,0 km/h (0 Bft) W-SW 251 ° 0 min 0,000 mm 0,0 UV-I 42 W/m² 0,5 °C 0,0 km/h (0 Bft)
12.12.2016 15:24 3,3 °C 3,3 °C 81 % 1026,7 hPa 0,0 mm 0,0 km/h (0 Bft) W-SW 251 ° 0 min 0,000 mm 0,0 UV-I 46 W/m² 0,4 °C 0,0 km/h (0 Bft)
12.12.2016 15:25 3,3 °C 3,3 °C 81 % 1026,7 hPa 0,0 mm 0,0 km/h (0 Bft) W-SW 251 ° 0 min 0,000 mm 0,0 UV-I 51 W/m² 0,4 °C 0,0 km/h (0 Bft)
12.12.2016 15:26 3,3 °C 3,3 °C 81 % 1026,7 hPa 0,0 mm 0,5 km/h (0 Bft) W-SW 251 ° 0 min 0,000 mm 0,0 UV-I 56 W/m² 0,4 °C 1,6 km/h (1 Bft)
12.12.2016 15:27 3,3 °C 3,3 °C 81 % 1026,7 hPa 0,0 mm 0,5 km/h (0 Bft) W-SW 251 ° 0 min 0,000 mm 0,0 UV-I 56 W/m² 0,4 °C 1,6 km/h (1 Bft)
12.12.2016 15:28 3,3 °C 3,3 °C 81 % 1026,7 hPa 0,0 mm 0,0 km/h (0 Bft) W-SW 251 ° 0 min 0,000 mm 0,0 UV-I 54 W/m² 0,4 °C 0,0 km/h (0 Bft)
12.12.2016 15:29 3,3 °C 3,3 °C 82 % 1026,7 hPa 0,0 mm 0,0 km/h (0 Bft) W-SW 251 ° 0 min 0,000 mm 0,0 UV-I 49 W/m² 0,5 °C 0,0 km/h (0 Bft)
12.12.2016 15:30 3,3 °C 3,3 °C 82 % 1026,7 hPa 0,0 mm 0,1 km/h (0 Bft) W-SW 251 ° 0 min 0,000 mm 0,0 UV-I 47 W/m² 0,5 °C 1,6 km/h (1 Bft)
12.12.2016 15:31 3,3 °C 3,3 °C 82 % 1026,7 hPa 0,0 mm 0,3 km/h (0 Bft) W-SW 251 ° 0 min 0,000 mm 0,0 UV-I 46 W/m² 0,5 °C 1,6 km/h (1 Bft)
12.12.2016 15:32 3,3 °C 3,3 °C 82 % 1026,7 hPa 0,0 mm 2,3 km/h (1 Bft) W-NW 282 ° 0 min 0,000 mm 0,0 UV-I 44 W/m² 0,5 °C 4,8 km/h (1 Bft)
12.12.2016 15:33 3,3 °C 3,3 °C 82 % 1026,7 hPa 0,0 mm 0,6 km/h (0 Bft) W 281 ° 0 min 0,000 mm 0,0 UV-I 42 W/m² 0,5 °C 1,6 km/h (1 Bft)
12.12.2016 15:34 3,3 °C 3,3 °C 82 % 1026,7 hPa 0,0 mm 0,3 km/h (0 Bft) W-NW 282 ° 0 min 0,000 mm 0,0 UV-I 40 W/m² 0,5 °C 1,6 km/h (1 Bft)
12.12.2016 15:35 3,3 °C 3,3 °C 82 % 1026,7 hPa 0,0 mm 1,1 km/h (1 Bft) W-NW 286 ° 0 min 0,000 mm 0,0 UV-I 37 W/m² 0,5 °C 3,2 km/h (1 Bft)
12.12.2016 15:36 3,3 °C 3,3 °C 83 % 1026,7 hPa 0,0 mm 0,8 km/h (0 Bft) W-NW 286 ° 0 min 0,000 mm 0,0 UV-I 35 W/m² 0,7 °C 3,2 km/h (1 Bft)
12.12.2016 15:37 3,3 °C 3,3 °C 83 % 1026,7 hPa 0,0 mm 0,1 km/h (0 Bft) W-NW 286 ° 0 min 0,000 mm 0,0 UV-I 32 W/m² 0,7 °C 1,6 km/h (1 Bft)
12.12.2016 15:38 3,3 °C 3,3 °C 83 % 1026,7 hPa 0,0 mm 0,0 km/h (0 Bft) W-NW 286 ° 0 min 0,000 mm 0,0 UV-I 30 W/m² 0,7 °C 0,0 km/h (0 Bft)
12.12.2016 15:39 3,3 °C 3,3 °C 83 % 1026,7 hPa 0,0 mm 0,3 km/h (0 Bft) W-NW 286 ° 0 min 0,000 mm 0,0 UV-I 26 W/m² 0,7 °C 1,6 km/h (1 Bft)
12.12.2016 15:40 3,3 °C 3,3 °C 83 % 1026,7 hPa 0,0 mm 0,3 km/h (0 Bft) W-NW 286 ° 0 min 0,000 mm 0,0 UV-I 23 W/m² 0,7 °C 1,6 km/h (1 Bft)
12.12.2016 15:41 3,3 °C 3,3 °C 83 % 1026,7 hPa 0,0 mm 1,4 km/h (1 Bft) W-NW 286 ° 0 min 0,000 mm 0,0 UV-I 23 W/m² 0,7 °C 4,8 km/h (1 Bft)
12.12.2016 15:42 3,3 °C 3,3 °C 83 % 1026,7 hPa 0,0 mm 3,6 km/h (1 Bft) W 269 ° 0 min 0,000 mm 0,0 UV-I 21 W/m² 0,7 °C 4,8 km/h (1 Bft)
12.12.2016 15:43 3,3 °C 3,3 °C 83 % 1026,7 hPa 0,0 mm 0,6 km/h (0 Bft) W 269 ° 0 min 0,000 mm 0,0 UV-I 21 W/m² 0,7 °C 3,2 km/h (1 Bft)
12.12.2016 15:44 3,3 °C 3,3 °C 83 % 1026,7 hPa 0,0 mm 0,0 km/h (0 Bft) W 269 ° 0 min 0,000 mm 0,0 UV-I 19 W/m² 0,7 °C 0,0 km/h (0 Bft)
12.12.2016 15:45 3,3 °C 3,3 °C 83 % 1026,7 hPa 0,0 mm 0,3 km/h (0 Bft) W-NW 288 ° 0 min 0,000 mm 0,0 UV-I 19 W/m² 0,7 °C 3,2 km/h (1 Bft)
12.12.2016 15:46 3,3 °C 3,3 °C 84 % 1026,7 hPa 0,0 mm 0,9 km/h (0 Bft) NW 309 ° 0 min 0,000 mm 0,0 UV-I 18 W/m² 0,9 °C 3,2 km/h (1 Bft)
12.12.2016 15:47 3,3 °C 3,3 °C 84 % 1026,7 hPa 0,0 mm 0,0 km/h (0 Bft) NW 309 ° 0 min 0,000 mm 0,0 UV-I 16 W/m² 0,9 °C 0,0 km/h (0 Bft)
12.12.2016 15:48 3,3 °C 3,3 °C 84 % 1026,7 hPa 0,0 mm 2,8 km/h (1 Bft) NW 309 ° 0 min 0,000 mm 0,0 UV-I 16 W/m² 0,9 °C 3,2 km/h (1 Bft)
12.12.2016 15:49 3,2 °C 3,3 °C 84 % 1026,7 hPa 0,0 mm 2,0 km/h (1 Bft) NW 309 ° 0 min 0,000 mm 0,0 UV-I 16 W/m² 0,8 °C 3,2 km/h (1 Bft)
12.12.2016 15:50 3,3 °C 3,3 °C 84 % 1026,7 hPa 0,0 mm 0,9 km/h (0 Bft) NW 309 ° 0 min 0,000 mm 0,0 UV-I 14 W/m² 0,9 °C 1,6 km/h (1 Bft)
12.12.2016 15:51 3,2 °C 3,3 °C 84 % 1026,7 hPa 0,0 mm 0,1 km/h (0 Bft) NW 309 ° 0 min 0,000 mm 0,0 UV-I 14 W/m² 0,8 °C 1,6 km/h (1 Bft)
12.12.2016 15:52 3,2 °C 3,3 °C 84 % 1026,7 hPa 0,0 mm 0,9 km/h (0 Bft) NW 309 ° 0 min 0,000 mm 0,0 UV-I 14 W/m² 0,8 °C 3,2 km/h (1 Bft)
12.12.2016 15:53 3,3 °C 3,3 °C 85 % 1026,7 hPa 0,0 mm 1,3 km/h (1 Bft) NW 309 ° 0 min 0,000 mm 0,0 UV-I 12 W/m² 1,0 °C 3,2 km/h (1 Bft)
12.12.2016 15:54 3,2 °C 3,3 °C 85 % 1026,8 hPa 0,0 mm 1,1 km/h (1 Bft) NW 309 ° 0 min 0,000 mm 0,0 UV-I 12 W/m² 0,9 °C 1,6 km/h (1 Bft)
12.12.2016 15:55 3,2 °C 3,2 °C 85 % 1026,8 hPa 0,0 mm 0,6 km/h (0 Bft) NW 309 ° 0 min 0,000 mm 0,0 UV-I 12 W/m² 0,9 °C 1,6 km/h (1 Bft)
12.12.2016 15:56 3,2 °C 3,3 °C 85 % 1026,8 hPa 0,0 mm 0,2 km/h (0 Bft) NW 309 ° 0 min 0,000 mm 0,0 UV-I 12 W/m² 0,9 °C 1,6 km/h (1 Bft)
12.12.2016 15:57 3,2 °C 3,3 °C 85 % 1026,8 hPa 0,0 mm 1,5 km/h (1 Bft) NW 309 ° 0 min 0,000 mm 0,0 UV-I 12 W/m² 0,9 °C 1,6 km/h (1 Bft)
12.12.2016 15:58 3,2 °C 3,2 °C 85 % 1026,8 hPa 0,0 mm 1,2 km/h (1 Bft) NW 309 ° 0 min 0,000 mm 0,0 UV-I 11 W/m² 0,9 °C 1,6 km/h (1 Bft)
12.12.2016 15:59 3,2 °C 3,2 °C 85 % 1026,8 hPa 0,0 mm 1,2 km/h (1 Bft) NW 309 ° 0 min 0,000 mm 0,0 UV-I 11 W/m² 0,9 °C 3,2 km/h (1 Bft)
12.12.2016 16:00 3,2 °C 3,2 °C 85 % 1026,9 hPa 0,0 mm 1,6 km/h (1 Bft) NW 309 ° 0 min 0,000 mm 0,0 UV-I 9 W/m² 0,9 °C 3,2 km/h (1 Bft)
12.12.2016 16:01 3,2 °C 3,2 °C 85 % 1026,9 hPa 0,0 mm 0,7 km/h (0 Bft) NW 309 ° 0 min 0,026 mm 0,0 UV-I 9 W/m² 0,9 °C 1,6 km/h (1 Bft)
12.12.2016 16:02 3,2 °C 3,2 °C 85 % 1026,9 hPa 0,0 mm 0,5 km/h (0 Bft) NW 309 ° 0 min 0,000 mm 0,0 UV-I 9 W/m² 0,9 °C 1,6 km/h (1 Bft)
12.12.2016 16:03 3,2 °C 3,2 °C 85 % 1026,9 hPa 0,0 mm 0,9 km/h (0 Bft) NW 309 ° 0 min 0,000 mm 0,0 UV-I 9 W/m² 0,9 °C 1,6 km/h (1 Bft)
12.12.2016 16:04 3,2 °C 3,2 °C 86 % 1026,9 hPa 0,0 mm 1,8 km/h (1 Bft) NW 309 ° 0 min 0,000 mm 0,0 UV-I 7 W/m² 1,1 °C 3,2 km/h (1 Bft)
12.12.2016 16:05 3,2 °C 3,2 °C 86 % 1026,9 hPa 0,0 mm 1,3 km/h (1 Bft) NW 309 ° 0 min 0,000 mm 0,0 UV-I 7 W/m² 1,1 °C 1,6 km/h (1 Bft)
12.12.2016 16:06 3,2 °C 3,2 °C 86 % 1027,0 hPa 0,0 mm 0,6 km/h (0 Bft) NW 309 ° 0 min 0,000 mm 0,0 UV-I 7 W/m² 1,1 °C 1,6 km/h (1 Bft)
12.12.2016 16:07 3,2 °C 3,2 °C 86 % 1027,0 hPa 0,0 mm 0,1 km/h (0 Bft) NW 309 ° 0 min 0,000 mm 0,0 UV-I 7 W/m² 1,1 °C 1,6 km/h (1 Bft)
12.12.2016 16:08 3,2 °C 3,2 °C 86 % 1027,0 hPa 0,0 mm 0,3 km/h (0 Bft) NW 309 ° 0 min 0,000 mm 0,0 UV-I 7 W/m² 1,1 °C 1,6 km/h (1 Bft)
12.12.2016 16:09 3,2 °C 3,2 °C 86 % 1027,0 hPa 0,0 mm 1,8 km/h (1 Bft) NW 311 ° 0 min 0,000 mm 0,0 UV-I 5 W/m² 1,1 °C 4,8 km/h (1 Bft)
12.12.2016 16:10 3,2 °C 3,2 °C 86 % 1027,0 hPa 0,0 mm 3,9 km/h (1 Bft) N-NW 342 ° 0 min 0,000 mm 0,0 UV-I 5 W/m² 1,1 °C 6,4 km/h (2 Bft)
12.12.2016 16:11 3,2 °C 3,2 °C 86 % 1027,0 hPa 0,0 mm 2,1 km/h (1 Bft) N-NW 342 ° 0 min 0,000 mm 0,0 UV-I 5 W/m² 1,1 °C 3,2 km/h (1 Bft)
12.12.2016 16:12 3,2 °C 3,2 °C 86 % 1027,0 hPa 0,0 mm 3,4 km/h (1 Bft) N 5 ° 0 min 0,000 mm 0,0 UV-I 5 W/m² 1,1 °C 4,8 km/h (1 Bft)
12.12.2016 16:13 3,2 °C 3,2 °C 86 % 1027,0 hPa 0,0 mm 2,2 km/h (1 Bft) N 5 ° 0 min 0,000 mm 0,0 UV-I 0 W/m² 1,1 °C 3,2 km/h (1 Bft)
12.12.2016 16:14 3,2 °C 3,2 °C 86 % 1027,0 hPa 0,0 mm 1,6 km/h (1 Bft) N 5 ° 0 min 0,000 mm 0,0 UV-I 0 W/m² 1,1 °C 3,2 km/h (1 Bft)
12.12.2016 16:15 3,1 °C 3,2 °C 86 % 1027,0 hPa 0,0 mm 0,8 km/h (0 Bft) N 5 ° 0 min 0,000 mm 0,0 UV-I 0 W/m² 1,0 °C 1,6 km/h (1 Bft)
12.12.2016 16:16 3,1 °C 3,2 °C 86 % 1027,0 hPa 0,0 mm 1,9 km/h (1 Bft) N 5 ° 0 min 0,000 mm 0,0 UV-I 0 W/m² 1,0 °C 3,2 km/h (1 Bft)
12.12.2016 16:17 3,2 °C 3,2 °C 86 % 1027,0 hPa 0,0 mm 1,5 km/h (1 Bft) N 5 ° 0 min 0,000 mm 0,0 UV-I 0 W/m² 1,1 °C 3,2 km/h (1 Bft)
12.12.2016 16:18 3,1 °C 3,2 °C 86 % 1027,1 hPa 0,0 mm 1,9 km/h (1 Bft) N 5 ° 0 min 0,000 mm 0,0 UV-I 0 W/m² 1,0 °C 4,8 km/h (1 Bft)
12.12.2016 16:19 3,1 °C 3,2 °C 86 % 1027,1 hPa 0,0 mm 2,5 km/h (1 Bft) N 10 ° 0 min 0,000 mm 0,0 UV-I 0 W/m² 1,0 °C 4,8 km/h (1 Bft)
12.12.2016 16:20 3,1 °C 3,1 °C 86 % 1027,1 hPa 0,0 mm 2,7 km/h (1 Bft) N 9 ° 0 min 0,000 mm 0,0 UV-I 0 W/m² 1,0 °C 4,8 km/h (1 Bft)
12.12.2016 16:21 3,1 °C 3,1 °C 87 % 1027,0 hPa 0,0 mm 1,0 km/h (0 Bft) N 10 ° 0 min 0,000 mm 0,0 UV-I 0 W/m² 1,2 °C 1,6 km/h (1 Bft)
12.12.2016 16:22 3,1 °C 3,1 °C 87 % 1027,1 hPa 0,0 mm 0,6 km/h (0 Bft) N 9 ° 0 min 0,000 mm 0,0 UV-I 0 W/m² 1,2 °C 1,6 km/h (1 Bft)
12.12.2016 16:23 3,1 °C 3,1 °C 87 % 1027,1 hPa 0,0 mm 1,2 km/h (1 Bft) N 9 ° 0 min 0,000 mm 0,0 UV-I 0 W/m² 1,2 °C 1,6 km/h (1 Bft)
12.12.2016 16:24 3,1 °C 3,1 °C 87 % 1027,1 hPa 0,0 mm 0,2 km/h (0 Bft) N 9 ° 0 min 0,000 mm 0,0 UV-I 0 W/m² 1,2 °C 1,6 km/h (1 Bft)
12.12.2016 16:25 3,1 °C 3,1 °C 87 % 1027,1 hPa 0,0 mm 0,0 km/h (0 Bft) N 9 ° 0 min 0,000 mm 0,0 UV-I 0 W/m² 1,2 °C 0,0 km/h (0 Bft)
12.12.2016 16:26 3,1 °C 3,1 °C 87 % 1027,1 hPa 0,0 mm 0,0 km/h (0 Bft) N 9 ° 0 min 0,000 mm 0,0 UV-I 0 W/m² 1,2 °C 0,0 km/h (0 Bft)
12.12.2016 16:27 3,1 °C 3,1 °C 87 % 1027,2 hPa 0,0 mm 0,0 km/h (0 Bft) N 9 ° 0 min 0,000 mm 0,0 UV-I 0 W/m² 1,2 °C 0,0 km/h (0 Bft)
12.12.2016 16:28 3,1 °C 3,1 °C 87 % 1027,2 hPa 0,0 mm 0,7 km/h (0 Bft) N 9 ° 0 min 0,000 mm 0,0 UV-I 0 W/m² 1,2 °C 1,6 km/h (1 Bft)
12.12.2016 16:29 3,1 °C 3,1 °C 87 % 1027,2 hPa 0,0 mm 2,1 km/h (1 Bft) N 9 ° 0 min 0,000 mm 0,0 UV-I 0 W/m² 1,2 °C 3,2 km/h (1 Bft)
12.12.2016 16:30 3,0 °C 3,1 °C 87 % 1027,2 hPa 0,0 mm 1,7 km/h (1 Bft) N 5 ° 0 min 0,000 mm 0,0 UV-I 0 W/m² 1,1 °C 3,2 km/h (1 Bft)
12.12.2016 16:31 3,1 °C 3,1 °C 87 % 1027,2 hPa 0,0 mm 1,0 km/h (0 Bft) N 5 ° 0 min 0,000 mm 0,0 UV-I 0 W/m² 1,2 °C 1,6 km/h (1 Bft)
12.12.2016 16:32 3,0 °C 3,1 °C 87 % 1027,2 hPa 0,0 mm 0,0 km/h (0 Bft) N 5 ° 0 min 0,000 mm 0,0 UV-I 0 W/m² 1,1 °C 0,0 km/h (0 Bft)
12.12.2016 16:33 3,0 °C 3,0 °C 87 % 1027,2 hPa 0,0 mm 0,1 km/h (0 Bft) N 5 ° 0 min 0,000 mm 0,0 UV-I 0 W/m² 1,1 °C 1,6 km/h (1 Bft)
12.12.2016 16:34 2,9 °C 3,0 °C 87 % 1027,2 hPa 0,0 mm 0,0 km/h (0 Bft) N 5 ° 0 min 0,000 mm 0,0 UV-I 0 W/m² 1,0 °C 0,0 km/h (0 Bft)
12.12.2016 16:35 3,0 °C 3,0 °C 87 % 1027,2 hPa 0,0 mm 0,1 km/h (0 Bft) N 5 ° 0 min 0,000 mm 0,0 UV-I 0 W/m² 1,1 °C 1,6 km/h (1 Bft)
12.12.2016 16:36 2,9 °C 3,0 °C 87 % 1027,2 hPa 0,0 mm 1,3 km/h (1 Bft) N 5 ° 0 min 0,000 mm 0,0 UV-I 0 W/m² 1,0 °C 1,6 km/h (1 Bft)
12.12.2016 16:37 2,9 °C 3,0 °C 87 % 1027,3 hPa 0,0 mm 0,5 km/h (0 Bft) N 5 ° 0 min 0,000 mm 0,0 UV-I 0 W/m² 1,0 °C 1,6 km/h (1 Bft)
12.12.2016 16:38 2,9 °C 3,0 °C 87 % 1027,3 hPa 0,0 mm 0,3 km/h (0 Bft) N 5 ° 0 min 0,000 mm 0,0 UV-I 0 W/m² 1,0 °C 1,6 km/h (1 Bft)
12.12.2016 16:39 3,0 °C 3,0 °C 87 % 1027,3 hPa 0,0 mm 0,1 km/h (0 Bft) N 5 ° 0 min 0,000 mm 0,0 UV-I 0 W/m² 1,1 °C 1,6 km/h (1 Bft)
12.12.2016 16:40 2,9 °C 3,0 °C 87 % 1027,3 hPa 0,0 mm 0,7 km/h (0 Bft) N 5 ° 0 min 0,000 mm 0,0 UV-I 0 W/m² 1,0 °C 1,6 km/h (1 Bft)
12.12.2016 16:41 2,9 °C 2,9 °C 87 % 1027,3 hPa 0,0 mm 0,7 km/h (0 Bft) N 5 ° 0 min 0,000 mm 0,0 UV-I 0 W/m² 1,0 °C 1,6 km/h (1 Bft)
12.12.2016 16:42 2,9 °C 2,9 °C 87 % 1027,3 hPa 0,0 mm 0,7 km/h (0 Bft) N 5 ° 0 min 0,000 mm 0,0 UV-I 0 W/m² 1,0 °C 1,6 km/h (1 Bft)
12.12.2016 16:43 2,9 °C 2,9 °C 87 % 1027,3 hPa 0,0 mm 1,5 km/h (1 Bft) N 5 ° 0 min 0,000 mm 0,0 UV-I 0 W/m² 1,0 °C 1,6 km/h (1 Bft)
12.12.2016 16:44 2,9 °C 2,9 °C 87 % 1027,3 hPa 0,0 mm 0,8 km/h (0 Bft) N 5 ° 0 min 0,000 mm 0,0 UV-I 0 W/m² 1,0 °C 1,6 km/h (1 Bft)
12.12.2016 16:45 2,9 °C 2,9 °C 87 % 1027,3 hPa 0,0 mm 1,7 km/h (1 Bft) N 5 ° 0 min 0,000 mm 0,0 UV-I 0 W/m² 1,0 °C 3,2 km/h (1 Bft)
12.12.2016 16:46 2,9 °C 2,9 °C 87 % 1027,4 hPa 0,0 mm 1,5 km/h (1 Bft) N 5 ° 0 min 0,000 mm 0,0 UV-I 0 W/m² 1,0 °C 1,6 km/h (1 Bft)
12.12.2016 16:47 2,9 °C 2,9 °C 87 % 1027,3 hPa 0,0 mm 1,1 km/h (1 Bft) N 5 ° 0 min 0,000 mm 0,0 UV-I 0 W/m² 1,0 °C 1,6 km/h (1 Bft)
12.12.2016 16:48 2,9 °C 2,9 °C 87 % 1027,3 hPa 0,0 mm 1,6 km/h (1 Bft) N 5 ° 0 min 0,000 mm 0,0 UV-I 0 W/m² 1,0 °C 1,6 km/h (1 Bft)
12.12.2016 16:49 2,9 °C 2,9 °C 87 % 1027,4 hPa 0,0 mm 1,9 km/h (1 Bft) N 5 ° 0 min 0,000 mm 0,0 UV-I 0 W/m² 1,0 °C 3,2 km/h (1 Bft)
12.12.2016 16:50 2,9 °C 2,9 °C 87 % 1027,4 hPa 0,0 mm 0,5 km/h (0 Bft) N 5 ° 0 min 0,000 mm 0,0 UV-I 0 W/m² 1,0 °C 1,6 km/h (1 Bft)
12.12.2016 16:51 2,9 °C 2,9 °C 88 % 1027,3 hPa 0,0 mm 0,7 km/h (0 Bft) N 5 ° 0 min 0,000 mm 0,0 UV-I 0 W/m² 1,1 °C 1,6 km/h (1 Bft)
12.12.2016 16:52 2,9 °C 2,9 °C 88 % 1027,4 hPa 0,0 mm 0,1 km/h (0 Bft) N 5 ° 0 min 0,000 mm 0,0 UV-I 0 W/m² 1,1 °C 1,6 km/h (1 Bft)
12.12.2016 16:53 2,9 °C 2,9 °C 88 % 1027,4 hPa 0,0 mm 0,3 km/h (0 Bft) N 5 ° 0 min 0,000 mm 0,0 UV-I 0 W/m² 1,1 °C 1,6 km/h (1 Bft)
12.12.2016 16:54 2,9 °C 2,9 °C 88 % 1027,3 hPa 0,0 mm 0,3 km/h (0 Bft) N 5 ° 0 min 0,000 mm 0,0 UV-I 0 W/m² 1,1 °C 1,6 km/h (1 Bft)
12.12.2016 16:55 2,9 °C 2,9 °C 88 % 1027,3 hPa 0,0 mm 0,1 km/h (0 Bft) N 5 ° 0 min 0,000 mm 0,0 UV-I 0 W/m² 1,1 °C 1,6 km/h (1 Bft)
12.12.2016 16:56 2,9 °C 2,9 °C 88 % 1027,4 hPa 0,0 mm 0,0 km/h (0 Bft) N 5 ° 0 min 0,000 mm 0,0 UV-I 0 W/m² 1,1 °C 0,0 km/h (0 Bft)
12.12.2016 16:57 2,9 °C 2,9 °C 88 % 1027,4 hPa 0,0 mm 0,0 km/h (0 Bft) N 5 ° 0 min 0,000 mm 0,0 UV-I 0 W/m² 1,1 °C 0,0 km/h (0 Bft)
12.12.2016 16:58 2,9 °C 2,9 °C 88 % 1027,4 hPa 0,0 mm 0,1 km/h (0 Bft) N 5 ° 0 min 0,000 mm 0,0 UV-I 0 W/m² 1,1 °C 1,6 km/h (1 Bft)
12.12.2016 16:59 2,9 °C 2,9 °C 88 % 1027,4 hPa 0,0 mm 0,6 km/h (0 Bft) N 5 ° 0 min 0,000 mm 0,0 UV-I 0 W/m² 1,1 °C 1,6 km/h (1 Bft)
12.12.2016 17:00 2,9 °C 2,9 °C 88 % 1027,4 hPa 0,0 mm 0,7 km/h (0 Bft) N 5 ° 0 min 0,000 mm 0,0 UV-I 0 W/m² 1,1 °C 1,6 km/h (1 Bft)
12.12.2016 17:01 2,8 °C 2,9 °C 88 % 1027,4 hPa 0,0 mm 0,6 km/h (0 Bft) N 5 ° 0 min 0,000 mm 0,0 UV-I 0 W/m² 1,0 °C 1,6 km/h (1 Bft)
12.12.2016 17:02 2,8 °C 2,9 °C 88 % 1027,4 hPa 0,0 mm 0,6 km/h (0 Bft) N 5 ° 0 min 0,000 mm 0,0 UV-I 0 W/m² 1,0 °C 1,6 km/h (1 Bft)
12.12.2016 17:03 2,8 °C 2,9 °C 88 % 1027,4 hPa 0,0 mm 1,5 km/h (1 Bft) N 5 ° 0 min 0,000 mm 0,0 UV-I 0 W/m² 1,0 °C 3,2 km/h (1 Bft)
12.12.2016 17:04 2,9 °C 2,9 °C 88 % 1027,4 hPa 0,0 mm 0,9 km/h (0 Bft) N 5 ° 0 min 0,000 mm 0,0 UV-I 0 W/m² 1,1 °C 1,6 km/h (1 Bft)
12.12.2016 17:05 2,8 °C 2,9 °C 88 % 1027,4 hPa 0,0 mm 1,9 km/h (1 Bft) N 5 ° 0 min 0,000 mm 0,0 UV-I 0 W/m² 1,0 °C 3,2 km/h (1 Bft)
12.12.2016 17:06 2,8 °C 2,8 °C 88 % 1027,5 hPa 0,0 mm 1,8 km/h (1 Bft) N 5 ° 0 min 0,000 mm 0,0 UV-I 0 W/m² 1,0 °C 3,2 km/h (1 Bft)
12.12.2016 17:07 2,8 °C 2,8 °C 88 % 1027,4 hPa 0,0 mm 3,7 km/h (1 Bft) O-NO 57 ° 0 min 0,000 mm 0,0 UV-I 0 W/m² 1,0 °C 4,8 km/h (1 Bft)
12.12.2016 17:08 2,8 °C 2,8 °C 88 % 1027,4 hPa 0,0 mm 3,5 km/h (1 Bft) O-NO 57 ° 0 min 0,000 mm 0,0 UV-I 0 W/m² 1,0 °C 4,8 km/h (1 Bft)
12.12.2016 17:09 2,8 °C 2,8 °C 88 % 1027,5 hPa 0,0 mm 4,8 km/h (1 Bft) O-NO 71 ° 0 min 0,000 mm 0,0 UV-I 0 W/m² 1,0 °C 6,4 km/h (2 Bft)
12.12.2016 17:10 2,8 °C 2,8 °C 88 % 1027,4 hPa 0,0 mm 4,4 km/h (1 Bft) O-NO 71 ° 0 min 0,000 mm 0,0 UV-I 0 W/m² 1,0 °C 6,4 km/h (2 Bft)
12.12.2016 17:11 2,8 °C 2,8 °C 88 % 1027,4 hPa 0,0 mm 3,3 km/h (1 Bft) O-NO 71 ° 0 min 0,000 mm 0,0 UV-I 0 W/m² 1,0 °C 4,8 km/h (1 Bft)
12.12.2016 17:12 2,8 °C 2,8 °C 88 % 1027,4 hPa 0,0 mm 3,8 km/h (1 Bft) O-NO 71 ° 0 min 0,000 mm 0,0 UV-I 0 W/m² 1,0 °C 6,4 km/h (2 Bft)
12.12.2016 17:13 2,7 °C 2,8 °C 89 % 1027,4 hPa 0,0 mm 1,9 km/h (1 Bft) O-NO 71 ° 0 min 0,000 mm 0,0 UV-I 0 W/m² 1,1 °C 4,8 km/h (1 Bft)
12.12.2016 17:14 2,7 °C 2,7 °C 88 % 1027,4 hPa 0,0 mm 1,4 km/h (1 Bft) O-NO 71 ° 0 min 0,000 mm 0,0 UV-I 0 W/m² 0,9 °C 3,2 km/h (1 Bft)
12.12.2016 17:15 2,7 °C 2,7 °C 88 % 1027,3 hPa 0,0 mm 1,5 km/h (1 Bft) O-NO 71 ° 0 min 0,000 mm 0,0 UV-I 0 W/m² 0,9 °C 3,2 km/h (1 Bft)
12.12.2016 17:16 2,7 °C 2,7 °C 89 % 1027,4 hPa 0,0 mm 2,7 km/h (1 Bft) O-NO 71 ° 0 min 0,000 mm 0,0 UV-I 0 W/m² 1,1 °C 3,2 km/h (1 Bft)
12.12.2016 17:17 2,7 °C 2,7 °C 89 % 1027,3 hPa 0,0 mm 2,7 km/h (1 Bft) O-NO 71 ° 0 min 0,000 mm 0,0 UV-I 0 W/m² 1,1 °C 4,8 km/h (1 Bft)
12.12.2016 17:18 2,7 °C 2,7 °C 89 % 1027,4 hPa 0,0 mm 2,5 km/h (1 Bft) O-NO 71 ° 0 min 0,000 mm 0,0 UV-I 0 W/m² 1,1 °C 4,8 km/h (1 Bft)
12.12.2016 17:19 2,7 °C 2,7 °C 89 % 1027,4 hPa 0,0 mm 2,8 km/h (1 Bft) O-NO 71 ° 0 min 0,000 mm 0,0 UV-I 0 W/m² 1,1 °C 4,8 km/h (1 Bft)
12.12.2016 17:20 2,7 °C 2,7 °C 89 % 1027,3 hPa 0,0 mm 3,7 km/h (1 Bft) O-NO 71 ° 0 min 0,000 mm 0,0 UV-I 0 W/m² 1,1 °C 4,8 km/h (1 Bft)
12.12.2016 17:21 2,7 °C 2,7 °C 89 % 1027,3 hPa 0,0 mm 3,4 km/h (1 Bft) O-NO 71 ° 0 min 0,000 mm 0,0 UV-I 0 W/m² 1,1 °C 4,8 km/h (1 Bft)
12.12.2016 17:22 2,6 °C 2,7 °C 89 % 1027,3 hPa 0,0 mm 4,6 km/h (1 Bft) O-NO 71 ° 0 min 0,000 mm 0,0 UV-I 0 W/m² 1,0 °C 6,4 km/h (2 Bft)
12.12.2016 17:23 2,7 °C 2,7 °C 89 % 1027,3 hPa 0,0 mm 3,4 km/h (1 Bft) O-NO 71 ° 0 min 0,000 mm 0,0 UV-I 0 W/m² 1,1 °C 4,8 km/h (1 Bft)
12.12.2016 17:24 2,6 °C 2,7 °C 89 % 1027,3 hPa 0,0 mm 3,4 km/h (1 Bft) O-NO 71 ° 0 min 0,000 mm 0,0 UV-I 0 W/m² 1,0 °C 6,4 km/h (2 Bft)
12.12.2016 17:25 2,6 °C 2,7 °C 89 % 1027,3 hPa 0,0 mm 3,1 km/h (1 Bft) O-NO 71 ° 0 min 0,000 mm 0,0 UV-I 0 W/m² 1,0 °C 4,8 km/h (1 Bft)
12.12.2016 17:26 2,6 °C 2,6 °C 89 % 1027,3 hPa 0,0 mm 3,5 km/h (1 Bft) O-NO 63 ° 0 min 0,000 mm 0,0 UV-I 0 W/m² 1,0 °C 6,4 km/h (2 Bft)
12.12.2016 17:27 2,6 °C 2,6 °C 89 % 1027,3 hPa 0,0 mm 2,5 km/h (1 Bft) O-NO 68 ° 0 min 0,000 mm 0,0 UV-I 0 W/m² 1,0 °C 4,8 km/h (1 Bft)
12.12.2016 17:28 2,6 °C 2,6 °C 89 % 1027,2 hPa 0,0 mm 1,4 km/h (1 Bft) O-NO 68 ° 0 min 0,000 mm 0,0 UV-I 0 W/m² 1,0 °C 3,2 km/h (1 Bft)
12.12.2016 17:29 2,6 °C 2,6 °C 89 % 1027,3 hPa 0,0 mm 0,9 km/h (0 Bft) O-NO 68 ° 0 min 0,000 mm 0,0 UV-I 0 W/m² 1,0 °C 1,6 km/h (1 Bft)
12.12.2016 17:30 2,6 °C 2,6 °C 89 % 1027,3 hPa 0,0 mm 0,5 km/h (0 Bft) O-NO 68 ° 0 min 0,000 mm 0,0 UV-I 0 W/m² 1,0 °C 1,6 km/h (1 Bft)
12.12.2016 17:31 2,6 °C 2,6 °C 89 % 1027,3 hPa 0,0 mm 0,0 km/h (0 Bft) O-NO 68 ° 0 min 0,000 mm 0,0 UV-I 0 W/m² 1,0 °C 0,0 km/h (0 Bft)
12.12.2016 17:32 2,6 °C 2,6 °C 89 % 1027,3 hPa 0,0 mm 0,0 km/h (0 Bft) O-NO 68 ° 0 min 0,000 mm 0,0 UV-I 0 W/m² 1,0 °C 0,0 km/h (0 Bft)
12.12.2016 17:33 2,5 °C 2,6 °C 89 % 1027,3 hPa 0,0 mm 0,3 km/h (0 Bft) O-NO 68 ° 0 min 0,000 mm 0,0 UV-I 0 W/m² 0,9 °C 1,6 km/h (1 Bft)
12.12.2016 17:34 2,5 °C 2,6 °C 89 % 1027,3 hPa 0,0 mm 1,3 km/h (1 Bft) O-NO 68 ° 0 min 0,000 mm 0,0 UV-I 0 W/m² 0,9 °C 3,2 km/h (1 Bft)
12.12.2016 17:35 2,4 °C 2,5 °C 89 % 1027,4 hPa 0,0 mm 1,5 km/h (1 Bft) O-NO 68 ° 0 min 0,000 mm 0,0 UV-I 0 W/m² 0,8 °C 3,2 km/h (1 Bft)
12.12.2016 17:36 2,4 °C 2,4 °C 90 % 1027,3 hPa 0,0 mm 0,2 km/h (0 Bft) O-NO 68 ° 0 min 0,000 mm 0,0 UV-I 0 W/m² 0,9 °C 1,6 km/h (1 Bft)
12.12.2016 17:37 2,4 °C 2,4 °C 90 % 1027,4 hPa 0,0 mm 0,3 km/h (0 Bft) O-NO 68 ° 0 min 0,000 mm 0,0 UV-I 0 W/m² 0,9 °C 1,6 km/h (1 Bft)
12.12.2016 17:38 2,4 °C 2,4 °C 90 % 1027,4 hPa 0,0 mm 2,9 km/h (1 Bft) O-NO 73 ° 0 min 0,000 mm 0,0 UV-I 0 W/m² 0,9 °C 4,8 km/h (1 Bft)
12.12.2016 17:39 2,4 °C 2,4 °C 90 % 1027,3 hPa 0,0 mm 1,0 km/h (0 Bft) O-NO 73 ° 0 min 0,000 mm 0,0 UV-I 0 W/m² 0,9 °C 1,6 km/h (1 Bft)
12.12.2016 17:40 2,4 °C 2,4 °C 90 % 1027,3 hPa 0,0 mm 2,3 km/h (1 Bft) O-NO 73 ° 0 min 0,000 mm 0,0 UV-I 0 W/m² 0,9 °C 4,8 km/h (1 Bft)
12.12.2016 17:41 2,4 °C 2,4 °C 90 % 1027,3 hPa 0,0 mm 2,6 km/h (1 Bft) O-NO 73 ° 0 min 0,000 mm 0,0 UV-I 0 W/m² 0,9 °C 4,8 km/h (1 Bft)
12.12.2016 17:42 2,3 °C 2,4 °C 90 % 1027,3 hPa 0,0 mm 1,9 km/h (1 Bft) O-NO 73 ° 0 min 0,000 mm 0,0 UV-I 0 W/m² 0,8 °C 3,2 km/h (1 Bft)
12.12.2016 17:43 2,3 °C 2,4 °C 90 % 1027,3 hPa 0,0 mm 1,8 km/h (1 Bft) O-NO 73 ° 0 min 0,000 mm 0,0 UV-I 0 W/m² 0,8 °C 3,2 km/h (1 Bft)
12.12.2016 17:44 2,3 °C 2,3 °C 90 % 1027,3 hPa 0,0 mm 4,1 km/h (1 Bft) O-NO 77 ° 0 min 0,000 mm 0,0 UV-I 0 W/m² 0,8 °C 6,4 km/h (2 Bft)
12.12.2016 17:45 2,3 °C 2,4 °C 90 % 1027,3 hPa 0,0 mm 3,7 km/h (1 Bft) O-NO 77 ° 0 min 0,000 mm 0,0 UV-I 0 W/m² 0,8 °C 4,8 km/h (1 Bft)
12.12.2016 17:46 2,3 °C 2,3 °C 90 % 1027,2 hPa 0,0 mm 3,0 km/h (1 Bft) O-NO 74 ° 0 min 0,000 mm 0,0 UV-I 0 W/m² 0,8 °C 4,8 km/h (1 Bft)
12.12.2016 17:47 2,3 °C 2,3 °C 90 % 1027,2 hPa 0,0 mm 2,5 km/h (1 Bft) O-NO 74 ° 0 min 0,000 mm 0,0 UV-I 0 W/m² 0,8 °C 4,8 km/h (1 Bft)
12.12.2016 17:48 2,3 °C 2,3 °C 90 % 1027,2 hPa 0,0 mm 4,2 km/h (1 Bft) O-NO 62 ° 0 min 0,000 mm 0,0 UV-I 0 W/m² 0,8 °C 4,8 km/h (1 Bft)
12.12.2016 17:49 2,3 °C 2,3 °C 90 % 1027,2 hPa 0,0 mm 3,0 km/h (1 Bft) O-NO 77 ° 0 min 0,000 mm 0,0 UV-I 0 W/m² 0,8 °C 4,8 km/h (1 Bft)
12.12.2016 17:50 2,3 °C 2,3 °C 90 % 1027,2 hPa 0,0 mm 3,1 km/h (1 Bft) O-NO 77 ° 0 min 0,000 mm 0,0 UV-I 0 W/m² 0,8 °C 4,8 km/h (1 Bft)
12.12.2016 17:51 2,3 °C 2,3 °C 90 % 1027,2 hPa 0,0 mm 2,0 km/h (1 Bft) O-NO 77 ° 0 min 0,000 mm 0,0 UV-I 0 W/m² 0,8 °C 3,2 km/h (1 Bft)
12.12.2016 17:52 2,3 °C 2,3 °C 90 % 1027,2 hPa 0,0 mm 1,2 km/h (1 Bft) O-NO 77 ° 0 min 0,000 mm 0,0 UV-I 0 W/m² 0,8 °C 1,6 km/h (1 Bft)
12.12.2016 17:53 2,3 °C 2,3 °C 90 % 1027,2 hPa 0,0 mm 1,3 km/h (1 Bft) O-NO 77 ° 0 min 0,000 mm 0,0 UV-I 0 W/m² 0,8 °C 1,6 km/h (1 Bft)
12.12.2016 17:54 2,2 °C 2,3 °C 90 % 1027,2 hPa 0,0 mm 1,3 km/h (1 Bft) O-NO 77 ° 0 min 0,000 mm 0,0 UV-I 0 W/m² 0,7 °C 1,6 km/h (1 Bft)
12.12.2016 17:55 2,2 °C 2,2 °C 90 % 1027,2 hPa 0,0 mm 0,5 km/h (0 Bft) O-NO 77 ° 0 min 0,000 mm 0,0 UV-I 0 W/m² 0,7 °C 1,6 km/h (1 Bft)
12.12.2016 17:56 2,2 °C 2,2 °C 90 % 1027,2 hPa 0,0 mm 0,0 km/h (0 Bft) O-NO 77 ° 0 min 0,000 mm 0,0 UV-I 0 W/m² 0,7 °C 0,0 km/h (0 Bft)
12.12.2016 17:57 2,2 °C 2,2 °C 90 % 1027,3 hPa 0,0 mm 0,0 km/h (0 Bft) O-NO 77 ° 0 min 0,000 mm 0,0 UV-I 0 W/m² 0,7 °C 0,0 km/h (0 Bft)
12.12.2016 17:58 2,2 °C 2,2 °C 90 % 1027,2 hPa 0,0 mm 0,0 km/h (0 Bft) O-NO 77 ° 0 min 0,000 mm 0,0 UV-I 0 W/m² 0,7 °C 0,0 km/h (0 Bft)
12.12.2016 17:59 2,2 °C 2,2 °C 90 % 1027,3 hPa 0,0 mm 0,0 km/h (0 Bft) O-NO 77 ° 0 min 0,000 mm 0,0 UV-I 0 W/m² 0,7 °C 0,0 km/h (0 Bft)
12.12.2016 18:00 2,2 °C 2,2 °C 90 % 1027,3 hPa 0,0 mm 1,5 km/h (1 Bft) O-NO 77 ° 0 min 0,000 mm 0,0 UV-I 0 W/m² 0,7 °C 3,2 km/h (1 Bft)
12.12.2016 18:01 2,2 °C 2,2 °C 90 % 1027,3 hPa 0,0 mm 0,5 km/h (0 Bft) O-NO 78 ° 0 min 0,000 mm 0,0 UV-I 0 W/m² 0,7 °C 4,8 km/h (1 Bft)
12.12.2016 18:02 2,2 °C 2,2 °C 90 % 1027,3 hPa 0,0 mm 3,6 km/h (1 Bft) O-NO 78 ° 0 min 0,000 mm 0,0 UV-I 0 W/m² 0,7 °C 4,8 km/h (1 Bft)
12.12.2016 18:03 2,2 °C 2,2 °C 90 % 1027,4 hPa 0,0 mm 1,8 km/h (1 Bft) O-NO 78 ° 0 min 0,000 mm 0,0 UV-I 0 W/m² 0,7 °C 3,2 km/h (1 Bft)
12.12.2016 18:04 2,1 °C 2,2 °C 90 % 1027,4 hPa 0,0 mm 3,2 km/h (1 Bft) O-NO 78 ° 0 min 0,000 mm 0,0 UV-I 0 W/m² 0,6 °C 4,8 km/h (1 Bft)
12.12.2016 18:05 2,1 °C 2,2 °C 91 % 1027,3 hPa 0,0 mm 2,9 km/h (1 Bft) O-NO 78 ° 0 min 0,000 mm 0,0 UV-I 0 W/m² 0,8 °C 3,2 km/h (1 Bft)
12.12.2016 18:06 2,1 °C 2,1 °C 91 % 1027,4 hPa 0,0 mm 3,1 km/h (1 Bft) O-NO 64 ° 0 min 0,000 mm 0,0 UV-I 0 W/m² 0,8 °C 4,8 km/h (1 Bft)
12.12.2016 18:07 2,1 °C 2,1 °C 91 % 1027,4 hPa 0,0 mm 1,7 km/h (1 Bft) O-NO 64 ° 0 min 0,000 mm 0,0 UV-I 0 W/m² 0,8 °C 3,2 km/h (1 Bft)
12.12.2016 18:08 2,1 °C 2,1 °C 91 % 1027,4 hPa 0,0 mm 3,4 km/h (1 Bft) O-NO 72 ° 0 min 0,000 mm 0,0 UV-I 0 W/m² 0,8 °C 4,8 km/h (1 Bft)
12.12.2016 18:09 2,1 °C 2,1 °C 91 % 1027,4 hPa 0,0 mm 3,2 km/h (1 Bft) O 82 ° 0 min 0,000 mm 0,0 UV-I 0 W/m² 0,8 °C 4,8 km/h (1 Bft)
12.12.2016 18:10 2,1 °C 2,1 °C 91 % 1027,4 hPa 0,0 mm 3,6 km/h (1 Bft) O-NO 61 ° 0 min 0,000 mm 0,0 UV-I 0 W/m² 0,8 °C 4,8 km/h (1 Bft)
12.12.2016 18:11 2,1 °C 2,1 °C 91 % 1027,4 hPa 0,0 mm 3,2 km/h (1 Bft) O-NO 61 ° 0 min 0,000 mm 0,0 UV-I 0 W/m² 0,8 °C 4,8 km/h (1 Bft)
12.12.2016 18:12 2,1 °C 2,1 °C 91 % 1027,5 hPa 0,0 mm 4,6 km/h (1 Bft) O-NO 61 ° 0 min 0,000 mm 0,0 UV-I 0 W/m² 0,8 °C 6,4 km/h (2 Bft)
12.12.2016 18:13 2,1 °C 2,1 °C 91 % 1027,4 hPa 0,0 mm 3,8 km/h (1 Bft) O-NO 61 ° 0 min 0,000 mm 0,0 UV-I 0 W/m² 0,8 °C 6,4 km/h (2 Bft)
12.12.2016 18:14 2,1 °C 2,1 °C 92 % 1027,4 hPa 0,0 mm 3,0 km/h (1 Bft) NO 50 ° 0 min 0,000 mm 0,0 UV-I 0 W/m² 0,9 °C 6,4 km/h (2 Bft)
12.12.2016 18:15 2,1 °C 2,1 °C 92 % 1027,5 hPa 0,0 mm 4,0 km/h (1 Bft) O-NO 65 ° 0 min 0,000 mm 0,0 UV-I 0 W/m² 0,9 °C 6,4 km/h (2 Bft)
12.12.2016 18:16 2,1 °C 2,1 °C 92 % 1027,4 hPa 0,0 mm 4,7 km/h (1 Bft) O-NO 65 ° 0 min 0,000 mm 0,0 UV-I 0 W/m² 0,9 °C 8,0 km/h (2 Bft)
12.12.2016 18:17 2,1 °C 2,1 °C 92 % 1027,4 hPa 0,0 mm 5,4 km/h (1 Bft) O-NO 63 ° 0 min 0,000 mm 0,0 UV-I 0 W/m² 0,9 °C 6,4 km/h (2 Bft)
12.12.2016 18:18 2,1 °C 2,1 °C 92 % 1027,4 hPa 0,0 mm 4,2 km/h (1 Bft) O-NO 63 ° 0 min 0,000 mm 0,0 UV-I 0 W/m² 0,9 °C 4,8 km/h (1 Bft)
12.12.2016 18:19 2,1 °C 2,1 °C 92 % 1027,4 hPa 0,0 mm 2,3 km/h (1 Bft) O-NO 63 ° 0 min 0,000 mm 0,0 UV-I 0 W/m² 0,9 °C 4,8 km/h (1 Bft)
12.12.2016 18:20 2,0 °C 2,1 °C 92 % 1027,4 hPa 0,0 mm 2,9 km/h (1 Bft) O-NO 63 ° 0 min 0,000 mm 0,0 UV-I 0 W/m² 0,8 °C 4,8 km/h (1 Bft)
12.12.2016 18:21 2,0 °C 2,1 °C 92 % 1027,4 hPa 0,0 mm 0,7 km/h (0 Bft) O-NO 63 ° 0 min 0,000 mm 0,0 UV-I 0 W/m² 0,8 °C 1,6 km/h (1 Bft)
12.12.2016 18:22 2,0 °C 2,1 °C 92 % 1027,4 hPa 0,0 mm 1,7 km/h (1 Bft) O-NO 63 ° 0 min 0,000 mm 0,0 UV-I 0 W/m² 0,8 °C 3,2 km/h (1 Bft)
12.12.2016 18:23 2,0 °C 2,1 °C 92 % 1027,4 hPa 0,0 mm 3,2 km/h (1 Bft) O-SO 112 ° 0 min 0,000 mm 0,0 UV-I 0 W/m² 0,8 °C 6,4 km/h (2 Bft)
12.12.2016 18:24 2,0 °C 2,0 °C 92 % 1027,5 hPa 0,0 mm 1,8 km/h (1 Bft) O 83 ° 0 min 0,000 mm 0,0 UV-I 0 W/m² 0,8 °C 3,2 km/h (1 Bft)
12.12.2016 18:25 2,0 °C 2,0 °C 92 % 1027,4 hPa 0,0 mm 2,1 km/h (1 Bft) O 83 ° 0 min 0,000 mm 0,0 UV-I 0 W/m² 0,8 °C 4,8 km/h (1 Bft)
12.12.2016 18:26 2,0 °C 2,0 °C 92 % 1027,4 hPa 0,0 mm 0,9 km/h (0 Bft) O 83 ° 0 min 0,000 mm 0,0 UV-I 0 W/m² 0,8 °C 1,6 km/h (1 Bft)
12.12.2016 18:27 2,0 °C 2,0 °C 92 % 1027,5 hPa 0,0 mm 1,8 km/h (1 Bft) O 83 ° 0 min 0,000 mm 0,0 UV-I 0 W/m² 0,8 °C 3,2 km/h (1 Bft)
12.12.2016 18:28 2,0 °C 2,0 °C 92 % 1027,5 hPa 0,0 mm 0,2 km/h (0 Bft) O 83 ° 0 min 0,000 mm 0,0 UV-I 0 W/m² 0,8 °C 1,6 km/h (1 Bft)
12.12.2016 18:29 2,0 °C 2,0 °C 92 % 1027,5 hPa 0,0 mm 2,7 km/h (1 Bft) O-NO 61 ° 0 min 0,000 mm 0,0 UV-I 0 W/m² 0,8 °C 4,8 km/h (1 Bft)
12.12.2016 18:30 2,0 °C 2,0 °C 92 % 1027,5 hPa 0,0 mm 3,3 km/h (1 Bft) O-NO 62 ° 0 min 0,000 mm 0,0 UV-I 0 W/m² 0,8 °C 6,4 km/h (2 Bft)
12.12.2016 18:31 2,0 °C 2,0 °C 92 % 1027,5 hPa 0,0 mm 3,4 km/h (1 Bft) O-NO 61 ° 0 min 0,000 mm 0,0 UV-I 0 W/m² 0,8 °C 4,8 km/h (1 Bft)
12.12.2016 18:32 1,9 °C 2,0 °C 92 % 1027,5 hPa 0,0 mm 2,2 km/h (1 Bft) O-NO 62 ° 0 min 0,000 mm 0,0 UV-I 0 W/m² 0,7 °C 4,8 km/h (1 Bft)
12.12.2016 18:33 1,9 °C 2,0 °C 92 % 1027,6 hPa 0,0 mm 4,2 km/h (1 Bft) O-NO 64 ° 0 min 0,000 mm 0,0 UV-I 0 W/m² 0,7 °C 6,4 km/h (2 Bft)
12.12.2016 18:34 2,0 °C 2,0 °C 92 % 1027,6 hPa 0,0 mm 1,9 km/h (1 Bft) O-NO 74 ° 0 min 0,000 mm 0,0 UV-I 0 W/m² 0,8 °C 3,2 km/h (1 Bft)
12.12.2016 18:35 2,0 °C 2,0 °C 92 % 1027,6 hPa 0,0 mm 3,2 km/h (1 Bft) O-NO 63 ° 0 min 0,000 mm 0,0 UV-I 0 W/m² 0,8 °C 6,4 km/h (2 Bft)
12.12.2016 18:36 1,9 °C 2,0 °C 92 % 1027,6 hPa 0,0 mm 3,0 km/h (1 Bft) O-NO 63 ° 0 min 0,000 mm 0,0 UV-I 0 W/m² 0,7 °C 3,2 km/h (1 Bft)
12.12.2016 18:37 1,9 °C 2,0 °C 92 % 1027,5 hPa 0,0 mm 2,6 km/h (1 Bft) O-NO 62 ° 0 min 0,000 mm 0,0 UV-I 0 W/m² 0,7 °C 4,8 km/h (1 Bft)
12.12.2016 18:38 1,9 °C 2,0 °C 92 % 1027,6 hPa 0,0 mm 3,0 km/h (1 Bft) O-NO 62 ° 0 min 0,000 mm 0,0 UV-I 0 W/m² 0,7 °C 4,8 km/h (1 Bft)
12.12.2016 18:39 1,9 °C 1,9 °C 93 % 1027,6 hPa 0,0 mm 2,0 km/h (1 Bft) O-NO 62 ° 0 min 0,000 mm 0,0 UV-I 0 W/m² 0,9 °C 3,2 km/h (1 Bft)
12.12.2016 18:40 1,9 °C 2,0 °C 93 % 1027,6 hPa 0,0 mm 1,3 km/h (1 Bft) O-NO 62 ° 0 min 0,000 mm 0,0 UV-I 0 W/m² 0,9 °C 3,2 km/h (1 Bft)
12.12.2016 18:41 1,9 °C 2,0 °C 93 % 1027,6 hPa 0,0 mm 2,3 km/h (1 Bft) O-NO 62 ° 0 min 0,000 mm 0,0 UV-I 0 W/m² 0,9 °C 3,2 km/h (1 Bft)
12.12.2016 18:42 1,9 °C 2,0 °C 93 % 1027,6 hPa 0,0 mm 1,3 km/h (1 Bft) O-NO 62 ° 0 min 0,000 mm 0,0 UV-I 0 W/m² 0,9 °C 3,2 km/h (1 Bft)
12.12.2016 18:43 2,0 °C 2,0 °C 93 % 1027,6 hPa 0,0 mm 1,1 km/h (1 Bft) O-NO 62 ° 0 min 0,000 mm 0,0 UV-I 0 W/m² 1,0 °C 3,2 km/h (1 Bft)
12.12.2016 18:44 1,9 °C 2,0 °C 93 % 1027,6 hPa 0,0 mm 0,7 km/h (0 Bft) O-NO 62 ° 0 min 0,000 mm 0,0 UV-I 0 W/m² 0,9 °C 1,6 km/h (1 Bft)
12.12.2016 18:45 1,9 °C 1,9 °C 93 % 1027,6 hPa 0,0 mm 0,1 km/h (0 Bft) O-NO 62 ° 0 min 0,000 mm 0,0 UV-I 0 W/m² 0,9 °C 1,6 km/h (1 Bft)
12.12.2016 18:46 1,9 °C 2,0 °C 93 % 1027,6 hPa 0,0 mm 0,0 km/h (0 Bft) O-NO 62 ° 0 min 0,000 mm 0,0 UV-I 0 W/m² 0,9 °C 0,0 km/h (0 Bft)
12.12.2016 18:47 1,9 °C 1,9 °C 93 % 1027,6 hPa 0,0 mm 0,0 km/h (0 Bft) O-NO 62 ° 0 min 0,000 mm 0,0 UV-I 0 W/m² 0,9 °C 0,0 km/h (0 Bft)
12.12.2016 18:48 1,9 °C 1,9 °C 93 % 1027,6 hPa 0,0 mm 0,7 km/h (0 Bft) O-NO 62 ° 0 min 0,000 mm 0,0 UV-I 0 W/m² 0,9 °C 1,6 km/h (1 Bft)
12.12.2016 18:49 1,9 °C 1,9 °C 93 % 1027,6 hPa 0,0 mm 1,8 km/h (1 Bft) O-NO 62 ° 0 min 0,000 mm 0,0 UV-I 0 W/m² 0,9 °C 3,2 km/h (1 Bft)
12.12.2016 18:50 1,9 °C 1,9 °C 93 % 1027,7 hPa 0,0 mm 2,2 km/h (1 Bft) O-NO 62 ° 0 min 0,000 mm 0,0 UV-I 0 W/m² 0,9 °C 3,2 km/h (1 Bft)
12.12.2016 18:51 1,9 °C 1,9 °C 93 % 1027,7 hPa 0,0 mm 2,9 km/h (1 Bft) O-NO 62 ° 0 min 0,000 mm 0,0 UV-I 0 W/m² 0,9 °C 4,8 km/h (1 Bft)
12.12.2016 18:52 1,9 °C 1,9 °C 93 % 1027,6 hPa 0,0 mm 2,2 km/h (1 Bft) O-NO 62 ° 0 min 0,000 mm 0,0 UV-I 0 W/m² 0,9 °C 3,2 km/h (1 Bft)
12.12.2016 18:53 1,9 °C 1,9 °C 93 % 1027,7 hPa 0,0 mm 1,3 km/h (1 Bft) O-NO 62 ° 0 min 0,000 mm 0,0 UV-I 0 W/m² 0,9 °C 3,2 km/h (1 Bft)
12.12.2016 18:54 1,9 °C 1,9 °C 93 % 1027,6 hPa 0,0 mm 0,5 km/h (0 Bft) O-NO 62 ° 0 min 0,000 mm 0,0 UV-I 0 W/m² 0,9 °C 1,6 km/h (1 Bft)
12.12.2016 18:55 1,9 °C 1,9 °C 93 % 1027,6 hPa 0,0 mm 1,2 km/h (1 Bft) O-NO 62 ° 0 min 0,000 mm 0,0 UV-I 0 W/m² 0,9 °C 3,2 km/h (1 Bft)
12.12.2016 18:56 1,9 °C 1,9 °C 93 % 1027,6 hPa 0,0 mm 0,1 km/h (0 Bft) O-NO 62 ° 0 min 0,000 mm 0,0 UV-I 0 W/m² 0,9 °C 1,6 km/h (1 Bft)
12.12.2016 18:57 1,9 °C 1,9 °C 93 % 1027,6 hPa 0,0 mm 0,0 km/h (0 Bft) O-NO 62 ° 0 min 0,000 mm 0,0 UV-I 0 W/m² 0,9 °C 0,0 km/h (0 Bft)
12.12.2016 18:58 1,9 °C 1,9 °C 93 % 1027,6 hPa 0,0 mm 0,0 km/h (0 Bft) O-NO 62 ° 0 min 0,000 mm 0,0 UV-I 0 W/m² 0,9 °C 0,0 km/h (0 Bft)
12.12.2016 18:59 1,9 °C 1,9 °C 93 % 1027,6 hPa 0,0 mm 0,0 km/h (0 Bft) O-NO 62 ° 0 min 0,000 mm 0,0 UV-I 0 W/m² 0,9 °C 0,0 km/h (0 Bft)
12.12.2016 19:00 1,9 °C 1,9 °C 93 % 1027,6 hPa 0,0 mm 0,2 km/h (0 Bft) O-NO 62 ° 0 min 0,000 mm 0,0 UV-I 0 W/m² 0,9 °C 1,6 km/h (1 Bft)
12.12.2016 19:01 1,9 °C 1,9 °C 93 % 1027,6 hPa 0,0 mm 0,0 km/h (0 Bft) O-NO 62 ° 0 min 0,000 mm 0,0 UV-I 0 W/m² 0,9 °C 0,0 km/h (0 Bft)
12.12.2016 19:02 1,9 °C 1,9 °C 93 % 1027,6 hPa 0,0 mm 1,3 km/h (1 Bft) O-NO 62 ° 0 min 0,000 mm 0,0 UV-I 0 W/m² 0,9 °C 3,2 km/h (1 Bft)
12.12.2016 19:03 1,9 °C 1,9 °C 93 % 1027,6 hPa 0,0 mm 1,8 km/h (1 Bft) O-NO 62 ° 0 min 0,000 mm 0,0 UV-I 0 W/m² 0,9 °C 3,2 km/h (1 Bft)
12.12.2016 19:04 1,9 °C 1,9 °C 93 % 1027,6 hPa 0,0 mm 2,4 km/h (1 Bft) O-NO 62 ° 0 min 0,000 mm 0,0 UV-I 0 W/m² 0,9 °C 3,2 km/h (1 Bft)
12.12.2016 19:05 1,9 °C 1,9 °C 93 % 1027,7 hPa 0,0 mm 3,2 km/h (1 Bft) O-NO 62 ° 0 min 0,000 mm 0,0 UV-I 0 W/m² 0,9 °C 3,2 km/h (1 Bft)
12.12.2016 19:06 1,9 °C 1,9 °C 93 % 1027,7 hPa 0,0 mm 2,7 km/h (1 Bft) O-NO 62 ° 0 min 0,000 mm 0,0 UV-I 0 W/m² 0,9 °C 3,2 km/h (1 Bft)
12.12.2016 19:07 1,9 °C 1,9 °C 92 % 1027,7 hPa 0,0 mm 2,4 km/h (1 Bft) O-NO 62 ° 0 min 0,000 mm 0,0 UV-I 0 W/m² 0,7 °C 3,2 km/h (1 Bft)
12.12.2016 19:08 1,9 °C 1,9 °C 92 % 1027,7 hPa 0,0 mm 2,5 km/h (1 Bft) O-NO 62 ° 0 min 0,000 mm 0,0 UV-I 0 W/m² 0,7 °C 3,2 km/h (1 Bft)
12.12.2016 19:09 1,9 °C 1,9 °C 92 % 1027,7 hPa 0,0 mm 2,5 km/h (1 Bft) O-NO 62 ° 0 min 0,000 mm 0,0 UV-I 0 W/m² 0,7 °C 3,2 km/h (1 Bft)
12.12.2016 19:10 1,9 °C 1,9 °C 92 % 1027,6 hPa 0,0 mm 2,1 km/h (1 Bft) O-NO 62 ° 0 min 0,000 mm 0,0 UV-I 0 W/m² 0,7 °C 3,2 km/h (1 Bft)
12.12.2016 19:11 1,8 °C 1,9 °C 92 % 1027,6 hPa 0,0 mm 3,1 km/h (1 Bft) O-NO 62 ° 0 min 0,000 mm 0,0 UV-I 0 W/m² 0,6 °C 4,8 km/h (1 Bft)
12.12.2016 19:12 1,8 °C 1,8 °C 92 % 1027,6 hPa 0,0 mm 3,2 km/h (1 Bft) O-NO 62 ° 0 min 0,000 mm 0,0 UV-I 0 W/m² 0,6 °C 4,8 km/h (1 Bft)
12.12.2016 19:13 1,8 °C 1,8 °C 92 % 1027,6 hPa 0,0 mm 3,9 km/h (1 Bft) O-NO 62 ° 0 min 0,000 mm 0,0 UV-I 0 W/m² 0,6 °C 4,8 km/h (1 Bft)
12.12.2016 19:14 1,8 °C 1,8 °C 92 % 1027,6 hPa 0,0 mm 3,6 km/h (1 Bft) W 277 ° 0 min 0,000 mm 0,0 UV-I 0 W/m² 0,6 °C 4,8 km/h (1 Bft)
12.12.2016 19:15 1,8 °C 1,8 °C 92 % 1027,7 hPa 0,0 mm 2,6 km/h (1 Bft) W 277 ° 0 min 0,000 mm 0,0 UV-I 0 W/m² 0,6 °C 4,8 km/h (1 Bft)
12.12.2016 19:16 1,8 °C 1,8 °C 92 % 1027,6 hPa 0,0 mm 1,0 km/h (0 Bft) W 277 ° 0 min 0,000 mm 0,0 UV-I 0 W/m² 0,6 °C 1,6 km/h (1 Bft)
12.12.2016 19:17 1,8 °C 1,8 °C 92 % 1027,6 hPa 0,0 mm 0,0 km/h (0 Bft) W 277 ° 0 min 0,000 mm 0,0 UV-I 0 W/m² 0,6 °C 0,0 km/h (0 Bft)
12.12.2016 19:18 1,8 °C 1,8 °C 92 % 1027,6 hPa 0,0 mm 0,3 km/h (0 Bft) W 277 ° 0 min 0,000 mm 0,0 UV-I 0 W/m² 0,6 °C 1,6 km/h (1 Bft)
12.12.2016 19:19 1,8 °C 1,8 °C 92 % 1027,6 hPa 0,0 mm 0,9 km/h (0 Bft) W 277 ° 0 min 0,000 mm 0,0 UV-I 0 W/m² 0,6 °C 1,6 km/h (1 Bft)
12.12.2016 19:20 1,8 °C 1,8 °C 92 % 1027,6 hPa 0,0 mm 1,3 km/h (1 Bft) W 277 ° 0 min 0,000 mm 0,0 UV-I 0 W/m² 0,6 °C 1,6 km/h (1 Bft)
12.12.2016 19:21 1,8 °C 1,8 °C 92 % 1027,6 hPa 0,0 mm 1,1 km/h (1 Bft) W 277 ° 0 min 0,000 mm 0,0 UV-I 0 W/m² 0,6 °C 1,6 km/h (1 Bft)
12.12.2016 19:22 1,7 °C 1,8 °C 92 % 1027,6 hPa 0,0 mm 0,4 km/h (0 Bft) W 277 ° 0 min 0,000 mm 0,0 UV-I 0 W/m² 0,5 °C 1,6 km/h (1 Bft)
12.12.2016 19:23 1,8 °C 1,8 °C 93 % 1027,5 hPa 0,0 mm 0,4 km/h (0 Bft) W 277 ° 0 min 0,000 mm 0,0 UV-I 0 W/m² 0,8 °C 1,6 km/h (1 Bft)
12.12.2016 19:24 1,8 °C 1,8 °C 93 % 1027,6 hPa 0,0 mm 0,2 km/h (0 Bft) W 277 ° 0 min 0,000 mm 0,0 UV-I 0 W/m² 0,8 °C 1,6 km/h (1 Bft)
12.12.2016 19:25 1,7 °C 1,8 °C 93 % 1027,6 hPa 0,0 mm 0,2 km/h (0 Bft) W 277 ° 0 min 0,000 mm 0,0 UV-I 0 W/m² 0,7 °C 1,6 km/h (1 Bft)
12.12.2016 19:26 1,7 °C 1,8 °C 93 % 1027,6 hPa 0,0 mm 0,4 km/h (0 Bft) W 277 ° 0 min 0,000 mm 0,0 UV-I 0 W/m² 0,7 °C 1,6 km/h (1 Bft)
12.12.2016 19:27 1,7 °C 1,8 °C 93 % 1027,6 hPa 0,0 mm 0,1 km/h (0 Bft) W 277 ° 0 min 0,000 mm 0,0 UV-I 0 W/m² 0,7 °C 1,6 km/h (1 Bft)
12.12.2016 19:28 1,7 °C 1,7 °C 93 % 1027,6 hPa 0,0 mm 1,7 km/h (1 Bft) W 277 ° 0 min 0,000 mm 0,0 UV-I 0 W/m² 0,7 °C 3,2 km/h (1 Bft)
12.12.2016 19:29 1,7 °C 1,7 °C 93 % 1027,6 hPa 0,0 mm 1,8 km/h (1 Bft) W 277 ° 0 min 0,000 mm 0,0 UV-I 0 W/m² 0,7 °C 3,2 km/h (1 Bft)
12.12.2016 19:30 1,7 °C 1,7 °C 93 % 1027,6 hPa 0,0 mm 1,1 km/h (1 Bft) W 277 ° 0 min 0,000 mm 0,0 UV-I 0 W/m² 0,7 °C 1,6 km/h (1 Bft)
12.12.2016 19:31 1,7 °C 1,7 °C 93 % 1027,6 hPa 0,0 mm 0,8 km/h (0 Bft) W 277 ° 0 min 0,000 mm 0,0 UV-I 0 W/m² 0,7 °C 1,6 km/h (1 Bft)
12.12.2016 19:32 1,7 °C 1,7 °C 93 % 1027,6 hPa 0,0 mm 1,0 km/h (0 Bft) W 277 ° 0 min 0,000 mm 0,0 UV-I 0 W/m² 0,7 °C 1,6 km/h (1 Bft)
12.12.2016 19:33 1,7 °C 1,7 °C 93 % 1027,6 hPa 0,0 mm 1,7 km/h (1 Bft) W 277 ° 0 min 0,000 mm 0,0 UV-I 0 W/m² 0,7 °C 3,2 km/h (1 Bft)
12.12.2016 19:34 1,7 °C 1,7 °C 93 % 1027,6 hPa 0,0 mm 1,9 km/h (1 Bft) W 277 ° 0 min 0,000 mm 0,0 UV-I 0 W/m² 0,7 °C 3,2 km/h (1 Bft)
12.12.2016 19:35 1,7 °C 1,7 °C 93 % 1027,6 hPa 0,0 mm 1,1 km/h (1 Bft) W 277 ° 0 min 0,000 mm 0,0 UV-I 0 W/m² 0,7 °C 1,6 km/h (1 Bft)
12.12.2016 19:36 1,7 °C 1,7 °C 93 % 1027,5 hPa 0,0 mm 0,5 km/h (0 Bft) W 277 ° 0 min 0,000 mm 0,0 UV-I 0 W/m² 0,7 °C 1,6 km/h (1 Bft)
12.12.2016 19:37 1,7 °C 1,7 °C 93 % 1027,5 hPa 0,0 mm 0,9 km/h (0 Bft) W 277 ° 0 min 0,000 mm 0,0 UV-I 0 W/m² 0,7 °C 1,6 km/h (1 Bft)
12.12.2016 19:38 1,7 °C 1,7 °C 93 % 1027,5 hPa 0,0 mm 0,1 km/h (0 Bft) W 277 ° 0 min 0,000 mm 0,0 UV-I 0 W/m² 0,7 °C 1,6 km/h (1 Bft)
12.12.2016 19:39 1,7 °C 1,7 °C 93 % 1027,6 hPa 0,0 mm 0,1 km/h (0 Bft) W 277 ° 0 min 0,000 mm 0,0 UV-I 0 W/m² 0,7 °C 1,6 km/h (1 Bft)
12.12.2016 19:40 1,7 °C 1,7 °C 93 % 1027,6 hPa 0,0 mm 0,0 km/h (0 Bft) W 277 ° 0 min 0,000 mm 0,0 UV-I 0 W/m² 0,7 °C 0,0 km/h (0 Bft)
12.12.2016 19:41 1,7 °C 1,7 °C 93 % 1027,6 hPa 0,0 mm 0,1 km/h (0 Bft) W 277 ° 0 min 0,000 mm 0,0 UV-I 0 W/m² 0,7 °C 1,6 km/h (1 Bft)
12.12.2016 19:42 1,6 °C 1,7 °C 93 % 1027,5 hPa 0,0 mm 0,1 km/h (0 Bft) W 277 ° 0 min 0,000 mm 0,0 UV-I 0 W/m² 0,6 °C 1,6 km/h (1 Bft)
12.12.2016 19:43 1,6 °C 1,6 °C 93 % 1027,6 hPa 0,0 mm 1,1 km/h (1 Bft) W 277 ° 0 min 0,000 mm 0,0 UV-I 0 W/m² 0,6 °C 1,6 km/h (1 Bft)
12.12.2016 19:44 1,6 °C 1,6 °C 92 % 1027,6 hPa 0,0 mm 1,9 km/h (1 Bft) W 277 ° 0 min 0,000 mm 0,0 UV-I 0 W/m² 0,4 °C 3,2 km/h (1 Bft)
12.12.2016 19:45 1,5 °C 1,6 °C 92 % 1027,6 hPa 0,0 mm 2,3 km/h (1 Bft) W 277 ° 0 min 0,000 mm 0,0 UV-I 0 W/m² 0,3 °C 3,2 km/h (1 Bft)
12.12.2016 19:46 1,4 °C 1,5 °C 92 % 1027,6 hPa 0,0 mm 1,3 km/h (1 Bft) W 277 ° 0 min 0,000 mm 0,0 UV-I 0 W/m² 0,2 °C 1,6 km/h (1 Bft)
12.12.2016 19:47 1,4 °C 1,4 °C 92 % 1027,6 hPa 0,0 mm 1,2 km/h (1 Bft) W 277 ° 0 min 0,000 mm 0,0 UV-I 0 W/m² 0,2 °C 1,6 km/h (1 Bft)
12.12.2016 19:48 1,4 °C 1,4 °C 92 % 1027,5 hPa 0,0 mm 1,3 km/h (1 Bft) W 277 ° 0 min 0,000 mm 0,0 UV-I 0 W/m² 0,2 °C 1,6 km/h (1 Bft)
12.12.2016 19:49 1,4 °C 1,4 °C 92 % 1027,5 hPa 0,0 mm 1,5 km/h (1 Bft) W 277 ° 0 min 0,000 mm 0,0 UV-I 0 W/m² 0,2 °C 1,6 km/h (1 Bft)
12.12.2016 19:50 1,3 °C 1,4 °C 92 % 1027,5 hPa 0,0 mm 2,3 km/h (1 Bft) W-SW 240 ° 0 min 0,000 mm 0,0 UV-I 0 W/m² 0,1 °C 4,8 km/h (1 Bft)
12.12.2016 19:51 1,3 °C 1,3 °C 92 % 1027,5 hPa 0,0 mm 2,3 km/h (1 Bft) W-SW 240 ° 0 min 0,000 mm 0,0 UV-I 0 W/m² 0,1 °C 3,2 km/h (1 Bft)
12.12.2016 19:52 1,3 °C 1,3 °C 92 % 1027,4 hPa 0,0 mm 2,0 km/h (1 Bft) W-SW 240 ° 0 min 0,000 mm 0,0 UV-I 0 W/m² 0,1 °C 3,2 km/h (1 Bft)
12.12.2016 19:53 1,3 °C 1,3 °C 92 % 1027,4 hPa 0,0 mm 2,0 km/h (1 Bft) W-SW 240 ° 0 min 0,000 mm 0,0 UV-I 0 W/m² 0,1 °C 3,2 km/h (1 Bft)
12.12.2016 19:54 1,2 °C 1,3 °C 92 % 1027,5 hPa 0,0 mm 2,7 km/h (1 Bft) W-SW 240 ° 0 min 0,000 mm 0,0 UV-I 0 W/m² 0,0 °C 3,2 km/h (1 Bft)
12.12.2016 19:55 1,2 °C 1,3 °C 92 % 1027,5 hPa 0,0 mm 3,0 km/h (1 Bft) W-SW 240 ° 0 min 0,000 mm 0,0 UV-I 0 W/m² 0,0 °C 3,2 km/h (1 Bft)
12.12.2016 19:56 1,2 °C 1,2 °C 92 % 1027,5 hPa 0,0 mm 2,6 km/h (1 Bft) W-SW 240 ° 0 min 0,000 mm 0,0 UV-I 0 W/m² 0,0 °C 3,2 km/h (1 Bft)
12.12.2016 19:57 1,2 °C 1,2 °C 92 % 1027,4 hPa 0,0 mm 2,1 km/h (1 Bft) W-SW 240 ° 0 min 0,000 mm 0,0 UV-I 0 W/m² 0,0 °C 3,2 km/h (1 Bft)
12.12.2016 19:58 1,2 °C 1,2 °C 92 % 1027,4 hPa 0,0 mm 3,5 km/h (1 Bft) W-SW 240 ° 0 min 0,000 mm 0,0 UV-I 0 W/m² 0,0 °C 4,8 km/h (1 Bft)
12.12.2016 19:59 1,1 °C 1,2 °C 92 % 1027,5 hPa 0,0 mm 3,8 km/h (1 Bft) W-SW 240 ° 0 min 0,000 mm 0,0 UV-I 0 W/m² -0,1 °C 4,8 km/h (1 Bft)
12.12.2016 20:00 1,1 °C 1,1 °C 92 % 1027,5 hPa 0,0 mm 3,2 km/h (1 Bft) W-SW 240 ° 0 min 0,000 mm 0,0 UV-I 0 W/m² -0,1 °C 3,2 km/h (1 Bft)
12.12.2016 20:01 1,1 °C 1,1 °C 92 % 1027,5 hPa 0,0 mm 4,0 km/h (1 Bft) W-SW 240 ° 0 min 0,000 mm 0,0 UV-I 0 W/m² -0,1 °C 4,8 km/h (1 Bft)
12.12.2016 20:02 1,1 °C 1,1 °C 92 % 1027,5 hPa 0,0 mm 3,9 km/h (1 Bft) S-SW 202 ° 0 min 0,000 mm 0,0 UV-I 0 W/m² -0,1 °C 4,8 km/h (1 Bft)
12.12.2016 20:03 1,1 °C 1,1 °C 92 % 1027,5 hPa 0,0 mm 3,5 km/h (1 Bft) S-SW 202 ° 0 min 0,000 mm 0,0 UV-I 0 W/m² -0,1 °C 4,8 km/h (1 Bft)
12.12.2016 20:04 1,0 °C 1,1 °C 92 % 1027,5 hPa 0,0 mm 3,8 km/h (1 Bft) S-SW 202 ° 0 min 0,000 mm 0,0 UV-I 0 W/m² -0,2 °C 4,8 km/h (1 Bft)
12.12.2016 20:05 1,0 °C 1,1 °C 92 % 1027,5 hPa 0,0 mm 2,7 km/h (1 Bft) S-SW 202 ° 0 min 0,000 mm 0,0 UV-I 0 W/m² -0,2 °C 3,2 km/h (1 Bft)
12.12.2016 20:06 1,0 °C 1,0 °C 92 % 1027,5 hPa 0,0 mm 2,0 km/h (1 Bft) S-SW 202 ° 0 min 0,000 mm 0,0 UV-I 0 W/m² -0,2 °C 3,2 km/h (1 Bft)
12.12.2016 20:07 0,9 °C 1,0 °C 92 % 1027,5 hPa 0,0 mm 1,9 km/h (1 Bft) S-SW 202 ° 0 min 0,000 mm 0,0 UV-I 0 W/m² -0,2 °C 3,2 km/h (1 Bft)
12.12.2016 20:08 0,9 °C 0,9 °C 92 % 1027,5 hPa 0,0 mm 2,2 km/h (1 Bft) S-SW 202 ° 0 min 0,000 mm 0,0 UV-I 0 W/m² -0,2 °C 3,2 km/h (1 Bft)
12.12.2016 20:09 0,9 °C 0,9 °C 92 % 1027,5 hPa 0,0 mm 1,4 km/h (1 Bft) S-SW 202 ° 0 min 0,000 mm 0,0 UV-I 0 W/m² -0,2 °C 1,6 km/h (1 Bft)
12.12.2016 20:10 0,9 °C 0,9 °C 92 % 1027,5 hPa 0,0 mm 2,2 km/h (1 Bft) S-SW 202 ° 0 min 0,000 mm 0,0 UV-I 0 W/m² -0,2 °C 3,2 km/h (1 Bft)
12.12.2016 20:11 0,9 °C 0,9 °C 92 % 1027,5 hPa 0,0 mm 0,9 km/h (0 Bft) S-SW 202 ° 0 min 0,000 mm 0,0 UV-I 0 W/m² -0,2 °C 3,2 km/h (1 Bft)
12.12.2016 20:12 0,8 °C 0,9 °C 92 % 1027,5 hPa 0,0 mm 1,6 km/h (1 Bft) S-SW 202 ° 0 min 0,000 mm 0,0 UV-I 0 W/m² -0,3 °C 3,2 km/h (1 Bft)
12.12.2016 20:13 0,8 °C 0,8 °C 92 % 1027,5 hPa 0,0 mm 0,5 km/h (0 Bft) S-SW 202 ° 0 min 0,000 mm 0,0 UV-I 0 W/m² -0,3 °C 1,6 km/h (1 Bft)
12.12.2016 20:14 0,8 °C 0,8 °C 92 % 1027,5 hPa 0,0 mm 1,2 km/h (1 Bft) S-SW 202 ° 0 min 0,000 mm 0,0 UV-I 0 W/m² -0,3 °C 1,6 km/h (1 Bft)
12.12.2016 20:15 0,8 °C 0,8 °C 92 % 1027,5 hPa 0,0 mm 1,4 km/h (1 Bft) S-SW 202 ° 0 min 0,000 mm 0,0 UV-I 0 W/m² -0,3 °C 1,6 km/h (1 Bft)
12.12.2016 20:16 0,7 °C 0,8 °C 92 % 1027,6 hPa 0,0 mm 1,5 km/h (1 Bft) S-SW 202 ° 0 min 0,000 mm 0,0 UV-I 0 W/m² -0,4 °C 1,6 km/h (1 Bft)
12.12.2016 20:17 0,7 °C 0,8 °C 92 % 1027,6 hPa 0,0 mm 0,8 km/h (0 Bft) S-SW 202 ° 0 min 0,000 mm 0,0 UV-I 0 W/m² -0,4 °C 1,6 km/h (1 Bft)
12.12.2016 20:18 0,7 °C 0,7 °C 92 % 1027,6 hPa 0,0 mm 0,6 km/h (0 Bft) S-SW 202 ° 0 min 0,000 mm 0,0 UV-I 0 W/m² -0,4 °C 1,6 km/h (1 Bft)
12.12.2016 20:19 0,7 °C 0,7 °C 92 % 1027,6 hPa 0,0 mm 0,4 km/h (0 Bft) S-SW 202 ° 0 min 0,000 mm 0,0 UV-I 0 W/m² -0,4 °C 1,6 km/h (1 Bft)
12.12.2016 20:20 0,6 °C 0,7 °C 92 % 1027,6 hPa 0,0 mm 1,0 km/h (0 Bft) S-SW 202 ° 0 min 0,000 mm 0,0 UV-I 0 W/m² -0,5 °C 1,6 km/h (1 Bft)
12.12.2016 20:21 0,6 °C 0,7 °C 92 % 1027,7 hPa 0,0 mm 1,3 km/h (1 Bft) S-SW 202 ° 0 min 0,000 mm 0,0 UV-I 0 W/m² -0,5 °C 3,2 km/h (1 Bft)
12.12.2016 20:22 0,6 °C 0,6 °C 92 % 1027,7 hPa 0,0 mm 1,5 km/h (1 Bft) S-SW 202 ° 0 min 0,000 mm 0,0 UV-I 0 W/m² -0,5 °C 3,2 km/h (1 Bft)
12.12.2016 20:23 0,6 °C 0,6 °C 92 % 1027,6 hPa 0,0 mm 1,6 km/h (1 Bft) S-SW 202 ° 0 min 0,000 mm 0,0 UV-I 0 W/m² -0,5 °C 1,6 km/h (1 Bft)
12.12.2016 20:24 0,5 °C 0,6 °C 92 % 1027,7 hPa 0,0 mm 1,3 km/h (1 Bft) S-SW 202 ° 0 min 0,000 mm 0,0 UV-I 0 W/m² -0,6 °C 3,2 km/h (1 Bft)
12.12.2016 20:25 0,4 °C 0,5 °C 92 % 1027,7 hPa 0,0 mm 0,3 km/h (0 Bft) S-SW 202 ° 0 min 0,000 mm 0,0 UV-I 0 W/m² -0,7 °C 1,6 km/h (1 Bft)
12.12.2016 20:26 0,4 °C 0,5 °C 92 % 1027,7 hPa 0,0 mm 0,8 km/h (0 Bft) S-SW 202 ° 0 min 0,000 mm 0,0 UV-I 0 W/m² -0,7 °C 1,6 km/h (1 Bft)
12.12.2016 20:27 0,4 °C 0,4 °C 92 % 1027,7 hPa 0,0 mm 0,1 km/h (0 Bft) S-SW 202 ° 0 min 0,000 mm 0,0 UV-I 0 W/m² -0,7 °C 1,6 km/h (1 Bft)
12.12.2016 20:28 0,4 °C 0,4 °C 92 % 1027,7 hPa 0,0 mm 0,7 km/h (0 Bft) S-SW 202 ° 0 min 0,000 mm 0,0 UV-I 0 W/m² -0,7 °C 1,6 km/h (1 Bft)
12.12.2016 20:29 0,4 °C 0,4 °C 92 % 1027,7 hPa 0,0 mm 2,3 km/h (1 Bft) S-SW 202 ° 0 min 0,000 mm 0,0 UV-I 0 W/m² -0,7 °C 3,2 km/h (1 Bft)
12.12.2016 20:30 0,3 °C 0,4 °C 92 % 1027,6 hPa 0,0 mm 2,6 km/h (1 Bft) S-SW 202 ° 0 min 0,000 mm 0,0 UV-I 0 W/m² -0,8 °C 3,2 km/h (1 Bft)
12.12.2016 20:31 0,3 °C 0,3 °C 92 % 1027,6 hPa 0,0 mm 2,3 km/h (1 Bft) S-SW 202 ° 0 min 0,000 mm 0,0 UV-I 0 W/m² -0,8 °C 3,2 km/h (1 Bft)
12.12.2016 20:32 0,2 °C 0,3 °C 92 % 1027,6 hPa 0,0 mm 1,4 km/h (1 Bft) S-SW 202 ° 0 min 0,000 mm 0,0 UV-I 0 W/m² -0,9 °C 3,2 km/h (1 Bft)
12.12.2016 20:33 0,2 °C 0,2 °C 91 % 1027,6 hPa 0,0 mm 0,9 km/h (0 Bft) S-SW 202 ° 0 min 0,000 mm 0,0 UV-I 0 W/m² -1,1 °C 1,6 km/h (1 Bft)
12.12.2016 20:34 0,2 °C 0,2 °C 91 % 1027,6 hPa 0,0 mm 0,6 km/h (0 Bft) S-SW 202 ° 0 min 0,000 mm 0,0 UV-I 0 W/m² -1,1 °C 1,6 km/h (1 Bft)
12.12.2016 20:35 0,2 °C 0,2 °C 92 % 1027,6 hPa 0,0 mm 0,3 km/h (0 Bft) S-SW 202 ° 0 min 0,000 mm 0,0 UV-I 0 W/m² -0,9 °C 1,6 km/h (1 Bft)
12.12.2016 20:36 0,2 °C 0,2 °C 91 % 1027,6 hPa 0,0 mm 0,2 km/h (0 Bft) S-SW 202 ° 0 min 0,000 mm 0,0 UV-I 0 W/m² -1,1 °C 1,6 km/h (1 Bft)
12.12.2016 20:37 0,1 °C 0,2 °C 92 % 1027,6 hPa 0,0 mm 0,0 km/h (0 Bft) S-SW 202 ° 0 min 0,000 mm 0,0 UV-I 0 W/m² -1,0 °C 0,0 km/h (0 Bft)
12.12.2016 20:38 0,1 °C 0,1 °C 92 % 1027,6 hPa 0,0 mm 0,0 km/h (0 Bft) S-SW 202 ° 0 min 0,000 mm 0,0 UV-I 0 W/m² -1,0 °C 0,0 km/h (0 Bft)
12.12.2016 20:39 0,1 °C 0,1 °C 92 % 1027,7 hPa 0,0 mm 0,0 km/h (0 Bft) S-SW 202 ° 0 min 0,000 mm 0,0 UV-I 0 W/m² -1,0 °C 0,0 km/h (0 Bft)
12.12.2016 20:40 0,1 °C 0,1 °C 92 % 1027,6 hPa 0,0 mm 0,0 km/h (0 Bft) S-SW 202 ° 0 min 0,000 mm 0,0 UV-I 0 W/m² -1,0 °C 0,0 km/h (0 Bft)
12.12.2016 20:41 0,1 °C 0,1 °C 92 % 1027,6 hPa 0,0 mm 0,0 km/h (0 Bft) S-SW 202 ° 0 min 0,000 mm 0,0 UV-I 0 W/m² -1,0 °C 0,0 km/h (0 Bft)
12.12.2016 20:42 0,1 °C 0,1 °C 92 % 1027,6 hPa 0,0 mm 0,1 km/h (0 Bft) S-SW 202 ° 0 min 0,000 mm 0,0 UV-I 0 W/m² -1,0 °C 1,6 km/h (1 Bft)
12.12.2016 20:43 0,1 °C 0,1 °C 92 % 1027,6 hPa 0,0 mm 0,0 km/h (0 Bft) S-SW 202 ° 0 min 0,000 mm 0,0 UV-I 0 W/m² -1,0 °C 0,0 km/h (0 Bft)
12.12.2016 20:44 0,0 °C 0,1 °C 91 % 1027,6 hPa 0,0 mm 0,0 km/h (0 Bft) S-SW 202 ° 0 min 0,000 mm 0,0 UV-I 0 W/m² -1,3 °C 0,0 km/h (0 Bft)
12.12.2016 20:45 0,0 °C 0,1 °C 91 % 1027,6 hPa 0,0 mm 0,0 km/h (0 Bft) S-SW 202 ° 0 min 0,000 mm 0,0 UV-I 0 W/m² -1,3 °C 0,0 km/h (0 Bft)
12.12.2016 20:46 0,0 °C 0,0 °C 91 % 1027,6 hPa 0,0 mm 0,0 km/h (0 Bft) S-SW 202 ° 0 min 0,000 mm 0,0 UV-I 0 W/m² -1,3 °C 0,0 km/h (0 Bft)
12.12.2016 20:47 0,0 °C 0,0 °C 91 % 1027,6 hPa 0,0 mm 0,0 km/h (0 Bft) S-SW 202 ° 0 min 0,000 mm 0,0 UV-I 0 W/m² -1,3 °C 0,0 km/h (0 Bft)
12.12.2016 20:48 -0,1 °C 0,0 °C 91 % 1027,6 hPa 0,0 mm 0,0 km/h (0 Bft) S-SW 202 ° 0 min 0,000 mm 0,0 UV-I 0 W/m² -1,4 °C 0,0 km/h (0 Bft)
12.12.2016 20:49 -0,1 °C -0,1 °C 91 % 1027,7 hPa 0,0 mm 0,3 km/h (0 Bft) S-SW 202 ° 0 min 0,000 mm 0,0 UV-I 0 W/m² -1,4 °C 1,6 km/h (1 Bft)
12.12.2016 20:50 -0,1 °C -0,1 °C 91 % 1027,6 hPa 0,0 mm 0,5 km/h (0 Bft) S-SW 202 ° 0 min 0,000 mm 0,0 UV-I 0 W/m² -1,4 °C 1,6 km/h (1 Bft)
12.12.2016 20:51 -0,1 °C -0,1 °C 91 % 1027,6 hPa 0,0 mm 0,4 km/h (0 Bft) S-SW 202 ° 0 min 0,000 mm 0,0 UV-I 0 W/m² -1,4 °C 1,6 km/h (1 Bft)
12.12.2016 20:52 -0,1 °C -0,1 °C 91 % 1027,6 hPa 0,0 mm 0,7 km/h (0 Bft) S-SW 202 ° 0 min 0,000 mm 0,0 UV-I 0 W/m² -1,4 °C 1,6 km/h (1 Bft)
12.12.2016 20:53 -0,2 °C -0,1 °C 91 % 1027,6 hPa 0,0 mm 0,3 km/h (0 Bft) S-SW 202 ° 0 min 0,000 mm 0,0 UV-I 0 W/m² -1,5 °C 1,6 km/h (1 Bft)
12.12.2016 20:54 -0,2 °C -0,2 °C 91 % 1027,7 hPa 0,0 mm 0,0 km/h (0 Bft) S-SW 202 ° 0 min 0,000 mm 0,0 UV-I 0 W/m² -1,5 °C 0,0 km/h (0 Bft)
12.12.2016 20:55 -0,3 °C -0,2 °C 91 % 1027,6 hPa 0,0 mm 0,0 km/h (0 Bft) S-SW 202 ° 0 min 0,000 mm 0,0 UV-I 0 W/m² -1,6 °C 0,0 km/h (0 Bft)
12.12.2016 20:56 -0,3 °C -0,3 °C 91 % 1027,6 hPa 0,0 mm 0,1 km/h (0 Bft) S-SW 202 ° 0 min 0,000 mm 0,0 UV-I 0 W/m² -1,6 °C 1,6 km/h (1 Bft)
12.12.2016 20:57 -0,3 °C -0,3 °C 91 % 1027,6 hPa 0,0 mm 0,5 km/h (0 Bft) S-SW 202 ° 0 min 0,000 mm 0,0 UV-I 0 W/m² -1,6 °C 1,6 km/h (1 Bft)
12.12.2016 20:58 -0,3 °C -0,3 °C 91 % 1027,6 hPa 0,0 mm 0,3 km/h (0 Bft) S-SW 202 ° 0 min 0,000 mm 0,0 UV-I 0 W/m² -1,6 °C 1,6 km/h (1 Bft)
12.12.2016 20:59 -0,4 °C -0,3 °C 91 % 1027,5 hPa 0,0 mm 0,0 km/h (0 Bft) S-SW 202 ° 0 min 0,000 mm 0,0 UV-I 0 W/m² -1,7 °C 0,0 km/h (0 Bft)
12.12.2016 21:00 -0,4 °C -0,3 °C 92 % 1027,5 hPa 0,0 mm 0,0 km/h (0 Bft) S-SW 202 ° 0 min 0,000 mm 0,0 UV-I 0 W/m² -1,5 °C 0,0 km/h (0 Bft)
12.12.2016 21:01 -0,4 °C -0,4 °C 92 % 1027,5 hPa 0,0 mm 0,0 km/h (0 Bft) S-SW 202 ° 0 min 0,000 mm 0,0 UV-I 0 W/m² -1,5 °C 0,0 km/h (0 Bft)
12.12.2016 21:02 -0,4 °C -0,4 °C 92 % 1027,5 hPa 0,0 mm 0,0 km/h (0 Bft) S-SW 202 ° 0 min 0,000 mm 0,0 UV-I 0 W/m² -1,5 °C 0,0 km/h (0 Bft)
12.12.2016 21:03 -0,4 °C -0,4 °C 92 % 1027,5 hPa 0,0 mm 0,0 km/h (0 Bft) S-SW 202 ° 0 min 0,000 mm 0,0 UV-I 0 W/m² -1,5 °C 0,0 km/h (0 Bft)
12.12.2016 21:04 -0,4 °C -0,4 °C 92 % 1027,6 hPa 0,0 mm 0,0 km/h (0 Bft) S-SW 202 ° 0 min 0,000 mm 0,0 UV-I 0 W/m² -1,5 °C 0,0 km/h (0 Bft)
12.12.2016 21:05 -0,5 °C -0,4 °C 92 % 1027,5 hPa 0,0 mm 0,0 km/h (0 Bft) S-SW 202 ° 0 min 0,000 mm 0,0 UV-I 0 W/m² -1,6 °C 0,0 km/h (0 Bft)
12.12.2016 21:06 -0,5 °C -0,5 °C 92 % 1027,5 hPa 0,0 mm 0,0 km/h (0 Bft) S-SW 202 ° 0 min 0,000 mm 0,0 UV-I 0 W/m² -1,6 °C 0,0 km/h (0 Bft)
12.12.2016 21:07 -0,5 °C -0,5 °C 92 % 1027,5 hPa 0,0 mm 0,0 km/h (0 Bft) S-SW 202 ° 0 min 0,000 mm 0,0 UV-I 0 W/m² -1,6 °C 0,0 km/h (0 Bft)
12.12.2016 21:08 -0,5 °C -0,5 °C 92 % 1027,6 hPa 0,0 mm 0,0 km/h (0 Bft) S-SW 202 ° 0 min 0,000 mm 0,0 UV-I 0 W/m² -1,6 °C 0,0 km/h (0 Bft)
12.12.2016 21:09 -0,5 °C -0,5 °C 92 % 1027,5 hPa 0,0 mm 0,0 km/h (0 Bft) S-SW 202 ° 0 min 0,000 mm 0,0 UV-I 0 W/m² -1,6 °C 0,0 km/h (0 Bft)
12.12.2016 21:10 -0,6 °C -0,5 °C 92 % 1027,6 hPa 0,0 mm 0,0 km/h (0 Bft) S-SW 202 ° 0 min 0,000 mm 0,0 UV-I 0 W/m² -1,7 °C 0,0 km/h (0 Bft)
12.12.2016 21:11 -0,6 °C -0,5 °C 92 % 1027,6 hPa 0,0 mm 0,0 km/h (0 Bft) S-SW 202 ° 0 min 0,000 mm 0,0 UV-I 0 W/m² -1,7 °C 0,0 km/h (0 Bft)
12.12.2016 21:12 -0,6 °C -0,6 °C 92 % 1027,6 hPa 0,0 mm 0,0 km/h (0 Bft) S-SW 202 ° 0 min 0,000 mm 0,0 UV-I 0 W/m² -1,7 °C 0,0 km/h (0 Bft)
12.12.2016 21:13 -0,6 °C -0,6 °C 92 % 1027,6 hPa 0,0 mm 0,0 km/h (0 Bft) S-SW 202 ° 0 min 0,000 mm 0,0 UV-I 0 W/m² -1,7 °C 0,0 km/h (0 Bft)
12.12.2016 21:14 -0,6 °C -0,6 °C 92 % 1027,7 hPa 0,0 mm 0,0 km/h (0 Bft) S-SW 202 ° 0 min 0,000 mm 0,0 UV-I 0 W/m² -1,7 °C 0,0 km/h (0 Bft)
12.12.2016 21:15 -0,6 °C -0,6 °C 92 % 1027,7 hPa 0,0 mm 0,0 km/h (0 Bft) S-SW 202 ° 0 min 0,000 mm 0,0 UV-I 0 W/m² -1,7 °C 0,0 km/h (0 Bft)
12.12.2016 21:16 -0,6 °C -0,6 °C 92 % 1027,7 hPa 0,0 mm 0,0 km/h (0 Bft) S-SW 202 ° 0 min 0,000 mm 0,0 UV-I 0 W/m² -1,7 °C 0,0 km/h (0 Bft)
12.12.2016 21:17 -0,7 °C -0,6 °C 92 % 1027,7 hPa 0,0 mm 0,0 km/h (0 Bft) S-SW 202 ° 0 min 0,000 mm 0,0 UV-I 0 W/m² -1,8 °C 0,0 km/h (0 Bft)
12.12.2016 21:18 -0,7 °C -0,7 °C 92 % 1027,7 hPa 0,0 mm 0,0 km/h (0 Bft) S-SW 202 ° 0 min 0,000 mm 0,0 UV-I 0 W/m² -1,8 °C 0,0 km/h (0 Bft)
12.12.2016 21:19 -0,7 °C -0,7 °C 92 % 1027,7 hPa 0,0 mm 0,0 km/h (0 Bft) S-SW 202 ° 0 min 0,000 mm 0,0 UV-I 0 W/m² -1,8 °C 0,0 km/h (0 Bft)
12.12.2016 21:20 -0,7 °C -0,7 °C 92 % 1027,8 hPa 0,0 mm 0,0 km/h (0 Bft) S-SW 202 ° 0 min 0,000 mm 0,0 UV-I 0 W/m² -1,8 °C 0,0 km/h (0 Bft)
12.12.2016 21:21 -0,7 °C -0,7 °C 92 % 1027,8 hPa 0,0 mm 0,0 km/h (0 Bft) S-SW 202 ° 0 min 0,000 mm 0,0 UV-I 0 W/m² -1,8 °C 0,0 km/h (0 Bft)
12.12.2016 21:22 -0,7 °C -0,7 °C 92 % 1027,8 hPa 0,0 mm 0,0 km/h (0 Bft) S-SW 202 ° 0 min 0,000 mm 0,0 UV-I 0 W/m² -1,8 °C 0,0 km/h (0 Bft)
12.12.2016 21:23 -0,8 °C -0,7 °C 92 % 1027,8 hPa 0,0 mm 0,0 km/h (0 Bft) S-SW 202 ° 0 min 0,000 mm 0,0 UV-I 0 W/m² -1,9 °C 0,0 km/h (0 Bft)
12.12.2016 21:24 -0,8 °C -0,8 °C 92 % 1027,8 hPa 0,0 mm 0,0 km/h (0 Bft) S-SW 202 ° 0 min 0,000 mm 0,0 UV-I 0 W/m² -1,9 °C 0,0 km/h (0 Bft)
12.12.2016 21:25 -0,8 °C -0,8 °C 92 % 1027,9 hPa 0,0 mm 0,0 km/h (0 Bft) S-SW 202 ° 0 min 0,000 mm 0,0 UV-I 0 W/m² -1,9 °C 0,0 km/h (0 Bft)
12.12.2016 21:26 -0,8 °C -0,8 °C 91 % 1027,8 hPa 0,0 mm 0,0 km/h (0 Bft) S-SW 202 ° 0 min 0,000 mm 0,0 UV-I 0 W/m² -2,1 °C 0,0 km/h (0 Bft)
12.12.2016 21:27 -0,9 °C -0,8 °C 91 % 1027,8 hPa 0,0 mm 1,0 km/h (0 Bft) S-SW 202 ° 0 min 0,000 mm 0,0 UV-I 0 W/m² -2,2 °C 3,2 km/h (1 Bft)
12.12.2016 21:28 -0,9 °C -0,8 °C 91 % 1027,8 hPa 0,0 mm 1,3 km/h (1 Bft) S-SW 202 ° 0 min 0,000 mm 0,0 UV-I 0 W/m² -2,2 °C 1,6 km/h (1 Bft)
12.12.2016 21:29 -0,9 °C -0,9 °C 91 % 1027,8 hPa 0,0 mm 1,0 km/h (0 Bft) S-SW 202 ° 0 min 0,000 mm 0,0 UV-I 0 W/m² -2,2 °C 1,6 km/h (1 Bft)
12.12.2016 21:30 -0,9 °C -0,9 °C 91 % 1027,7 hPa 0,0 mm 1,1 km/h (1 Bft) S-SW 202 ° 0 min 0,000 mm 0,0 UV-I 0 W/m² -2,2 °C 1,6 km/h (1 Bft)
12.12.2016 21:31 -0,9 °C -0,9 °C 92 % 1027,8 hPa 0,0 mm 1,1 km/h (1 Bft) S-SW 202 ° 0 min 0,000 mm 0,0 UV-I 0 W/m² -2,0 °C 1,6 km/h (1 Bft)
12.12.2016 21:32 -1,0 °C -0,9 °C 92 % 1027,7 hPa 0,0 mm 0,5 km/h (0 Bft) S-SW 202 ° 0 min 0,000 mm 0,0 UV-I 0 W/m² -2,1 °C 1,6 km/h (1 Bft)
12.12.2016 21:33 -1,0 °C -1,0 °C 92 % 1027,8 hPa 0,0 mm 0,3 km/h (0 Bft) S-SW 202 ° 0 min 0,000 mm 0,0 UV-I 0 W/m² -2,1 °C 1,6 km/h (1 Bft)
12.12.2016 21:34 -1,0 °C -1,0 °C 92 % 1027,8 hPa 0,0 mm 0,2 km/h (0 Bft) S-SW 202 ° 0 min 0,000 mm 0,0 UV-I 0 W/m² -2,1 °C 1,6 km/h (1 Bft)
12.12.2016 21:35 -1,0 °C -1,0 °C 92 % 1027,7 hPa 0,0 mm 0,0 km/h (0 Bft) S-SW 202 ° 0 min 0,000 mm 0,0 UV-I 0 W/m² -2,1 °C 0,0 km/h (0 Bft)
12.12.2016 21:36 -1,1 °C -1,0 °C 92 % 1027,8 hPa 0,0 mm 0,3 km/h (0 Bft) S-SW 202 ° 0 min 0,000 mm 0,0 UV-I 0 W/m² -2,2 °C 1,6 km/h (1 Bft)
12.12.2016 21:37 -1,1 °C -1,1 °C 92 % 1027,8 hPa 0,0 mm 0,1 km/h (0 Bft) S-SW 202 ° 0 min 0,000 mm 0,0 UV-I 0 W/m² -2,2 °C 1,6 km/h (1 Bft)
12.12.2016 21:38 -1,1 °C -1,1 °C 92 % 1027,8 hPa 0,0 mm 0,0 km/h (0 Bft) S-SW 202 ° 0 min 0,000 mm 0,0 UV-I 0 W/m² -2,2 °C 0,0 km/h (0 Bft)
12.12.2016 21:39 -1,1 °C -1,1 °C 92 % 1027,8 hPa 0,0 mm 0,0 km/h (0 Bft) S-SW 202 ° 0 min 0,000 mm 0,0 UV-I 0 W/m² -2,2 °C 0,0 km/h (0 Bft)
12.12.2016 21:40 -1,1 °C -1,1 °C 92 % 1027,8 hPa 0,0 mm 0,6 km/h (0 Bft) S-SW 202 ° 0 min 0,000 mm 0,0 UV-I 0 W/m² -2,2 °C 1,6 km/h (1 Bft)
12.12.2016 21:41 -1,1 °C -1,1 °C 93 % 1027,8 hPa 0,0 mm 0,4 km/h (0 Bft) S-SW 202 ° 0 min 0,000 mm 0,0 UV-I 0 W/m² -2,1 °C 1,6 km/h (1 Bft)
12.12.2016 21:42 -1,1 °C -1,1 °C 93 % 1027,8 hPa 0,0 mm 0,5 km/h (0 Bft) S-SW 202 ° 0 min 0,000 mm 0,0 UV-I 0 W/m² -2,1 °C 1,6 km/h (1 Bft)
12.12.2016 21:43 -1,1 °C -1,1 °C 92 % 1027,8 hPa 0,0 mm 0,0 km/h (0 Bft) S-SW 202 ° 0 min 0,000 mm 0,0 UV-I 0 W/m² -2,2 °C 0,0 km/h (0 Bft)
12.12.2016 21:44 -1,1 °C -1,1 °C 92 % 1027,8 hPa 0,0 mm 0,0 km/h (0 Bft) S-SW 202 ° 0 min 0,000 mm 0,0 UV-I 0 W/m² -2,2 °C 0,0 km/h (0 Bft)
12.12.2016 21:45 -1,1 °C -1,1 °C 92 % 1027,8 hPa 0,0 mm 0,0 km/h (0 Bft) S-SW 202 ° 0 min 0,000 mm 0,0 UV-I 0 W/m² -2,2 °C 0,0 km/h (0 Bft)
12.12.2016 21:46 -1,1 °C -1,1 °C 92 % 1027,8 hPa 0,0 mm 0,0 km/h (0 Bft) S-SW 202 ° 0 min 0,000 mm 0,0 UV-I 0 W/m² -2,2 °C 0,0 km/h (0 Bft)
12.12.2016 21:47 -1,2 °C -1,1 °C 93 % 1027,8 hPa 0,0 mm 0,0 km/h (0 Bft) S-SW 202 ° 0 min 0,000 mm 0,0 UV-I 0 W/m² -2,2 °C 0,0 km/h (0 Bft)
12.12.2016 21:48 -1,2 °C -1,1 °C 93 % 1027,8 hPa 0,0 mm 0,0 km/h (0 Bft) S-SW 202 ° 0 min 0,000 mm 0,0 UV-I 0 W/m² -2,2 °C 0,0 km/h (0 Bft)
12.12.2016 21:49 -1,1 °C -1,1 °C 93 % 1027,8 hPa 0,0 mm 0,0 km/h (0 Bft) S-SW 202 ° 0 min 0,000 mm 0,0 UV-I 0 W/m² -2,1 °C 0,0 km/h (0 Bft)
12.12.2016 21:50 -1,2 °C -1,1 °C 93 % 1027,8 hPa 0,0 mm 0,0 km/h (0 Bft) S-SW 202 ° 0 min 0,000 mm 0,0 UV-I 0 W/m² -2,2 °C 0,0 km/h (0 Bft)
12.12.2016 21:51 -1,2 °C -1,1 °C 93 % 1027,8 hPa 0,0 mm 0,0 km/h (0 Bft) S-SW 202 ° 0 min 0,000 mm 0,0 UV-I 0 W/m² -2,2 °C 0,0 km/h (0 Bft)
12.12.2016 21:52 -1,2 °C -1,2 °C 93 % 1027,8 hPa 0,0 mm 0,0 km/h (0 Bft) S-SW 202 ° 0 min 0,000 mm 0,0 UV-I 0 W/m² -2,2 °C 0,0 km/h (0 Bft)
12.12.2016 21:53 -1,2 °C -1,2 °C 93 % 1027,8 hPa 0,0 mm 0,0 km/h (0 Bft) S-SW 202 ° 0 min 0,000 mm 0,0 UV-I 0 W/m² -2,2 °C 0,0 km/h (0 Bft)
12.12.2016 21:54 -1,2 °C -1,2 °C 93 % 1027,8 hPa 0,0 mm 0,0 km/h (0 Bft) S-SW 202 ° 0 min 0,000 mm 0,0 UV-I 0 W/m² -2,2 °C 0,0 km/h (0 Bft)
12.12.2016 21:55 -1,2 °C -1,2 °C 93 % 1027,8 hPa 0,0 mm 0,0 km/h (0 Bft) S-SW 202 ° 0 min 0,000 mm 0,0 UV-I 0 W/m² -2,2 °C 0,0 km/h (0 Bft)
12.12.2016 21:56 -1,2 °C -1,2 °C 93 % 1027,8 hPa 0,0 mm 0,0 km/h (0 Bft) S-SW 202 ° 0 min 0,000 mm 0,0 UV-I 0 W/m² -2,2 °C 0,0 km/h (0 Bft)
12.12.2016 21:57 -1,2 °C -1,2 °C 93 % 1027,8 hPa 0,0 mm 0,0 km/h (0 Bft) S-SW 202 ° 0 min 0,000 mm 0,0 UV-I 0 W/m² -2,2 °C 0,0 km/h (0 Bft)
12.12.2016 21:58 -1,2 °C -1,2 °C 93 % 1027,8 hPa 0,0 mm 0,0 km/h (0 Bft) S-SW 202 ° 0 min 0,000 mm 0,0 UV-I 0 W/m² -2,2 °C 0,0 km/h (0 Bft)
12.12.2016 21:59 -1,3 °C -1,2 °C 93 % 1027,8 hPa 0,0 mm 0,0 km/h (0 Bft) S-SW 202 ° 0 min 0,000 mm 0,0 UV-I 0 W/m² -2,3 °C 0,0 km/h (0 Bft)
12.12.2016 22:00 -1,3 °C -1,2 °C 93 % 1027,8 hPa 0,0 mm 0,0 km/h (0 Bft) S-SW 202 ° 0 min 0,000 mm 0,0 UV-I 0 W/m² -2,3 °C 0,0 km/h (0 Bft)
12.12.2016 22:01 -1,3 °C -1,3 °C 93 % 1027,8 hPa 0,0 mm 0,0 km/h (0 Bft) S-SW 202 ° 0 min 0,000 mm 0,0 UV-I 0 W/m² -2,3 °C 0,0 km/h (0 Bft)
12.12.2016 22:02 -1,3 °C -1,3 °C 92 % 1027,8 hPa 0,0 mm 0,0 km/h (0 Bft) S-SW 202 ° 0 min 0,000 mm 0,0 UV-I 0 W/m² -2,4 °C 0,0 km/h (0 Bft)
12.12.2016 22:03 -1,3 °C -1,3 °C 92 % 1027,8 hPa 0,0 mm 0,0 km/h (0 Bft) S-SW 202 ° 0 min 0,000 mm 0,0 UV-I 0 W/m² -2,4 °C 0,0 km/h (0 Bft)
12.12.2016 22:04 -1,4 °C -1,3 °C 92 % 1027,8 hPa 0,0 mm 0,0 km/h (0 Bft) S-SW 202 ° 0 min 0,000 mm 0,0 UV-I 0 W/m² -2,5 °C 0,0 km/h (0 Bft)
12.12.2016 22:05 -1,4 °C -1,3 °C 92 % 1027,8 hPa 0,0 mm 0,0 km/h (0 Bft) S-SW 202 ° 0 min 0,000 mm 0,0 UV-I 0 W/m² -2,5 °C 0,0 km/h (0 Bft)
12.12.2016 22:06 -1,4 °C -1,4 °C 92 % 1027,8 hPa 0,0 mm 0,0 km/h (0 Bft) S-SW 202 ° 0 min 0,000 mm 0,0 UV-I 0 W/m² -2,5 °C 0,0 km/h (0 Bft)
12.12.2016 22:07 -1,4 °C -1,4 °C 92 % 1027,8 hPa 0,0 mm 0,0 km/h (0 Bft) S-SW 202 ° 0 min 0,000 mm 0,0 UV-I 0 W/m² -2,5 °C 0,0 km/h (0 Bft)
12.12.2016 22:08 -1,4 °C -1,4 °C 92 % 1027,7 hPa 0,0 mm 0,0 km/h (0 Bft) S-SW 202 ° 0 min 0,000 mm 0,0 UV-I 0 W/m² -2,5 °C 0,0 km/h (0 Bft)
12.12.2016 22:09 -1,4 °C -1,4 °C 92 % 1027,7 hPa 0,0 mm 0,0 km/h (0 Bft) S-SW 202 ° 0 min 0,000 mm 0,0 UV-I 0 W/m² -2,5 °C 0,0 km/h (0 Bft)
12.12.2016 22:10 -1,5 °C -1,4 °C 92 % 1027,8 hPa 0,0 mm 0,0 km/h (0 Bft) S-SW 202 ° 0 min 0,000 mm 0,0 UV-I 0 W/m² -2,6 °C 0,0 km/h (0 Bft)
12.12.2016 22:11 -1,5 °C -1,4 °C 92 % 1027,7 hPa 0,0 mm 0,0 km/h (0 Bft) S-SW 202 ° 0 min 0,000 mm 0,0 UV-I 0 W/m² -2,6 °C 0,0 km/h (0 Bft)
12.12.2016 22:12 -1,5 °C -1,5 °C 92 % 1027,7 hPa 0,0 mm 0,0 km/h (0 Bft) S-SW 202 ° 0 min 0,000 mm 0,0 UV-I 0 W/m² -2,6 °C 0,0 km/h (0 Bft)
12.12.2016 22:13 -1,5 °C -1,5 °C 92 % 1027,7 hPa 0,0 mm 0,0 km/h (0 Bft) S-SW 202 ° 0 min 0,000 mm 0,0 UV-I 0 W/m² -2,6 °C 0,0 km/h (0 Bft)
12.12.2016 22:14 -1,6 °C -1,5 °C 92 % 1027,7 hPa 0,0 mm 0,0 km/h (0 Bft) S-SW 202 ° 0 min 0,000 mm 0,0 UV-I 0 W/m² -2,7 °C 0,0 km/h (0 Bft)
12.12.2016 22:15 -1,6 °C -1,6 °C 92 % 1027,7 hPa 0,0 mm 0,0 km/h (0 Bft) S-SW 202 ° 0 min 0,000 mm 0,0 UV-I 0 W/m² -2,7 °C 0,0 km/h (0 Bft)
12.12.2016 22:16 -1,6 °C -1,6 °C 92 % 1027,7 hPa 0,0 mm 0,0 km/h (0 Bft) S-SW 202 ° 0 min 0,000 mm 0,0 UV-I 0 W/m² -2,7 °C 0,0 km/h (0 Bft)
12.12.2016 22:17 -1,6 °C -1,6 °C 92 % 1027,6 hPa 0,0 mm 0,0 km/h (0 Bft) S-SW 202 ° 0 min 0,000 mm 0,0 UV-I 0 W/m² -2,7 °C 0,0 km/h (0 Bft)
12.12.2016 22:18 -1,6 °C -1,6 °C 92 % 1027,7 hPa 0,0 mm 0,0 km/h (0 Bft) S-SW 202 ° 0 min 0,000 mm 0,0 UV-I 0 W/m² -2,7 °C 0,0 km/h (0 Bft)
12.12.2016 22:19 -1,7 °C -1,6 °C 92 % 1027,7 hPa 0,0 mm 0,0 km/h (0 Bft) S-SW 202 ° 0 min 0,000 mm 0,0 UV-I 0 W/m² -2,8 °C 0,0 km/h (0 Bft)
12.12.2016 22:20 -1,7 °C -1,6 °C 92 % 1027,7 hPa 0,0 mm 0,0 km/h (0 Bft) S-SW 202 ° 0 min 0,000 mm 0,0 UV-I 0 W/m² -2,8 °C 0,0 km/h (0 Bft)
12.12.2016 22:21 -1,7 °C -1,7 °C 92 % 1027,7 hPa 0,0 mm 0,0 km/h (0 Bft) S-SW 202 ° 0 min 0,000 mm 0,0 UV-I 0 W/m² -2,8 °C 0,0 km/h (0 Bft)
12.12.2016 22:22 -1,7 °C -1,7 °C 92 % 1027,6 hPa 0,0 mm 0,0 km/h (0 Bft) S-SW 202 ° 0 min 0,000 mm 0,0 UV-I 0 W/m² -2,8 °C 0,0 km/h (0 Bft)
12.12.2016 22:23 -1,7 °C -1,7 °C 92 % 1027,6 hPa 0,0 mm 0,0 km/h (0 Bft) S-SW 202 ° 0 min 0,000 mm 0,0 UV-I 0 W/m² -2,8 °C 0,0 km/h (0 Bft)
12.12.2016 22:24 -1,7 °C -1,7 °C 92 % 1027,6 hPa 0,0 mm 0,0 km/h (0 Bft) S-SW 202 ° 0 min 0,000 mm 0,0 UV-I 0 W/m² -2,8 °C 0,0 km/h (0 Bft)
12.12.2016 22:25 -1,7 °C -1,7 °C 92 % 1027,6 hPa 0,0 mm 0,0 km/h (0 Bft) S-SW 202 ° 0 min 0,000 mm 0,0 UV-I 0 W/m² -2,8 °C 0,0 km/h (0 Bft)
12.12.2016 22:26 -1,8 °C -1,7 °C 92 % 1027,6 hPa 0,0 mm 0,0 km/h (0 Bft) S-SW 202 ° 0 min 0,000 mm 0,0 UV-I 0 W/m² -2,9 °C 0,0 km/h (0 Bft)
12.12.2016 22:27 -1,7 °C -1,7 °C 92 % 1027,5 hPa 0,0 mm 0,0 km/h (0 Bft) S-SW 202 ° 0 min 0,000 mm 0,0 UV-I 0 W/m² -2,8 °C 0,0 km/h (0 Bft)
12.12.2016 22:28 -1,8 °C -1,7 °C 92 % 1027,5 hPa 0,0 mm 0,0 km/h (0 Bft) S-SW 202 ° 0 min 0,000 mm 0,0 UV-I 0 W/m² -2,9 °C 0,0 km/h (0 Bft)
12.12.2016 22:29 -1,8 °C -1,8 °C 92 % 1027,5 hPa 0,0 mm 0,0 km/h (0 Bft) S-SW 202 ° 0 min 0,000 mm 0,0 UV-I 0 W/m² -2,9 °C 0,0 km/h (0 Bft)
12.12.2016 22:30 -1,8 °C -1,8 °C 92 % 1027,5 hPa 0,0 mm 0,0 km/h (0 Bft) S-SW 202 ° 0 min 0,000 mm 0,0 UV-I 0 W/m² -2,9 °C 0,0 km/h (0 Bft)
12.12.2016 22:31 -1,8 °C -1,8 °C 92 % 1027,5 hPa 0,0 mm 0,0 km/h (0 Bft) S-SW 202 ° 0 min 0,000 mm 0,0 UV-I 0 W/m² -2,9 °C 0,0 km/h (0 Bft)
12.12.2016 22:32 -1,8 °C -1,8 °C 92 % 1027,6 hPa 0,0 mm 0,0 km/h (0 Bft) S-SW 202 ° 0 min 0,000 mm 0,0 UV-I 0 W/m² -2,9 °C 0,0 km/h (0 Bft)
12.12.2016 22:33 -1,8 °C -1,8 °C 92 % 1027,5 hPa 0,0 mm 0,0 km/h (0 Bft) S-SW 202 ° 0 min 0,000 mm 0,0 UV-I 0 W/m² -2,9 °C 0,0 km/h (0 Bft)
12.12.2016 22:34 -1,8 °C -1,8 °C 92 % 1027,6 hPa 0,0 mm 0,0 km/h (0 Bft) S-SW 202 ° 0 min 0,000 mm 0,0 UV-I 0 W/m² -2,9 °C 0,0 km/h (0 Bft)
12.12.2016 22:35 -1,9 °C -1,8 °C 92 % 1027,5 hPa 0,0 mm 0,0 km/h (0 Bft) S-SW 202 ° 0 min 0,000 mm 0,0 UV-I 0 W/m² -3,0 °C 0,0 km/h (0 Bft)
12.12.2016 22:36 -1,9 °C -1,8 °C 92 % 1027,5 hPa 0,0 mm 0,0 km/h (0 Bft) S-SW 202 ° 0 min 0,000 mm 0,0 UV-I 0 W/m² -3,0 °C 0,0 km/h (0 Bft)
12.12.2016 22:37 -1,9 °C -1,9 °C 92 % 1027,5 hPa 0,0 mm 0,0 km/h (0 Bft) S-SW 202 ° 0 min 0,000 mm 0,0 UV-I 0 W/m² -3,0 °C 0,0 km/h (0 Bft)
12.12.2016 22:38 -1,9 °C -1,9 °C 92 % 1027,5 hPa 0,0 mm 0,0 km/h (0 Bft) S-SW 202 ° 0 min 0,000 mm 0,0 UV-I 0 W/m² -3,0 °C 0,0 km/h (0 Bft)
12.12.2016 22:39 -1,9 °C -1,9 °C 92 % 1027,5 hPa 0,0 mm 0,0 km/h (0 Bft) S-SW 202 ° 0 min 0,000 mm 0,0 UV-I 0 W/m² -3,0 °C 0,0 km/h (0 Bft)
12.12.2016 22:40 -1,9 °C -1,9 °C 92 % 1027,5 hPa 0,0 mm 0,0 km/h (0 Bft) S-SW 202 ° 0 min 0,000 mm 0,0 UV-I 0 W/m² -3,0 °C 0,0 km/h (0 Bft)
12.12.2016 22:41 -1,9 °C -1,9 °C 92 % 1027,5 hPa 0,0 mm 0,0 km/h (0 Bft) S-SW 202 ° 0 min 0,000 mm 0,0 UV-I 0 W/m² -3,0 °C 0,0 km/h (0 Bft)
12.12.2016 22:42 -1,9 °C -1,9 °C 92 % 1027,6 hPa 0,0 mm 0,0 km/h (0 Bft) S-SW 202 ° 0 min 0,000 mm 0,0 UV-I 0 W/m² -3,0 °C 0,0 km/h (0 Bft)
12.12.2016 22:43 -2,0 °C -1,9 °C 92 % 1027,5 hPa 0,0 mm 0,0 km/h (0 Bft) S-SW 202 ° 0 min 0,000 mm 0,0 UV-I 0 W/m² -3,1 °C 0,0 km/h (0 Bft)
12.12.2016 22:44 -1,9 °C -1,9 °C 92 % 1027,6 hPa 0,0 mm 0,0 km/h (0 Bft) S-SW 202 ° 0 min 0,000 mm 0,0 UV-I 0 W/m² -3,0 °C 0,0 km/h (0 Bft)
12.12.2016 22:45 -2,0 °C -1,9 °C 92 % 1027,6 hPa 0,0 mm 0,0 km/h (0 Bft) S-SW 202 ° 0 min 0,000 mm 0,0 UV-I 0 W/m² -3,1 °C 0,0 km/h (0 Bft)
12.12.2016 22:46 -2,0 °C -2,0 °C 92 % 1027,6 hPa 0,0 mm 0,0 km/h (0 Bft) S-SW 202 ° 0 min 0,000 mm 0,0 UV-I 0 W/m² -3,1 °C 0,0 km/h (0 Bft)
12.12.2016 22:47 -2,0 °C -2,0 °C 92 % 1027,6 hPa 0,0 mm 0,0 km/h (0 Bft) S-SW 202 ° 0 min 0,000 mm 0,0 UV-I 0 W/m² -3,1 °C 0,0 km/h (0 Bft)
12.12.2016 22:48 -2,1 °C -2,0 °C 92 % 1027,7 hPa 0,0 mm 0,0 km/h (0 Bft) S-SW 202 ° 0 min 0,000 mm 0,0 UV-I 0 W/m² -3,2 °C 0,0 km/h (0 Bft)
12.12.2016 22:49 -2,1 °C -2,1 °C 92 % 1027,6 hPa 0,0 mm 0,0 km/h (0 Bft) S-SW 202 ° 0 min 0,000 mm 0,0 UV-I 0 W/m² -3,2 °C 0,0 km/h (0 Bft)
12.12.2016 22:50 -2,1 °C -2,1 °C 92 % 1027,7 hPa 0,0 mm 0,0 km/h (0 Bft) S-SW 202 ° 0 min 0,000 mm 0,0 UV-I 0 W/m² -3,2 °C 0,0 km/h (0 Bft)
12.12.2016 22:51 -2,1 °C -2,1 °C 92 % 1027,7 hPa 0,0 mm 0,0 km/h (0 Bft) S-SW 202 ° 0 min 0,000 mm 0,0 UV-I 0 W/m² -3,2 °C 0,0 km/h (0 Bft)
12.12.2016 22:52 -2,1 °C -2,1 °C 92 % 1027,7 hPa 0,0 mm 0,0 km/h (0 Bft) S-SW 202 ° 0 min 0,000 mm 0,0 UV-I 0 W/m² -3,2 °C 0,0 km/h (0 Bft)
12.12.2016 22:53 -2,2 °C -2,1 °C 92 % 1027,7 hPa 0,0 mm 0,0 km/h (0 Bft) S-SW 202 ° 0 min 0,000 mm 0,0 UV-I 0 W/m² -3,3 °C 0,0 km/h (0 Bft)
12.12.2016 22:54 -2,1 °C -2,1 °C 92 % 1027,7 hPa 0,0 mm 0,0 km/h (0 Bft) S-SW 202 ° 0 min 0,000 mm 0,0 UV-I 0 W/m² -3,2 °C 0,0 km/h (0 Bft)
12.12.2016 22:55 -2,2 °C -2,1 °C 92 % 1027,7 hPa 0,0 mm 0,0 km/h (0 Bft) S-SW 202 ° 0 min 0,000 mm 0,0 UV-I 0 W/m² -3,3 °C 0,0 km/h (0 Bft)
12.12.2016 22:56 -2,2 °C -2,2 °C 92 % 1027,7 hPa 0,0 mm 0,0 km/h (0 Bft) S-SW 202 ° 0 min 0,000 mm 0,0 UV-I 0 W/m² -3,3 °C 0,0 km/h (0 Bft)
12.12.2016 22:57 -2,2 °C -2,2 °C 92 % 1027,7 hPa 0,0 mm 0,0 km/h (0 Bft) S-SW 202 ° 0 min 0,000 mm 0,0 UV-I 0 W/m² -3,3 °C 0,0 km/h (0 Bft)
12.12.2016 22:58 -2,2 °C -2,2 °C 92 % 1027,7 hPa 0,0 mm 0,0 km/h (0 Bft) S-SW 202 ° 0 min 0,000 mm 0,0 UV-I 0 W/m² -3,3 °C 0,0 km/h (0 Bft)
12.12.2016 22:59 -2,2 °C -2,2 °C 92 % 1027,7 hPa 0,0 mm 0,0 km/h (0 Bft) S-SW 202 ° 0 min 0,000 mm 0,0 UV-I 0 W/m² -3,3 °C 0,0 km/h (0 Bft)
12.12.2016 23:00 -2,2 °C -2,2 °C 92 % 1027,7 hPa 0,0 mm 0,0 km/h (0 Bft) S-SW 202 ° 0 min 0,000 mm 0,0 UV-I 0 W/m² -3,3 °C 0,0 km/h (0 Bft)
12.12.2016 23:01 -2,2 °C -2,2 °C 92 % 1027,7 hPa 0,0 mm 0,0 km/h (0 Bft) S-SW 202 ° 0 min 0,000 mm 0,0 UV-I 0 W/m² -3,3 °C 0,0 km/h (0 Bft)
12.12.2016 23:02 -2,3 °C -2,2 °C 92 % 1027,7 hPa 0,0 mm 0,0 km/h (0 Bft) S-SW 202 ° 0 min 0,000 mm 0,0 UV-I 0 W/m² -3,4 °C 0,0 km/h (0 Bft)
12.12.2016 23:03 -2,3 °C -2,3 °C 92 % 1027,7 hPa 0,0 mm 0,0 km/h (0 Bft) S-SW 202 ° 0 min 0,000 mm 0,0 UV-I 0 W/m² -3,4 °C 0,0 km/h (0 Bft)
12.12.2016 23:04 -2,3 °C -2,3 °C 93 % 1027,8 hPa 0,0 mm 0,0 km/h (0 Bft) S-SW 202 ° 0 min 0,000 mm 0,0 UV-I 0 W/m² -3,3 °C 0,0 km/h (0 Bft)
12.12.2016 23:05 -2,3 °C -2,3 °C 92 % 1027,7 hPa 0,0 mm 0,0 km/h (0 Bft) S-SW 202 ° 0 min 0,000 mm 0,0 UV-I 0 W/m² -3,4 °C 0,0 km/h (0 Bft)
12.12.2016 23:06 -2,3 °C -2,3 °C 92 % 1027,8 hPa 0,0 mm 0,0 km/h (0 Bft) S-SW 202 ° 0 min 0,000 mm 0,0 UV-I 0 W/m² -3,4 °C 0,0 km/h (0 Bft)
12.12.2016 23:07 -2,3 °C -2,3 °C 92 % 1027,8 hPa 0,0 mm 0,0 km/h (0 Bft) S-SW 202 ° 0 min 0,000 mm 0,0 UV-I 0 W/m² -3,4 °C 0,0 km/h (0 Bft)
12.12.2016 23:08 -2,4 °C -2,3 °C 92 % 1027,7 hPa 0,0 mm 0,0 km/h (0 Bft) S-SW 202 ° 0 min 0,000 mm 0,0 UV-I 0 W/m² -3,5 °C 0,0 km/h (0 Bft)
12.12.2016 23:09 -2,4 °C -2,3 °C 92 % 1027,7 hPa 0,0 mm 0,0 km/h (0 Bft) S-SW 202 ° 0 min 0,000 mm 0,0 UV-I 0 W/m² -3,5 °C 0,0 km/h (0 Bft)
12.12.2016 23:10 -2,4 °C -2,3 °C 92 % 1027,7 hPa 0,0 mm 0,0 km/h (0 Bft) S-SW 202 ° 0 min 0,000 mm 0,0 UV-I 0 W/m² -3,5 °C 0,0 km/h (0 Bft)
12.12.2016 23:11 -2,4 °C -2,4 °C 92 % 1027,7 hPa 0,0 mm 0,0 km/h (0 Bft) S-SW 202 ° 0 min 0,000 mm 0,0 UV-I 0 W/m² -3,5 °C 0,0 km/h (0 Bft)
12.12.2016 23:12 -2,4 °C -2,4 °C 92 % 1027,7 hPa 0,0 mm 0,0 km/h (0 Bft) S-SW 202 ° 0 min 0,000 mm 0,0 UV-I 0 W/m² -3,5 °C 0,0 km/h (0 Bft)
12.12.2016 23:13 -2,4 °C -2,4 °C 92 % 1027,7 hPa 0,0 mm 0,0 km/h (0 Bft) S-SW 202 ° 0 min 0,000 mm 0,0 UV-I 0 W/m² -3,5 °C 0,0 km/h (0 Bft)
12.12.2016 23:14 -2,4 °C -2,4 °C 92 % 1027,7 hPa 0,0 mm 0,0 km/h (0 Bft) S-SW 202 ° 0 min 0,000 mm 0,0 UV-I 0 W/m² -3,5 °C 0,0 km/h (0 Bft)
12.12.2016 23:15 -2,5 °C -2,4 °C 92 % 1027,7 hPa 0,0 mm 0,0 km/h (0 Bft) S-SW 202 ° 0 min 0,000 mm 0,0 UV-I 0 W/m² -3,6 °C 0,0 km/h (0 Bft)
12.12.2016 23:16 -2,5 °C -2,5 °C 92 % 1027,7 hPa 0,0 mm 0,0 km/h (0 Bft) S-SW 202 ° 0 min 0,000 mm 0,0 UV-I 0 W/m² -3,6 °C 0,0 km/h (0 Bft)
12.12.2016 23:17 -2,6 °C -2,5 °C 92 % 1027,7 hPa 0,0 mm 0,0 km/h (0 Bft) S-SW 202 ° 0 min 0,000 mm 0,0 UV-I 0 W/m² -3,7 °C 0,0 km/h (0 Bft)
12.12.2016 23:18 -2,6 °C -2,5 °C 92 % 1027,7 hPa 0,0 mm 0,0 km/h (0 Bft) S-SW 202 ° 0 min 0,000 mm 0,0 UV-I 0 W/m² -3,7 °C 0,0 km/h (0 Bft)
12.12.2016 23:19 -2,6 °C -2,6 °C 92 % 1027,8 hPa 0,0 mm 0,0 km/h (0 Bft) S-SW 202 ° 0 min 0,000 mm 0,0 UV-I 0 W/m² -3,7 °C 0,0 km/h (0 Bft)
12.12.2016 23:20 -2,6 °C -2,6 °C 92 % 1027,7 hPa 0,0 mm 0,0 km/h (0 Bft) S-SW 202 ° 0 min 0,000 mm 0,0 UV-I 0 W/m² -3,7 °C 0,0 km/h (0 Bft)
12.12.2016 23:21 -2,6 °C -2,6 °C 92 % 1027,8 hPa 0,0 mm 0,0 km/h (0 Bft) S-SW 202 ° 0 min 0,000 mm 0,0 UV-I 0 W/m² -3,7 °C 0,0 km/h (0 Bft)
12.12.2016 23:22 -2,6 °C -2,6 °C 92 % 1027,7 hPa 0,0 mm 0,0 km/h (0 Bft) S-SW 202 ° 0 min 0,000 mm 0,0 UV-I 0 W/m² -3,7 °C 0,0 km/h (0 Bft)
12.12.2016 23:23 -2,6 °C -2,6 °C 93 % 1027,7 hPa 0,0 mm 0,0 km/h (0 Bft) S-SW 202 ° 0 min 0,000 mm 0,0 UV-I 0 W/m² -3,6 °C 0,0 km/h (0 Bft)
12.12.2016 23:24 -2,6 °C -2,6 °C 93 % 1027,7 hPa 0,0 mm 0,0 km/h (0 Bft) S-SW 202 ° 0 min 0,000 mm 0,0 UV-I 0 W/m² -3,6 °C 0,0 km/h (0 Bft)
12.12.2016 23:25 -2,7 °C -2,6 °C 93 % 1027,7 hPa 0,0 mm 0,0 km/h (0 Bft) S-SW 202 ° 0 min 0,000 mm 0,0 UV-I 0 W/m² -3,7 °C 0,0 km/h (0 Bft)
12.12.2016 23:26 -2,7 °C -2,7 °C 93 % 1027,7 hPa 0,0 mm 0,0 km/h (0 Bft) S-SW 202 ° 0 min 0,000 mm 0,0 UV-I 0 W/m² -3,7 °C 0,0 km/h (0 Bft)
12.12.2016 23:27 -2,7 °C -2,7 °C 93 % 1027,7 hPa 0,0 mm 0,0 km/h (0 Bft) S-SW 202 ° 0 min 0,000 mm 0,0 UV-I 0 W/m² -3,7 °C 0,0 km/h (0 Bft)
12.12.2016 23:28 -2,7 °C -2,7 °C 93 % 1027,7 hPa 0,0 mm 0,0 km/h (0 Bft) S-SW 202 ° 0 min 0,000 mm 0,0 UV-I 0 W/m² -3,7 °C 0,0 km/h (0 Bft)
12.12.2016 23:29 -2,7 °C -2,7 °C 93 % 1027,7 hPa 0,0 mm 0,0 km/h (0 Bft) S-SW 202 ° 0 min 0,000 mm 0,0 UV-I 0 W/m² -3,7 °C 0,0 km/h (0 Bft)
12.12.2016 23:30 -2,7 °C -2,7 °C 93 % 1027,7 hPa 0,0 mm 0,0 km/h (0 Bft) S-SW 202 ° 0 min 0,000 mm 0,0 UV-I 0 W/m² -3,7 °C 0,0 km/h (0 Bft)
12.12.2016 23:31 -2,7 °C -2,7 °C 93 % 1027,7 hPa 0,0 mm 0,0 km/h (0 Bft) S-SW 202 ° 0 min 0,000 mm 0,0 UV-I 0 W/m² -3,7 °C 0,0 km/h (0 Bft)
12.12.2016 23:32 -2,8 °C -2,7 °C 92 % 1027,7 hPa 0,0 mm 0,0 km/h (0 Bft) S-SW 202 ° 0 min 0,000 mm 0,0 UV-I 0 W/m² -3,9 °C 0,0 km/h (0 Bft)
12.12.2016 23:33 -2,8 °C -2,8 °C 92 % 1027,6 hPa 0,0 mm 0,0 km/h (0 Bft) S-SW 202 ° 0 min 0,000 mm 0,0 UV-I 0 W/m² -3,9 °C 0,0 km/h (0 Bft)
12.12.2016 23:34 -2,8 °C -2,8 °C 92 % 1027,6 hPa 0,0 mm 0,0 km/h (0 Bft) S-SW 202 ° 0 min 0,000 mm 0,0 UV-I 0 W/m² -3,9 °C 0,0 km/h (0 Bft)
12.12.2016 23:35 -2,8 °C -2,8 °C 92 % 1027,6 hPa 0,0 mm 0,0 km/h (0 Bft) S-SW 202 ° 0 min 0,000 mm 0,0 UV-I 0 W/m² -3,9 °C 0,0 km/h (0 Bft)
12.12.2016 23:36 -2,8 °C -2,8 °C 92 % 1027,6 hPa 0,0 mm 0,0 km/h (0 Bft) S-SW 202 ° 0 min 0,000 mm 0,0 UV-I 0 W/m² -3,9 °C 0,0 km/h (0 Bft)
12.12.2016 23:37 -2,9 °C -2,8 °C 92 % 1027,6 hPa 0,0 mm 0,0 km/h (0 Bft) S-SW 202 ° 0 min 0,000 mm 0,0 UV-I 0 W/m² -4,0 °C 0,0 km/h (0 Bft)
12.12.2016 23:38 -2,9 °C -2,8 °C 92 % 1027,6 hPa 0,0 mm 0,0 km/h (0 Bft) S-SW 202 ° 0 min 0,000 mm 0,0 UV-I 0 W/m² -4,0 °C 0,0 km/h (0 Bft)
12.12.2016 23:39 -2,9 °C -2,9 °C 92 % 1027,6 hPa 0,0 mm 0,0 km/h (0 Bft) S-SW 202 ° 0 min 0,000 mm 0,0 UV-I 0 W/m² -4,0 °C 0,0 km/h (0 Bft)
12.12.2016 23:40 -2,9 °C -2,9 °C 92 % 1027,6 hPa 0,0 mm 0,0 km/h (0 Bft) S-SW 202 ° 0 min 0,000 mm 0,0 UV-I 0 W/m² -4,0 °C 0,0 km/h (0 Bft)
12.12.2016 23:41 -2,9 °C -2,9 °C 92 % 1027,6 hPa 0,0 mm 0,0 km/h (0 Bft) S-SW 202 ° 0 min 0,000 mm 0,0 UV-I 0 W/m² -4,0 °C 0,0 km/h (0 Bft)
12.12.2016 23:42 -2,9 °C -2,9 °C 92 % 1027,6 hPa 0,0 mm 0,0 km/h (0 Bft) S-SW 202 ° 0 min 0,000 mm 0,0 UV-I 0 W/m² -4,0 °C 0,0 km/h (0 Bft)
12.12.2016 23:43 -3,0 °C -2,9 °C 92 % 1027,6 hPa 0,0 mm 0,0 km/h (0 Bft) S-SW 202 ° 0 min 0,000 mm 0,0 UV-I 0 W/m² -4,1 °C 0,0 km/h (0 Bft)
12.12.2016 23:44 -3,1 °C -3,0 °C 92 % 1027,7 hPa 0,0 mm 0,0 km/h (0 Bft) S-SW 202 ° 0 min 0,000 mm 0,0 UV-I 0 W/m² -4,2 °C 0,0 km/h (0 Bft)
12.12.2016 23:45 -3,0 °C -3,0 °C 92 % 1027,7 hPa 0,0 mm 0,0 km/h (0 Bft) S-SW 202 ° 0 min 0,000 mm 0,0 UV-I 0 W/m² -4,1 °C 0,0 km/h (0 Bft)
12.12.2016 23:46 -3,1 °C -3,0 °C 92 % 1027,7 hPa 0,0 mm 0,0 km/h (0 Bft) S-SW 202 ° 0 min 0,000 mm 0,0 UV-I 0 W/m² -4,2 °C 0,0 km/h (0 Bft)
12.12.2016 23:47 -3,1 °C -3,1 °C 93 % 1027,7 hPa 0,0 mm 0,0 km/h (0 Bft) S-SW 202 ° 0 min 0,000 mm 0,0 UV-I 0 W/m² -4,1 °C 0,0 km/h (0 Bft)
12.12.2016 23:48 -3,1 °C -3,1 °C 93 % 1027,7 hPa 0,0 mm 0,0 km/h (0 Bft) S-SW 202 ° 0 min 0,000 mm 0,0 UV-I 0 W/m² -4,1 °C 0,0 km/h (0 Bft)
12.12.2016 23:49 -3,1 °C -3,1 °C 93 % 1027,7 hPa 0,0 mm 0,0 km/h (0 Bft) S-SW 202 ° 0 min 0,000 mm 0,0 UV-I 0 W/m² -4,1 °C 0,0 km/h (0 Bft)
12.12.2016 23:50 -3,1 °C -3,1 °C 92 % 1027,6 hPa 0,0 mm 0,0 km/h (0 Bft) S-SW 202 ° 0 min 0,000 mm 0,0 UV-I 0 W/m² -4,2 °C 0,0 km/h (0 Bft)
12.12.2016 23:51 -3,1 °C -3,1 °C 92 % 1027,6 hPa 0,0 mm 0,0 km/h (0 Bft) S-SW 202 ° 0 min 0,000 mm 0,0 UV-I 0 W/m² -4,2 °C 0,0 km/h (0 Bft)
12.12.2016 23:52 -3,1 °C -3,1 °C 93 % 1027,5 hPa 0,0 mm 0,0 km/h (0 Bft) S-SW 202 ° 0 min 0,000 mm 0,0 UV-I 0 W/m² -4,1 °C 0,0 km/h (0 Bft)
12.12.2016 23:53 -3,1 °C -3,1 °C 93 % 1027,5 hPa 0,0 mm 0,0 km/h (0 Bft) S-SW 202 ° 0 min 0,000 mm 0,0 UV-I 0 W/m² -4,1 °C 0,0 km/h (0 Bft)
12.12.2016 23:54 -3,1 °C -3,1 °C 93 % 1027,5 hPa 0,0 mm 0,0 km/h (0 Bft) S-SW 202 ° 0 min 0,000 mm 0,0 UV-I 0 W/m² -4,1 °C 0,0 km/h (0 Bft)
12.12.2016 23:55 -3,2 °C -3,1 °C 93 % 1027,5 hPa 0,0 mm 0,0 km/h (0 Bft) S-SW 202 ° 0 min 0,000 mm 0,0 UV-I 0 W/m² -4,2 °C 0,0 km/h (0 Bft)
12.12.2016 23:56 -3,1 °C -3,1 °C 93 % 1027,6 hPa 0,0 mm 0,0 km/h (0 Bft) S-SW 202 ° 0 min 0,000 mm 0,0 UV-I 0 W/m² -4,1 °C 0,0 km/h (0 Bft)
12.12.2016 23:57 -3,2 °C -3,1 °C 93 % 1027,6 hPa 0,0 mm 0,0 km/h (0 Bft) S-SW 202 ° 0 min 0,000 mm 0,0 UV-I 0 W/m² -4,2 °C 0,0 km/h (0 Bft)
12.12.2016 23:58 -3,2 °C -3,1 °C 93 % 1027,6 hPa 0,0 mm 0,0 km/h (0 Bft) S-SW 202 ° 0 min 0,000 mm 0,0 UV-I 0 W/m² -4,2 °C 0,0 km/h (0 Bft)
12.12.2016 23:59 -3,2 °C -3,1 °C 93 % 1027,6 hPa 0,0 mm 0,0 km/h (0 Bft) S-SW 202 ° 0 min 0,000 mm 0,0 UV-I 0 W/m² -4,2 °C 0,0 km/h (0 Bft)
_ Min-Zeit 23:59 23:59 14:52 01:54 - 23:59 - - - - - - 23:51 23:59
Minimum _ -3,2 °C -3,1 °C 80 % 1023,5 hPa - 0,0 km/h (0 Bft) - - - - - - -4,2 °C 0,0 km/h (0 Bft)
_ Max-Zeit 14:38 14:42 23:59 21:25 10:04 06:31 - - 23:59 14:01 13:44 14:03 14:00 07:38
Maximum _ 3,9 °C 3,9 °C 93 % 1027,9 hPa 0,2 mm 17,7 km/h
W-SW (3 Bft)
- - 0 min 0,051 mm 0,6 UV-I 91 W/m² 1,4 °C 27,4 km/h
W (4 Bft)
Durchschnitt _ 1,8 °C 1,8 °C 89 % 1026,0 hPa #1,2 mm 4,6 km/h (1 Bft) W-SW - #0 min. #0,178 mm 0,5 UV-I 15 W/m² 0,2 °C 7,3 km/h (2 Bft)